<?xml version="1.0" encoding="UTF-8" standalone="no" ?>
<gpx xmlns="http://www.topografix.com/GPX/1/1" xmlns:xsi="http://www.w3.org/2001/XMLSchema-instance" xsi:schemaLocation="http://www.topografix.com/GPX/1/1 http://www.topografix.com/GPX/1/1/gpx.xsd" version="1.1" creator="VisuGPX - https://www.visugpx.com">
  <metadata>
    <name>Boucle Vtt en Foret de Fontainebleau</name>
    <desc><![CDATA[Parcours très sportif. Portage de vélo à travers les rochers (10%), pistes ensablées (10%)
]]></desc>
  </metadata>
  <trk>
    <name><![CDATA[Avon]]></name>
    <trkseg>
      <trkpt lat="48.4157" lon="2.72662">
        <ele>116</ele>
        <time>2022-08-31T08:59:19.502Z</time>
      </trkpt>
      <trkpt lat="48.4157" lon="2.72662">
        <ele>116</ele>
        <time>2022-08-31T08:59:20.347Z</time>
      </trkpt>
      <trkpt lat="48.4157" lon="2.72662">
        <ele>115</ele>
        <time>2022-08-31T08:59:25.350Z</time>
      </trkpt>
      <trkpt lat="48.41567" lon="2.72695">
        <ele>116</ele>
        <time>2022-08-31T09:00:50.363Z</time>
      </trkpt>
      <trkpt lat="48.41562" lon="2.72706">
        <ele>117</ele>
        <time>2022-08-31T09:00:55.351Z</time>
      </trkpt>
      <trkpt lat="48.41569" lon="2.72716">
        <ele>118</ele>
        <time>2022-08-31T09:01:02.345Z</time>
      </trkpt>
      <trkpt lat="48.41577" lon="2.72718">
        <ele>118</ele>
        <time>2022-08-31T09:01:08.356Z</time>
      </trkpt>
      <trkpt lat="48.41579" lon="2.72723">
        <ele>119</ele>
        <time>2022-08-31T09:01:25.358Z</time>
      </trkpt>
      <trkpt lat="48.41581" lon="2.72726">
        <ele>118</ele>
        <time>2022-08-31T09:01:31.361Z</time>
      </trkpt>
      <trkpt lat="48.4159" lon="2.72728">
        <ele>116</ele>
        <time>2022-08-31T09:01:57.369Z</time>
      </trkpt>
      <trkpt lat="48.41601" lon="2.7273">
        <ele>116</ele>
        <time>2022-08-31T09:02:00.371Z</time>
      </trkpt>
      <trkpt lat="48.41609" lon="2.72734">
        <ele>116</ele>
        <time>2022-08-31T09:02:02.362Z</time>
      </trkpt>
      <trkpt lat="48.41618" lon="2.72738">
        <ele>116</ele>
        <time>2022-08-31T09:02:04.358Z</time>
      </trkpt>
      <trkpt lat="48.41631" lon="2.72744">
        <ele>115</ele>
        <time>2022-08-31T09:02:08.364Z</time>
      </trkpt>
      <trkpt lat="48.41649" lon="2.72752">
        <ele>115</ele>
        <time>2022-08-31T09:02:13.365Z</time>
      </trkpt>
      <trkpt lat="48.41664" lon="2.72759">
        <ele>115</ele>
        <time>2022-08-31T09:02:17.350Z</time>
      </trkpt>
      <trkpt lat="48.41679" lon="2.72761">
        <ele>115</ele>
        <time>2022-08-31T09:02:22.370Z</time>
      </trkpt>
      <trkpt lat="48.41694" lon="2.7276">
        <ele>116</ele>
        <time>2022-08-31T09:02:27.357Z</time>
      </trkpt>
      <trkpt lat="48.41708" lon="2.72754">
        <ele>116</ele>
        <time>2022-08-31T09:02:31.367Z</time>
      </trkpt>
      <trkpt lat="48.41718" lon="2.72745">
        <ele>116</ele>
        <time>2022-08-31T09:02:35.364Z</time>
      </trkpt>
      <trkpt lat="48.41724" lon="2.72739">
        <ele>117</ele>
        <time>2022-08-31T09:02:42.365Z</time>
      </trkpt>
      <trkpt lat="48.41745" lon="2.7274">
        <ele>127</ele>
        <time>2022-08-31T09:03:41.361Z</time>
      </trkpt>
      <trkpt lat="48.4175" lon="2.72757">
        <ele>126</ele>
        <time>2022-08-31T09:03:44.357Z</time>
      </trkpt>
      <trkpt lat="48.41753" lon="2.7277">
        <ele>126</ele>
        <time>2022-08-31T09:03:46.357Z</time>
      </trkpt>
      <trkpt lat="48.4176" lon="2.72791">
        <ele>126</ele>
        <time>2022-08-31T09:03:49.357Z</time>
      </trkpt>
      <trkpt lat="48.41768" lon="2.72815">
        <ele>126</ele>
        <time>2022-08-31T09:03:54.360Z</time>
      </trkpt>
      <trkpt lat="48.41776" lon="2.72841">
        <ele>126</ele>
        <time>2022-08-31T09:03:59.366Z</time>
      </trkpt>
      <trkpt lat="48.41782" lon="2.72866">
        <ele>126</ele>
        <time>2022-08-31T09:04:04.360Z</time>
      </trkpt>
      <trkpt lat="48.41786" lon="2.72879">
        <ele>126</ele>
        <time>2022-08-31T09:04:11.370Z</time>
      </trkpt>
      <trkpt lat="48.41785" lon="2.7288">
        <ele>126</ele>
        <time>2022-08-31T09:04:13.353Z</time>
      </trkpt>
      <trkpt lat="48.4179" lon="2.72883">
        <ele>126</ele>
        <time>2022-08-31T09:04:21.357Z</time>
      </trkpt>
      <trkpt lat="48.41793" lon="2.72879">
        <ele>125</ele>
        <time>2022-08-31T09:04:27.365Z</time>
      </trkpt>
      <trkpt lat="48.41789" lon="2.72874">
        <ele>125</ele>
        <time>2022-08-31T09:04:32.357Z</time>
      </trkpt>
      <trkpt lat="48.41789" lon="2.72873">
        <ele>126</ele>
        <time>2022-08-31T09:04:46.362Z</time>
      </trkpt>
      <trkpt lat="48.41788" lon="2.72889">
        <ele>128</ele>
        <time>2022-08-31T09:13:32.352Z</time>
      </trkpt>
      <trkpt lat="48.41792" lon="2.72908">
        <ele>128</ele>
        <time>2022-08-31T09:13:34.367Z</time>
      </trkpt>
      <trkpt lat="48.41796" lon="2.72925">
        <ele>128</ele>
        <time>2022-08-31T09:13:36.363Z</time>
      </trkpt>
      <trkpt lat="48.41802" lon="2.72941">
        <ele>128</ele>
        <time>2022-08-31T09:13:38.358Z</time>
      </trkpt>
      <trkpt lat="48.41811" lon="2.72967">
        <ele>127</ele>
        <time>2022-08-31T09:13:41.354Z</time>
      </trkpt>
      <trkpt lat="48.41823" lon="2.73004">
        <ele>127</ele>
        <time>2022-08-31T09:13:45.354Z</time>
      </trkpt>
      <trkpt lat="48.41837" lon="2.73052">
        <ele>126</ele>
        <time>2022-08-31T09:13:50.361Z</time>
      </trkpt>
      <trkpt lat="48.41852" lon="2.73104">
        <ele>125</ele>
        <time>2022-08-31T09:13:55.353Z</time>
      </trkpt>
      <trkpt lat="48.41867" lon="2.73153">
        <ele>123</ele>
        <time>2022-08-31T09:14:00.353Z</time>
      </trkpt>
      <trkpt lat="48.41881" lon="2.73194">
        <ele>121</ele>
        <time>2022-08-31T09:14:06.363Z</time>
      </trkpt>
      <trkpt lat="48.41886" lon="2.73211">
        <ele>118</ele>
        <time>2022-08-31T09:14:14.373Z</time>
      </trkpt>
      <trkpt lat="48.41886" lon="2.73211">
        <ele>117</ele>
        <time>2022-08-31T09:14:16.357Z</time>
      </trkpt>
      <trkpt lat="48.41889" lon="2.7322">
        <ele>115</ele>
        <time>2022-08-31T09:14:22.360Z</time>
      </trkpt>
      <trkpt lat="48.41894" lon="2.73237">
        <ele>114</ele>
        <time>2022-08-31T09:14:25.356Z</time>
      </trkpt>
      <trkpt lat="48.41898" lon="2.73253">
        <ele>113</ele>
        <time>2022-08-31T09:14:27.359Z</time>
      </trkpt>
      <trkpt lat="48.41903" lon="2.7327">
        <ele>113</ele>
        <time>2022-08-31T09:14:29.354Z</time>
      </trkpt>
      <trkpt lat="48.41908" lon="2.7329">
        <ele>112</ele>
        <time>2022-08-31T09:14:30.358Z</time>
      </trkpt>
      <trkpt lat="48.41917" lon="2.73319">
        <ele>111</ele>
        <time>2022-08-31T09:14:33.356Z</time>
      </trkpt>
      <trkpt lat="48.4193" lon="2.73364">
        <ele>110</ele>
        <time>2022-08-31T09:14:37.359Z</time>
      </trkpt>
      <trkpt lat="48.41947" lon="2.73416">
        <ele>109</ele>
        <time>2022-08-31T09:14:42.355Z</time>
      </trkpt>
      <trkpt lat="48.41962" lon="2.73469">
        <ele>107</ele>
        <time>2022-08-31T09:14:47.354Z</time>
      </trkpt>
      <trkpt lat="48.41976" lon="2.73522">
        <ele>105</ele>
        <time>2022-08-31T09:14:52.362Z</time>
      </trkpt>
      <trkpt lat="48.4199" lon="2.73571">
        <ele>104</ele>
        <time>2022-08-31T09:14:57.355Z</time>
      </trkpt>
      <trkpt lat="48.41998" lon="2.7362">
        <ele>102</ele>
        <time>2022-08-31T09:15:03.356Z</time>
      </trkpt>
      <trkpt lat="48.41974" lon="2.7364">
        <ele>100</ele>
        <time>2022-08-31T09:15:08.356Z</time>
      </trkpt>
      <trkpt lat="48.41949" lon="2.73654">
        <ele>98</ele>
        <time>2022-08-31T09:15:13.362Z</time>
      </trkpt>
      <trkpt lat="48.41928" lon="2.73667">
        <ele>97</ele>
        <time>2022-08-31T09:15:17.354Z</time>
      </trkpt>
      <trkpt lat="48.41906" lon="2.73681">
        <ele>95</ele>
        <time>2022-08-31T09:15:21.353Z</time>
      </trkpt>
      <trkpt lat="48.41881" lon="2.73697">
        <ele>94</ele>
        <time>2022-08-31T09:15:26.350Z</time>
      </trkpt>
      <trkpt lat="48.41866" lon="2.73703">
        <ele>93</ele>
        <time>2022-08-31T09:15:34.361Z</time>
      </trkpt>
      <trkpt lat="48.41865" lon="2.73703">
        <ele>93</ele>
        <time>2022-08-31T09:15:36.358Z</time>
      </trkpt>
      <trkpt lat="48.41862" lon="2.73707">
        <ele>93</ele>
        <time>2022-08-31T09:15:47.359Z</time>
      </trkpt>
      <trkpt lat="48.4186" lon="2.73722">
        <ele>94</ele>
        <time>2022-08-31T09:15:57.363Z</time>
      </trkpt>
      <trkpt lat="48.41868" lon="2.73731">
        <ele>95</ele>
        <time>2022-08-31T09:16:08.355Z</time>
      </trkpt>
      <trkpt lat="48.41877" lon="2.73737">
        <ele>96</ele>
        <time>2022-08-31T09:16:11.367Z</time>
      </trkpt>
      <trkpt lat="48.41888" lon="2.7374">
        <ele>96</ele>
        <time>2022-08-31T09:16:14.360Z</time>
      </trkpt>
      <trkpt lat="48.41901" lon="2.73743">
        <ele>96</ele>
        <time>2022-08-31T09:16:17.354Z</time>
      </trkpt>
      <trkpt lat="48.41918" lon="2.73749">
        <ele>96</ele>
        <time>2022-08-31T09:16:21.360Z</time>
      </trkpt>
      <trkpt lat="48.41932" lon="2.73761">
        <ele>95</ele>
        <time>2022-08-31T09:16:26.356Z</time>
      </trkpt>
      <trkpt lat="48.41944" lon="2.73771">
        <ele>95</ele>
        <time>2022-08-31T09:16:31.359Z</time>
      </trkpt>
      <trkpt lat="48.41955" lon="2.73778">
        <ele>95</ele>
        <time>2022-08-31T09:16:35.359Z</time>
      </trkpt>
      <trkpt lat="48.41965" lon="2.73785">
        <ele>94</ele>
        <time>2022-08-31T09:16:38.374Z</time>
      </trkpt>
      <trkpt lat="48.41976" lon="2.73799">
        <ele>94</ele>
        <time>2022-08-31T09:16:42.360Z</time>
      </trkpt>
      <trkpt lat="48.41989" lon="2.73813">
        <ele>94</ele>
        <time>2022-08-31T09:16:46.365Z</time>
      </trkpt>
      <trkpt lat="48.42003" lon="2.73826">
        <ele>93</ele>
        <time>2022-08-31T09:16:50.359Z</time>
      </trkpt>
      <trkpt lat="48.42014" lon="2.73836">
        <ele>93</ele>
        <time>2022-08-31T09:16:57.355Z</time>
      </trkpt>
      <trkpt lat="48.42024" lon="2.73842">
        <ele>94</ele>
        <time>2022-08-31T09:17:09.357Z</time>
      </trkpt>
      <trkpt lat="48.42032" lon="2.73849">
        <ele>94</ele>
        <time>2022-08-31T09:17:12.361Z</time>
      </trkpt>
      <trkpt lat="48.42041" lon="2.73857">
        <ele>94</ele>
        <time>2022-08-31T09:17:15.356Z</time>
      </trkpt>
      <trkpt lat="48.42051" lon="2.73867">
        <ele>94</ele>
        <time>2022-08-31T09:17:18.357Z</time>
      </trkpt>
      <trkpt lat="48.42062" lon="2.73878">
        <ele>94</ele>
        <time>2022-08-31T09:17:21.356Z</time>
      </trkpt>
      <trkpt lat="48.42078" lon="2.73892">
        <ele>94</ele>
        <time>2022-08-31T09:17:25.358Z</time>
      </trkpt>
      <trkpt lat="48.42095" lon="2.73904">
        <ele>94</ele>
        <time>2022-08-31T09:17:29.367Z</time>
      </trkpt>
      <trkpt lat="48.42115" lon="2.73918">
        <ele>94</ele>
        <time>2022-08-31T09:17:34.363Z</time>
      </trkpt>
      <trkpt lat="48.42132" lon="2.73932">
        <ele>94</ele>
        <time>2022-08-31T09:17:38.353Z</time>
      </trkpt>
      <trkpt lat="48.42149" lon="2.73949">
        <ele>93</ele>
        <time>2022-08-31T09:17:43.350Z</time>
      </trkpt>
      <trkpt lat="48.42166" lon="2.73963">
        <ele>93</ele>
        <time>2022-08-31T09:17:47.358Z</time>
      </trkpt>
      <trkpt lat="48.42186" lon="2.73977">
        <ele>92</ele>
        <time>2022-08-31T09:17:52.360Z</time>
      </trkpt>
      <trkpt lat="48.42204" lon="2.73987">
        <ele>92</ele>
        <time>2022-08-31T09:17:56.356Z</time>
      </trkpt>
      <trkpt lat="48.42223" lon="2.73997">
        <ele>92</ele>
        <time>2022-08-31T09:18:01.358Z</time>
      </trkpt>
      <trkpt lat="48.4224" lon="2.7401">
        <ele>91</ele>
        <time>2022-08-31T09:18:05.365Z</time>
      </trkpt>
      <trkpt lat="48.42257" lon="2.74024">
        <ele>91</ele>
        <time>2022-08-31T09:18:08.350Z</time>
      </trkpt>
      <trkpt lat="48.42277" lon="2.74044">
        <ele>91</ele>
        <time>2022-08-31T09:18:12.360Z</time>
      </trkpt>
      <trkpt lat="48.42298" lon="2.74062">
        <ele>91</ele>
        <time>2022-08-31T09:18:17.357Z</time>
      </trkpt>
      <trkpt lat="48.42319" lon="2.74079">
        <ele>90</ele>
        <time>2022-08-31T09:18:21.361Z</time>
      </trkpt>
      <trkpt lat="48.42336" lon="2.74099">
        <ele>89</ele>
        <time>2022-08-31T09:18:26.365Z</time>
      </trkpt>
      <trkpt lat="48.42354" lon="2.74117">
        <ele>88</ele>
        <time>2022-08-31T09:18:32.361Z</time>
      </trkpt>
      <trkpt lat="48.42369" lon="2.74132">
        <ele>88</ele>
        <time>2022-08-31T09:18:36.354Z</time>
      </trkpt>
      <trkpt lat="48.42384" lon="2.74148">
        <ele>88</ele>
        <time>2022-08-31T09:18:39.358Z</time>
      </trkpt>
      <trkpt lat="48.42402" lon="2.74173">
        <ele>87</ele>
        <time>2022-08-31T09:18:43.358Z</time>
      </trkpt>
      <trkpt lat="48.42423" lon="2.74204">
        <ele>87</ele>
        <time>2022-08-31T09:18:49.357Z</time>
      </trkpt>
      <trkpt lat="48.42435" lon="2.74236">
        <ele>88</ele>
        <time>2022-08-31T09:18:54.351Z</time>
      </trkpt>
      <trkpt lat="48.42446" lon="2.7426">
        <ele>88</ele>
        <time>2022-08-31T09:19:00.358Z</time>
      </trkpt>
      <trkpt lat="48.42447" lon="2.74262">
        <ele>88</ele>
        <time>2022-08-31T09:19:02.363Z</time>
      </trkpt>
      <trkpt lat="48.4245" lon="2.74269">
        <ele>88</ele>
        <time>2022-08-31T09:19:10.356Z</time>
      </trkpt>
      <trkpt lat="48.42454" lon="2.74284">
        <ele>89</ele>
        <time>2022-08-31T09:19:14.355Z</time>
      </trkpt>
      <trkpt lat="48.42458" lon="2.74293">
        <ele>89</ele>
        <time>2022-08-31T09:19:25.360Z</time>
      </trkpt>
      <trkpt lat="48.42455" lon="2.74286">
        <ele>88</ele>
        <time>2022-08-31T09:19:32.360Z</time>
      </trkpt>
      <trkpt lat="48.42456" lon="2.74271">
        <ele>88</ele>
        <time>2022-08-31T09:19:38.364Z</time>
      </trkpt>
      <trkpt lat="48.42464" lon="2.74264">
        <ele>87</ele>
        <time>2022-08-31T09:19:43.350Z</time>
      </trkpt>
      <trkpt lat="48.42474" lon="2.74264">
        <ele>87</ele>
        <time>2022-08-31T09:19:46.366Z</time>
      </trkpt>
      <trkpt lat="48.42486" lon="2.74266">
        <ele>87</ele>
        <time>2022-08-31T09:19:50.360Z</time>
      </trkpt>
      <trkpt lat="48.42496" lon="2.7426">
        <ele>87</ele>
        <time>2022-08-31T09:19:53.358Z</time>
      </trkpt>
      <trkpt lat="48.42509" lon="2.74249">
        <ele>87</ele>
        <time>2022-08-31T09:19:57.360Z</time>
      </trkpt>
      <trkpt lat="48.42522" lon="2.74235">
        <ele>87</ele>
        <time>2022-08-31T09:20:01.357Z</time>
      </trkpt>
      <trkpt lat="48.42534" lon="2.74221">
        <ele>88</ele>
        <time>2022-08-31T09:20:05.361Z</time>
      </trkpt>
      <trkpt lat="48.42545" lon="2.74204">
        <ele>88</ele>
        <time>2022-08-31T09:20:10.357Z</time>
      </trkpt>
      <trkpt lat="48.42554" lon="2.74216">
        <ele>89</ele>
        <time>2022-08-31T09:20:15.362Z</time>
      </trkpt>
      <trkpt lat="48.42561" lon="2.74235">
        <ele>89</ele>
        <time>2022-08-31T09:20:18.363Z</time>
      </trkpt>
      <trkpt lat="48.42569" lon="2.74257">
        <ele>89</ele>
        <time>2022-08-31T09:20:21.358Z</time>
      </trkpt>
      <trkpt lat="48.42578" lon="2.74278">
        <ele>90</ele>
        <time>2022-08-31T09:20:24.350Z</time>
      </trkpt>
      <trkpt lat="48.42594" lon="2.74303">
        <ele>90</ele>
        <time>2022-08-31T09:20:28.359Z</time>
      </trkpt>
      <trkpt lat="48.4262" lon="2.74318">
        <ele>90</ele>
        <time>2022-08-31T09:20:33.357Z</time>
      </trkpt>
      <trkpt lat="48.42646" lon="2.74321">
        <ele>90</ele>
        <time>2022-08-31T09:20:37.358Z</time>
      </trkpt>
      <trkpt lat="48.42676" lon="2.74317">
        <ele>90</ele>
        <time>2022-08-31T09:20:42.354Z</time>
      </trkpt>
      <trkpt lat="48.42704" lon="2.74313">
        <ele>90</ele>
        <time>2022-08-31T09:20:47.358Z</time>
      </trkpt>
      <trkpt lat="48.4273" lon="2.74315">
        <ele>90</ele>
        <time>2022-08-31T09:20:52.356Z</time>
      </trkpt>
      <trkpt lat="48.42759" lon="2.74309">
        <ele>90</ele>
        <time>2022-08-31T09:20:57.354Z</time>
      </trkpt>
      <trkpt lat="48.42784" lon="2.74301">
        <ele>90</ele>
        <time>2022-08-31T09:21:01.359Z</time>
      </trkpt>
      <trkpt lat="48.42811" lon="2.74299">
        <ele>91</ele>
        <time>2022-08-31T09:21:06.346Z</time>
      </trkpt>
      <trkpt lat="48.42837" lon="2.74302">
        <ele>91</ele>
        <time>2022-08-31T09:21:11.356Z</time>
      </trkpt>
      <trkpt lat="48.42859" lon="2.74299">
        <ele>92</ele>
        <time>2022-08-31T09:21:15.359Z</time>
      </trkpt>
      <trkpt lat="48.42884" lon="2.74304">
        <ele>93</ele>
        <time>2022-08-31T09:21:19.350Z</time>
      </trkpt>
      <trkpt lat="48.42908" lon="2.74326">
        <ele>93</ele>
        <time>2022-08-31T09:21:24.355Z</time>
      </trkpt>
      <trkpt lat="48.42926" lon="2.74359">
        <ele>94</ele>
        <time>2022-08-31T09:21:29.358Z</time>
      </trkpt>
      <trkpt lat="48.42944" lon="2.74388">
        <ele>94</ele>
        <time>2022-08-31T09:21:34.345Z</time>
      </trkpt>
      <trkpt lat="48.42951" lon="2.74424">
        <ele>94</ele>
        <time>2022-08-31T09:21:39.356Z</time>
      </trkpt>
      <trkpt lat="48.42955" lon="2.74461">
        <ele>94</ele>
        <time>2022-08-31T09:21:44.346Z</time>
      </trkpt>
      <trkpt lat="48.42957" lon="2.745">
        <ele>95</ele>
        <time>2022-08-31T09:21:49.357Z</time>
      </trkpt>
      <trkpt lat="48.42958" lon="2.7454">
        <ele>95</ele>
        <time>2022-08-31T09:21:54.354Z</time>
      </trkpt>
      <trkpt lat="48.4296" lon="2.74574">
        <ele>95</ele>
        <time>2022-08-31T09:21:58.353Z</time>
      </trkpt>
      <trkpt lat="48.42961" lon="2.7461">
        <ele>94</ele>
        <time>2022-08-31T09:22:02.349Z</time>
      </trkpt>
      <trkpt lat="48.42963" lon="2.74654">
        <ele>94</ele>
        <time>2022-08-31T09:22:07.356Z</time>
      </trkpt>
      <trkpt lat="48.42966" lon="2.74692">
        <ele>93</ele>
        <time>2022-08-31T09:22:12.360Z</time>
      </trkpt>
      <trkpt lat="48.42959" lon="2.74724">
        <ele>93</ele>
        <time>2022-08-31T09:22:18.355Z</time>
      </trkpt>
      <trkpt lat="48.42974" lon="2.74731">
        <ele>92</ele>
        <time>2022-08-31T09:22:23.365Z</time>
      </trkpt>
      <trkpt lat="48.4298" lon="2.74712">
        <ele>91</ele>
        <time>2022-08-31T09:22:28.357Z</time>
      </trkpt>
      <trkpt lat="48.42981" lon="2.74691">
        <ele>90</ele>
        <time>2022-08-31T09:22:32.357Z</time>
      </trkpt>
      <trkpt lat="48.42983" lon="2.7467">
        <ele>89</ele>
        <time>2022-08-31T09:22:36.356Z</time>
      </trkpt>
      <trkpt lat="48.42992" lon="2.74653">
        <ele>88</ele>
        <time>2022-08-31T09:22:41.359Z</time>
      </trkpt>
      <trkpt lat="48.43005" lon="2.74652">
        <ele>87</ele>
        <time>2022-08-31T09:22:46.361Z</time>
      </trkpt>
      <trkpt lat="48.43016" lon="2.74653">
        <ele>86</ele>
        <time>2022-08-31T09:22:49.368Z</time>
      </trkpt>
      <trkpt lat="48.43025" lon="2.74654">
        <ele>85</ele>
        <time>2022-08-31T09:22:55.354Z</time>
      </trkpt>
      <trkpt lat="48.43016" lon="2.74649">
        <ele>83</ele>
        <time>2022-08-31T09:23:07.357Z</time>
      </trkpt>
      <trkpt lat="48.43006" lon="2.74648">
        <ele>83</ele>
        <time>2022-08-31T09:23:11.352Z</time>
      </trkpt>
      <trkpt lat="48.42995" lon="2.74648">
        <ele>83</ele>
        <time>2022-08-31T09:23:15.358Z</time>
      </trkpt>
      <trkpt lat="48.42987" lon="2.74642">
        <ele>83</ele>
        <time>2022-08-31T09:23:21.362Z</time>
      </trkpt>
      <trkpt lat="48.42976" lon="2.74638">
        <ele>83</ele>
        <time>2022-08-31T09:23:25.353Z</time>
      </trkpt>
      <trkpt lat="48.42964" lon="2.74646">
        <ele>83</ele>
        <time>2022-08-31T09:23:28.356Z</time>
      </trkpt>
      <trkpt lat="48.42955" lon="2.7465">
        <ele>84</ele>
        <time>2022-08-31T09:23:30.354Z</time>
      </trkpt>
      <trkpt lat="48.42944" lon="2.74655">
        <ele>84</ele>
        <time>2022-08-31T09:23:34.355Z</time>
      </trkpt>
      <trkpt lat="48.42928" lon="2.74657">
        <ele>85</ele>
        <time>2022-08-31T09:23:38.365Z</time>
      </trkpt>
      <trkpt lat="48.42912" lon="2.74663">
        <ele>86</ele>
        <time>2022-08-31T09:23:42.365Z</time>
      </trkpt>
      <trkpt lat="48.42897" lon="2.74669">
        <ele>86</ele>
        <time>2022-08-31T09:23:45.358Z</time>
      </trkpt>
      <trkpt lat="48.42877" lon="2.74675">
        <ele>87</ele>
        <time>2022-08-31T09:23:49.363Z</time>
      </trkpt>
      <trkpt lat="48.42857" lon="2.74687">
        <ele>87</ele>
        <time>2022-08-31T09:23:54.352Z</time>
      </trkpt>
      <trkpt lat="48.42836" lon="2.74696">
        <ele>87</ele>
        <time>2022-08-31T09:23:59.354Z</time>
      </trkpt>
      <trkpt lat="48.42816" lon="2.74699">
        <ele>87</ele>
        <time>2022-08-31T09:24:04.361Z</time>
      </trkpt>
      <trkpt lat="48.42799" lon="2.74699">
        <ele>87</ele>
        <time>2022-08-31T09:24:08.354Z</time>
      </trkpt>
      <trkpt lat="48.42779" lon="2.74701">
        <ele>86</ele>
        <time>2022-08-31T09:24:13.342Z</time>
      </trkpt>
      <trkpt lat="48.42757" lon="2.74705">
        <ele>86</ele>
        <time>2022-08-31T09:24:17.354Z</time>
      </trkpt>
      <trkpt lat="48.42737" lon="2.74707">
        <ele>85</ele>
        <time>2022-08-31T09:24:22.357Z</time>
      </trkpt>
      <trkpt lat="48.42713" lon="2.74705">
        <ele>84</ele>
        <time>2022-08-31T09:24:27.353Z</time>
      </trkpt>
      <trkpt lat="48.42691" lon="2.74707">
        <ele>84</ele>
        <time>2022-08-31T09:24:32.363Z</time>
      </trkpt>
      <trkpt lat="48.42668" lon="2.7471">
        <ele>83</ele>
        <time>2022-08-31T09:24:37.359Z</time>
      </trkpt>
      <trkpt lat="48.42649" lon="2.74713">
        <ele>83</ele>
        <time>2022-08-31T09:24:41.358Z</time>
      </trkpt>
      <trkpt lat="48.42629" lon="2.74715">
        <ele>83</ele>
        <time>2022-08-31T09:24:46.350Z</time>
      </trkpt>
      <trkpt lat="48.4261" lon="2.74721">
        <ele>83</ele>
        <time>2022-08-31T09:24:52.346Z</time>
      </trkpt>
      <trkpt lat="48.42595" lon="2.74721">
        <ele>83</ele>
        <time>2022-08-31T09:24:57.355Z</time>
      </trkpt>
      <trkpt lat="48.42582" lon="2.74719">
        <ele>84</ele>
        <time>2022-08-31T09:25:02.353Z</time>
      </trkpt>
      <trkpt lat="48.4257" lon="2.74719">
        <ele>84</ele>
        <time>2022-08-31T09:25:05.362Z</time>
      </trkpt>
      <trkpt lat="48.42557" lon="2.74719">
        <ele>84</ele>
        <time>2022-08-31T09:25:08.364Z</time>
      </trkpt>
      <trkpt lat="48.42543" lon="2.74721">
        <ele>84</ele>
        <time>2022-08-31T09:25:12.354Z</time>
      </trkpt>
      <trkpt lat="48.42527" lon="2.74723">
        <ele>84</ele>
        <time>2022-08-31T09:25:16.360Z</time>
      </trkpt>
      <trkpt lat="48.42508" lon="2.74724">
        <ele>85</ele>
        <time>2022-08-31T09:25:20.358Z</time>
      </trkpt>
      <trkpt lat="48.4249" lon="2.74727">
        <ele>85</ele>
        <time>2022-08-31T09:25:24.364Z</time>
      </trkpt>
      <trkpt lat="48.4247" lon="2.74729">
        <ele>85</ele>
        <time>2022-08-31T09:25:28.360Z</time>
      </trkpt>
      <trkpt lat="48.42447" lon="2.74732">
        <ele>85</ele>
        <time>2022-08-31T09:25:33.353Z</time>
      </trkpt>
      <trkpt lat="48.42424" lon="2.74728">
        <ele>85</ele>
        <time>2022-08-31T09:25:38.360Z</time>
      </trkpt>
      <trkpt lat="48.42403" lon="2.74723">
        <ele>85</ele>
        <time>2022-08-31T09:25:43.360Z</time>
      </trkpt>
      <trkpt lat="48.42385" lon="2.74721">
        <ele>85</ele>
        <time>2022-08-31T09:25:47.355Z</time>
      </trkpt>
      <trkpt lat="48.42367" lon="2.7472">
        <ele>84</ele>
        <time>2022-08-31T09:25:51.359Z</time>
      </trkpt>
      <trkpt lat="48.42349" lon="2.7472">
        <ele>84</ele>
        <time>2022-08-31T09:25:55.359Z</time>
      </trkpt>
      <trkpt lat="48.42329" lon="2.74721">
        <ele>83</ele>
        <time>2022-08-31T09:26:00.366Z</time>
      </trkpt>
      <trkpt lat="48.42309" lon="2.74723">
        <ele>83</ele>
        <time>2022-08-31T09:26:05.360Z</time>
      </trkpt>
      <trkpt lat="48.4229" lon="2.74727">
        <ele>82</ele>
        <time>2022-08-31T09:26:10.360Z</time>
      </trkpt>
      <trkpt lat="48.42275" lon="2.7473">
        <ele>82</ele>
        <time>2022-08-31T09:26:14.362Z</time>
      </trkpt>
      <trkpt lat="48.42259" lon="2.74734">
        <ele>82</ele>
        <time>2022-08-31T09:26:19.352Z</time>
      </trkpt>
      <trkpt lat="48.42245" lon="2.74737">
        <ele>81</ele>
        <time>2022-08-31T09:26:23.361Z</time>
      </trkpt>
      <trkpt lat="48.4223" lon="2.74739">
        <ele>81</ele>
        <time>2022-08-31T09:26:27.361Z</time>
      </trkpt>
      <trkpt lat="48.42215" lon="2.74744">
        <ele>81</ele>
        <time>2022-08-31T09:26:30.358Z</time>
      </trkpt>
      <trkpt lat="48.42204" lon="2.7475">
        <ele>82</ele>
        <time>2022-08-31T09:26:36.360Z</time>
      </trkpt>
      <trkpt lat="48.42202" lon="2.74734">
        <ele>82</ele>
        <time>2022-08-31T09:26:43.357Z</time>
      </trkpt>
      <trkpt lat="48.42197" lon="2.74721">
        <ele>83</ele>
        <time>2022-08-31T09:26:49.360Z</time>
      </trkpt>
      <trkpt lat="48.42196" lon="2.7472">
        <ele>83</ele>
        <time>2022-08-31T09:26:53.361Z</time>
      </trkpt>
      <trkpt lat="48.42199" lon="2.74718">
        <ele>83</ele>
        <time>2022-08-31T09:27:04.359Z</time>
      </trkpt>
      <trkpt lat="48.422" lon="2.74714">
        <ele>84</ele>
        <time>2022-08-31T09:27:12.352Z</time>
      </trkpt>
      <trkpt lat="48.42203" lon="2.74719">
        <ele>86</ele>
        <time>2022-08-31T09:28:12.363Z</time>
      </trkpt>
      <trkpt lat="48.42203" lon="2.74723">
        <ele>85</ele>
        <time>2022-08-31T09:28:19.354Z</time>
      </trkpt>
      <trkpt lat="48.42204" lon="2.74739">
        <ele>85</ele>
        <time>2022-08-31T09:28:26.357Z</time>
      </trkpt>
      <trkpt lat="48.42202" lon="2.74755">
        <ele>85</ele>
        <time>2022-08-31T09:28:31.357Z</time>
      </trkpt>
      <trkpt lat="48.42204" lon="2.7477">
        <ele>84</ele>
        <time>2022-08-31T09:28:36.358Z</time>
      </trkpt>
      <trkpt lat="48.42205" lon="2.74784">
        <ele>84</ele>
        <time>2022-08-31T09:28:44.349Z</time>
      </trkpt>
      <trkpt lat="48.42205" lon="2.74784">
        <ele>84</ele>
        <time>2022-08-31T09:28:45.364Z</time>
      </trkpt>
      <trkpt lat="48.42207" lon="2.74809">
        <ele>87</ele>
        <time>2022-08-31T09:29:32.348Z</time>
      </trkpt>
      <trkpt lat="48.4221" lon="2.74826">
        <ele>87</ele>
        <time>2022-08-31T09:29:36.356Z</time>
      </trkpt>
      <trkpt lat="48.42211" lon="2.7484">
        <ele>88</ele>
        <time>2022-08-31T09:29:39.360Z</time>
      </trkpt>
      <trkpt lat="48.42213" lon="2.74855">
        <ele>88</ele>
        <time>2022-08-31T09:29:42.354Z</time>
      </trkpt>
      <trkpt lat="48.42214" lon="2.74872">
        <ele>89</ele>
        <time>2022-08-31T09:29:47.362Z</time>
      </trkpt>
      <trkpt lat="48.42214" lon="2.74871">
        <ele>90</ele>
        <time>2022-08-31T09:29:52.357Z</time>
      </trkpt>
      <trkpt lat="48.42215" lon="2.74882">
        <ele>92</ele>
        <time>2022-08-31T09:30:43.360Z</time>
      </trkpt>
      <trkpt lat="48.42212" lon="2.74898">
        <ele>92</ele>
        <time>2022-08-31T09:30:48.357Z</time>
      </trkpt>
      <trkpt lat="48.42202" lon="2.749">
        <ele>92</ele>
        <time>2022-08-31T09:30:55.362Z</time>
      </trkpt>
      <trkpt lat="48.42193" lon="2.74897">
        <ele>92</ele>
        <time>2022-08-31T09:30:59.356Z</time>
      </trkpt>
      <trkpt lat="48.42187" lon="2.74901">
        <ele>92</ele>
        <time>2022-08-31T09:31:07.360Z</time>
      </trkpt>
      <trkpt lat="48.42188" lon="2.74914">
        <ele>93</ele>
        <time>2022-08-31T09:31:46.395Z</time>
      </trkpt>
      <trkpt lat="48.42199" lon="2.74913">
        <ele>92</ele>
        <time>2022-08-31T09:31:51.351Z</time>
      </trkpt>
      <trkpt lat="48.42208" lon="2.74905">
        <ele>92</ele>
        <time>2022-08-31T09:31:55.348Z</time>
      </trkpt>
      <trkpt lat="48.42216" lon="2.749">
        <ele>92</ele>
        <time>2022-08-31T09:31:59.350Z</time>
      </trkpt>
      <trkpt lat="48.42227" lon="2.749">
        <ele>91</ele>
        <time>2022-08-31T09:32:03.397Z</time>
      </trkpt>
      <trkpt lat="48.42238" lon="2.749">
        <ele>91</ele>
        <time>2022-08-31T09:32:07.353Z</time>
      </trkpt>
      <trkpt lat="48.42249" lon="2.74896">
        <ele>90</ele>
        <time>2022-08-31T09:32:11.352Z</time>
      </trkpt>
      <trkpt lat="48.42261" lon="2.74894">
        <ele>89</ele>
        <time>2022-08-31T09:32:15.399Z</time>
      </trkpt>
      <trkpt lat="48.4227" lon="2.74892">
        <ele>89</ele>
        <time>2022-08-31T09:32:19.351Z</time>
      </trkpt>
      <trkpt lat="48.42282" lon="2.7489">
        <ele>88</ele>
        <time>2022-08-31T09:32:23.355Z</time>
      </trkpt>
      <trkpt lat="48.42293" lon="2.74891">
        <ele>88</ele>
        <time>2022-08-31T09:32:27.354Z</time>
      </trkpt>
      <trkpt lat="48.42295" lon="2.74904">
        <ele>87</ele>
        <time>2022-08-31T09:32:33.352Z</time>
      </trkpt>
      <trkpt lat="48.42285" lon="2.74908">
        <ele>87</ele>
        <time>2022-08-31T09:32:38.348Z</time>
      </trkpt>
      <trkpt lat="48.42279" lon="2.7491">
        <ele>89</ele>
        <time>2022-08-31T09:32:56.344Z</time>
      </trkpt>
      <trkpt lat="48.42294" lon="2.74904">
        <ele>91</ele>
        <time>2022-08-31T09:33:26.393Z</time>
      </trkpt>
      <trkpt lat="48.42291" lon="2.74889">
        <ele>92</ele>
        <time>2022-08-31T09:33:31.340Z</time>
      </trkpt>
      <trkpt lat="48.4228" lon="2.74891">
        <ele>92</ele>
        <time>2022-08-31T09:33:34.347Z</time>
      </trkpt>
      <trkpt lat="48.42269" lon="2.74892">
        <ele>92</ele>
        <time>2022-08-31T09:33:37.396Z</time>
      </trkpt>
      <trkpt lat="48.42255" lon="2.74895">
        <ele>92</ele>
        <time>2022-08-31T09:33:41.358Z</time>
      </trkpt>
      <trkpt lat="48.42241" lon="2.74897">
        <ele>92</ele>
        <time>2022-08-31T09:33:45.348Z</time>
      </trkpt>
      <trkpt lat="48.42228" lon="2.74899">
        <ele>92</ele>
        <time>2022-08-31T09:33:49.340Z</time>
      </trkpt>
      <trkpt lat="48.42215" lon="2.74896">
        <ele>92</ele>
        <time>2022-08-31T09:33:54.391Z</time>
      </trkpt>
      <trkpt lat="48.42213" lon="2.74893">
        <ele>92</ele>
        <time>2022-08-31T09:33:59.344Z</time>
      </trkpt>
      <trkpt lat="48.42212" lon="2.74888">
        <ele>93</ele>
        <time>2022-08-31T09:34:05.350Z</time>
      </trkpt>
      <trkpt lat="48.42213" lon="2.74872">
        <ele>93</ele>
        <time>2022-08-31T09:34:10.343Z</time>
      </trkpt>
      <trkpt lat="48.42213" lon="2.74857">
        <ele>93</ele>
        <time>2022-08-31T09:34:13.348Z</time>
      </trkpt>
      <trkpt lat="48.42212" lon="2.74842">
        <ele>93</ele>
        <time>2022-08-31T09:34:16.347Z</time>
      </trkpt>
      <trkpt lat="48.4221" lon="2.74826">
        <ele>93</ele>
        <time>2022-08-31T09:34:19.348Z</time>
      </trkpt>
      <trkpt lat="48.42208" lon="2.74804">
        <ele>93</ele>
        <time>2022-08-31T09:34:23.355Z</time>
      </trkpt>
      <trkpt lat="48.42205" lon="2.74781">
        <ele>93</ele>
        <time>2022-08-31T09:34:28.346Z</time>
      </trkpt>
      <trkpt lat="48.42203" lon="2.7476">
        <ele>93</ele>
        <time>2022-08-31T09:34:33.395Z</time>
      </trkpt>
      <trkpt lat="48.42208" lon="2.74746">
        <ele>93</ele>
        <time>2022-08-31T09:34:38.346Z</time>
      </trkpt>
      <trkpt lat="48.42209" lon="2.74746">
        <ele>93</ele>
        <time>2022-08-31T09:34:41.354Z</time>
      </trkpt>
      <trkpt lat="48.42203" lon="2.74754">
        <ele>87</ele>
        <time>2022-08-31T09:36:06.354Z</time>
      </trkpt>
      <trkpt lat="48.42204" lon="2.74772">
        <ele>87</ele>
        <time>2022-08-31T09:36:10.368Z</time>
      </trkpt>
      <trkpt lat="48.42205" lon="2.74786">
        <ele>87</ele>
        <time>2022-08-31T09:36:13.353Z</time>
      </trkpt>
      <trkpt lat="48.42207" lon="2.74805">
        <ele>86</ele>
        <time>2022-08-31T09:36:16.362Z</time>
      </trkpt>
      <trkpt lat="48.42209" lon="2.74824">
        <ele>86</ele>
        <time>2022-08-31T09:36:19.358Z</time>
      </trkpt>
      <trkpt lat="48.42212" lon="2.7485">
        <ele>86</ele>
        <time>2022-08-31T09:36:23.353Z</time>
      </trkpt>
      <trkpt lat="48.42213" lon="2.7488">
        <ele>86</ele>
        <time>2022-08-31T09:36:28.347Z</time>
      </trkpt>
      <trkpt lat="48.42214" lon="2.74902">
        <ele>86</ele>
        <time>2022-08-31T09:36:34.349Z</time>
      </trkpt>
      <trkpt lat="48.42218" lon="2.74921">
        <ele>85</ele>
        <time>2022-08-31T09:36:38.351Z</time>
      </trkpt>
      <trkpt lat="48.42219" lon="2.74936">
        <ele>85</ele>
        <time>2022-08-31T09:36:41.336Z</time>
      </trkpt>
      <trkpt lat="48.4222" lon="2.74956">
        <ele>85</ele>
        <time>2022-08-31T09:36:45.357Z</time>
      </trkpt>
      <trkpt lat="48.42221" lon="2.74978">
        <ele>85</ele>
        <time>2022-08-31T09:36:50.361Z</time>
      </trkpt>
      <trkpt lat="48.4222" lon="2.74984">
        <ele>85</ele>
        <time>2022-08-31T09:36:56.363Z</time>
      </trkpt>
      <trkpt lat="48.42245" lon="2.74991">
        <ele>84</ele>
        <time>2022-08-31T09:37:08.361Z</time>
      </trkpt>
      <trkpt lat="48.42258" lon="2.7499">
        <ele>84</ele>
        <time>2022-08-31T09:37:11.358Z</time>
      </trkpt>
      <trkpt lat="48.42275" lon="2.74987">
        <ele>84</ele>
        <time>2022-08-31T09:37:15.356Z</time>
      </trkpt>
      <trkpt lat="48.42292" lon="2.74985">
        <ele>84</ele>
        <time>2022-08-31T09:37:19.351Z</time>
      </trkpt>
      <trkpt lat="48.42289" lon="2.7499">
        <ele>87</ele>
        <time>2022-08-31T09:37:50.354Z</time>
      </trkpt>
      <trkpt lat="48.42293" lon="2.74987">
        <ele>90</ele>
        <time>2022-08-31T09:39:35.350Z</time>
      </trkpt>
      <trkpt lat="48.42304" lon="2.74985">
        <ele>90</ele>
        <time>2022-08-31T09:39:39.348Z</time>
      </trkpt>
      <trkpt lat="48.42314" lon="2.74984">
        <ele>90</ele>
        <time>2022-08-31T09:39:42.351Z</time>
      </trkpt>
      <trkpt lat="48.42324" lon="2.74986">
        <ele>90</ele>
        <time>2022-08-31T09:39:45.341Z</time>
      </trkpt>
      <trkpt lat="48.42333" lon="2.74999">
        <ele>90</ele>
        <time>2022-08-31T09:39:48.351Z</time>
      </trkpt>
      <trkpt lat="48.4234" lon="2.75024">
        <ele>91</ele>
        <time>2022-08-31T09:39:53.356Z</time>
      </trkpt>
      <trkpt lat="48.42345" lon="2.75048">
        <ele>92</ele>
        <time>2022-08-31T09:39:57.349Z</time>
      </trkpt>
      <trkpt lat="48.42348" lon="2.75076">
        <ele>92</ele>
        <time>2022-08-31T09:40:02.348Z</time>
      </trkpt>
      <trkpt lat="48.42355" lon="2.75097">
        <ele>94</ele>
        <time>2022-08-31T09:40:08.355Z</time>
      </trkpt>
      <trkpt lat="48.42366" lon="2.75101">
        <ele>95</ele>
        <time>2022-08-31T09:40:12.365Z</time>
      </trkpt>
      <trkpt lat="48.42374" lon="2.75113">
        <ele>95</ele>
        <time>2022-08-31T09:40:16.355Z</time>
      </trkpt>
      <trkpt lat="48.42369" lon="2.75125">
        <ele>97</ele>
        <time>2022-08-31T09:40:25.364Z</time>
      </trkpt>
      <trkpt lat="48.42373" lon="2.75141">
        <ele>98</ele>
        <time>2022-08-31T09:40:32.355Z</time>
      </trkpt>
      <trkpt lat="48.42372" lon="2.75158">
        <ele>98</ele>
        <time>2022-08-31T09:40:36.364Z</time>
      </trkpt>
      <trkpt lat="48.4237" lon="2.75172">
        <ele>98</ele>
        <time>2022-08-31T09:40:39.362Z</time>
      </trkpt>
      <trkpt lat="48.4237" lon="2.75186">
        <ele>98</ele>
        <time>2022-08-31T09:40:42.365Z</time>
      </trkpt>
      <trkpt lat="48.42369" lon="2.75203">
        <ele>98</ele>
        <time>2022-08-31T09:40:46.356Z</time>
      </trkpt>
      <trkpt lat="48.42368" lon="2.7522">
        <ele>97</ele>
        <time>2022-08-31T09:40:50.362Z</time>
      </trkpt>
      <trkpt lat="48.42368" lon="2.75236">
        <ele>97</ele>
        <time>2022-08-31T09:40:54.356Z</time>
      </trkpt>
      <trkpt lat="48.42367" lon="2.75254">
        <ele>97</ele>
        <time>2022-08-31T09:40:58.362Z</time>
      </trkpt>
      <trkpt lat="48.42367" lon="2.75271">
        <ele>97</ele>
        <time>2022-08-31T09:41:02.362Z</time>
      </trkpt>
      <trkpt lat="48.42368" lon="2.75289">
        <ele>97</ele>
        <time>2022-08-31T09:41:06.359Z</time>
      </trkpt>
      <trkpt lat="48.42367" lon="2.75308">
        <ele>97</ele>
        <time>2022-08-31T09:41:10.364Z</time>
      </trkpt>
      <trkpt lat="48.42366" lon="2.75327">
        <ele>97</ele>
        <time>2022-08-31T09:41:14.361Z</time>
      </trkpt>
      <trkpt lat="48.42365" lon="2.75344">
        <ele>97</ele>
        <time>2022-08-31T09:41:18.342Z</time>
      </trkpt>
      <trkpt lat="48.4236" lon="2.75358">
        <ele>97</ele>
        <time>2022-08-31T09:41:22.364Z</time>
      </trkpt>
      <trkpt lat="48.42351" lon="2.75364">
        <ele>97</ele>
        <time>2022-08-31T09:41:26.356Z</time>
      </trkpt>
      <trkpt lat="48.42342" lon="2.75368">
        <ele>97</ele>
        <time>2022-08-31T09:41:30.352Z</time>
      </trkpt>
      <trkpt lat="48.42332" lon="2.75374">
        <ele>98</ele>
        <time>2022-08-31T09:41:34.360Z</time>
      </trkpt>
      <trkpt lat="48.42323" lon="2.75383">
        <ele>98</ele>
        <time>2022-08-31T09:41:38.356Z</time>
      </trkpt>
      <trkpt lat="48.42318" lon="2.75395">
        <ele>99</ele>
        <time>2022-08-31T09:41:42.360Z</time>
      </trkpt>
      <trkpt lat="48.42315" lon="2.7541">
        <ele>99</ele>
        <time>2022-08-31T09:41:47.354Z</time>
      </trkpt>
      <trkpt lat="48.42315" lon="2.75396">
        <ele>100</ele>
        <time>2022-08-31T09:41:56.341Z</time>
      </trkpt>
      <trkpt lat="48.42305" lon="2.75389">
        <ele>101</ele>
        <time>2022-08-31T09:42:00.347Z</time>
      </trkpt>
      <trkpt lat="48.42294" lon="2.75388">
        <ele>101</ele>
        <time>2022-08-31T09:42:02.360Z</time>
      </trkpt>
      <trkpt lat="48.42282" lon="2.75386">
        <ele>101</ele>
        <time>2022-08-31T09:42:05.341Z</time>
      </trkpt>
      <trkpt lat="48.42267" lon="2.75383">
        <ele>102</ele>
        <time>2022-08-31T09:42:08.354Z</time>
      </trkpt>
      <trkpt lat="48.42246" lon="2.75381">
        <ele>102</ele>
        <time>2022-08-31T09:42:12.344Z</time>
      </trkpt>
      <trkpt lat="48.42225" lon="2.75381">
        <ele>103</ele>
        <time>2022-08-31T09:42:16.349Z</time>
      </trkpt>
      <trkpt lat="48.422" lon="2.75381">
        <ele>103</ele>
        <time>2022-08-31T09:42:21.359Z</time>
      </trkpt>
      <trkpt lat="48.42179" lon="2.7538">
        <ele>104</ele>
        <time>2022-08-31T09:42:26.363Z</time>
      </trkpt>
      <trkpt lat="48.4216" lon="2.75376">
        <ele>104</ele>
        <time>2022-08-31T09:42:31.360Z</time>
      </trkpt>
      <trkpt lat="48.42143" lon="2.75376">
        <ele>104</ele>
        <time>2022-08-31T09:42:36.360Z</time>
      </trkpt>
      <trkpt lat="48.42137" lon="2.75394">
        <ele>105</ele>
        <time>2022-08-31T09:42:41.350Z</time>
      </trkpt>
      <trkpt lat="48.42139" lon="2.75411">
        <ele>105</ele>
        <time>2022-08-31T09:42:45.358Z</time>
      </trkpt>
      <trkpt lat="48.4214" lon="2.75431">
        <ele>106</ele>
        <time>2022-08-31T09:42:49.343Z</time>
      </trkpt>
      <trkpt lat="48.42142" lon="2.75448">
        <ele>106</ele>
        <time>2022-08-31T09:42:53.353Z</time>
      </trkpt>
      <trkpt lat="48.42143" lon="2.75468">
        <ele>107</ele>
        <time>2022-08-31T09:42:57.353Z</time>
      </trkpt>
      <trkpt lat="48.42143" lon="2.75485">
        <ele>108</ele>
        <time>2022-08-31T09:43:01.351Z</time>
      </trkpt>
      <trkpt lat="48.42144" lon="2.75504">
        <ele>108</ele>
        <time>2022-08-31T09:43:05.358Z</time>
      </trkpt>
      <trkpt lat="48.42146" lon="2.75522">
        <ele>109</ele>
        <time>2022-08-31T09:43:09.358Z</time>
      </trkpt>
      <trkpt lat="48.42148" lon="2.75541">
        <ele>110</ele>
        <time>2022-08-31T09:43:13.336Z</time>
      </trkpt>
      <trkpt lat="48.42149" lon="2.75558">
        <ele>110</ele>
        <time>2022-08-31T09:43:17.343Z</time>
      </trkpt>
      <trkpt lat="48.42143" lon="2.75574">
        <ele>111</ele>
        <time>2022-08-31T09:43:22.352Z</time>
      </trkpt>
      <trkpt lat="48.42133" lon="2.75575">
        <ele>112</ele>
        <time>2022-08-31T09:43:25.360Z</time>
      </trkpt>
      <trkpt lat="48.42123" lon="2.75572">
        <ele>113</ele>
        <time>2022-08-31T09:43:28.356Z</time>
      </trkpt>
      <trkpt lat="48.42111" lon="2.75566">
        <ele>113</ele>
        <time>2022-08-31T09:43:31.360Z</time>
      </trkpt>
      <trkpt lat="48.42097" lon="2.75555">
        <ele>114</ele>
        <time>2022-08-31T09:43:34.358Z</time>
      </trkpt>
      <trkpt lat="48.42078" lon="2.75542">
        <ele>114</ele>
        <time>2022-08-31T09:43:38.349Z</time>
      </trkpt>
      <trkpt lat="48.42057" lon="2.75535">
        <ele>115</ele>
        <time>2022-08-31T09:43:43.351Z</time>
      </trkpt>
      <trkpt lat="48.42033" lon="2.75538">
        <ele>115</ele>
        <time>2022-08-31T09:43:48.359Z</time>
      </trkpt>
      <trkpt lat="48.42014" lon="2.75541">
        <ele>116</ele>
        <time>2022-08-31T09:43:52.353Z</time>
      </trkpt>
      <trkpt lat="48.41993" lon="2.75548">
        <ele>116</ele>
        <time>2022-08-31T09:43:56.354Z</time>
      </trkpt>
      <trkpt lat="48.4197" lon="2.75556">
        <ele>117</ele>
        <time>2022-08-31T09:44:02.346Z</time>
      </trkpt>
      <trkpt lat="48.4195" lon="2.75564">
        <ele>117</ele>
        <time>2022-08-31T09:44:07.357Z</time>
      </trkpt>
      <trkpt lat="48.41933" lon="2.75571">
        <ele>117</ele>
        <time>2022-08-31T09:44:11.359Z</time>
      </trkpt>
      <trkpt lat="48.41914" lon="2.75579">
        <ele>117</ele>
        <time>2022-08-31T09:44:16.359Z</time>
      </trkpt>
      <trkpt lat="48.41896" lon="2.75583">
        <ele>117</ele>
        <time>2022-08-31T09:44:20.352Z</time>
      </trkpt>
      <trkpt lat="48.4188" lon="2.75586">
        <ele>117</ele>
        <time>2022-08-31T09:44:24.358Z</time>
      </trkpt>
      <trkpt lat="48.41869" lon="2.75604">
        <ele>117</ele>
        <time>2022-08-31T09:44:30.348Z</time>
      </trkpt>
      <trkpt lat="48.41873" lon="2.75626">
        <ele>117</ele>
        <time>2022-08-31T09:44:34.345Z</time>
      </trkpt>
      <trkpt lat="48.41876" lon="2.75647">
        <ele>117</ele>
        <time>2022-08-31T09:44:38.361Z</time>
      </trkpt>
      <trkpt lat="48.41878" lon="2.75667">
        <ele>117</ele>
        <time>2022-08-31T09:44:42.358Z</time>
      </trkpt>
      <trkpt lat="48.41878" lon="2.75688">
        <ele>117</ele>
        <time>2022-08-31T09:44:48.359Z</time>
      </trkpt>
      <trkpt lat="48.41876" lon="2.75702">
        <ele>117</ele>
        <time>2022-08-31T09:44:53.365Z</time>
      </trkpt>
      <trkpt lat="48.41875" lon="2.75717">
        <ele>118</ele>
        <time>2022-08-31T09:44:58.355Z</time>
      </trkpt>
      <trkpt lat="48.41874" lon="2.75731">
        <ele>118</ele>
        <time>2022-08-31T09:45:05.344Z</time>
      </trkpt>
      <trkpt lat="48.41871" lon="2.75746">
        <ele>119</ele>
        <time>2022-08-31T09:45:12.355Z</time>
      </trkpt>
      <trkpt lat="48.41869" lon="2.7576">
        <ele>120</ele>
        <time>2022-08-31T09:45:18.365Z</time>
      </trkpt>
      <trkpt lat="48.41868" lon="2.75775">
        <ele>121</ele>
        <time>2022-08-31T09:45:24.356Z</time>
      </trkpt>
      <trkpt lat="48.41869" lon="2.75789">
        <ele>121</ele>
        <time>2022-08-31T09:45:30.360Z</time>
      </trkpt>
      <trkpt lat="48.4187" lon="2.75805">
        <ele>122</ele>
        <time>2022-08-31T09:45:36.355Z</time>
      </trkpt>
      <trkpt lat="48.41867" lon="2.75818">
        <ele>123</ele>
        <time>2022-08-31T09:45:41.359Z</time>
      </trkpt>
      <trkpt lat="48.41864" lon="2.75831">
        <ele>123</ele>
        <time>2022-08-31T09:45:47.362Z</time>
      </trkpt>
      <trkpt lat="48.41862" lon="2.75848">
        <ele>124</ele>
        <time>2022-08-31T09:45:52.354Z</time>
      </trkpt>
      <trkpt lat="48.41862" lon="2.75865">
        <ele>124</ele>
        <time>2022-08-31T09:45:56.358Z</time>
      </trkpt>
      <trkpt lat="48.41861" lon="2.75882">
        <ele>125</ele>
        <time>2022-08-31T09:46:00.347Z</time>
      </trkpt>
      <trkpt lat="48.41856" lon="2.75895">
        <ele>126</ele>
        <time>2022-08-31T09:46:05.352Z</time>
      </trkpt>
      <trkpt lat="48.41846" lon="2.75902">
        <ele>127</ele>
        <time>2022-08-31T09:46:11.351Z</time>
      </trkpt>
      <trkpt lat="48.41838" lon="2.75911">
        <ele>128</ele>
        <time>2022-08-31T09:46:16.356Z</time>
      </trkpt>
      <trkpt lat="48.41833" lon="2.75924">
        <ele>130</ele>
        <time>2022-08-31T09:46:22.366Z</time>
      </trkpt>
      <trkpt lat="48.41828" lon="2.75937">
        <ele>130</ele>
        <time>2022-08-31T09:46:26.365Z</time>
      </trkpt>
      <trkpt lat="48.41821" lon="2.75949">
        <ele>131</ele>
        <time>2022-08-31T09:46:30.345Z</time>
      </trkpt>
      <trkpt lat="48.41813" lon="2.75962">
        <ele>132</ele>
        <time>2022-08-31T09:46:34.343Z</time>
      </trkpt>
      <trkpt lat="48.41807" lon="2.75974">
        <ele>132</ele>
        <time>2022-08-31T09:46:37.356Z</time>
      </trkpt>
      <trkpt lat="48.418" lon="2.75988">
        <ele>133</ele>
        <time>2022-08-31T09:46:40.356Z</time>
      </trkpt>
      <trkpt lat="48.41792" lon="2.76007">
        <ele>134</ele>
        <time>2022-08-31T09:46:44.363Z</time>
      </trkpt>
      <trkpt lat="48.41787" lon="2.76028">
        <ele>134</ele>
        <time>2022-08-31T09:46:48.348Z</time>
      </trkpt>
      <trkpt lat="48.41781" lon="2.76046">
        <ele>134</ele>
        <time>2022-08-31T09:46:53.342Z</time>
      </trkpt>
      <trkpt lat="48.41773" lon="2.76057">
        <ele>134</ele>
        <time>2022-08-31T09:46:57.356Z</time>
      </trkpt>
      <trkpt lat="48.41763" lon="2.76065">
        <ele>134</ele>
        <time>2022-08-31T09:47:01.361Z</time>
      </trkpt>
      <trkpt lat="48.41755" lon="2.76074">
        <ele>134</ele>
        <time>2022-08-31T09:47:04.362Z</time>
      </trkpt>
      <trkpt lat="48.41746" lon="2.76084">
        <ele>134</ele>
        <time>2022-08-31T09:47:08.362Z</time>
      </trkpt>
      <trkpt lat="48.41738" lon="2.76096">
        <ele>134</ele>
        <time>2022-08-31T09:47:13.362Z</time>
      </trkpt>
      <trkpt lat="48.41727" lon="2.76099">
        <ele>135</ele>
        <time>2022-08-31T09:47:18.361Z</time>
      </trkpt>
      <trkpt lat="48.41717" lon="2.76103">
        <ele>135</ele>
        <time>2022-08-31T09:47:22.358Z</time>
      </trkpt>
      <trkpt lat="48.41706" lon="2.76102">
        <ele>136</ele>
        <time>2022-08-31T09:47:27.353Z</time>
      </trkpt>
      <trkpt lat="48.41695" lon="2.76098">
        <ele>137</ele>
        <time>2022-08-31T09:47:31.340Z</time>
      </trkpt>
      <trkpt lat="48.41684" lon="2.76101">
        <ele>137</ele>
        <time>2022-08-31T09:47:35.352Z</time>
      </trkpt>
      <trkpt lat="48.41674" lon="2.76102">
        <ele>138</ele>
        <time>2022-08-31T09:47:38.352Z</time>
      </trkpt>
      <trkpt lat="48.41661" lon="2.76099">
        <ele>138</ele>
        <time>2022-08-31T09:47:42.355Z</time>
      </trkpt>
      <trkpt lat="48.4165" lon="2.76099">
        <ele>139</ele>
        <time>2022-08-31T09:47:48.345Z</time>
      </trkpt>
      <trkpt lat="48.41642" lon="2.76108">
        <ele>140</ele>
        <time>2022-08-31T09:47:59.362Z</time>
      </trkpt>
      <trkpt lat="48.41639" lon="2.7611">
        <ele>142</ele>
        <time>2022-08-31T09:48:05.357Z</time>
      </trkpt>
      <trkpt lat="48.41636" lon="2.76115">
        <ele>148</ele>
        <time>2022-08-31T09:48:35.356Z</time>
      </trkpt>
      <trkpt lat="48.41638" lon="2.76129">
        <ele>148</ele>
        <time>2022-08-31T09:48:43.344Z</time>
      </trkpt>
      <trkpt lat="48.4164" lon="2.76142">
        <ele>148</ele>
        <time>2022-08-31T09:48:51.358Z</time>
      </trkpt>
      <trkpt lat="48.41642" lon="2.76157">
        <ele>147</ele>
        <time>2022-08-31T09:48:59.358Z</time>
      </trkpt>
      <trkpt lat="48.41646" lon="2.7617">
        <ele>146</ele>
        <time>2022-08-31T09:49:09.351Z</time>
      </trkpt>
      <trkpt lat="48.41649" lon="2.76183">
        <ele>145</ele>
        <time>2022-08-31T09:49:21.340Z</time>
      </trkpt>
      <trkpt lat="48.4165" lon="2.76197">
        <ele>146</ele>
        <time>2022-08-31T09:49:36.360Z</time>
      </trkpt>
      <trkpt lat="48.4165" lon="2.76202">
        <ele>148</ele>
        <time>2022-08-31T09:49:45.356Z</time>
      </trkpt>
      <trkpt lat="48.4165" lon="2.76208">
        <ele>150</ele>
        <time>2022-08-31T09:49:57.344Z</time>
      </trkpt>
      <trkpt lat="48.41648" lon="2.76222">
        <ele>151</ele>
        <time>2022-08-31T09:50:05.356Z</time>
      </trkpt>
      <trkpt lat="48.41646" lon="2.76237">
        <ele>151</ele>
        <time>2022-08-31T09:50:13.352Z</time>
      </trkpt>
      <trkpt lat="48.41644" lon="2.76252">
        <ele>151</ele>
        <time>2022-08-31T09:50:21.356Z</time>
      </trkpt>
      <trkpt lat="48.41645" lon="2.76266">
        <ele>152</ele>
        <time>2022-08-31T09:50:30.364Z</time>
      </trkpt>
      <trkpt lat="48.41643" lon="2.7628">
        <ele>154</ele>
        <time>2022-08-31T09:50:40.353Z</time>
      </trkpt>
      <trkpt lat="48.41644" lon="2.76295">
        <ele>155</ele>
        <time>2022-08-31T09:50:49.357Z</time>
      </trkpt>
      <trkpt lat="48.41646" lon="2.76309">
        <ele>156</ele>
        <time>2022-08-31T09:50:58.362Z</time>
      </trkpt>
      <trkpt lat="48.41647" lon="2.76324">
        <ele>158</ele>
        <time>2022-08-31T09:51:09.359Z</time>
      </trkpt>
      <trkpt lat="48.41645" lon="2.76337">
        <ele>158</ele>
        <time>2022-08-31T09:51:17.360Z</time>
      </trkpt>
      <trkpt lat="48.41644" lon="2.76352">
        <ele>159</ele>
        <time>2022-08-31T09:51:25.361Z</time>
      </trkpt>
      <trkpt lat="48.41646" lon="2.76366">
        <ele>160</ele>
        <time>2022-08-31T09:51:31.355Z</time>
      </trkpt>
      <trkpt lat="48.41648" lon="2.76381">
        <ele>160</ele>
        <time>2022-08-31T09:51:38.357Z</time>
      </trkpt>
      <trkpt lat="48.41649" lon="2.76395">
        <ele>162</ele>
        <time>2022-08-31T09:51:47.358Z</time>
      </trkpt>
      <trkpt lat="48.41649" lon="2.7641">
        <ele>163</ele>
        <time>2022-08-31T09:51:54.354Z</time>
      </trkpt>
      <trkpt lat="48.41651" lon="2.76422">
        <ele>163</ele>
        <time>2022-08-31T09:52:00.352Z</time>
      </trkpt>
      <trkpt lat="48.41654" lon="2.76432">
        <ele>168</ele>
        <time>2022-08-31T09:52:36.338Z</time>
      </trkpt>
      <trkpt lat="48.41655" lon="2.76433">
        <ele>168</ele>
        <time>2022-08-31T09:52:41.360Z</time>
      </trkpt>
      <trkpt lat="48.41657" lon="2.76439">
        <ele>169</ele>
        <time>2022-08-31T09:52:52.362Z</time>
      </trkpt>
      <trkpt lat="48.41661" lon="2.76449">
        <ele>169</ele>
        <time>2022-08-31T09:52:58.356Z</time>
      </trkpt>
      <trkpt lat="48.41666" lon="2.76456">
        <ele>170</ele>
        <time>2022-08-31T09:53:06.339Z</time>
      </trkpt>
      <trkpt lat="48.41674" lon="2.76463">
        <ele>171</ele>
        <time>2022-08-31T09:53:14.350Z</time>
      </trkpt>
      <trkpt lat="48.41682" lon="2.76471">
        <ele>172</ele>
        <time>2022-08-31T09:53:23.351Z</time>
      </trkpt>
      <trkpt lat="48.41691" lon="2.76478">
        <ele>174</ele>
        <time>2022-08-31T09:53:31.354Z</time>
      </trkpt>
      <trkpt lat="48.41696" lon="2.76485">
        <ele>176</ele>
        <time>2022-08-31T09:53:39.344Z</time>
      </trkpt>
      <trkpt lat="48.41698" lon="2.76489">
        <ele>177</ele>
        <time>2022-08-31T09:53:47.349Z</time>
      </trkpt>
      <trkpt lat="48.41704" lon="2.76501">
        <ele>177</ele>
        <time>2022-08-31T09:53:53.344Z</time>
      </trkpt>
      <trkpt lat="48.41708" lon="2.76513">
        <ele>178</ele>
        <time>2022-08-31T09:54:06.354Z</time>
      </trkpt>
      <trkpt lat="48.41709" lon="2.76517">
        <ele>178</ele>
        <time>2022-08-31T09:54:18.358Z</time>
      </trkpt>
      <trkpt lat="48.41707" lon="2.76513">
        <ele>184</ele>
        <time>2022-08-31T09:57:02.336Z</time>
      </trkpt>
      <trkpt lat="48.41707" lon="2.76512">
        <ele>184</ele>
        <time>2022-08-31T09:57:07.341Z</time>
      </trkpt>
      <trkpt lat="48.41704" lon="2.76504">
        <ele>185</ele>
        <time>2022-08-31T09:57:39.345Z</time>
      </trkpt>
      <trkpt lat="48.41699" lon="2.76492">
        <ele>184</ele>
        <time>2022-08-31T09:57:46.351Z</time>
      </trkpt>
      <trkpt lat="48.4169" lon="2.76486">
        <ele>184</ele>
        <time>2022-08-31T09:57:51.348Z</time>
      </trkpt>
      <trkpt lat="48.41682" lon="2.76476">
        <ele>183</ele>
        <time>2022-08-31T09:57:56.352Z</time>
      </trkpt>
      <trkpt lat="48.41673" lon="2.76468">
        <ele>182</ele>
        <time>2022-08-31T09:58:01.341Z</time>
      </trkpt>
      <trkpt lat="48.41669" lon="2.76454">
        <ele>182</ele>
        <time>2022-08-31T09:58:06.338Z</time>
      </trkpt>
      <trkpt lat="48.4166" lon="2.76447">
        <ele>181</ele>
        <time>2022-08-31T09:58:11.350Z</time>
      </trkpt>
      <trkpt lat="48.41654" lon="2.76458">
        <ele>180</ele>
        <time>2022-08-31T09:58:16.344Z</time>
      </trkpt>
      <trkpt lat="48.4165" lon="2.76471">
        <ele>180</ele>
        <time>2022-08-31T09:58:21.359Z</time>
      </trkpt>
      <trkpt lat="48.41648" lon="2.76485">
        <ele>179</ele>
        <time>2022-08-31T09:58:27.350Z</time>
      </trkpt>
      <trkpt lat="48.41646" lon="2.76499">
        <ele>179</ele>
        <time>2022-08-31T09:58:34.358Z</time>
      </trkpt>
      <trkpt lat="48.41646" lon="2.76514">
        <ele>179</ele>
        <time>2022-08-31T09:58:39.352Z</time>
      </trkpt>
      <trkpt lat="48.41648" lon="2.76529">
        <ele>179</ele>
        <time>2022-08-31T09:58:43.362Z</time>
      </trkpt>
      <trkpt lat="48.41658" lon="2.76532">
        <ele>179</ele>
        <time>2022-08-31T09:59:05.339Z</time>
      </trkpt>
      <trkpt lat="48.41667" lon="2.76534">
        <ele>178</ele>
        <time>2022-08-31T09:59:15.347Z</time>
      </trkpt>
      <trkpt lat="48.41672" lon="2.76538">
        <ele>178</ele>
        <time>2022-08-31T09:59:22.357Z</time>
      </trkpt>
      <trkpt lat="48.41668" lon="2.76538">
        <ele>185</ele>
        <time>2022-08-31T10:00:46.342Z</time>
      </trkpt>
      <trkpt lat="48.41658" lon="2.76539">
        <ele>185</ele>
        <time>2022-08-31T10:00:53.352Z</time>
      </trkpt>
      <trkpt lat="48.4165" lon="2.76545">
        <ele>184</ele>
        <time>2022-08-31T10:00:58.336Z</time>
      </trkpt>
      <trkpt lat="48.41646" lon="2.76561">
        <ele>184</ele>
        <time>2022-08-31T10:01:03.353Z</time>
      </trkpt>
      <trkpt lat="48.41644" lon="2.76575">
        <ele>184</ele>
        <time>2022-08-31T10:01:07.353Z</time>
      </trkpt>
      <trkpt lat="48.41641" lon="2.76589">
        <ele>183</ele>
        <time>2022-08-31T10:01:11.357Z</time>
      </trkpt>
      <trkpt lat="48.41639" lon="2.76604">
        <ele>183</ele>
        <time>2022-08-31T10:01:15.357Z</time>
      </trkpt>
      <trkpt lat="48.41641" lon="2.76618">
        <ele>183</ele>
        <time>2022-08-31T10:01:19.349Z</time>
      </trkpt>
      <trkpt lat="48.41645" lon="2.76632">
        <ele>182</ele>
        <time>2022-08-31T10:01:24.343Z</time>
      </trkpt>
      <trkpt lat="48.41648" lon="2.76647">
        <ele>182</ele>
        <time>2022-08-31T10:01:30.343Z</time>
      </trkpt>
      <trkpt lat="48.41653" lon="2.76659">
        <ele>182</ele>
        <time>2022-08-31T10:01:34.350Z</time>
      </trkpt>
      <trkpt lat="48.41657" lon="2.76674">
        <ele>183</ele>
        <time>2022-08-31T10:01:39.364Z</time>
      </trkpt>
      <trkpt lat="48.41661" lon="2.76688">
        <ele>183</ele>
        <time>2022-08-31T10:01:44.343Z</time>
      </trkpt>
      <trkpt lat="48.41666" lon="2.76699">
        <ele>184</ele>
        <time>2022-08-31T10:01:49.354Z</time>
      </trkpt>
      <trkpt lat="48.41675" lon="2.76702">
        <ele>185</ele>
        <time>2022-08-31T10:01:54.359Z</time>
      </trkpt>
      <trkpt lat="48.41684" lon="2.76698">
        <ele>185</ele>
        <time>2022-08-31T10:01:58.346Z</time>
      </trkpt>
      <trkpt lat="48.41693" lon="2.76691">
        <ele>185</ele>
        <time>2022-08-31T10:02:02.357Z</time>
      </trkpt>
      <trkpt lat="48.41704" lon="2.76687">
        <ele>186</ele>
        <time>2022-08-31T10:02:06.356Z</time>
      </trkpt>
      <trkpt lat="48.41714" lon="2.76688">
        <ele>186</ele>
        <time>2022-08-31T10:02:10.360Z</time>
      </trkpt>
      <trkpt lat="48.41725" lon="2.7669">
        <ele>185</ele>
        <time>2022-08-31T10:02:14.355Z</time>
      </trkpt>
      <trkpt lat="48.41735" lon="2.76697">
        <ele>185</ele>
        <time>2022-08-31T10:02:19.341Z</time>
      </trkpt>
      <trkpt lat="48.41744" lon="2.767">
        <ele>184</ele>
        <time>2022-08-31T10:02:23.349Z</time>
      </trkpt>
      <trkpt lat="48.41754" lon="2.76706">
        <ele>184</ele>
        <time>2022-08-31T10:02:28.350Z</time>
      </trkpt>
      <trkpt lat="48.41754" lon="2.7672">
        <ele>182</ele>
        <time>2022-08-31T10:02:43.357Z</time>
      </trkpt>
      <trkpt lat="48.41746" lon="2.76731">
        <ele>181</ele>
        <time>2022-08-31T10:02:49.355Z</time>
      </trkpt>
      <trkpt lat="48.41739" lon="2.76741">
        <ele>180</ele>
        <time>2022-08-31T10:02:54.344Z</time>
      </trkpt>
      <trkpt lat="48.41734" lon="2.76756">
        <ele>180</ele>
        <time>2022-08-31T10:02:58.345Z</time>
      </trkpt>
      <trkpt lat="48.41735" lon="2.76772">
        <ele>180</ele>
        <time>2022-08-31T10:03:02.362Z</time>
      </trkpt>
      <trkpt lat="48.41739" lon="2.76786">
        <ele>180</ele>
        <time>2022-08-31T10:03:06.363Z</time>
      </trkpt>
      <trkpt lat="48.41741" lon="2.76802">
        <ele>180</ele>
        <time>2022-08-31T10:03:10.361Z</time>
      </trkpt>
      <trkpt lat="48.41746" lon="2.76817">
        <ele>180</ele>
        <time>2022-08-31T10:03:14.356Z</time>
      </trkpt>
      <trkpt lat="48.41751" lon="2.76831">
        <ele>180</ele>
        <time>2022-08-31T10:03:19.356Z</time>
      </trkpt>
      <trkpt lat="48.41752" lon="2.76845">
        <ele>181</ele>
        <time>2022-08-31T10:03:23.361Z</time>
      </trkpt>
      <trkpt lat="48.41752" lon="2.76861">
        <ele>181</ele>
        <time>2022-08-31T10:03:26.353Z</time>
      </trkpt>
      <trkpt lat="48.41751" lon="2.76879">
        <ele>182</ele>
        <time>2022-08-31T10:03:30.352Z</time>
      </trkpt>
      <trkpt lat="48.41751" lon="2.76899">
        <ele>182</ele>
        <time>2022-08-31T10:03:34.359Z</time>
      </trkpt>
      <trkpt lat="48.41761" lon="2.76911">
        <ele>182</ele>
        <time>2022-08-31T10:03:39.345Z</time>
      </trkpt>
      <trkpt lat="48.4177" lon="2.7692">
        <ele>182</ele>
        <time>2022-08-31T10:03:43.346Z</time>
      </trkpt>
      <trkpt lat="48.41776" lon="2.7693">
        <ele>183</ele>
        <time>2022-08-31T10:03:47.350Z</time>
      </trkpt>
      <trkpt lat="48.41769" lon="2.7692">
        <ele>184</ele>
        <time>2022-08-31T10:04:04.365Z</time>
      </trkpt>
      <trkpt lat="48.41764" lon="2.76934">
        <ele>184</ele>
        <time>2022-08-31T10:04:09.344Z</time>
      </trkpt>
      <trkpt lat="48.41765" lon="2.76949">
        <ele>184</ele>
        <time>2022-08-31T10:04:13.361Z</time>
      </trkpt>
      <trkpt lat="48.41769" lon="2.76963">
        <ele>184</ele>
        <time>2022-08-31T10:04:17.366Z</time>
      </trkpt>
      <trkpt lat="48.41768" lon="2.76979">
        <ele>185</ele>
        <time>2022-08-31T10:04:22.354Z</time>
      </trkpt>
      <trkpt lat="48.41766" lon="2.76996">
        <ele>185</ele>
        <time>2022-08-31T10:04:26.354Z</time>
      </trkpt>
      <trkpt lat="48.41763" lon="2.77013">
        <ele>185</ele>
        <time>2022-08-31T10:04:30.357Z</time>
      </trkpt>
      <trkpt lat="48.41763" lon="2.77027">
        <ele>185</ele>
        <time>2022-08-31T10:04:33.354Z</time>
      </trkpt>
      <trkpt lat="48.41759" lon="2.77045">
        <ele>185</ele>
        <time>2022-08-31T10:04:37.345Z</time>
      </trkpt>
      <trkpt lat="48.41758" lon="2.77062">
        <ele>184</ele>
        <time>2022-08-31T10:04:42.341Z</time>
      </trkpt>
      <trkpt lat="48.41757" lon="2.77077">
        <ele>184</ele>
        <time>2022-08-31T10:04:46.354Z</time>
      </trkpt>
      <trkpt lat="48.41757" lon="2.77091">
        <ele>185</ele>
        <time>2022-08-31T10:04:50.354Z</time>
      </trkpt>
      <trkpt lat="48.41758" lon="2.77101">
        <ele>185</ele>
        <time>2022-08-31T10:04:56.361Z</time>
      </trkpt>
      <trkpt lat="48.41756" lon="2.77109">
        <ele>185</ele>
        <time>2022-08-31T10:05:01.340Z</time>
      </trkpt>
      <trkpt lat="48.41752" lon="2.77123">
        <ele>185</ele>
        <time>2022-08-31T10:05:07.356Z</time>
      </trkpt>
      <trkpt lat="48.41751" lon="2.77137">
        <ele>185</ele>
        <time>2022-08-31T10:05:12.353Z</time>
      </trkpt>
      <trkpt lat="48.41758" lon="2.77148">
        <ele>185</ele>
        <time>2022-08-31T10:05:17.355Z</time>
      </trkpt>
      <trkpt lat="48.41762" lon="2.77157">
        <ele>185</ele>
        <time>2022-08-31T10:05:22.352Z</time>
      </trkpt>
      <trkpt lat="48.41764" lon="2.77163">
        <ele>186</ele>
        <time>2022-08-31T10:05:27.340Z</time>
      </trkpt>
      <trkpt lat="48.41768" lon="2.77177">
        <ele>185</ele>
        <time>2022-08-31T10:05:33.361Z</time>
      </trkpt>
      <trkpt lat="48.41768" lon="2.77193">
        <ele>185</ele>
        <time>2022-08-31T10:05:38.355Z</time>
      </trkpt>
      <trkpt lat="48.41767" lon="2.77207">
        <ele>185</ele>
        <time>2022-08-31T10:05:41.350Z</time>
      </trkpt>
      <trkpt lat="48.41765" lon="2.77223">
        <ele>184</ele>
        <time>2022-08-31T10:05:44.359Z</time>
      </trkpt>
      <trkpt lat="48.41765" lon="2.77238">
        <ele>184</ele>
        <time>2022-08-31T10:05:47.359Z</time>
      </trkpt>
      <trkpt lat="48.41765" lon="2.77257">
        <ele>184</ele>
        <time>2022-08-31T10:05:51.348Z</time>
      </trkpt>
      <trkpt lat="48.41766" lon="2.77275">
        <ele>184</ele>
        <time>2022-08-31T10:05:55.366Z</time>
      </trkpt>
      <trkpt lat="48.41768" lon="2.77295">
        <ele>184</ele>
        <time>2022-08-31T10:05:59.361Z</time>
      </trkpt>
      <trkpt lat="48.4177" lon="2.77312">
        <ele>184</ele>
        <time>2022-08-31T10:06:03.347Z</time>
      </trkpt>
      <trkpt lat="48.41776" lon="2.77331">
        <ele>184</ele>
        <time>2022-08-31T10:06:07.348Z</time>
      </trkpt>
      <trkpt lat="48.41782" lon="2.77348">
        <ele>185</ele>
        <time>2022-08-31T10:06:11.344Z</time>
      </trkpt>
      <trkpt lat="48.41789" lon="2.77364">
        <ele>185</ele>
        <time>2022-08-31T10:06:16.344Z</time>
      </trkpt>
      <trkpt lat="48.41797" lon="2.77374">
        <ele>186</ele>
        <time>2022-08-31T10:06:20.363Z</time>
      </trkpt>
      <trkpt lat="48.41805" lon="2.77386">
        <ele>187</ele>
        <time>2022-08-31T10:06:24.362Z</time>
      </trkpt>
      <trkpt lat="48.41809" lon="2.77401">
        <ele>188</ele>
        <time>2022-08-31T10:06:28.355Z</time>
      </trkpt>
      <trkpt lat="48.41817" lon="2.77412">
        <ele>188</ele>
        <time>2022-08-31T10:06:32.349Z</time>
      </trkpt>
      <trkpt lat="48.41825" lon="2.77423">
        <ele>189</ele>
        <time>2022-08-31T10:06:36.350Z</time>
      </trkpt>
      <trkpt lat="48.41832" lon="2.77436">
        <ele>189</ele>
        <time>2022-08-31T10:06:40.345Z</time>
      </trkpt>
      <trkpt lat="48.41841" lon="2.77445">
        <ele>190</ele>
        <time>2022-08-31T10:06:43.354Z</time>
      </trkpt>
      <trkpt lat="48.41851" lon="2.77452">
        <ele>190</ele>
        <time>2022-08-31T10:06:46.347Z</time>
      </trkpt>
      <trkpt lat="48.4186" lon="2.77467">
        <ele>190</ele>
        <time>2022-08-31T10:06:51.360Z</time>
      </trkpt>
      <trkpt lat="48.41863" lon="2.77485">
        <ele>189</ele>
        <time>2022-08-31T10:06:56.345Z</time>
      </trkpt>
      <trkpt lat="48.41866" lon="2.77501">
        <ele>188</ele>
        <time>2022-08-31T10:07:00.359Z</time>
      </trkpt>
      <trkpt lat="48.41867" lon="2.77517">
        <ele>186</ele>
        <time>2022-08-31T10:07:05.365Z</time>
      </trkpt>
      <trkpt lat="48.41872" lon="2.7753">
        <ele>185</ele>
        <time>2022-08-31T10:07:08.356Z</time>
      </trkpt>
      <trkpt lat="48.41877" lon="2.77544">
        <ele>184</ele>
        <time>2022-08-31T10:07:11.360Z</time>
      </trkpt>
      <trkpt lat="48.41879" lon="2.77557">
        <ele>182</ele>
        <time>2022-08-31T10:07:16.357Z</time>
      </trkpt>
      <trkpt lat="48.4187" lon="2.77564">
        <ele>179</ele>
        <time>2022-08-31T10:07:24.351Z</time>
      </trkpt>
      <trkpt lat="48.41861" lon="2.77567">
        <ele>176</ele>
        <time>2022-08-31T10:07:31.333Z</time>
      </trkpt>
      <trkpt lat="48.4186" lon="2.77567">
        <ele>176</ele>
        <time>2022-08-31T10:07:32.335Z</time>
      </trkpt>
      <trkpt lat="48.41863" lon="2.77571">
        <ele>171</ele>
        <time>2022-08-31T10:07:47.355Z</time>
      </trkpt>
      <trkpt lat="48.41873" lon="2.77572">
        <ele>170</ele>
        <time>2022-08-31T10:07:52.364Z</time>
      </trkpt>
      <trkpt lat="48.41874" lon="2.77585">
        <ele>169</ele>
        <time>2022-08-31T10:07:58.350Z</time>
      </trkpt>
      <trkpt lat="48.4187" lon="2.77598">
        <ele>168</ele>
        <time>2022-08-31T10:08:03.359Z</time>
      </trkpt>
      <trkpt lat="48.4186" lon="2.77605">
        <ele>168</ele>
        <time>2022-08-31T10:08:08.369Z</time>
      </trkpt>
      <trkpt lat="48.41852" lon="2.77618">
        <ele>168</ele>
        <time>2022-08-31T10:08:13.347Z</time>
      </trkpt>
      <trkpt lat="48.41845" lon="2.77628">
        <ele>169</ele>
        <time>2022-08-31T10:08:18.349Z</time>
      </trkpt>
      <trkpt lat="48.41838" lon="2.7764">
        <ele>170</ele>
        <time>2022-08-31T10:08:23.341Z</time>
      </trkpt>
      <trkpt lat="48.4183" lon="2.77651">
        <ele>170</ele>
        <time>2022-08-31T10:08:27.341Z</time>
      </trkpt>
      <trkpt lat="48.41824" lon="2.77663">
        <ele>171</ele>
        <time>2022-08-31T10:08:31.348Z</time>
      </trkpt>
      <trkpt lat="48.41817" lon="2.77674">
        <ele>172</ele>
        <time>2022-08-31T10:08:35.354Z</time>
      </trkpt>
      <trkpt lat="48.41808" lon="2.77687">
        <ele>173</ele>
        <time>2022-08-31T10:08:39.344Z</time>
      </trkpt>
      <trkpt lat="48.41802" lon="2.77701">
        <ele>173</ele>
        <time>2022-08-31T10:08:43.348Z</time>
      </trkpt>
      <trkpt lat="48.41795" lon="2.77716">
        <ele>174</ele>
        <time>2022-08-31T10:08:48.348Z</time>
      </trkpt>
      <trkpt lat="48.41788" lon="2.77728">
        <ele>175</ele>
        <time>2022-08-31T10:08:51.353Z</time>
      </trkpt>
      <trkpt lat="48.41785" lon="2.77743">
        <ele>175</ele>
        <time>2022-08-31T10:08:55.341Z</time>
      </trkpt>
      <trkpt lat="48.4178" lon="2.77757">
        <ele>176</ele>
        <time>2022-08-31T10:09:00.355Z</time>
      </trkpt>
      <trkpt lat="48.41776" lon="2.77771">
        <ele>177</ele>
        <time>2022-08-31T10:09:11.355Z</time>
      </trkpt>
      <trkpt lat="48.41771" lon="2.77785">
        <ele>177</ele>
        <time>2022-08-31T10:09:16.359Z</time>
      </trkpt>
      <trkpt lat="48.4177" lon="2.77801">
        <ele>177</ele>
        <time>2022-08-31T10:09:21.347Z</time>
      </trkpt>
      <trkpt lat="48.41768" lon="2.77814">
        <ele>177</ele>
        <time>2022-08-31T10:09:26.360Z</time>
      </trkpt>
      <trkpt lat="48.4177" lon="2.77828">
        <ele>176</ele>
        <time>2022-08-31T10:09:37.354Z</time>
      </trkpt>
      <trkpt lat="48.41769" lon="2.77842">
        <ele>175</ele>
        <time>2022-08-31T10:09:45.351Z</time>
      </trkpt>
      <trkpt lat="48.41767" lon="2.77857">
        <ele>174</ele>
        <time>2022-08-31T10:09:53.360Z</time>
      </trkpt>
      <trkpt lat="48.41764" lon="2.7787">
        <ele>174</ele>
        <time>2022-08-31T10:10:01.352Z</time>
      </trkpt>
      <trkpt lat="48.41764" lon="2.77875">
        <ele>176</ele>
        <time>2022-08-31T10:10:14.351Z</time>
      </trkpt>
      <trkpt lat="48.41765" lon="2.77881">
        <ele>178</ele>
        <time>2022-08-31T10:10:28.365Z</time>
      </trkpt>
      <trkpt lat="48.41764" lon="2.77895">
        <ele>179</ele>
        <time>2022-08-31T10:10:35.367Z</time>
      </trkpt>
      <trkpt lat="48.41766" lon="2.77908">
        <ele>180</ele>
        <time>2022-08-31T10:10:42.360Z</time>
      </trkpt>
      <trkpt lat="48.41764" lon="2.77924">
        <ele>180</ele>
        <time>2022-08-31T10:10:51.357Z</time>
      </trkpt>
      <trkpt lat="48.41763" lon="2.7794">
        <ele>180</ele>
        <time>2022-08-31T10:10:56.345Z</time>
      </trkpt>
      <trkpt lat="48.41766" lon="2.77953">
        <ele>180</ele>
        <time>2022-08-31T10:10:59.357Z</time>
      </trkpt>
      <trkpt lat="48.41767" lon="2.77968">
        <ele>180</ele>
        <time>2022-08-31T10:11:02.349Z</time>
      </trkpt>
      <trkpt lat="48.41767" lon="2.77984">
        <ele>179</ele>
        <time>2022-08-31T10:11:07.356Z</time>
      </trkpt>
      <trkpt lat="48.41765" lon="2.77998">
        <ele>179</ele>
        <time>2022-08-31T10:11:11.352Z</time>
      </trkpt>
      <trkpt lat="48.41764" lon="2.78012">
        <ele>179</ele>
        <time>2022-08-31T10:11:15.350Z</time>
      </trkpt>
      <trkpt lat="48.41763" lon="2.78026">
        <ele>178</ele>
        <time>2022-08-31T10:11:19.353Z</time>
      </trkpt>
      <trkpt lat="48.41763" lon="2.78041">
        <ele>178</ele>
        <time>2022-08-31T10:11:24.354Z</time>
      </trkpt>
      <trkpt lat="48.41762" lon="2.78055">
        <ele>178</ele>
        <time>2022-08-31T10:11:28.341Z</time>
      </trkpt>
      <trkpt lat="48.4176" lon="2.78071">
        <ele>178</ele>
        <time>2022-08-31T10:11:32.346Z</time>
      </trkpt>
      <trkpt lat="48.41759" lon="2.78086">
        <ele>178</ele>
        <time>2022-08-31T10:11:36.346Z</time>
      </trkpt>
      <trkpt lat="48.41757" lon="2.78103">
        <ele>178</ele>
        <time>2022-08-31T10:11:40.353Z</time>
      </trkpt>
      <trkpt lat="48.4176" lon="2.7812">
        <ele>179</ele>
        <time>2022-08-31T10:11:44.346Z</time>
      </trkpt>
      <trkpt lat="48.41762" lon="2.78136">
        <ele>179</ele>
        <time>2022-08-31T10:11:49.334Z</time>
      </trkpt>
      <trkpt lat="48.41763" lon="2.78151">
        <ele>180</ele>
        <time>2022-08-31T10:11:53.355Z</time>
      </trkpt>
      <trkpt lat="48.41766" lon="2.78164">
        <ele>180</ele>
        <time>2022-08-31T10:11:56.351Z</time>
      </trkpt>
      <trkpt lat="48.41773" lon="2.78175">
        <ele>180</ele>
        <time>2022-08-31T10:11:59.340Z</time>
      </trkpt>
      <trkpt lat="48.41779" lon="2.78193">
        <ele>180</ele>
        <time>2022-08-31T10:12:03.344Z</time>
      </trkpt>
      <trkpt lat="48.41785" lon="2.78211">
        <ele>181</ele>
        <time>2022-08-31T10:12:07.334Z</time>
      </trkpt>
      <trkpt lat="48.41791" lon="2.78229">
        <ele>181</ele>
        <time>2022-08-31T10:12:11.332Z</time>
      </trkpt>
      <trkpt lat="48.418" lon="2.78246">
        <ele>181</ele>
        <time>2022-08-31T10:12:14.329Z</time>
      </trkpt>
      <trkpt lat="48.41806" lon="2.78269">
        <ele>181</ele>
        <time>2022-08-31T10:12:18.342Z</time>
      </trkpt>
      <trkpt lat="48.41812" lon="2.78295">
        <ele>181</ele>
        <time>2022-08-31T10:12:23.349Z</time>
      </trkpt>
      <trkpt lat="48.41817" lon="2.78315">
        <ele>181</ele>
        <time>2022-08-31T10:12:28.343Z</time>
      </trkpt>
      <trkpt lat="48.41818" lon="2.78334">
        <ele>180</ele>
        <time>2022-08-31T10:12:33.335Z</time>
      </trkpt>
      <trkpt lat="48.41815" lon="2.78343">
        <ele>180</ele>
        <time>2022-08-31T10:12:38.344Z</time>
      </trkpt>
      <trkpt lat="48.41813" lon="2.78348">
        <ele>180</ele>
        <time>2022-08-31T10:12:43.335Z</time>
      </trkpt>
      <trkpt lat="48.4181" lon="2.78362">
        <ele>179</ele>
        <time>2022-08-31T10:12:48.343Z</time>
      </trkpt>
      <trkpt lat="48.41804" lon="2.78375">
        <ele>179</ele>
        <time>2022-08-31T10:12:52.345Z</time>
      </trkpt>
      <trkpt lat="48.41794" lon="2.78384">
        <ele>178</ele>
        <time>2022-08-31T10:12:56.342Z</time>
      </trkpt>
      <trkpt lat="48.41789" lon="2.78397">
        <ele>178</ele>
        <time>2022-08-31T10:12:59.339Z</time>
      </trkpt>
      <trkpt lat="48.41784" lon="2.78417">
        <ele>178</ele>
        <time>2022-08-31T10:13:02.350Z</time>
      </trkpt>
      <trkpt lat="48.41778" lon="2.78439">
        <ele>178</ele>
        <time>2022-08-31T10:13:05.342Z</time>
      </trkpt>
      <trkpt lat="48.4177" lon="2.7847">
        <ele>177</ele>
        <time>2022-08-31T10:13:10.342Z</time>
      </trkpt>
      <trkpt lat="48.41759" lon="2.785">
        <ele>177</ele>
        <time>2022-08-31T10:13:15.347Z</time>
      </trkpt>
      <trkpt lat="48.41751" lon="2.78529">
        <ele>176</ele>
        <time>2022-08-31T10:13:20.334Z</time>
      </trkpt>
      <trkpt lat="48.41743" lon="2.78555">
        <ele>175</ele>
        <time>2022-08-31T10:13:25.334Z</time>
      </trkpt>
      <trkpt lat="48.41738" lon="2.78581">
        <ele>174</ele>
        <time>2022-08-31T10:13:30.346Z</time>
      </trkpt>
      <trkpt lat="48.4173" lon="2.78606">
        <ele>174</ele>
        <time>2022-08-31T10:13:34.350Z</time>
      </trkpt>
      <trkpt lat="48.41722" lon="2.7863">
        <ele>173</ele>
        <time>2022-08-31T10:13:38.348Z</time>
      </trkpt>
      <trkpt lat="48.41717" lon="2.78657">
        <ele>172</ele>
        <time>2022-08-31T10:13:43.344Z</time>
      </trkpt>
      <trkpt lat="48.41717" lon="2.7868">
        <ele>170</ele>
        <time>2022-08-31T10:13:48.340Z</time>
      </trkpt>
      <trkpt lat="48.41717" lon="2.78703">
        <ele>169</ele>
        <time>2022-08-31T10:13:52.346Z</time>
      </trkpt>
      <trkpt lat="48.41716" lon="2.78723">
        <ele>168</ele>
        <time>2022-08-31T10:13:56.340Z</time>
      </trkpt>
      <trkpt lat="48.41713" lon="2.78743">
        <ele>167</ele>
        <time>2022-08-31T10:14:00.340Z</time>
      </trkpt>
      <trkpt lat="48.41712" lon="2.78762">
        <ele>167</ele>
        <time>2022-08-31T10:14:04.339Z</time>
      </trkpt>
      <trkpt lat="48.41709" lon="2.78787">
        <ele>166</ele>
        <time>2022-08-31T10:14:08.337Z</time>
      </trkpt>
      <trkpt lat="48.41705" lon="2.78812">
        <ele>165</ele>
        <time>2022-08-31T10:14:12.346Z</time>
      </trkpt>
      <trkpt lat="48.417" lon="2.78839">
        <ele>165</ele>
        <time>2022-08-31T10:14:16.337Z</time>
      </trkpt>
      <trkpt lat="48.41697" lon="2.78866">
        <ele>164</ele>
        <time>2022-08-31T10:14:21.350Z</time>
      </trkpt>
      <trkpt lat="48.41695" lon="2.78891">
        <ele>164</ele>
        <time>2022-08-31T10:14:26.351Z</time>
      </trkpt>
      <trkpt lat="48.41695" lon="2.78913">
        <ele>164</ele>
        <time>2022-08-31T10:14:30.345Z</time>
      </trkpt>
      <trkpt lat="48.41693" lon="2.78935">
        <ele>164</ele>
        <time>2022-08-31T10:14:34.348Z</time>
      </trkpt>
      <trkpt lat="48.41687" lon="2.78956">
        <ele>164</ele>
        <time>2022-08-31T10:14:39.347Z</time>
      </trkpt>
      <trkpt lat="48.41684" lon="2.78977">
        <ele>164</ele>
        <time>2022-08-31T10:14:44.352Z</time>
      </trkpt>
      <trkpt lat="48.41681" lon="2.78995">
        <ele>163</ele>
        <time>2022-08-31T10:14:48.339Z</time>
      </trkpt>
      <trkpt lat="48.41678" lon="2.79013">
        <ele>163</ele>
        <time>2022-08-31T10:14:52.343Z</time>
      </trkpt>
      <trkpt lat="48.41676" lon="2.79035">
        <ele>163</ele>
        <time>2022-08-31T10:14:56.341Z</time>
      </trkpt>
      <trkpt lat="48.41674" lon="2.79056">
        <ele>162</ele>
        <time>2022-08-31T10:15:00.349Z</time>
      </trkpt>
      <trkpt lat="48.41675" lon="2.79079">
        <ele>162</ele>
        <time>2022-08-31T10:15:04.356Z</time>
      </trkpt>
      <trkpt lat="48.41673" lon="2.79101">
        <ele>162</ele>
        <time>2022-08-31T10:15:08.361Z</time>
      </trkpt>
      <trkpt lat="48.41668" lon="2.79121">
        <ele>162</ele>
        <time>2022-08-31T10:15:12.362Z</time>
      </trkpt>
      <trkpt lat="48.41667" lon="2.79145">
        <ele>163</ele>
        <time>2022-08-31T10:15:17.354Z</time>
      </trkpt>
      <trkpt lat="48.41668" lon="2.79166">
        <ele>163</ele>
        <time>2022-08-31T10:15:21.349Z</time>
      </trkpt>
      <trkpt lat="48.41673" lon="2.79178">
        <ele>162</ele>
        <time>2022-08-31T10:15:28.346Z</time>
      </trkpt>
      <trkpt lat="48.41673" lon="2.79178">
        <ele>162</ele>
        <time>2022-08-31T10:15:29.352Z</time>
      </trkpt>
      <trkpt lat="48.41672" lon="2.79184">
        <ele>159</ele>
        <time>2022-08-31T10:17:54.344Z</time>
      </trkpt>
      <trkpt lat="48.41671" lon="2.79186">
        <ele>158</ele>
        <time>2022-08-31T10:18:00.361Z</time>
      </trkpt>
      <trkpt lat="48.41669" lon="2.79181">
        <ele>158</ele>
        <time>2022-08-31T10:18:07.344Z</time>
      </trkpt>
      <trkpt lat="48.41669" lon="2.79167">
        <ele>157</ele>
        <time>2022-08-31T10:18:12.338Z</time>
      </trkpt>
      <trkpt lat="48.41662" lon="2.79179">
        <ele>155</ele>
        <time>2022-08-31T10:18:27.350Z</time>
      </trkpt>
      <trkpt lat="48.41658" lon="2.79194">
        <ele>155</ele>
        <time>2022-08-31T10:18:32.348Z</time>
      </trkpt>
      <trkpt lat="48.41656" lon="2.79207">
        <ele>154</ele>
        <time>2022-08-31T10:18:36.343Z</time>
      </trkpt>
      <trkpt lat="48.41651" lon="2.79222">
        <ele>154</ele>
        <time>2022-08-31T10:18:40.343Z</time>
      </trkpt>
      <trkpt lat="48.41645" lon="2.79233">
        <ele>154</ele>
        <time>2022-08-31T10:18:43.344Z</time>
      </trkpt>
      <trkpt lat="48.41639" lon="2.79246">
        <ele>154</ele>
        <time>2022-08-31T10:18:47.336Z</time>
      </trkpt>
      <trkpt lat="48.41634" lon="2.79262">
        <ele>154</ele>
        <time>2022-08-31T10:18:51.338Z</time>
      </trkpt>
      <trkpt lat="48.41631" lon="2.79277">
        <ele>154</ele>
        <time>2022-08-31T10:18:55.343Z</time>
      </trkpt>
      <trkpt lat="48.4163" lon="2.7928">
        <ele>155</ele>
        <time>2022-08-31T10:18:58.337Z</time>
      </trkpt>
      <trkpt lat="48.41626" lon="2.7929">
        <ele>155</ele>
        <time>2022-08-31T10:19:07.342Z</time>
      </trkpt>
      <trkpt lat="48.41623" lon="2.79303">
        <ele>156</ele>
        <time>2022-08-31T10:19:11.343Z</time>
      </trkpt>
      <trkpt lat="48.41621" lon="2.79317">
        <ele>156</ele>
        <time>2022-08-31T10:19:14.338Z</time>
      </trkpt>
      <trkpt lat="48.41621" lon="2.79332">
        <ele>156</ele>
        <time>2022-08-31T10:19:18.344Z</time>
      </trkpt>
      <trkpt lat="48.41619" lon="2.79345">
        <ele>156</ele>
        <time>2022-08-31T10:19:21.344Z</time>
      </trkpt>
      <trkpt lat="48.41616" lon="2.79362">
        <ele>156</ele>
        <time>2022-08-31T10:19:24.357Z</time>
      </trkpt>
      <trkpt lat="48.41613" lon="2.79382">
        <ele>156</ele>
        <time>2022-08-31T10:19:27.351Z</time>
      </trkpt>
      <trkpt lat="48.41609" lon="2.79406">
        <ele>156</ele>
        <time>2022-08-31T10:19:31.344Z</time>
      </trkpt>
      <trkpt lat="48.41604" lon="2.79429">
        <ele>156</ele>
        <time>2022-08-31T10:19:35.344Z</time>
      </trkpt>
      <trkpt lat="48.41601" lon="2.79457">
        <ele>155</ele>
        <time>2022-08-31T10:19:39.342Z</time>
      </trkpt>
      <trkpt lat="48.41602" lon="2.79485">
        <ele>154</ele>
        <time>2022-08-31T10:19:43.338Z</time>
      </trkpt>
      <trkpt lat="48.41598" lon="2.79517">
        <ele>154</ele>
        <time>2022-08-31T10:19:48.349Z</time>
      </trkpt>
      <trkpt lat="48.41595" lon="2.79549">
        <ele>153</ele>
        <time>2022-08-31T10:19:53.348Z</time>
      </trkpt>
      <trkpt lat="48.4159" lon="2.79581">
        <ele>153</ele>
        <time>2022-08-31T10:19:57.338Z</time>
      </trkpt>
      <trkpt lat="48.41587" lon="2.79598">
        <ele>152</ele>
        <time>2022-08-31T10:20:04.350Z</time>
      </trkpt>
      <trkpt lat="48.41588" lon="2.79592">
        <ele>151</ele>
        <time>2022-08-31T10:20:09.352Z</time>
      </trkpt>
      <trkpt lat="48.41585" lon="2.79577">
        <ele>151</ele>
        <time>2022-08-31T10:20:16.345Z</time>
      </trkpt>
      <trkpt lat="48.41574" lon="2.79576">
        <ele>151</ele>
        <time>2022-08-31T10:20:21.345Z</time>
      </trkpt>
      <trkpt lat="48.41563" lon="2.79577">
        <ele>151</ele>
        <time>2022-08-31T10:20:24.346Z</time>
      </trkpt>
      <trkpt lat="48.41551" lon="2.79577">
        <ele>151</ele>
        <time>2022-08-31T10:20:27.347Z</time>
      </trkpt>
      <trkpt lat="48.41538" lon="2.79575">
        <ele>151</ele>
        <time>2022-08-31T10:20:30.344Z</time>
      </trkpt>
      <trkpt lat="48.41521" lon="2.79576">
        <ele>151</ele>
        <time>2022-08-31T10:20:35.343Z</time>
      </trkpt>
      <trkpt lat="48.41506" lon="2.79574">
        <ele>150</ele>
        <time>2022-08-31T10:20:40.352Z</time>
      </trkpt>
      <trkpt lat="48.41494" lon="2.7957">
        <ele>150</ele>
        <time>2022-08-31T10:20:44.352Z</time>
      </trkpt>
      <trkpt lat="48.41482" lon="2.79574">
        <ele>149</ele>
        <time>2022-08-31T10:20:48.349Z</time>
      </trkpt>
      <trkpt lat="48.41476" lon="2.79593">
        <ele>149</ele>
        <time>2022-08-31T10:20:53.352Z</time>
      </trkpt>
      <trkpt lat="48.41471" lon="2.79611">
        <ele>149</ele>
        <time>2022-08-31T10:20:57.352Z</time>
      </trkpt>
      <trkpt lat="48.41464" lon="2.7963">
        <ele>149</ele>
        <time>2022-08-31T10:21:01.360Z</time>
      </trkpt>
      <trkpt lat="48.41452" lon="2.79643">
        <ele>149</ele>
        <time>2022-08-31T10:21:05.350Z</time>
      </trkpt>
      <trkpt lat="48.41439" lon="2.79655">
        <ele>150</ele>
        <time>2022-08-31T10:21:09.347Z</time>
      </trkpt>
      <trkpt lat="48.41428" lon="2.79671">
        <ele>150</ele>
        <time>2022-08-31T10:21:13.351Z</time>
      </trkpt>
      <trkpt lat="48.41417" lon="2.79688">
        <ele>150</ele>
        <time>2022-08-31T10:21:17.366Z</time>
      </trkpt>
      <trkpt lat="48.41407" lon="2.7971">
        <ele>151</ele>
        <time>2022-08-31T10:21:21.340Z</time>
      </trkpt>
      <trkpt lat="48.41395" lon="2.79729">
        <ele>151</ele>
        <time>2022-08-31T10:21:25.351Z</time>
      </trkpt>
      <trkpt lat="48.4138" lon="2.79747">
        <ele>152</ele>
        <time>2022-08-31T10:21:31.346Z</time>
      </trkpt>
      <trkpt lat="48.41367" lon="2.79761">
        <ele>153</ele>
        <time>2022-08-31T10:21:36.339Z</time>
      </trkpt>
      <trkpt lat="48.41354" lon="2.79773">
        <ele>154</ele>
        <time>2022-08-31T10:21:40.349Z</time>
      </trkpt>
      <trkpt lat="48.41344" lon="2.79786">
        <ele>154</ele>
        <time>2022-08-31T10:21:45.345Z</time>
      </trkpt>
      <trkpt lat="48.41335" lon="2.798">
        <ele>154</ele>
        <time>2022-08-31T10:21:49.349Z</time>
      </trkpt>
      <trkpt lat="48.41324" lon="2.79813">
        <ele>155</ele>
        <time>2022-08-31T10:21:53.354Z</time>
      </trkpt>
      <trkpt lat="48.41312" lon="2.79824">
        <ele>155</ele>
        <time>2022-08-31T10:21:55.360Z</time>
      </trkpt>
      <trkpt lat="48.41299" lon="2.79837">
        <ele>155</ele>
        <time>2022-08-31T10:21:58.336Z</time>
      </trkpt>
      <trkpt lat="48.41283" lon="2.79857">
        <ele>156</ele>
        <time>2022-08-31T10:22:04.343Z</time>
      </trkpt>
      <trkpt lat="48.41268" lon="2.79873">
        <ele>156</ele>
        <time>2022-08-31T10:22:09.345Z</time>
      </trkpt>
      <trkpt lat="48.41255" lon="2.79884">
        <ele>157</ele>
        <time>2022-08-31T10:22:13.342Z</time>
      </trkpt>
      <trkpt lat="48.41246" lon="2.79899">
        <ele>158</ele>
        <time>2022-08-31T10:22:17.332Z</time>
      </trkpt>
      <trkpt lat="48.41237" lon="2.79914">
        <ele>159</ele>
        <time>2022-08-31T10:22:22.361Z</time>
      </trkpt>
      <trkpt lat="48.41227" lon="2.79927">
        <ele>159</ele>
        <time>2022-08-31T10:22:26.351Z</time>
      </trkpt>
      <trkpt lat="48.4122" lon="2.79941">
        <ele>160</ele>
        <time>2022-08-31T10:22:29.346Z</time>
      </trkpt>
      <trkpt lat="48.41213" lon="2.79958">
        <ele>160</ele>
        <time>2022-08-31T10:22:33.344Z</time>
      </trkpt>
      <trkpt lat="48.41204" lon="2.79972">
        <ele>161</ele>
        <time>2022-08-31T10:22:38.346Z</time>
      </trkpt>
      <trkpt lat="48.41198" lon="2.79986">
        <ele>161</ele>
        <time>2022-08-31T10:22:43.345Z</time>
      </trkpt>
      <trkpt lat="48.41197" lon="2.80003">
        <ele>161</ele>
        <time>2022-08-31T10:22:48.346Z</time>
      </trkpt>
      <trkpt lat="48.41194" lon="2.8002">
        <ele>161</ele>
        <time>2022-08-31T10:22:52.352Z</time>
      </trkpt>
      <trkpt lat="48.4119" lon="2.80036">
        <ele>162</ele>
        <time>2022-08-31T10:22:56.340Z</time>
      </trkpt>
      <trkpt lat="48.41187" lon="2.80053">
        <ele>162</ele>
        <time>2022-08-31T10:23:00.342Z</time>
      </trkpt>
      <trkpt lat="48.41181" lon="2.80068">
        <ele>162</ele>
        <time>2022-08-31T10:23:05.349Z</time>
      </trkpt>
      <trkpt lat="48.41171" lon="2.80077">
        <ele>162</ele>
        <time>2022-08-31T10:23:09.330Z</time>
      </trkpt>
      <trkpt lat="48.41164" lon="2.80084">
        <ele>162</ele>
        <time>2022-08-31T10:23:12.346Z</time>
      </trkpt>
      <trkpt lat="48.41156" lon="2.80094">
        <ele>162</ele>
        <time>2022-08-31T10:23:15.342Z</time>
      </trkpt>
      <trkpt lat="48.41147" lon="2.80111">
        <ele>162</ele>
        <time>2022-08-31T10:23:19.349Z</time>
      </trkpt>
      <trkpt lat="48.41138" lon="2.80131">
        <ele>163</ele>
        <time>2022-08-31T10:23:23.348Z</time>
      </trkpt>
      <trkpt lat="48.41129" lon="2.80154">
        <ele>163</ele>
        <time>2022-08-31T10:23:28.323Z</time>
      </trkpt>
      <trkpt lat="48.41121" lon="2.80174">
        <ele>163</ele>
        <time>2022-08-31T10:23:32.345Z</time>
      </trkpt>
      <trkpt lat="48.41113" lon="2.80199">
        <ele>164</ele>
        <time>2022-08-31T10:23:37.332Z</time>
      </trkpt>
      <trkpt lat="48.41103" lon="2.80221">
        <ele>164</ele>
        <time>2022-08-31T10:23:40.335Z</time>
      </trkpt>
      <trkpt lat="48.41094" lon="2.80245">
        <ele>164</ele>
        <time>2022-08-31T10:23:44.341Z</time>
      </trkpt>
      <trkpt lat="48.41085" lon="2.80269">
        <ele>164</ele>
        <time>2022-08-31T10:23:48.339Z</time>
      </trkpt>
      <trkpt lat="48.41073" lon="2.80301">
        <ele>164</ele>
        <time>2022-08-31T10:23:52.344Z</time>
      </trkpt>
      <trkpt lat="48.41062" lon="2.80329">
        <ele>164</ele>
        <time>2022-08-31T10:23:58.345Z</time>
      </trkpt>
      <trkpt lat="48.41055" lon="2.80351">
        <ele>164</ele>
        <time>2022-08-31T10:24:03.348Z</time>
      </trkpt>
      <trkpt lat="48.41048" lon="2.80371">
        <ele>164</ele>
        <time>2022-08-31T10:24:08.346Z</time>
      </trkpt>
      <trkpt lat="48.41041" lon="2.80389">
        <ele>164</ele>
        <time>2022-08-31T10:24:12.352Z</time>
      </trkpt>
      <trkpt lat="48.41035" lon="2.80405">
        <ele>164</ele>
        <time>2022-08-31T10:24:16.342Z</time>
      </trkpt>
      <trkpt lat="48.41028" lon="2.80424">
        <ele>163</ele>
        <time>2022-08-31T10:24:21.342Z</time>
      </trkpt>
      <trkpt lat="48.41019" lon="2.8044">
        <ele>163</ele>
        <time>2022-08-31T10:24:25.343Z</time>
      </trkpt>
      <trkpt lat="48.41012" lon="2.80456">
        <ele>163</ele>
        <time>2022-08-31T10:24:29.341Z</time>
      </trkpt>
      <trkpt lat="48.41003" lon="2.80473">
        <ele>163</ele>
        <time>2022-08-31T10:24:33.345Z</time>
      </trkpt>
      <trkpt lat="48.40995" lon="2.8049">
        <ele>163</ele>
        <time>2022-08-31T10:24:38.349Z</time>
      </trkpt>
      <trkpt lat="48.40995" lon="2.80507">
        <ele>162</ele>
        <time>2022-08-31T10:24:43.343Z</time>
      </trkpt>
      <trkpt lat="48.40998" lon="2.8052">
        <ele>162</ele>
        <time>2022-08-31T10:24:48.340Z</time>
      </trkpt>
      <trkpt lat="48.41002" lon="2.80534">
        <ele>162</ele>
        <time>2022-08-31T10:24:51.345Z</time>
      </trkpt>
      <trkpt lat="48.41003" lon="2.80551">
        <ele>163</ele>
        <time>2022-08-31T10:24:55.342Z</time>
      </trkpt>
      <trkpt lat="48.41001" lon="2.80566">
        <ele>163</ele>
        <time>2022-08-31T10:24:58.332Z</time>
      </trkpt>
      <trkpt lat="48.40996" lon="2.80582">
        <ele>163</ele>
        <time>2022-08-31T10:25:02.342Z</time>
      </trkpt>
      <trkpt lat="48.4099" lon="2.80602">
        <ele>163</ele>
        <time>2022-08-31T10:25:06.340Z</time>
      </trkpt>
      <trkpt lat="48.40986" lon="2.80621">
        <ele>163</ele>
        <time>2022-08-31T10:25:09.333Z</time>
      </trkpt>
      <trkpt lat="48.40978" lon="2.80643">
        <ele>164</ele>
        <time>2022-08-31T10:25:13.349Z</time>
      </trkpt>
      <trkpt lat="48.40963" lon="2.80656">
        <ele>164</ele>
        <time>2022-08-31T10:25:18.343Z</time>
      </trkpt>
      <trkpt lat="48.40948" lon="2.80673">
        <ele>164</ele>
        <time>2022-08-31T10:25:23.337Z</time>
      </trkpt>
      <trkpt lat="48.4094" lon="2.80691">
        <ele>164</ele>
        <time>2022-08-31T10:25:27.345Z</time>
      </trkpt>
      <trkpt lat="48.40931" lon="2.80707">
        <ele>164</ele>
        <time>2022-08-31T10:25:31.339Z</time>
      </trkpt>
      <trkpt lat="48.40917" lon="2.80715">
        <ele>165</ele>
        <time>2022-08-31T10:25:35.330Z</time>
      </trkpt>
      <trkpt lat="48.40901" lon="2.8072">
        <ele>165</ele>
        <time>2022-08-31T10:25:38.350Z</time>
      </trkpt>
      <trkpt lat="48.4088" lon="2.80725">
        <ele>164</ele>
        <time>2022-08-31T10:25:42.342Z</time>
      </trkpt>
      <trkpt lat="48.40863" lon="2.8073">
        <ele>163</ele>
        <time>2022-08-31T10:25:50.345Z</time>
      </trkpt>
      <trkpt lat="48.40862" lon="2.80723">
        <ele>159</ele>
        <time>2022-08-31T10:26:04.340Z</time>
      </trkpt>
      <trkpt lat="48.40857" lon="2.80708">
        <ele>158</ele>
        <time>2022-08-31T10:26:08.343Z</time>
      </trkpt>
      <trkpt lat="48.40853" lon="2.80696">
        <ele>157</ele>
        <time>2022-08-31T10:26:11.339Z</time>
      </trkpt>
      <trkpt lat="48.40849" lon="2.80682">
        <ele>156</ele>
        <time>2022-08-31T10:26:15.345Z</time>
      </trkpt>
      <trkpt lat="48.40843" lon="2.8067">
        <ele>155</ele>
        <time>2022-08-31T10:26:18.341Z</time>
      </trkpt>
      <trkpt lat="48.40837" lon="2.80658">
        <ele>155</ele>
        <time>2022-08-31T10:26:22.333Z</time>
      </trkpt>
      <trkpt lat="48.40831" lon="2.80644">
        <ele>154</ele>
        <time>2022-08-31T10:26:25.342Z</time>
      </trkpt>
      <trkpt lat="48.40825" lon="2.80627">
        <ele>154</ele>
        <time>2022-08-31T10:26:29.338Z</time>
      </trkpt>
      <trkpt lat="48.40819" lon="2.80613">
        <ele>154</ele>
        <time>2022-08-31T10:26:32.338Z</time>
      </trkpt>
      <trkpt lat="48.40806" lon="2.80593">
        <ele>154</ele>
        <time>2022-08-31T10:26:36.348Z</time>
      </trkpt>
      <trkpt lat="48.4079" lon="2.80577">
        <ele>154</ele>
        <time>2022-08-31T10:26:40.341Z</time>
      </trkpt>
      <trkpt lat="48.40771" lon="2.8056">
        <ele>154</ele>
        <time>2022-08-31T10:26:45.344Z</time>
      </trkpt>
      <trkpt lat="48.4076" lon="2.80534">
        <ele>154</ele>
        <time>2022-08-31T10:26:51.336Z</time>
      </trkpt>
      <trkpt lat="48.40757" lon="2.8051">
        <ele>154</ele>
        <time>2022-08-31T10:26:55.365Z</time>
      </trkpt>
      <trkpt lat="48.40752" lon="2.80483">
        <ele>153</ele>
        <time>2022-08-31T10:27:00.337Z</time>
      </trkpt>
      <trkpt lat="48.40749" lon="2.80459">
        <ele>153</ele>
        <time>2022-08-31T10:27:04.340Z</time>
      </trkpt>
      <trkpt lat="48.40747" lon="2.8043">
        <ele>153</ele>
        <time>2022-08-31T10:27:08.343Z</time>
      </trkpt>
      <trkpt lat="48.40741" lon="2.80404">
        <ele>152</ele>
        <time>2022-08-31T10:27:12.346Z</time>
      </trkpt>
      <trkpt lat="48.40732" lon="2.80373">
        <ele>152</ele>
        <time>2022-08-31T10:27:15.344Z</time>
      </trkpt>
      <trkpt lat="48.40724" lon="2.80339">
        <ele>150</ele>
        <time>2022-08-31T10:27:20.352Z</time>
      </trkpt>
      <trkpt lat="48.40714" lon="2.80312">
        <ele>149</ele>
        <time>2022-08-31T10:27:25.354Z</time>
      </trkpt>
      <trkpt lat="48.40711" lon="2.80293">
        <ele>148</ele>
        <time>2022-08-31T10:27:32.339Z</time>
      </trkpt>
      <trkpt lat="48.40708" lon="2.8028">
        <ele>147</ele>
        <time>2022-08-31T10:27:35.347Z</time>
      </trkpt>
      <trkpt lat="48.40704" lon="2.80263">
        <ele>147</ele>
        <time>2022-08-31T10:27:38.343Z</time>
      </trkpt>
      <trkpt lat="48.40699" lon="2.80249">
        <ele>146</ele>
        <time>2022-08-31T10:27:41.346Z</time>
      </trkpt>
      <trkpt lat="48.40689" lon="2.80235">
        <ele>145</ele>
        <time>2022-08-31T10:27:44.341Z</time>
      </trkpt>
      <trkpt lat="48.40674" lon="2.80217">
        <ele>145</ele>
        <time>2022-08-31T10:27:48.338Z</time>
      </trkpt>
      <trkpt lat="48.40655" lon="2.80204">
        <ele>144</ele>
        <time>2022-08-31T10:27:52.351Z</time>
      </trkpt>
      <trkpt lat="48.40638" lon="2.80194">
        <ele>142</ele>
        <time>2022-08-31T10:28:00.344Z</time>
      </trkpt>
      <trkpt lat="48.40635" lon="2.80189">
        <ele>141</ele>
        <time>2022-08-31T10:28:04.343Z</time>
      </trkpt>
      <trkpt lat="48.40631" lon="2.80173">
        <ele>140</ele>
        <time>2022-08-31T10:28:08.343Z</time>
      </trkpt>
      <trkpt lat="48.40625" lon="2.80157">
        <ele>139</ele>
        <time>2022-08-31T10:28:12.341Z</time>
      </trkpt>
      <trkpt lat="48.4062" lon="2.80145">
        <ele>139</ele>
        <time>2022-08-31T10:28:15.348Z</time>
      </trkpt>
      <trkpt lat="48.40613" lon="2.80132">
        <ele>138</ele>
        <time>2022-08-31T10:28:19.345Z</time>
      </trkpt>
      <trkpt lat="48.40617" lon="2.80118">
        <ele>136</ele>
        <time>2022-08-31T10:28:25.342Z</time>
      </trkpt>
      <trkpt lat="48.40626" lon="2.80108">
        <ele>135</ele>
        <time>2022-08-31T10:28:28.341Z</time>
      </trkpt>
      <trkpt lat="48.40635" lon="2.80098">
        <ele>134</ele>
        <time>2022-08-31T10:28:31.341Z</time>
      </trkpt>
      <trkpt lat="48.40644" lon="2.80088">
        <ele>134</ele>
        <time>2022-08-31T10:28:34.350Z</time>
      </trkpt>
      <trkpt lat="48.40655" lon="2.80074">
        <ele>132</ele>
        <time>2022-08-31T10:28:38.347Z</time>
      </trkpt>
      <trkpt lat="48.40668" lon="2.80058">
        <ele>131</ele>
        <time>2022-08-31T10:28:43.345Z</time>
      </trkpt>
      <trkpt lat="48.40656" lon="2.80061">
        <ele>130</ele>
        <time>2022-08-31T10:28:50.351Z</time>
      </trkpt>
      <trkpt lat="48.40647" lon="2.8007">
        <ele>129</ele>
        <time>2022-08-31T10:28:53.350Z</time>
      </trkpt>
      <trkpt lat="48.40639" lon="2.80078">
        <ele>129</ele>
        <time>2022-08-31T10:28:56.340Z</time>
      </trkpt>
      <trkpt lat="48.40627" lon="2.80086">
        <ele>128</ele>
        <time>2022-08-31T10:29:00.340Z</time>
      </trkpt>
      <trkpt lat="48.40615" lon="2.80092">
        <ele>128</ele>
        <time>2022-08-31T10:29:05.338Z</time>
      </trkpt>
      <trkpt lat="48.40607" lon="2.80084">
        <ele>127</ele>
        <time>2022-08-31T10:29:10.342Z</time>
      </trkpt>
      <trkpt lat="48.40598" lon="2.80079">
        <ele>127</ele>
        <time>2022-08-31T10:29:14.348Z</time>
      </trkpt>
      <trkpt lat="48.40588" lon="2.80076">
        <ele>127</ele>
        <time>2022-08-31T10:29:17.343Z</time>
      </trkpt>
      <trkpt lat="48.40577" lon="2.80074">
        <ele>126</ele>
        <time>2022-08-31T10:29:21.335Z</time>
      </trkpt>
      <trkpt lat="48.40566" lon="2.80068">
        <ele>125</ele>
        <time>2022-08-31T10:29:25.340Z</time>
      </trkpt>
      <trkpt lat="48.40556" lon="2.80063">
        <ele>123</ele>
        <time>2022-08-31T10:29:30.345Z</time>
      </trkpt>
      <trkpt lat="48.40547" lon="2.80068">
        <ele>122</ele>
        <time>2022-08-31T10:29:34.349Z</time>
      </trkpt>
      <trkpt lat="48.40537" lon="2.80072">
        <ele>121</ele>
        <time>2022-08-31T10:29:37.346Z</time>
      </trkpt>
      <trkpt lat="48.40527" lon="2.80075">
        <ele>119</ele>
        <time>2022-08-31T10:29:41.344Z</time>
      </trkpt>
      <trkpt lat="48.40536" lon="2.80063">
        <ele>115</ele>
        <time>2022-08-31T10:29:51.346Z</time>
      </trkpt>
      <trkpt lat="48.40544" lon="2.80058">
        <ele>114</ele>
        <time>2022-08-31T10:29:54.344Z</time>
      </trkpt>
      <trkpt lat="48.40549" lon="2.80041">
        <ele>113</ele>
        <time>2022-08-31T10:29:57.340Z</time>
      </trkpt>
      <trkpt lat="48.40548" lon="2.80027">
        <ele>112</ele>
        <time>2022-08-31T10:29:59.341Z</time>
      </trkpt>
      <trkpt lat="48.40559" lon="2.80006">
        <ele>110</ele>
        <time>2022-08-31T10:30:03.334Z</time>
      </trkpt>
      <trkpt lat="48.40575" lon="2.79999">
        <ele>109</ele>
        <time>2022-08-31T10:30:08.341Z</time>
      </trkpt>
      <trkpt lat="48.40577" lon="2.79978">
        <ele>107</ele>
        <time>2022-08-31T10:30:13.341Z</time>
      </trkpt>
      <trkpt lat="48.40575" lon="2.79958">
        <ele>106</ele>
        <time>2022-08-31T10:30:17.339Z</time>
      </trkpt>
      <trkpt lat="48.40584" lon="2.79947">
        <ele>105</ele>
        <time>2022-08-31T10:30:23.348Z</time>
      </trkpt>
      <trkpt lat="48.40593" lon="2.79946">
        <ele>103</ele>
        <time>2022-08-31T10:30:29.341Z</time>
      </trkpt>
      <trkpt lat="48.40606" lon="2.79943">
        <ele>102</ele>
        <time>2022-08-31T10:30:33.344Z</time>
      </trkpt>
      <trkpt lat="48.40615" lon="2.79938">
        <ele>101</ele>
        <time>2022-08-31T10:30:36.341Z</time>
      </trkpt>
      <trkpt lat="48.40626" lon="2.79931">
        <ele>101</ele>
        <time>2022-08-31T10:30:40.334Z</time>
      </trkpt>
      <trkpt lat="48.40636" lon="2.79923">
        <ele>100</ele>
        <time>2022-08-31T10:30:44.340Z</time>
      </trkpt>
      <trkpt lat="48.40647" lon="2.79916">
        <ele>99</ele>
        <time>2022-08-31T10:30:48.351Z</time>
      </trkpt>
      <trkpt lat="48.40654" lon="2.79909">
        <ele>99</ele>
        <time>2022-08-31T10:30:54.345Z</time>
      </trkpt>
      <trkpt lat="48.40653" lon="2.79895">
        <ele>98</ele>
        <time>2022-08-31T10:31:00.348Z</time>
      </trkpt>
      <trkpt lat="48.40642" lon="2.79892">
        <ele>98</ele>
        <time>2022-08-31T10:31:03.342Z</time>
      </trkpt>
      <trkpt lat="48.4063" lon="2.79899">
        <ele>98</ele>
        <time>2022-08-31T10:31:06.338Z</time>
      </trkpt>
      <trkpt lat="48.40615" lon="2.79906">
        <ele>99</ele>
        <time>2022-08-31T10:31:10.331Z</time>
      </trkpt>
      <trkpt lat="48.40599" lon="2.79913">
        <ele>99</ele>
        <time>2022-08-31T10:31:15.346Z</time>
      </trkpt>
      <trkpt lat="48.40587" lon="2.79928">
        <ele>99</ele>
        <time>2022-08-31T10:31:20.349Z</time>
      </trkpt>
      <trkpt lat="48.40578" lon="2.79921">
        <ele>99</ele>
        <time>2022-08-31T10:31:25.343Z</time>
      </trkpt>
      <trkpt lat="48.40582" lon="2.799">
        <ele>99</ele>
        <time>2022-08-31T10:31:28.341Z</time>
      </trkpt>
      <trkpt lat="48.40587" lon="2.79879">
        <ele>100</ele>
        <time>2022-08-31T10:31:31.335Z</time>
      </trkpt>
      <trkpt lat="48.40591" lon="2.79857">
        <ele>100</ele>
        <time>2022-08-31T10:31:34.335Z</time>
      </trkpt>
      <trkpt lat="48.40592" lon="2.7982">
        <ele>100</ele>
        <time>2022-08-31T10:31:39.340Z</time>
      </trkpt>
      <trkpt lat="48.40593" lon="2.79787">
        <ele>100</ele>
        <time>2022-08-31T10:31:44.342Z</time>
      </trkpt>
      <trkpt lat="48.40594" lon="2.79757">
        <ele>100</ele>
        <time>2022-08-31T10:31:49.348Z</time>
      </trkpt>
      <trkpt lat="48.40595" lon="2.79729">
        <ele>100</ele>
        <time>2022-08-31T10:31:54.338Z</time>
      </trkpt>
      <trkpt lat="48.40596" lon="2.79706">
        <ele>101</ele>
        <time>2022-08-31T10:31:58.344Z</time>
      </trkpt>
      <trkpt lat="48.40597" lon="2.7968">
        <ele>101</ele>
        <time>2022-08-31T10:32:02.357Z</time>
      </trkpt>
      <trkpt lat="48.40598" lon="2.79653">
        <ele>101</ele>
        <time>2022-08-31T10:32:06.346Z</time>
      </trkpt>
      <trkpt lat="48.40599" lon="2.79619">
        <ele>101</ele>
        <time>2022-08-31T10:32:10.344Z</time>
      </trkpt>
      <trkpt lat="48.40601" lon="2.79588">
        <ele>101</ele>
        <time>2022-08-31T10:32:13.343Z</time>
      </trkpt>
      <trkpt lat="48.40601" lon="2.79552">
        <ele>101</ele>
        <time>2022-08-31T10:32:16.338Z</time>
      </trkpt>
      <trkpt lat="48.40602" lon="2.79497">
        <ele>101</ele>
        <time>2022-08-31T10:32:20.343Z</time>
      </trkpt>
      <trkpt lat="48.40607" lon="2.79436">
        <ele>100</ele>
        <time>2022-08-31T10:32:25.341Z</time>
      </trkpt>
      <trkpt lat="48.40616" lon="2.79379">
        <ele>99</ele>
        <time>2022-08-31T10:32:30.345Z</time>
      </trkpt>
      <trkpt lat="48.40625" lon="2.79322">
        <ele>98</ele>
        <time>2022-08-31T10:32:36.331Z</time>
      </trkpt>
      <trkpt lat="48.40632" lon="2.7928">
        <ele>97</ele>
        <time>2022-08-31T10:32:41.343Z</time>
      </trkpt>
      <trkpt lat="48.40639" lon="2.79238">
        <ele>96</ele>
        <time>2022-08-31T10:32:46.347Z</time>
      </trkpt>
      <trkpt lat="48.40646" lon="2.79196">
        <ele>95</ele>
        <time>2022-08-31T10:32:51.334Z</time>
      </trkpt>
      <trkpt lat="48.40652" lon="2.79158">
        <ele>94</ele>
        <time>2022-08-31T10:32:56.345Z</time>
      </trkpt>
      <trkpt lat="48.40659" lon="2.79125">
        <ele>93</ele>
        <time>2022-08-31T10:33:01.341Z</time>
      </trkpt>
      <trkpt lat="48.40642" lon="2.7912">
        <ele>93</ele>
        <time>2022-08-31T10:33:07.347Z</time>
      </trkpt>
      <trkpt lat="48.40648" lon="2.79142">
        <ele>93</ele>
        <time>2022-08-31T10:33:12.349Z</time>
      </trkpt>
      <trkpt lat="48.40661" lon="2.7913">
        <ele>93</ele>
        <time>2022-08-31T10:33:16.348Z</time>
      </trkpt>
      <trkpt lat="48.40663" lon="2.79107">
        <ele>93</ele>
        <time>2022-08-31T10:33:19.347Z</time>
      </trkpt>
      <trkpt lat="48.40668" lon="2.79075">
        <ele>93</ele>
        <time>2022-08-31T10:33:23.342Z</time>
      </trkpt>
      <trkpt lat="48.40669" lon="2.79037">
        <ele>93</ele>
        <time>2022-08-31T10:33:28.337Z</time>
      </trkpt>
      <trkpt lat="48.40665" lon="2.79004">
        <ele>93</ele>
        <time>2022-08-31T10:33:33.331Z</time>
      </trkpt>
      <trkpt lat="48.40668" lon="2.78973">
        <ele>94</ele>
        <time>2022-08-31T10:33:38.327Z</time>
      </trkpt>
      <trkpt lat="48.4068" lon="2.78946">
        <ele>94</ele>
        <time>2022-08-31T10:33:43.344Z</time>
      </trkpt>
      <trkpt lat="48.40696" lon="2.7893">
        <ele>94</ele>
        <time>2022-08-31T10:33:48.334Z</time>
      </trkpt>
      <trkpt lat="48.40711" lon="2.78917">
        <ele>95</ele>
        <time>2022-08-31T10:33:53.342Z</time>
      </trkpt>
      <trkpt lat="48.40724" lon="2.78905">
        <ele>95</ele>
        <time>2022-08-31T10:33:57.339Z</time>
      </trkpt>
      <trkpt lat="48.40739" lon="2.78891">
        <ele>95</ele>
        <time>2022-08-31T10:34:01.339Z</time>
      </trkpt>
      <trkpt lat="48.40753" lon="2.78877">
        <ele>95</ele>
        <time>2022-08-31T10:34:05.340Z</time>
      </trkpt>
      <trkpt lat="48.4077" lon="2.7886">
        <ele>95</ele>
        <time>2022-08-31T10:34:10.346Z</time>
      </trkpt>
      <trkpt lat="48.40785" lon="2.78841">
        <ele>96</ele>
        <time>2022-08-31T10:34:15.331Z</time>
      </trkpt>
      <trkpt lat="48.40799" lon="2.78826">
        <ele>96</ele>
        <time>2022-08-31T10:34:19.334Z</time>
      </trkpt>
      <trkpt lat="48.40815" lon="2.78816">
        <ele>95</ele>
        <time>2022-08-31T10:34:24.340Z</time>
      </trkpt>
      <trkpt lat="48.40822" lon="2.78811">
        <ele>95</ele>
        <time>2022-08-31T10:34:32.326Z</time>
      </trkpt>
      <trkpt lat="48.40831" lon="2.78813">
        <ele>97</ele>
        <time>2022-08-31T10:35:17.353Z</time>
      </trkpt>
      <trkpt lat="48.40836" lon="2.78802">
        <ele>97</ele>
        <time>2022-08-31T10:35:25.344Z</time>
      </trkpt>
      <trkpt lat="48.40845" lon="2.78794">
        <ele>97</ele>
        <time>2022-08-31T10:35:29.333Z</time>
      </trkpt>
      <trkpt lat="48.40854" lon="2.78786">
        <ele>96</ele>
        <time>2022-08-31T10:35:32.346Z</time>
      </trkpt>
      <trkpt lat="48.40863" lon="2.78779">
        <ele>96</ele>
        <time>2022-08-31T10:35:34.339Z</time>
      </trkpt>
      <trkpt lat="48.40872" lon="2.78773">
        <ele>96</ele>
        <time>2022-08-31T10:35:36.325Z</time>
      </trkpt>
      <trkpt lat="48.40887" lon="2.78761">
        <ele>96</ele>
        <time>2022-08-31T10:35:40.335Z</time>
      </trkpt>
      <trkpt lat="48.40901" lon="2.78742">
        <ele>96</ele>
        <time>2022-08-31T10:35:45.332Z</time>
      </trkpt>
      <trkpt lat="48.40913" lon="2.78724">
        <ele>95</ele>
        <time>2022-08-31T10:35:49.337Z</time>
      </trkpt>
      <trkpt lat="48.40927" lon="2.78707">
        <ele>95</ele>
        <time>2022-08-31T10:35:53.344Z</time>
      </trkpt>
      <trkpt lat="48.40939" lon="2.78689">
        <ele>95</ele>
        <time>2022-08-31T10:35:57.337Z</time>
      </trkpt>
      <trkpt lat="48.40953" lon="2.78669">
        <ele>95</ele>
        <time>2022-08-31T10:36:01.340Z</time>
      </trkpt>
      <trkpt lat="48.40966" lon="2.78651">
        <ele>94</ele>
        <time>2022-08-31T10:36:05.350Z</time>
      </trkpt>
      <trkpt lat="48.40982" lon="2.78631">
        <ele>94</ele>
        <time>2022-08-31T10:36:10.341Z</time>
      </trkpt>
      <trkpt lat="48.40988" lon="2.78608">
        <ele>94</ele>
        <time>2022-08-31T10:36:15.338Z</time>
      </trkpt>
      <trkpt lat="48.40983" lon="2.78585">
        <ele>94</ele>
        <time>2022-08-31T10:36:19.347Z</time>
      </trkpt>
      <trkpt lat="48.40977" lon="2.78562">
        <ele>94</ele>
        <time>2022-08-31T10:36:23.338Z</time>
      </trkpt>
      <trkpt lat="48.40971" lon="2.7854">
        <ele>94</ele>
        <time>2022-08-31T10:36:27.335Z</time>
      </trkpt>
      <trkpt lat="48.40963" lon="2.78519">
        <ele>95</ele>
        <time>2022-08-31T10:36:31.334Z</time>
      </trkpt>
      <trkpt lat="48.40953" lon="2.78501">
        <ele>95</ele>
        <time>2022-08-31T10:36:35.338Z</time>
      </trkpt>
      <trkpt lat="48.40942" lon="2.7848">
        <ele>96</ele>
        <time>2022-08-31T10:36:40.348Z</time>
      </trkpt>
      <trkpt lat="48.40932" lon="2.7846">
        <ele>96</ele>
        <time>2022-08-31T10:36:45.337Z</time>
      </trkpt>
      <trkpt lat="48.40924" lon="2.78445">
        <ele>97</ele>
        <time>2022-08-31T10:36:49.347Z</time>
      </trkpt>
      <trkpt lat="48.40914" lon="2.78429">
        <ele>97</ele>
        <time>2022-08-31T10:36:53.342Z</time>
      </trkpt>
      <trkpt lat="48.40904" lon="2.78414">
        <ele>98</ele>
        <time>2022-08-31T10:36:57.335Z</time>
      </trkpt>
      <trkpt lat="48.40894" lon="2.78398">
        <ele>99</ele>
        <time>2022-08-31T10:37:01.332Z</time>
      </trkpt>
      <trkpt lat="48.40884" lon="2.78382">
        <ele>99</ele>
        <time>2022-08-31T10:37:06.335Z</time>
      </trkpt>
      <trkpt lat="48.40875" lon="2.78369">
        <ele>100</ele>
        <time>2022-08-31T10:37:10.335Z</time>
      </trkpt>
      <trkpt lat="48.40867" lon="2.78355">
        <ele>101</ele>
        <time>2022-08-31T10:37:15.338Z</time>
      </trkpt>
      <trkpt lat="48.40861" lon="2.78347">
        <ele>102</ele>
        <time>2022-08-31T10:37:23.346Z</time>
      </trkpt>
      <trkpt lat="48.40846" lon="2.78322">
        <ele>104</ele>
        <time>2022-08-31T10:37:32.337Z</time>
      </trkpt>
      <trkpt lat="48.40839" lon="2.78308">
        <ele>105</ele>
        <time>2022-08-31T10:37:36.350Z</time>
      </trkpt>
      <trkpt lat="48.40829" lon="2.783">
        <ele>105</ele>
        <time>2022-08-31T10:37:40.336Z</time>
      </trkpt>
      <trkpt lat="48.40826" lon="2.78301">
        <ele>106</ele>
        <time>2022-08-31T10:37:46.334Z</time>
      </trkpt>
      <trkpt lat="48.40824" lon="2.78312">
        <ele>113</ele>
        <time>2022-08-31T10:40:21.347Z</time>
      </trkpt>
      <trkpt lat="48.40816" lon="2.78322">
        <ele>112</ele>
        <time>2022-08-31T10:40:25.346Z</time>
      </trkpt>
      <trkpt lat="48.40808" lon="2.78333">
        <ele>112</ele>
        <time>2022-08-31T10:40:29.330Z</time>
      </trkpt>
      <trkpt lat="48.40801" lon="2.78344">
        <ele>112</ele>
        <time>2022-08-31T10:40:32.339Z</time>
      </trkpt>
      <trkpt lat="48.40793" lon="2.78356">
        <ele>112</ele>
        <time>2022-08-31T10:40:36.340Z</time>
      </trkpt>
      <trkpt lat="48.40783" lon="2.7837">
        <ele>112</ele>
        <time>2022-08-31T10:40:40.349Z</time>
      </trkpt>
      <trkpt lat="48.40773" lon="2.78382">
        <ele>112</ele>
        <time>2022-08-31T10:40:44.342Z</time>
      </trkpt>
      <trkpt lat="48.40763" lon="2.78396">
        <ele>112</ele>
        <time>2022-08-31T10:40:48.337Z</time>
      </trkpt>
      <trkpt lat="48.40755" lon="2.7841">
        <ele>112</ele>
        <time>2022-08-31T10:40:52.340Z</time>
      </trkpt>
      <trkpt lat="48.40746" lon="2.78425">
        <ele>112</ele>
        <time>2022-08-31T10:40:57.333Z</time>
      </trkpt>
      <trkpt lat="48.40745" lon="2.78442">
        <ele>111</ele>
        <time>2022-08-31T10:41:01.341Z</time>
      </trkpt>
      <trkpt lat="48.40738" lon="2.78456">
        <ele>110</ele>
        <time>2022-08-31T10:41:05.335Z</time>
      </trkpt>
      <trkpt lat="48.4073" lon="2.7847">
        <ele>110</ele>
        <time>2022-08-31T10:41:09.350Z</time>
      </trkpt>
      <trkpt lat="48.40721" lon="2.78483">
        <ele>110</ele>
        <time>2022-08-31T10:41:13.337Z</time>
      </trkpt>
      <trkpt lat="48.40712" lon="2.78495">
        <ele>109</ele>
        <time>2022-08-31T10:41:17.333Z</time>
      </trkpt>
      <trkpt lat="48.40705" lon="2.78507">
        <ele>109</ele>
        <time>2022-08-31T10:41:21.341Z</time>
      </trkpt>
      <trkpt lat="48.40698" lon="2.78517">
        <ele>109</ele>
        <time>2022-08-31T10:41:26.344Z</time>
      </trkpt>
      <trkpt lat="48.4069" lon="2.78528">
        <ele>109</ele>
        <time>2022-08-31T10:41:31.343Z</time>
      </trkpt>
      <trkpt lat="48.40683" lon="2.78537">
        <ele>110</ele>
        <time>2022-08-31T10:41:35.344Z</time>
      </trkpt>
      <trkpt lat="48.40675" lon="2.78547">
        <ele>110</ele>
        <time>2022-08-31T10:41:39.341Z</time>
      </trkpt>
      <trkpt lat="48.40668" lon="2.7856">
        <ele>111</ele>
        <time>2022-08-31T10:41:43.332Z</time>
      </trkpt>
      <trkpt lat="48.40658" lon="2.78556">
        <ele>112</ele>
        <time>2022-08-31T10:41:48.343Z</time>
      </trkpt>
      <trkpt lat="48.40653" lon="2.78545">
        <ele>112</ele>
        <time>2022-08-31T10:41:51.333Z</time>
      </trkpt>
      <trkpt lat="48.40647" lon="2.78532">
        <ele>113</ele>
        <time>2022-08-31T10:41:54.336Z</time>
      </trkpt>
      <trkpt lat="48.4064" lon="2.78516">
        <ele>113</ele>
        <time>2022-08-31T10:41:58.335Z</time>
      </trkpt>
      <trkpt lat="48.40633" lon="2.785">
        <ele>114</ele>
        <time>2022-08-31T10:42:02.351Z</time>
      </trkpt>
      <trkpt lat="48.40625" lon="2.78487">
        <ele>114</ele>
        <time>2022-08-31T10:42:06.340Z</time>
      </trkpt>
      <trkpt lat="48.40612" lon="2.7849">
        <ele>114</ele>
        <time>2022-08-31T10:42:11.341Z</time>
      </trkpt>
      <trkpt lat="48.40604" lon="2.78501">
        <ele>114</ele>
        <time>2022-08-31T10:42:16.348Z</time>
      </trkpt>
      <trkpt lat="48.40596" lon="2.78509">
        <ele>114</ele>
        <time>2022-08-31T10:42:20.337Z</time>
      </trkpt>
      <trkpt lat="48.40587" lon="2.78516">
        <ele>114</ele>
        <time>2022-08-31T10:42:23.345Z</time>
      </trkpt>
      <trkpt lat="48.40578" lon="2.78524">
        <ele>114</ele>
        <time>2022-08-31T10:42:26.332Z</time>
      </trkpt>
      <trkpt lat="48.40566" lon="2.78533">
        <ele>114</ele>
        <time>2022-08-31T10:42:30.326Z</time>
      </trkpt>
      <trkpt lat="48.40552" lon="2.78539">
        <ele>115</ele>
        <time>2022-08-31T10:42:34.340Z</time>
      </trkpt>
      <trkpt lat="48.40539" lon="2.78547">
        <ele>115</ele>
        <time>2022-08-31T10:42:38.344Z</time>
      </trkpt>
      <trkpt lat="48.40526" lon="2.78554">
        <ele>115</ele>
        <time>2022-08-31T10:42:42.339Z</time>
      </trkpt>
      <trkpt lat="48.40515" lon="2.78564">
        <ele>116</ele>
        <time>2022-08-31T10:42:46.334Z</time>
      </trkpt>
      <trkpt lat="48.40503" lon="2.78575">
        <ele>116</ele>
        <time>2022-08-31T10:42:50.338Z</time>
      </trkpt>
      <trkpt lat="48.40491" lon="2.78585">
        <ele>117</ele>
        <time>2022-08-31T10:42:54.341Z</time>
      </trkpt>
      <trkpt lat="48.40479" lon="2.78592">
        <ele>117</ele>
        <time>2022-08-31T10:42:58.334Z</time>
      </trkpt>
      <trkpt lat="48.40467" lon="2.786">
        <ele>118</ele>
        <time>2022-08-31T10:43:02.339Z</time>
      </trkpt>
      <trkpt lat="48.40456" lon="2.78608">
        <ele>119</ele>
        <time>2022-08-31T10:43:06.339Z</time>
      </trkpt>
      <trkpt lat="48.40444" lon="2.78615">
        <ele>119</ele>
        <time>2022-08-31T10:43:10.339Z</time>
      </trkpt>
      <trkpt lat="48.40432" lon="2.78619">
        <ele>120</ele>
        <time>2022-08-31T10:43:14.340Z</time>
      </trkpt>
      <trkpt lat="48.40418" lon="2.78625">
        <ele>120</ele>
        <time>2022-08-31T10:43:18.337Z</time>
      </trkpt>
      <trkpt lat="48.40405" lon="2.78632">
        <ele>120</ele>
        <time>2022-08-31T10:43:22.342Z</time>
      </trkpt>
      <trkpt lat="48.40392" lon="2.78639">
        <ele>121</ele>
        <time>2022-08-31T10:43:26.336Z</time>
      </trkpt>
      <trkpt lat="48.40379" lon="2.78643">
        <ele>121</ele>
        <time>2022-08-31T10:43:32.336Z</time>
      </trkpt>
      <trkpt lat="48.40379" lon="2.78644">
        <ele>121</ele>
        <time>2022-08-31T10:43:34.345Z</time>
      </trkpt>
      <trkpt lat="48.40376" lon="2.78638">
        <ele>121</ele>
        <time>2022-08-31T10:43:38.344Z</time>
      </trkpt>
      <trkpt lat="48.40378" lon="2.78624">
        <ele>121</ele>
        <time>2022-08-31T10:43:43.327Z</time>
      </trkpt>
      <trkpt lat="48.40386" lon="2.78619">
        <ele>121</ele>
        <time>2022-08-31T10:43:50.338Z</time>
      </trkpt>
      <trkpt lat="48.40378" lon="2.78625">
        <ele>120</ele>
        <time>2022-08-31T10:43:59.333Z</time>
      </trkpt>
      <trkpt lat="48.40376" lon="2.78642">
        <ele>120</ele>
        <time>2022-08-31T10:44:03.341Z</time>
      </trkpt>
      <trkpt lat="48.40379" lon="2.78656">
        <ele>120</ele>
        <time>2022-08-31T10:44:06.330Z</time>
      </trkpt>
      <trkpt lat="48.40382" lon="2.78672">
        <ele>120</ele>
        <time>2022-08-31T10:44:09.339Z</time>
      </trkpt>
      <trkpt lat="48.40385" lon="2.78686">
        <ele>119</ele>
        <time>2022-08-31T10:44:16.344Z</time>
      </trkpt>
      <trkpt lat="48.40385" lon="2.78693">
        <ele>118</ele>
        <time>2022-08-31T10:44:29.336Z</time>
      </trkpt>
      <trkpt lat="48.4039" lon="2.78709">
        <ele>118</ele>
        <time>2022-08-31T10:44:33.338Z</time>
      </trkpt>
      <trkpt lat="48.40393" lon="2.78724">
        <ele>118</ele>
        <time>2022-08-31T10:44:36.334Z</time>
      </trkpt>
      <trkpt lat="48.40396" lon="2.78739">
        <ele>118</ele>
        <time>2022-08-31T10:44:40.338Z</time>
      </trkpt>
      <trkpt lat="48.40404" lon="2.78745">
        <ele>118</ele>
        <time>2022-08-31T10:44:51.338Z</time>
      </trkpt>
      <trkpt lat="48.40414" lon="2.7875">
        <ele>118</ele>
        <time>2022-08-31T10:44:57.344Z</time>
      </trkpt>
      <trkpt lat="48.4042" lon="2.78767">
        <ele>118</ele>
        <time>2022-08-31T10:45:01.328Z</time>
      </trkpt>
      <trkpt lat="48.40421" lon="2.78785">
        <ele>118</ele>
        <time>2022-08-31T10:45:04.335Z</time>
      </trkpt>
      <trkpt lat="48.40424" lon="2.78805">
        <ele>118</ele>
        <time>2022-08-31T10:45:08.340Z</time>
      </trkpt>
      <trkpt lat="48.40428" lon="2.78826">
        <ele>118</ele>
        <time>2022-08-31T10:45:12.334Z</time>
      </trkpt>
      <trkpt lat="48.40431" lon="2.7885">
        <ele>118</ele>
        <time>2022-08-31T10:45:16.338Z</time>
      </trkpt>
      <trkpt lat="48.40434" lon="2.78874">
        <ele>118</ele>
        <time>2022-08-31T10:45:20.343Z</time>
      </trkpt>
      <trkpt lat="48.40438" lon="2.78897">
        <ele>117</ele>
        <time>2022-08-31T10:45:25.352Z</time>
      </trkpt>
      <trkpt lat="48.40444" lon="2.78914">
        <ele>116</ele>
        <time>2022-08-31T10:45:30.331Z</time>
      </trkpt>
      <trkpt lat="48.40442" lon="2.78933">
        <ele>115</ele>
        <time>2022-08-31T10:45:35.345Z</time>
      </trkpt>
      <trkpt lat="48.40445" lon="2.78949">
        <ele>115</ele>
        <time>2022-08-31T10:45:38.341Z</time>
      </trkpt>
      <trkpt lat="48.40445" lon="2.78964">
        <ele>114</ele>
        <time>2022-08-31T10:45:44.341Z</time>
      </trkpt>
      <trkpt lat="48.40435" lon="2.78964">
        <ele>113</ele>
        <time>2022-08-31T10:45:47.335Z</time>
      </trkpt>
      <trkpt lat="48.40424" lon="2.78962">
        <ele>112</ele>
        <time>2022-08-31T10:45:50.339Z</time>
      </trkpt>
      <trkpt lat="48.40414" lon="2.78956">
        <ele>111</ele>
        <time>2022-08-31T10:45:53.344Z</time>
      </trkpt>
      <trkpt lat="48.404" lon="2.78951">
        <ele>110</ele>
        <time>2022-08-31T10:45:58.337Z</time>
      </trkpt>
      <trkpt lat="48.40387" lon="2.78947">
        <ele>109</ele>
        <time>2022-08-31T10:46:02.339Z</time>
      </trkpt>
      <trkpt lat="48.40377" lon="2.78945">
        <ele>108</ele>
        <time>2022-08-31T10:46:06.337Z</time>
      </trkpt>
      <trkpt lat="48.40365" lon="2.78944">
        <ele>107</ele>
        <time>2022-08-31T10:46:10.326Z</time>
      </trkpt>
      <trkpt lat="48.40352" lon="2.78941">
        <ele>107</ele>
        <time>2022-08-31T10:46:14.336Z</time>
      </trkpt>
      <trkpt lat="48.40337" lon="2.78935">
        <ele>107</ele>
        <time>2022-08-31T10:46:18.329Z</time>
      </trkpt>
      <trkpt lat="48.40324" lon="2.78933">
        <ele>106</ele>
        <time>2022-08-31T10:46:22.330Z</time>
      </trkpt>
      <trkpt lat="48.40317" lon="2.78924">
        <ele>106</ele>
        <time>2022-08-31T10:46:31.338Z</time>
      </trkpt>
      <trkpt lat="48.40311" lon="2.78911">
        <ele>106</ele>
        <time>2022-08-31T10:46:38.339Z</time>
      </trkpt>
      <trkpt lat="48.40312" lon="2.78897">
        <ele>107</ele>
        <time>2022-08-31T10:46:46.337Z</time>
      </trkpt>
      <trkpt lat="48.40302" lon="2.78899">
        <ele>108</ele>
        <time>2022-08-31T10:46:55.344Z</time>
      </trkpt>
      <trkpt lat="48.40291" lon="2.78897">
        <ele>109</ele>
        <time>2022-08-31T10:46:59.331Z</time>
      </trkpt>
      <trkpt lat="48.40281" lon="2.78895">
        <ele>109</ele>
        <time>2022-08-31T10:47:02.331Z</time>
      </trkpt>
      <trkpt lat="48.40271" lon="2.78893">
        <ele>109</ele>
        <time>2022-08-31T10:47:05.332Z</time>
      </trkpt>
      <trkpt lat="48.40259" lon="2.78891">
        <ele>110</ele>
        <time>2022-08-31T10:47:09.326Z</time>
      </trkpt>
      <trkpt lat="48.40246" lon="2.78888">
        <ele>110</ele>
        <time>2022-08-31T10:47:13.342Z</time>
      </trkpt>
      <trkpt lat="48.40234" lon="2.78888">
        <ele>111</ele>
        <time>2022-08-31T10:47:17.343Z</time>
      </trkpt>
      <trkpt lat="48.40222" lon="2.78888">
        <ele>111</ele>
        <time>2022-08-31T10:47:21.341Z</time>
      </trkpt>
      <trkpt lat="48.40211" lon="2.78887">
        <ele>112</ele>
        <time>2022-08-31T10:47:25.339Z</time>
      </trkpt>
      <trkpt lat="48.40197" lon="2.78888">
        <ele>112</ele>
        <time>2022-08-31T10:47:29.339Z</time>
      </trkpt>
      <trkpt lat="48.40186" lon="2.78888">
        <ele>113</ele>
        <time>2022-08-31T10:47:32.338Z</time>
      </trkpt>
      <trkpt lat="48.40173" lon="2.78887">
        <ele>113</ele>
        <time>2022-08-31T10:47:36.340Z</time>
      </trkpt>
      <trkpt lat="48.40159" lon="2.78884">
        <ele>113</ele>
        <time>2022-08-31T10:47:40.338Z</time>
      </trkpt>
      <trkpt lat="48.40147" lon="2.7888">
        <ele>113</ele>
        <time>2022-08-31T10:47:44.341Z</time>
      </trkpt>
      <trkpt lat="48.40136" lon="2.78876">
        <ele>114</ele>
        <time>2022-08-31T10:47:48.337Z</time>
      </trkpt>
      <trkpt lat="48.40125" lon="2.78873">
        <ele>114</ele>
        <time>2022-08-31T10:47:52.346Z</time>
      </trkpt>
      <trkpt lat="48.40115" lon="2.78871">
        <ele>114</ele>
        <time>2022-08-31T10:47:56.333Z</time>
      </trkpt>
      <trkpt lat="48.40106" lon="2.78868">
        <ele>115</ele>
        <time>2022-08-31T10:47:59.333Z</time>
      </trkpt>
      <trkpt lat="48.40094" lon="2.78865">
        <ele>115</ele>
        <time>2022-08-31T10:48:03.337Z</time>
      </trkpt>
      <trkpt lat="48.4008" lon="2.78864">
        <ele>115</ele>
        <time>2022-08-31T10:48:07.350Z</time>
      </trkpt>
      <trkpt lat="48.40066" lon="2.78863">
        <ele>116</ele>
        <time>2022-08-31T10:48:11.341Z</time>
      </trkpt>
      <trkpt lat="48.40052" lon="2.78861">
        <ele>116</ele>
        <time>2022-08-31T10:48:15.330Z</time>
      </trkpt>
      <trkpt lat="48.40038" lon="2.78858">
        <ele>116</ele>
        <time>2022-08-31T10:48:19.342Z</time>
      </trkpt>
      <trkpt lat="48.40023" lon="2.78855">
        <ele>117</ele>
        <time>2022-08-31T10:48:23.335Z</time>
      </trkpt>
      <trkpt lat="48.40008" lon="2.7885">
        <ele>117</ele>
        <time>2022-08-31T10:48:27.335Z</time>
      </trkpt>
      <trkpt lat="48.39993" lon="2.78844">
        <ele>118</ele>
        <time>2022-08-31T10:48:32.335Z</time>
      </trkpt>
      <trkpt lat="48.39976" lon="2.78842">
        <ele>118</ele>
        <time>2022-08-31T10:48:36.340Z</time>
      </trkpt>
      <trkpt lat="48.39961" lon="2.78842">
        <ele>118</ele>
        <time>2022-08-31T10:48:40.333Z</time>
      </trkpt>
      <trkpt lat="48.39946" lon="2.7884">
        <ele>118</ele>
        <time>2022-08-31T10:48:44.335Z</time>
      </trkpt>
      <trkpt lat="48.39927" lon="2.78836">
        <ele>119</ele>
        <time>2022-08-31T10:48:49.338Z</time>
      </trkpt>
      <trkpt lat="48.39912" lon="2.78832">
        <ele>119</ele>
        <time>2022-08-31T10:48:53.340Z</time>
      </trkpt>
      <trkpt lat="48.39896" lon="2.7883">
        <ele>119</ele>
        <time>2022-08-31T10:48:57.334Z</time>
      </trkpt>
      <trkpt lat="48.39882" lon="2.78827">
        <ele>119</ele>
        <time>2022-08-31T10:49:01.343Z</time>
      </trkpt>
      <trkpt lat="48.39867" lon="2.78825">
        <ele>119</ele>
        <time>2022-08-31T10:49:06.334Z</time>
      </trkpt>
      <trkpt lat="48.39853" lon="2.78824">
        <ele>120</ele>
        <time>2022-08-31T10:49:11.336Z</time>
      </trkpt>
      <trkpt lat="48.39843" lon="2.78826">
        <ele>119</ele>
        <time>2022-08-31T10:49:17.338Z</time>
      </trkpt>
      <trkpt lat="48.39848" lon="2.78837">
        <ele>119</ele>
        <time>2022-08-31T10:49:20.335Z</time>
      </trkpt>
      <trkpt lat="48.39857" lon="2.7885">
        <ele>119</ele>
        <time>2022-08-31T10:49:23.331Z</time>
      </trkpt>
      <trkpt lat="48.39866" lon="2.78864">
        <ele>119</ele>
        <time>2022-08-31T10:49:26.334Z</time>
      </trkpt>
      <trkpt lat="48.39878" lon="2.78875">
        <ele>119</ele>
        <time>2022-08-31T10:49:29.334Z</time>
      </trkpt>
      <trkpt lat="48.39898" lon="2.78889">
        <ele>118</ele>
        <time>2022-08-31T10:49:33.334Z</time>
      </trkpt>
      <trkpt lat="48.39919" lon="2.78903">
        <ele>117</ele>
        <time>2022-08-31T10:49:37.336Z</time>
      </trkpt>
      <trkpt lat="48.39941" lon="2.78916">
        <ele>116</ele>
        <time>2022-08-31T10:49:41.342Z</time>
      </trkpt>
      <trkpt lat="48.39964" lon="2.78933">
        <ele>115</ele>
        <time>2022-08-31T10:49:46.336Z</time>
      </trkpt>
      <trkpt lat="48.39982" lon="2.7896">
        <ele>112</ele>
        <time>2022-08-31T10:49:52.344Z</time>
      </trkpt>
      <trkpt lat="48.39981" lon="2.78989">
        <ele>110</ele>
        <time>2022-08-31T10:49:56.337Z</time>
      </trkpt>
      <trkpt lat="48.39974" lon="2.79015">
        <ele>107</ele>
        <time>2022-08-31T10:50:02.336Z</time>
      </trkpt>
      <trkpt lat="48.39959" lon="2.79019">
        <ele>105</ele>
        <time>2022-08-31T10:50:07.332Z</time>
      </trkpt>
      <trkpt lat="48.39948" lon="2.79016">
        <ele>104</ele>
        <time>2022-08-31T10:50:10.345Z</time>
      </trkpt>
      <trkpt lat="48.39934" lon="2.7901">
        <ele>102</ele>
        <time>2022-08-31T10:50:14.338Z</time>
      </trkpt>
      <trkpt lat="48.39918" lon="2.79005">
        <ele>99</ele>
        <time>2022-08-31T10:50:19.343Z</time>
      </trkpt>
      <trkpt lat="48.39905" lon="2.78999">
        <ele>96</ele>
        <time>2022-08-31T10:50:24.349Z</time>
      </trkpt>
      <trkpt lat="48.39897" lon="2.78994">
        <ele>94</ele>
        <time>2022-08-31T10:50:29.335Z</time>
      </trkpt>
      <trkpt lat="48.39887" lon="2.78989">
        <ele>93</ele>
        <time>2022-08-31T10:50:33.343Z</time>
      </trkpt>
      <trkpt lat="48.39877" lon="2.78984">
        <ele>92</ele>
        <time>2022-08-31T10:50:37.344Z</time>
      </trkpt>
      <trkpt lat="48.39868" lon="2.7898">
        <ele>92</ele>
        <time>2022-08-31T10:50:39.341Z</time>
      </trkpt>
      <trkpt lat="48.39856" lon="2.78976">
        <ele>91</ele>
        <time>2022-08-31T10:50:43.342Z</time>
      </trkpt>
      <trkpt lat="48.39846" lon="2.78972">
        <ele>90</ele>
        <time>2022-08-31T10:50:47.345Z</time>
      </trkpt>
      <trkpt lat="48.39834" lon="2.7897">
        <ele>90</ele>
        <time>2022-08-31T10:50:51.335Z</time>
      </trkpt>
      <trkpt lat="48.39823" lon="2.78967">
        <ele>89</ele>
        <time>2022-08-31T10:50:55.338Z</time>
      </trkpt>
      <trkpt lat="48.39813" lon="2.78963">
        <ele>89</ele>
        <time>2022-08-31T10:51:00.340Z</time>
      </trkpt>
      <trkpt lat="48.39803" lon="2.7896">
        <ele>89</ele>
        <time>2022-08-31T10:51:05.348Z</time>
      </trkpt>
      <trkpt lat="48.39794" lon="2.78957">
        <ele>90</ele>
        <time>2022-08-31T10:51:14.331Z</time>
      </trkpt>
      <trkpt lat="48.39794" lon="2.78957">
        <ele>90</ele>
        <time>2022-08-31T10:51:16.335Z</time>
      </trkpt>
      <trkpt lat="48.3979" lon="2.78954">
        <ele>92</ele>
        <time>2022-08-31T10:52:38.341Z</time>
      </trkpt>
      <trkpt lat="48.3978" lon="2.78949">
        <ele>92</ele>
        <time>2022-08-31T10:52:41.328Z</time>
      </trkpt>
      <trkpt lat="48.39769" lon="2.78944">
        <ele>92</ele>
        <time>2022-08-31T10:52:44.336Z</time>
      </trkpt>
      <trkpt lat="48.39756" lon="2.78941">
        <ele>92</ele>
        <time>2022-08-31T10:52:47.347Z</time>
      </trkpt>
      <trkpt lat="48.39739" lon="2.78937">
        <ele>92</ele>
        <time>2022-08-31T10:52:51.340Z</time>
      </trkpt>
      <trkpt lat="48.39719" lon="2.78932">
        <ele>92</ele>
        <time>2022-08-31T10:52:56.343Z</time>
      </trkpt>
      <trkpt lat="48.39701" lon="2.78926">
        <ele>92</ele>
        <time>2022-08-31T10:53:00.342Z</time>
      </trkpt>
      <trkpt lat="48.39683" lon="2.78919">
        <ele>91</ele>
        <time>2022-08-31T10:53:04.336Z</time>
      </trkpt>
      <trkpt lat="48.39663" lon="2.78913">
        <ele>91</ele>
        <time>2022-08-31T10:53:09.335Z</time>
      </trkpt>
      <trkpt lat="48.39644" lon="2.78909">
        <ele>91</ele>
        <time>2022-08-31T10:53:14.335Z</time>
      </trkpt>
      <trkpt lat="48.39627" lon="2.78905">
        <ele>91</ele>
        <time>2022-08-31T10:53:19.339Z</time>
      </trkpt>
      <trkpt lat="48.39611" lon="2.78903">
        <ele>90</ele>
        <time>2022-08-31T10:53:23.331Z</time>
      </trkpt>
      <trkpt lat="48.39594" lon="2.789">
        <ele>90</ele>
        <time>2022-08-31T10:53:27.331Z</time>
      </trkpt>
      <trkpt lat="48.39579" lon="2.78897">
        <ele>90</ele>
        <time>2022-08-31T10:53:31.334Z</time>
      </trkpt>
      <trkpt lat="48.39563" lon="2.78894">
        <ele>90</ele>
        <time>2022-08-31T10:53:35.341Z</time>
      </trkpt>
      <trkpt lat="48.39546" lon="2.78891">
        <ele>90</ele>
        <time>2022-08-31T10:53:39.341Z</time>
      </trkpt>
      <trkpt lat="48.39529" lon="2.78888">
        <ele>89</ele>
        <time>2022-08-31T10:53:43.339Z</time>
      </trkpt>
      <trkpt lat="48.39513" lon="2.78885">
        <ele>89</ele>
        <time>2022-08-31T10:53:47.339Z</time>
      </trkpt>
      <trkpt lat="48.39497" lon="2.78882">
        <ele>89</ele>
        <time>2022-08-31T10:53:51.343Z</time>
      </trkpt>
      <trkpt lat="48.39481" lon="2.78878">
        <ele>89</ele>
        <time>2022-08-31T10:53:55.328Z</time>
      </trkpt>
      <trkpt lat="48.39463" lon="2.78876">
        <ele>89</ele>
        <time>2022-08-31T10:53:59.342Z</time>
      </trkpt>
      <trkpt lat="48.39445" lon="2.78875">
        <ele>89</ele>
        <time>2022-08-31T10:54:03.340Z</time>
      </trkpt>
      <trkpt lat="48.39426" lon="2.78873">
        <ele>89</ele>
        <time>2022-08-31T10:54:08.340Z</time>
      </trkpt>
      <trkpt lat="48.3941" lon="2.78872">
        <ele>89</ele>
        <time>2022-08-31T10:54:13.343Z</time>
      </trkpt>
      <trkpt lat="48.39396" lon="2.78871">
        <ele>89</ele>
        <time>2022-08-31T10:54:18.340Z</time>
      </trkpt>
      <trkpt lat="48.39385" lon="2.78869">
        <ele>89</ele>
        <time>2022-08-31T10:54:23.341Z</time>
      </trkpt>
      <trkpt lat="48.39383" lon="2.7887">
        <ele>89</ele>
        <time>2022-08-31T10:54:25.336Z</time>
      </trkpt>
      <trkpt lat="48.39373" lon="2.78877">
        <ele>91</ele>
        <time>2022-08-31T10:55:02.338Z</time>
      </trkpt>
      <trkpt lat="48.39366" lon="2.7887">
        <ele>92</ele>
        <time>2022-08-31T10:55:10.333Z</time>
      </trkpt>
      <trkpt lat="48.39355" lon="2.78869">
        <ele>92</ele>
        <time>2022-08-31T10:55:13.336Z</time>
      </trkpt>
      <trkpt lat="48.39345" lon="2.7887">
        <ele>92</ele>
        <time>2022-08-31T10:55:16.329Z</time>
      </trkpt>
      <trkpt lat="48.39335" lon="2.78871">
        <ele>91</ele>
        <time>2022-08-31T10:55:18.332Z</time>
      </trkpt>
      <trkpt lat="48.39322" lon="2.78871">
        <ele>91</ele>
        <time>2022-08-31T10:55:21.333Z</time>
      </trkpt>
      <trkpt lat="48.39304" lon="2.78868">
        <ele>92</ele>
        <time>2022-08-31T10:55:25.331Z</time>
      </trkpt>
      <trkpt lat="48.39282" lon="2.78868">
        <ele>93</ele>
        <time>2022-08-31T10:55:30.329Z</time>
      </trkpt>
      <trkpt lat="48.39263" lon="2.78867">
        <ele>93</ele>
        <time>2022-08-31T10:55:35.336Z</time>
      </trkpt>
      <trkpt lat="48.39246" lon="2.78865">
        <ele>93</ele>
        <time>2022-08-31T10:55:39.337Z</time>
      </trkpt>
      <trkpt lat="48.39228" lon="2.78866">
        <ele>94</ele>
        <time>2022-08-31T10:55:44.329Z</time>
      </trkpt>
      <trkpt lat="48.39211" lon="2.78868">
        <ele>94</ele>
        <time>2022-08-31T10:55:48.325Z</time>
      </trkpt>
      <trkpt lat="48.39192" lon="2.78867">
        <ele>94</ele>
        <time>2022-08-31T10:55:52.338Z</time>
      </trkpt>
      <trkpt lat="48.39172" lon="2.78866">
        <ele>93</ele>
        <time>2022-08-31T10:55:57.330Z</time>
      </trkpt>
      <trkpt lat="48.39156" lon="2.78867">
        <ele>93</ele>
        <time>2022-08-31T10:56:02.331Z</time>
      </trkpt>
      <trkpt lat="48.3914" lon="2.78874">
        <ele>93</ele>
        <time>2022-08-31T10:56:06.329Z</time>
      </trkpt>
      <trkpt lat="48.39129" lon="2.78873">
        <ele>92</ele>
        <time>2022-08-31T10:56:12.334Z</time>
      </trkpt>
      <trkpt lat="48.39118" lon="2.78878">
        <ele>92</ele>
        <time>2022-08-31T10:56:16.334Z</time>
      </trkpt>
      <trkpt lat="48.39108" lon="2.7888">
        <ele>92</ele>
        <time>2022-08-31T10:56:20.325Z</time>
      </trkpt>
      <trkpt lat="48.39099" lon="2.78882">
        <ele>92</ele>
        <time>2022-08-31T10:56:24.337Z</time>
      </trkpt>
      <trkpt lat="48.39088" lon="2.78885">
        <ele>92</ele>
        <time>2022-08-31T10:56:28.339Z</time>
      </trkpt>
      <trkpt lat="48.39076" lon="2.78889">
        <ele>92</ele>
        <time>2022-08-31T10:56:32.331Z</time>
      </trkpt>
      <trkpt lat="48.39065" lon="2.78891">
        <ele>92</ele>
        <time>2022-08-31T10:56:36.329Z</time>
      </trkpt>
      <trkpt lat="48.39055" lon="2.78894">
        <ele>93</ele>
        <time>2022-08-31T10:56:40.331Z</time>
      </trkpt>
      <trkpt lat="48.39046" lon="2.78897">
        <ele>93</ele>
        <time>2022-08-31T10:56:46.330Z</time>
      </trkpt>
      <trkpt lat="48.39043" lon="2.78905">
        <ele>94</ele>
        <time>2022-08-31T10:56:52.331Z</time>
      </trkpt>
      <trkpt lat="48.39046" lon="2.78908">
        <ele>99</ele>
        <time>2022-08-31T11:10:28.336Z</time>
      </trkpt>
      <trkpt lat="48.39044" lon="2.78906">
        <ele>99</ele>
        <time>2022-08-31T11:10:33.350Z</time>
      </trkpt>
      <trkpt lat="48.39066" lon="2.78894">
        <ele>97</ele>
        <time>2022-08-31T11:20:50.333Z</time>
      </trkpt>
      <trkpt lat="48.39077" lon="2.78891">
        <ele>96</ele>
        <time>2022-08-31T11:20:55.326Z</time>
      </trkpt>
      <trkpt lat="48.39088" lon="2.78889">
        <ele>96</ele>
        <time>2022-08-31T11:21:00.336Z</time>
      </trkpt>
      <trkpt lat="48.39098" lon="2.78887">
        <ele>96</ele>
        <time>2022-08-31T11:21:05.332Z</time>
      </trkpt>
      <trkpt lat="48.39107" lon="2.78883">
        <ele>96</ele>
        <time>2022-08-31T11:21:10.336Z</time>
      </trkpt>
      <trkpt lat="48.39111" lon="2.78881">
        <ele>95</ele>
        <time>2022-08-31T11:21:15.334Z</time>
      </trkpt>
      <trkpt lat="48.39086" lon="2.78885">
        <ele>94</ele>
        <time>2022-08-31T11:21:45.340Z</time>
      </trkpt>
      <trkpt lat="48.39076" lon="2.78886">
        <ele>94</ele>
        <time>2022-08-31T11:21:48.324Z</time>
      </trkpt>
      <trkpt lat="48.39066" lon="2.78888">
        <ele>94</ele>
        <time>2022-08-31T11:21:51.342Z</time>
      </trkpt>
      <trkpt lat="48.39052" lon="2.78894">
        <ele>93</ele>
        <time>2022-08-31T11:21:55.329Z</time>
      </trkpt>
      <trkpt lat="48.39037" lon="2.78902">
        <ele>93</ele>
        <time>2022-08-31T11:21:59.332Z</time>
      </trkpt>
      <trkpt lat="48.39022" lon="2.78909">
        <ele>93</ele>
        <time>2022-08-31T11:22:03.332Z</time>
      </trkpt>
      <trkpt lat="48.39006" lon="2.78914">
        <ele>92</ele>
        <time>2022-08-31T11:22:07.334Z</time>
      </trkpt>
      <trkpt lat="48.38987" lon="2.7892">
        <ele>92</ele>
        <time>2022-08-31T11:22:12.321Z</time>
      </trkpt>
      <trkpt lat="48.38972" lon="2.78926">
        <ele>92</ele>
        <time>2022-08-31T11:22:17.337Z</time>
      </trkpt>
      <trkpt lat="48.38957" lon="2.78931">
        <ele>91</ele>
        <time>2022-08-31T11:22:22.338Z</time>
      </trkpt>
      <trkpt lat="48.38946" lon="2.78937">
        <ele>91</ele>
        <time>2022-08-31T11:22:25.327Z</time>
      </trkpt>
      <trkpt lat="48.38932" lon="2.78945">
        <ele>91</ele>
        <time>2022-08-31T11:22:29.332Z</time>
      </trkpt>
      <trkpt lat="48.38917" lon="2.78952">
        <ele>92</ele>
        <time>2022-08-31T11:22:33.333Z</time>
      </trkpt>
      <trkpt lat="48.38903" lon="2.78963">
        <ele>92</ele>
        <time>2022-08-31T11:22:37.333Z</time>
      </trkpt>
      <trkpt lat="48.3889" lon="2.78974">
        <ele>92</ele>
        <time>2022-08-31T11:22:41.319Z</time>
      </trkpt>
      <trkpt lat="48.38872" lon="2.78984">
        <ele>92</ele>
        <time>2022-08-31T11:22:45.326Z</time>
      </trkpt>
      <trkpt lat="48.38857" lon="2.78995">
        <ele>92</ele>
        <time>2022-08-31T11:22:49.322Z</time>
      </trkpt>
      <trkpt lat="48.3884" lon="2.79011">
        <ele>92</ele>
        <time>2022-08-31T11:22:54.331Z</time>
      </trkpt>
      <trkpt lat="48.38826" lon="2.79022">
        <ele>92</ele>
        <time>2022-08-31T11:22:59.322Z</time>
      </trkpt>
      <trkpt lat="48.38813" lon="2.79032">
        <ele>91</ele>
        <time>2022-08-31T11:23:03.331Z</time>
      </trkpt>
      <trkpt lat="48.38801" lon="2.79042">
        <ele>91</ele>
        <time>2022-08-31T11:23:07.324Z</time>
      </trkpt>
      <trkpt lat="48.38789" lon="2.7905">
        <ele>91</ele>
        <time>2022-08-31T11:23:11.319Z</time>
      </trkpt>
      <trkpt lat="48.38775" lon="2.7906">
        <ele>91</ele>
        <time>2022-08-31T11:23:15.333Z</time>
      </trkpt>
      <trkpt lat="48.38761" lon="2.79071">
        <ele>91</ele>
        <time>2022-08-31T11:23:19.342Z</time>
      </trkpt>
      <trkpt lat="48.38749" lon="2.79079">
        <ele>91</ele>
        <time>2022-08-31T11:23:23.323Z</time>
      </trkpt>
      <trkpt lat="48.38734" lon="2.79085">
        <ele>91</ele>
        <time>2022-08-31T11:23:27.330Z</time>
      </trkpt>
      <trkpt lat="48.38719" lon="2.79092">
        <ele>91</ele>
        <time>2022-08-31T11:23:32.319Z</time>
      </trkpt>
      <trkpt lat="48.38711" lon="2.79096">
        <ele>91</ele>
        <time>2022-08-31T11:23:39.329Z</time>
      </trkpt>
      <trkpt lat="48.38701" lon="2.79095">
        <ele>93</ele>
        <time>2022-08-31T11:23:48.330Z</time>
      </trkpt>
      <trkpt lat="48.38694" lon="2.79087">
        <ele>94</ele>
        <time>2022-08-31T11:24:00.311Z</time>
      </trkpt>
      <trkpt lat="48.3869" lon="2.79075">
        <ele>95</ele>
        <time>2022-08-31T11:24:08.327Z</time>
      </trkpt>
      <trkpt lat="48.38689" lon="2.79061">
        <ele>97</ele>
        <time>2022-08-31T11:24:21.330Z</time>
      </trkpt>
      <trkpt lat="48.38689" lon="2.79047">
        <ele>100</ele>
        <time>2022-08-31T11:24:35.329Z</time>
      </trkpt>
      <trkpt lat="48.38686" lon="2.79034">
        <ele>103</ele>
        <time>2022-08-31T11:24:46.320Z</time>
      </trkpt>
      <trkpt lat="48.38681" lon="2.79022">
        <ele>105</ele>
        <time>2022-08-31T11:24:55.324Z</time>
      </trkpt>
      <trkpt lat="48.38678" lon="2.79008">
        <ele>111</ele>
        <time>2022-08-31T11:25:16.332Z</time>
      </trkpt>
      <trkpt lat="48.38677" lon="2.78995">
        <ele>112</ele>
        <time>2022-08-31T11:25:26.320Z</time>
      </trkpt>
      <trkpt lat="48.38675" lon="2.78981">
        <ele>114</ele>
        <time>2022-08-31T11:25:38.328Z</time>
      </trkpt>
      <trkpt lat="48.3867" lon="2.78969">
        <ele>115</ele>
        <time>2022-08-31T11:25:48.327Z</time>
      </trkpt>
      <trkpt lat="48.38665" lon="2.78959">
        <ele>117</ele>
        <time>2022-08-31T11:26:04.303Z</time>
      </trkpt>
      <trkpt lat="48.38662" lon="2.78955">
        <ele>123</ele>
        <time>2022-08-31T11:26:31.332Z</time>
      </trkpt>
      <trkpt lat="48.38652" lon="2.78956">
        <ele>124</ele>
        <time>2022-08-31T11:26:40.321Z</time>
      </trkpt>
      <trkpt lat="48.38643" lon="2.78964">
        <ele>125</ele>
        <time>2022-08-31T11:26:48.338Z</time>
      </trkpt>
      <trkpt lat="48.38633" lon="2.7897">
        <ele>125</ele>
        <time>2022-08-31T11:26:52.326Z</time>
      </trkpt>
      <trkpt lat="48.38623" lon="2.78973">
        <ele>125</ele>
        <time>2022-08-31T11:26:55.330Z</time>
      </trkpt>
      <trkpt lat="48.38611" lon="2.78979">
        <ele>124</ele>
        <time>2022-08-31T11:26:59.332Z</time>
      </trkpt>
      <trkpt lat="48.38597" lon="2.78986">
        <ele>124</ele>
        <time>2022-08-31T11:27:03.343Z</time>
      </trkpt>
      <trkpt lat="48.38583" lon="2.78994">
        <ele>124</ele>
        <time>2022-08-31T11:27:07.338Z</time>
      </trkpt>
      <trkpt lat="48.38568" lon="2.79001">
        <ele>123</ele>
        <time>2022-08-31T11:27:11.340Z</time>
      </trkpt>
      <trkpt lat="48.38552" lon="2.79009">
        <ele>123</ele>
        <time>2022-08-31T11:27:15.340Z</time>
      </trkpt>
      <trkpt lat="48.38534" lon="2.7902">
        <ele>123</ele>
        <time>2022-08-31T11:27:20.336Z</time>
      </trkpt>
      <trkpt lat="48.38519" lon="2.79029">
        <ele>122</ele>
        <time>2022-08-31T11:27:24.330Z</time>
      </trkpt>
      <trkpt lat="48.38502" lon="2.79039">
        <ele>122</ele>
        <time>2022-08-31T11:27:29.324Z</time>
      </trkpt>
      <trkpt lat="48.38487" lon="2.79047">
        <ele>121</ele>
        <time>2022-08-31T11:27:34.338Z</time>
      </trkpt>
      <trkpt lat="48.38477" lon="2.79057">
        <ele>121</ele>
        <time>2022-08-31T11:27:40.332Z</time>
      </trkpt>
      <trkpt lat="48.38473" lon="2.79069">
        <ele>121</ele>
        <time>2022-08-31T11:27:45.339Z</time>
      </trkpt>
      <trkpt lat="48.38472" lon="2.79069">
        <ele>121</ele>
        <time>2022-08-31T11:27:55.335Z</time>
      </trkpt>
      <trkpt lat="48.38474" lon="2.79064">
        <ele>121</ele>
        <time>2022-08-31T11:28:00.331Z</time>
      </trkpt>
      <trkpt lat="48.38479" lon="2.7905">
        <ele>122</ele>
        <time>2022-08-31T11:28:06.321Z</time>
      </trkpt>
      <trkpt lat="48.38478" lon="2.79034">
        <ele>123</ele>
        <time>2022-08-31T11:28:12.332Z</time>
      </trkpt>
      <trkpt lat="48.38473" lon="2.79019">
        <ele>123</ele>
        <time>2022-08-31T11:28:17.321Z</time>
      </trkpt>
      <trkpt lat="48.3847" lon="2.79012">
        <ele>123</ele>
        <time>2022-08-31T11:28:24.336Z</time>
      </trkpt>
      <trkpt lat="48.38472" lon="2.79005">
        <ele>122</ele>
        <time>2022-08-31T11:28:51.333Z</time>
      </trkpt>
      <trkpt lat="48.38476" lon="2.78999">
        <ele>122</ele>
        <time>2022-08-31T11:28:58.325Z</time>
      </trkpt>
      <trkpt lat="48.38454" lon="2.79015">
        <ele>122</ele>
        <time>2022-08-31T11:29:39.337Z</time>
      </trkpt>
      <trkpt lat="48.38445" lon="2.79021">
        <ele>122</ele>
        <time>2022-08-31T11:29:42.325Z</time>
      </trkpt>
      <trkpt lat="48.38436" lon="2.79027">
        <ele>123</ele>
        <time>2022-08-31T11:29:45.318Z</time>
      </trkpt>
      <trkpt lat="48.38424" lon="2.79033">
        <ele>123</ele>
        <time>2022-08-31T11:29:49.333Z</time>
      </trkpt>
      <trkpt lat="48.38412" lon="2.79039">
        <ele>123</ele>
        <time>2022-08-31T11:29:53.331Z</time>
      </trkpt>
      <trkpt lat="48.384" lon="2.79048">
        <ele>123</ele>
        <time>2022-08-31T11:29:57.331Z</time>
      </trkpt>
      <trkpt lat="48.38387" lon="2.79053">
        <ele>123</ele>
        <time>2022-08-31T11:30:01.331Z</time>
      </trkpt>
      <trkpt lat="48.38374" lon="2.79063">
        <ele>124</ele>
        <time>2022-08-31T11:30:05.321Z</time>
      </trkpt>
      <trkpt lat="48.3836" lon="2.79073">
        <ele>124</ele>
        <time>2022-08-31T11:30:09.329Z</time>
      </trkpt>
      <trkpt lat="48.38345" lon="2.79084">
        <ele>124</ele>
        <time>2022-08-31T11:30:13.342Z</time>
      </trkpt>
      <trkpt lat="48.3833" lon="2.79094">
        <ele>124</ele>
        <time>2022-08-31T11:30:17.327Z</time>
      </trkpt>
      <trkpt lat="48.38318" lon="2.79105">
        <ele>124</ele>
        <time>2022-08-31T11:30:24.325Z</time>
      </trkpt>
      <trkpt lat="48.38326" lon="2.79099">
        <ele>124</ele>
        <time>2022-08-31T11:30:29.327Z</time>
      </trkpt>
      <trkpt lat="48.38335" lon="2.79095">
        <ele>124</ele>
        <time>2022-08-31T11:30:33.326Z</time>
      </trkpt>
      <trkpt lat="48.38324" lon="2.79098">
        <ele>123</ele>
        <time>2022-08-31T11:30:44.321Z</time>
      </trkpt>
      <trkpt lat="48.38315" lon="2.79105">
        <ele>123</ele>
        <time>2022-08-31T11:30:48.312Z</time>
      </trkpt>
      <trkpt lat="48.38305" lon="2.7911">
        <ele>122</ele>
        <time>2022-08-31T11:30:53.330Z</time>
      </trkpt>
      <trkpt lat="48.38298" lon="2.79099">
        <ele>122</ele>
        <time>2022-08-31T11:30:58.327Z</time>
      </trkpt>
      <trkpt lat="48.38292" lon="2.79084">
        <ele>121</ele>
        <time>2022-08-31T11:31:02.322Z</time>
      </trkpt>
      <trkpt lat="48.38284" lon="2.7907">
        <ele>121</ele>
        <time>2022-08-31T11:31:06.313Z</time>
      </trkpt>
      <trkpt lat="48.38277" lon="2.79057">
        <ele>120</ele>
        <time>2022-08-31T11:31:10.326Z</time>
      </trkpt>
      <trkpt lat="48.38268" lon="2.79042">
        <ele>120</ele>
        <time>2022-08-31T11:31:14.314Z</time>
      </trkpt>
      <trkpt lat="48.3826" lon="2.79027">
        <ele>120</ele>
        <time>2022-08-31T11:31:18.320Z</time>
      </trkpt>
      <trkpt lat="48.38254" lon="2.79012">
        <ele>119</ele>
        <time>2022-08-31T11:31:22.338Z</time>
      </trkpt>
      <trkpt lat="48.38245" lon="2.78997">
        <ele>119</ele>
        <time>2022-08-31T11:31:26.320Z</time>
      </trkpt>
      <trkpt lat="48.38236" lon="2.78984">
        <ele>119</ele>
        <time>2022-08-31T11:31:29.319Z</time>
      </trkpt>
      <trkpt lat="48.38226" lon="2.78971">
        <ele>119</ele>
        <time>2022-08-31T11:31:32.322Z</time>
      </trkpt>
      <trkpt lat="48.38213" lon="2.7895">
        <ele>119</ele>
        <time>2022-08-31T11:31:36.320Z</time>
      </trkpt>
      <trkpt lat="48.382" lon="2.78928">
        <ele>118</ele>
        <time>2022-08-31T11:31:41.331Z</time>
      </trkpt>
      <trkpt lat="48.38189" lon="2.78911">
        <ele>117</ele>
        <time>2022-08-31T11:31:47.320Z</time>
      </trkpt>
      <trkpt lat="48.3818" lon="2.78896">
        <ele>117</ele>
        <time>2022-08-31T11:31:51.325Z</time>
      </trkpt>
      <trkpt lat="48.38172" lon="2.78884">
        <ele>117</ele>
        <time>2022-08-31T11:31:54.321Z</time>
      </trkpt>
      <trkpt lat="48.38162" lon="2.78871">
        <ele>116</ele>
        <time>2022-08-31T11:31:57.331Z</time>
      </trkpt>
      <trkpt lat="48.38149" lon="2.78854">
        <ele>116</ele>
        <time>2022-08-31T11:32:01.331Z</time>
      </trkpt>
      <trkpt lat="48.38137" lon="2.78833">
        <ele>115</ele>
        <time>2022-08-31T11:32:06.335Z</time>
      </trkpt>
      <trkpt lat="48.38126" lon="2.78815">
        <ele>114</ele>
        <time>2022-08-31T11:32:11.322Z</time>
      </trkpt>
      <trkpt lat="48.38114" lon="2.78802">
        <ele>113</ele>
        <time>2022-08-31T11:32:15.314Z</time>
      </trkpt>
      <trkpt lat="48.38102" lon="2.78794">
        <ele>113</ele>
        <time>2022-08-31T11:32:19.324Z</time>
      </trkpt>
      <trkpt lat="48.3809" lon="2.78804">
        <ele>113</ele>
        <time>2022-08-31T11:32:23.329Z</time>
      </trkpt>
      <trkpt lat="48.38079" lon="2.78823">
        <ele>112</ele>
        <time>2022-08-31T11:32:27.334Z</time>
      </trkpt>
      <trkpt lat="48.38067" lon="2.7884">
        <ele>112</ele>
        <time>2022-08-31T11:32:32.333Z</time>
      </trkpt>
      <trkpt lat="48.38057" lon="2.78857">
        <ele>113</ele>
        <time>2022-08-31T11:32:36.341Z</time>
      </trkpt>
      <trkpt lat="48.38045" lon="2.78876">
        <ele>113</ele>
        <time>2022-08-31T11:32:40.325Z</time>
      </trkpt>
      <trkpt lat="48.38034" lon="2.78892">
        <ele>113</ele>
        <time>2022-08-31T11:32:44.329Z</time>
      </trkpt>
      <trkpt lat="48.38021" lon="2.78911">
        <ele>113</ele>
        <time>2022-08-31T11:32:48.331Z</time>
      </trkpt>
      <trkpt lat="48.38009" lon="2.7893">
        <ele>113</ele>
        <time>2022-08-31T11:32:52.335Z</time>
      </trkpt>
      <trkpt lat="48.37997" lon="2.78949">
        <ele>113</ele>
        <time>2022-08-31T11:32:56.335Z</time>
      </trkpt>
      <trkpt lat="48.37982" lon="2.78969">
        <ele>113</ele>
        <time>2022-08-31T11:33:01.332Z</time>
      </trkpt>
      <trkpt lat="48.37971" lon="2.78988">
        <ele>114</ele>
        <time>2022-08-31T11:33:06.325Z</time>
      </trkpt>
      <trkpt lat="48.3796" lon="2.79003">
        <ele>114</ele>
        <time>2022-08-31T11:33:11.338Z</time>
      </trkpt>
      <trkpt lat="48.37951" lon="2.79015">
        <ele>114</ele>
        <time>2022-08-31T11:33:15.335Z</time>
      </trkpt>
      <trkpt lat="48.37941" lon="2.79028">
        <ele>114</ele>
        <time>2022-08-31T11:33:19.339Z</time>
      </trkpt>
      <trkpt lat="48.37932" lon="2.79044">
        <ele>114</ele>
        <time>2022-08-31T11:33:23.323Z</time>
      </trkpt>
      <trkpt lat="48.37924" lon="2.79061">
        <ele>114</ele>
        <time>2022-08-31T11:33:27.326Z</time>
      </trkpt>
      <trkpt lat="48.37918" lon="2.79078">
        <ele>115</ele>
        <time>2022-08-31T11:33:31.327Z</time>
      </trkpt>
      <trkpt lat="48.37912" lon="2.79095">
        <ele>115</ele>
        <time>2022-08-31T11:33:35.332Z</time>
      </trkpt>
      <trkpt lat="48.37907" lon="2.79111">
        <ele>115</ele>
        <time>2022-08-31T11:33:39.334Z</time>
      </trkpt>
      <trkpt lat="48.37902" lon="2.79128">
        <ele>115</ele>
        <time>2022-08-31T11:33:43.329Z</time>
      </trkpt>
      <trkpt lat="48.37896" lon="2.79143">
        <ele>115</ele>
        <time>2022-08-31T11:33:48.330Z</time>
      </trkpt>
      <trkpt lat="48.37885" lon="2.79146">
        <ele>116</ele>
        <time>2022-08-31T11:33:52.334Z</time>
      </trkpt>
      <trkpt lat="48.37875" lon="2.79144">
        <ele>116</ele>
        <time>2022-08-31T11:33:55.334Z</time>
      </trkpt>
      <trkpt lat="48.37861" lon="2.7914">
        <ele>116</ele>
        <time>2022-08-31T11:33:59.335Z</time>
      </trkpt>
      <trkpt lat="48.37848" lon="2.79136">
        <ele>116</ele>
        <time>2022-08-31T11:34:03.344Z</time>
      </trkpt>
      <trkpt lat="48.37835" lon="2.79131">
        <ele>117</ele>
        <time>2022-08-31T11:34:07.330Z</time>
      </trkpt>
      <trkpt lat="48.37817" lon="2.79125">
        <ele>117</ele>
        <time>2022-08-31T11:34:11.342Z</time>
      </trkpt>
      <trkpt lat="48.37803" lon="2.79118">
        <ele>117</ele>
        <time>2022-08-31T11:34:15.335Z</time>
      </trkpt>
      <trkpt lat="48.37791" lon="2.79114">
        <ele>118</ele>
        <time>2022-08-31T11:34:19.333Z</time>
      </trkpt>
      <trkpt lat="48.37778" lon="2.7911">
        <ele>118</ele>
        <time>2022-08-31T11:34:23.338Z</time>
      </trkpt>
      <trkpt lat="48.37766" lon="2.79106">
        <ele>119</ele>
        <time>2022-08-31T11:34:27.331Z</time>
      </trkpt>
      <trkpt lat="48.37755" lon="2.79102">
        <ele>120</ele>
        <time>2022-08-31T11:34:31.341Z</time>
      </trkpt>
      <trkpt lat="48.37745" lon="2.79099">
        <ele>121</ele>
        <time>2022-08-31T11:34:36.339Z</time>
      </trkpt>
      <trkpt lat="48.37735" lon="2.79098">
        <ele>122</ele>
        <time>2022-08-31T11:34:44.334Z</time>
      </trkpt>
      <trkpt lat="48.37731" lon="2.79101">
        <ele>123</ele>
        <time>2022-08-31T11:34:54.329Z</time>
      </trkpt>
      <trkpt lat="48.3773" lon="2.79078">
        <ele>124</ele>
        <time>2022-08-31T11:35:08.319Z</time>
      </trkpt>
      <trkpt lat="48.37732" lon="2.79062">
        <ele>124</ele>
        <time>2022-08-31T11:35:12.340Z</time>
      </trkpt>
      <trkpt lat="48.37733" lon="2.79046">
        <ele>124</ele>
        <time>2022-08-31T11:35:17.326Z</time>
      </trkpt>
      <trkpt lat="48.3773" lon="2.79033">
        <ele>124</ele>
        <time>2022-08-31T11:35:22.327Z</time>
      </trkpt>
      <trkpt lat="48.37719" lon="2.79036">
        <ele>124</ele>
        <time>2022-08-31T11:35:26.324Z</time>
      </trkpt>
      <trkpt lat="48.3771" lon="2.79039">
        <ele>124</ele>
        <time>2022-08-31T11:35:29.333Z</time>
      </trkpt>
      <trkpt lat="48.377" lon="2.79045">
        <ele>124</ele>
        <time>2022-08-31T11:35:32.330Z</time>
      </trkpt>
      <trkpt lat="48.37686" lon="2.79051">
        <ele>124</ele>
        <time>2022-08-31T11:35:36.332Z</time>
      </trkpt>
      <trkpt lat="48.37673" lon="2.79058">
        <ele>124</ele>
        <time>2022-08-31T11:35:40.326Z</time>
      </trkpt>
      <trkpt lat="48.37659" lon="2.79066">
        <ele>124</ele>
        <time>2022-08-31T11:35:44.323Z</time>
      </trkpt>
      <trkpt lat="48.37646" lon="2.79072">
        <ele>125</ele>
        <time>2022-08-31T11:35:48.318Z</time>
      </trkpt>
      <trkpt lat="48.37633" lon="2.79077">
        <ele>125</ele>
        <time>2022-08-31T11:35:52.333Z</time>
      </trkpt>
      <trkpt lat="48.37619" lon="2.7908">
        <ele>125</ele>
        <time>2022-08-31T11:35:56.326Z</time>
      </trkpt>
      <trkpt lat="48.37607" lon="2.79088">
        <ele>126</ele>
        <time>2022-08-31T11:36:00.332Z</time>
      </trkpt>
      <trkpt lat="48.37595" lon="2.79095">
        <ele>126</ele>
        <time>2022-08-31T11:36:04.333Z</time>
      </trkpt>
      <trkpt lat="48.37582" lon="2.79101">
        <ele>126</ele>
        <time>2022-08-31T11:36:08.326Z</time>
      </trkpt>
      <trkpt lat="48.37569" lon="2.79108">
        <ele>127</ele>
        <time>2022-08-31T11:36:12.321Z</time>
      </trkpt>
      <trkpt lat="48.37557" lon="2.79117">
        <ele>127</ele>
        <time>2022-08-31T11:36:17.327Z</time>
      </trkpt>
      <trkpt lat="48.3755" lon="2.79107">
        <ele>128</ele>
        <time>2022-08-31T11:36:24.326Z</time>
      </trkpt>
      <trkpt lat="48.37543" lon="2.79094">
        <ele>129</ele>
        <time>2022-08-31T11:36:30.322Z</time>
      </trkpt>
      <trkpt lat="48.37535" lon="2.79081">
        <ele>129</ele>
        <time>2022-08-31T11:36:34.330Z</time>
      </trkpt>
      <trkpt lat="48.37528" lon="2.7907">
        <ele>129</ele>
        <time>2022-08-31T11:36:38.313Z</time>
      </trkpt>
      <trkpt lat="48.37519" lon="2.79058">
        <ele>129</ele>
        <time>2022-08-31T11:36:42.337Z</time>
      </trkpt>
      <trkpt lat="48.3751" lon="2.79043">
        <ele>129</ele>
        <time>2022-08-31T11:36:46.331Z</time>
      </trkpt>
      <trkpt lat="48.37502" lon="2.79027">
        <ele>129</ele>
        <time>2022-08-31T11:36:50.310Z</time>
      </trkpt>
      <trkpt lat="48.37492" lon="2.79011">
        <ele>130</ele>
        <time>2022-08-31T11:36:54.329Z</time>
      </trkpt>
      <trkpt lat="48.37482" lon="2.78997">
        <ele>130</ele>
        <time>2022-08-31T11:36:58.321Z</time>
      </trkpt>
      <trkpt lat="48.37473" lon="2.78981">
        <ele>130</ele>
        <time>2022-08-31T11:37:02.325Z</time>
      </trkpt>
      <trkpt lat="48.37464" lon="2.78966">
        <ele>130</ele>
        <time>2022-08-31T11:37:06.332Z</time>
      </trkpt>
      <trkpt lat="48.37456" lon="2.78949">
        <ele>130</ele>
        <time>2022-08-31T11:37:11.334Z</time>
      </trkpt>
      <trkpt lat="48.37446" lon="2.78951">
        <ele>131</ele>
        <time>2022-08-31T11:37:17.308Z</time>
      </trkpt>
      <trkpt lat="48.37441" lon="2.78963">
        <ele>131</ele>
        <time>2022-08-31T11:37:22.334Z</time>
      </trkpt>
      <trkpt lat="48.37438" lon="2.78971">
        <ele>132</ele>
        <time>2022-08-31T11:37:29.311Z</time>
      </trkpt>
      <trkpt lat="48.37437" lon="2.7898">
        <ele>135</ele>
        <time>2022-08-31T11:37:51.325Z</time>
      </trkpt>
      <trkpt lat="48.37433" lon="2.78995">
        <ele>135</ele>
        <time>2022-08-31T11:37:55.336Z</time>
      </trkpt>
      <trkpt lat="48.37429" lon="2.79008">
        <ele>135</ele>
        <time>2022-08-31T11:37:58.335Z</time>
      </trkpt>
      <trkpt lat="48.37423" lon="2.79021">
        <ele>134</ele>
        <time>2022-08-31T11:38:01.330Z</time>
      </trkpt>
      <trkpt lat="48.37416" lon="2.79036">
        <ele>134</ele>
        <time>2022-08-31T11:38:04.327Z</time>
      </trkpt>
      <trkpt lat="48.37408" lon="2.79059">
        <ele>134</ele>
        <time>2022-08-31T11:38:08.329Z</time>
      </trkpt>
      <trkpt lat="48.37398" lon="2.79081">
        <ele>134</ele>
        <time>2022-08-31T11:38:12.325Z</time>
      </trkpt>
      <trkpt lat="48.3739" lon="2.79108">
        <ele>134</ele>
        <time>2022-08-31T11:38:17.325Z</time>
      </trkpt>
      <trkpt lat="48.37379" lon="2.79132">
        <ele>133</ele>
        <time>2022-08-31T11:38:22.313Z</time>
      </trkpt>
      <trkpt lat="48.3737" lon="2.79155">
        <ele>133</ele>
        <time>2022-08-31T11:38:26.323Z</time>
      </trkpt>
      <trkpt lat="48.37362" lon="2.79181">
        <ele>133</ele>
        <time>2022-08-31T11:38:30.323Z</time>
      </trkpt>
      <trkpt lat="48.3735" lon="2.79203">
        <ele>132</ele>
        <time>2022-08-31T11:38:34.324Z</time>
      </trkpt>
      <trkpt lat="48.37333" lon="2.79227">
        <ele>132</ele>
        <time>2022-08-31T11:38:39.326Z</time>
      </trkpt>
      <trkpt lat="48.37315" lon="2.7925">
        <ele>132</ele>
        <time>2022-08-31T11:38:44.335Z</time>
      </trkpt>
      <trkpt lat="48.373" lon="2.79271">
        <ele>133</ele>
        <time>2022-08-31T11:38:49.331Z</time>
      </trkpt>
      <trkpt lat="48.37286" lon="2.79291">
        <ele>133</ele>
        <time>2022-08-31T11:38:54.331Z</time>
      </trkpt>
      <trkpt lat="48.37272" lon="2.79309">
        <ele>133</ele>
        <time>2022-08-31T11:38:58.315Z</time>
      </trkpt>
      <trkpt lat="48.37259" lon="2.79328">
        <ele>133</ele>
        <time>2022-08-31T11:39:02.317Z</time>
      </trkpt>
      <trkpt lat="48.37246" lon="2.79346">
        <ele>134</ele>
        <time>2022-08-31T11:39:07.321Z</time>
      </trkpt>
      <trkpt lat="48.37232" lon="2.79368">
        <ele>134</ele>
        <time>2022-08-31T11:39:12.322Z</time>
      </trkpt>
      <trkpt lat="48.3722" lon="2.79385">
        <ele>134</ele>
        <time>2022-08-31T11:39:16.329Z</time>
      </trkpt>
      <trkpt lat="48.37208" lon="2.794">
        <ele>134</ele>
        <time>2022-08-31T11:39:20.329Z</time>
      </trkpt>
      <trkpt lat="48.37196" lon="2.79416">
        <ele>134</ele>
        <time>2022-08-31T11:39:24.333Z</time>
      </trkpt>
      <trkpt lat="48.37184" lon="2.79431">
        <ele>134</ele>
        <time>2022-08-31T11:39:28.331Z</time>
      </trkpt>
      <trkpt lat="48.37172" lon="2.79449">
        <ele>134</ele>
        <time>2022-08-31T11:39:32.319Z</time>
      </trkpt>
      <trkpt lat="48.37162" lon="2.79473">
        <ele>133</ele>
        <time>2022-08-31T11:39:37.328Z</time>
      </trkpt>
      <trkpt lat="48.37166" lon="2.79495">
        <ele>133</ele>
        <time>2022-08-31T11:39:41.335Z</time>
      </trkpt>
      <trkpt lat="48.37172" lon="2.79516">
        <ele>132</ele>
        <time>2022-08-31T11:39:45.315Z</time>
      </trkpt>
      <trkpt lat="48.3718" lon="2.79535">
        <ele>132</ele>
        <time>2022-08-31T11:39:48.338Z</time>
      </trkpt>
      <trkpt lat="48.37188" lon="2.7956">
        <ele>132</ele>
        <time>2022-08-31T11:39:52.321Z</time>
      </trkpt>
      <trkpt lat="48.37197" lon="2.79588">
        <ele>132</ele>
        <time>2022-08-31T11:39:57.319Z</time>
      </trkpt>
      <trkpt lat="48.37206" lon="2.79616">
        <ele>131</ele>
        <time>2022-08-31T11:40:02.332Z</time>
      </trkpt>
      <trkpt lat="48.37215" lon="2.79638">
        <ele>131</ele>
        <time>2022-08-31T11:40:06.328Z</time>
      </trkpt>
      <trkpt lat="48.37223" lon="2.7966">
        <ele>131</ele>
        <time>2022-08-31T11:40:10.329Z</time>
      </trkpt>
      <trkpt lat="48.37218" lon="2.79684">
        <ele>131</ele>
        <time>2022-08-31T11:40:16.331Z</time>
      </trkpt>
      <trkpt lat="48.372" lon="2.79693">
        <ele>131</ele>
        <time>2022-08-31T11:40:20.329Z</time>
      </trkpt>
      <trkpt lat="48.37183" lon="2.79704">
        <ele>131</ele>
        <time>2022-08-31T11:40:24.327Z</time>
      </trkpt>
      <trkpt lat="48.37164" lon="2.7972">
        <ele>131</ele>
        <time>2022-08-31T11:40:29.335Z</time>
      </trkpt>
      <trkpt lat="48.37148" lon="2.79737">
        <ele>132</ele>
        <time>2022-08-31T11:40:34.330Z</time>
      </trkpt>
      <trkpt lat="48.37133" lon="2.79752">
        <ele>131</ele>
        <time>2022-08-31T11:40:38.341Z</time>
      </trkpt>
      <trkpt lat="48.37117" lon="2.79768">
        <ele>131</ele>
        <time>2022-08-31T11:40:42.334Z</time>
      </trkpt>
      <trkpt lat="48.37098" lon="2.79783">
        <ele>131</ele>
        <time>2022-08-31T11:40:47.341Z</time>
      </trkpt>
      <trkpt lat="48.37081" lon="2.79793">
        <ele>131</ele>
        <time>2022-08-31T11:40:51.321Z</time>
      </trkpt>
      <trkpt lat="48.37064" lon="2.79812">
        <ele>131</ele>
        <time>2022-08-31T11:40:55.331Z</time>
      </trkpt>
      <trkpt lat="48.37047" lon="2.79827">
        <ele>131</ele>
        <time>2022-08-31T11:40:59.321Z</time>
      </trkpt>
      <trkpt lat="48.37026" lon="2.79839">
        <ele>131</ele>
        <time>2022-08-31T11:41:04.337Z</time>
      </trkpt>
      <trkpt lat="48.37006" lon="2.79852">
        <ele>131</ele>
        <time>2022-08-31T11:41:09.334Z</time>
      </trkpt>
      <trkpt lat="48.36988" lon="2.79861">
        <ele>131</ele>
        <time>2022-08-31T11:41:13.329Z</time>
      </trkpt>
      <trkpt lat="48.36972" lon="2.7988">
        <ele>131</ele>
        <time>2022-08-31T11:41:18.325Z</time>
      </trkpt>
      <trkpt lat="48.36956" lon="2.7989">
        <ele>130</ele>
        <time>2022-08-31T11:41:23.330Z</time>
      </trkpt>
      <trkpt lat="48.36941" lon="2.79878">
        <ele>130</ele>
        <time>2022-08-31T11:41:29.326Z</time>
      </trkpt>
      <trkpt lat="48.36931" lon="2.79868">
        <ele>130</ele>
        <time>2022-08-31T11:41:32.323Z</time>
      </trkpt>
      <trkpt lat="48.36918" lon="2.79857">
        <ele>130</ele>
        <time>2022-08-31T11:41:36.339Z</time>
      </trkpt>
      <trkpt lat="48.36904" lon="2.79851">
        <ele>130</ele>
        <time>2022-08-31T11:41:41.319Z</time>
      </trkpt>
      <trkpt lat="48.36894" lon="2.79871">
        <ele>130</ele>
        <time>2022-08-31T11:41:46.329Z</time>
      </trkpt>
      <trkpt lat="48.3689" lon="2.79889">
        <ele>130</ele>
        <time>2022-08-31T11:41:49.326Z</time>
      </trkpt>
      <trkpt lat="48.36888" lon="2.79908">
        <ele>130</ele>
        <time>2022-08-31T11:41:52.324Z</time>
      </trkpt>
      <trkpt lat="48.36883" lon="2.79931">
        <ele>130</ele>
        <time>2022-08-31T11:41:56.325Z</time>
      </trkpt>
      <trkpt lat="48.36877" lon="2.79954">
        <ele>129</ele>
        <time>2022-08-31T11:42:01.325Z</time>
      </trkpt>
      <trkpt lat="48.36868" lon="2.79974">
        <ele>129</ele>
        <time>2022-08-31T11:42:05.320Z</time>
      </trkpt>
      <trkpt lat="48.36862" lon="2.79993">
        <ele>129</ele>
        <time>2022-08-31T11:42:09.324Z</time>
      </trkpt>
      <trkpt lat="48.36858" lon="2.80015">
        <ele>128</ele>
        <time>2022-08-31T11:42:14.325Z</time>
      </trkpt>
      <trkpt lat="48.36852" lon="2.80035">
        <ele>128</ele>
        <time>2022-08-31T11:42:18.326Z</time>
      </trkpt>
      <trkpt lat="48.36848" lon="2.80059">
        <ele>128</ele>
        <time>2022-08-31T11:42:22.324Z</time>
      </trkpt>
      <trkpt lat="48.36845" lon="2.80081">
        <ele>128</ele>
        <time>2022-08-31T11:42:25.328Z</time>
      </trkpt>
      <trkpt lat="48.3684" lon="2.80107">
        <ele>128</ele>
        <time>2022-08-31T11:42:29.330Z</time>
      </trkpt>
      <trkpt lat="48.36834" lon="2.80137">
        <ele>129</ele>
        <time>2022-08-31T11:42:35.328Z</time>
      </trkpt>
      <trkpt lat="48.3683" lon="2.80161">
        <ele>129</ele>
        <time>2022-08-31T11:42:40.322Z</time>
      </trkpt>
      <trkpt lat="48.36825" lon="2.80184">
        <ele>130</ele>
        <time>2022-08-31T11:42:44.323Z</time>
      </trkpt>
      <trkpt lat="48.36815" lon="2.80204">
        <ele>130</ele>
        <time>2022-08-31T11:42:49.325Z</time>
      </trkpt>
      <trkpt lat="48.36804" lon="2.80217">
        <ele>131</ele>
        <time>2022-08-31T11:42:53.328Z</time>
      </trkpt>
      <trkpt lat="48.36792" lon="2.80233">
        <ele>131</ele>
        <time>2022-08-31T11:42:58.323Z</time>
      </trkpt>
      <trkpt lat="48.36783" lon="2.80245">
        <ele>132</ele>
        <time>2022-08-31T11:43:02.329Z</time>
      </trkpt>
      <trkpt lat="48.36773" lon="2.80262">
        <ele>132</ele>
        <time>2022-08-31T11:43:06.327Z</time>
      </trkpt>
      <trkpt lat="48.36762" lon="2.80274">
        <ele>133</ele>
        <time>2022-08-31T11:43:10.326Z</time>
      </trkpt>
      <trkpt lat="48.36751" lon="2.80286">
        <ele>133</ele>
        <time>2022-08-31T11:43:14.316Z</time>
      </trkpt>
      <trkpt lat="48.36741" lon="2.80299">
        <ele>133</ele>
        <time>2022-08-31T11:43:18.328Z</time>
      </trkpt>
      <trkpt lat="48.36731" lon="2.80313">
        <ele>133</ele>
        <time>2022-08-31T11:43:22.320Z</time>
      </trkpt>
      <trkpt lat="48.36722" lon="2.80326">
        <ele>134</ele>
        <time>2022-08-31T11:43:26.319Z</time>
      </trkpt>
      <trkpt lat="48.36712" lon="2.80342">
        <ele>134</ele>
        <time>2022-08-31T11:43:31.315Z</time>
      </trkpt>
      <trkpt lat="48.3671" lon="2.8035">
        <ele>134</ele>
        <time>2022-08-31T11:43:36.324Z</time>
      </trkpt>
      <trkpt lat="48.36708" lon="2.80359">
        <ele>136</ele>
        <time>2022-08-31T11:43:47.332Z</time>
      </trkpt>
      <trkpt lat="48.36699" lon="2.80365">
        <ele>136</ele>
        <time>2022-08-31T11:43:51.330Z</time>
      </trkpt>
      <trkpt lat="48.36689" lon="2.8037">
        <ele>137</ele>
        <time>2022-08-31T11:43:55.321Z</time>
      </trkpt>
      <trkpt lat="48.3668" lon="2.80381">
        <ele>138</ele>
        <time>2022-08-31T11:43:59.329Z</time>
      </trkpt>
      <trkpt lat="48.36675" lon="2.80396">
        <ele>139</ele>
        <time>2022-08-31T11:44:03.325Z</time>
      </trkpt>
      <trkpt lat="48.36675" lon="2.80413">
        <ele>140</ele>
        <time>2022-08-31T11:44:07.319Z</time>
      </trkpt>
      <trkpt lat="48.36676" lon="2.80431">
        <ele>141</ele>
        <time>2022-08-31T11:44:11.321Z</time>
      </trkpt>
      <trkpt lat="48.36677" lon="2.80447">
        <ele>143</ele>
        <time>2022-08-31T11:44:15.333Z</time>
      </trkpt>
      <trkpt lat="48.36677" lon="2.80464">
        <ele>143</ele>
        <time>2022-08-31T11:44:19.313Z</time>
      </trkpt>
      <trkpt lat="48.36677" lon="2.8048">
        <ele>144</ele>
        <time>2022-08-31T11:44:23.328Z</time>
      </trkpt>
      <trkpt lat="48.36677" lon="2.80496">
        <ele>144</ele>
        <time>2022-08-31T11:44:27.322Z</time>
      </trkpt>
      <trkpt lat="48.36677" lon="2.80512">
        <ele>144</ele>
        <time>2022-08-31T11:44:30.319Z</time>
      </trkpt>
      <trkpt lat="48.36676" lon="2.80529">
        <ele>144</ele>
        <time>2022-08-31T11:44:33.323Z</time>
      </trkpt>
      <trkpt lat="48.36675" lon="2.80548">
        <ele>144</ele>
        <time>2022-08-31T11:44:36.321Z</time>
      </trkpt>
      <trkpt lat="48.36673" lon="2.80572">
        <ele>144</ele>
        <time>2022-08-31T11:44:39.329Z</time>
      </trkpt>
      <trkpt lat="48.36672" lon="2.80597">
        <ele>144</ele>
        <time>2022-08-31T11:44:44.322Z</time>
      </trkpt>
      <trkpt lat="48.36666" lon="2.80621">
        <ele>144</ele>
        <time>2022-08-31T11:44:49.330Z</time>
      </trkpt>
      <trkpt lat="48.36661" lon="2.80643">
        <ele>143</ele>
        <time>2022-08-31T11:44:53.322Z</time>
      </trkpt>
      <trkpt lat="48.36656" lon="2.80664">
        <ele>143</ele>
        <time>2022-08-31T11:44:57.337Z</time>
      </trkpt>
      <trkpt lat="48.36652" lon="2.80678">
        <ele>143</ele>
        <time>2022-08-31T11:45:03.322Z</time>
      </trkpt>
      <trkpt lat="48.3665" lon="2.80685">
        <ele>142</ele>
        <time>2022-08-31T11:45:18.322Z</time>
      </trkpt>
      <trkpt lat="48.36645" lon="2.807">
        <ele>142</ele>
        <time>2022-08-31T11:45:22.322Z</time>
      </trkpt>
      <trkpt lat="48.36641" lon="2.80713">
        <ele>142</ele>
        <time>2022-08-31T11:45:25.325Z</time>
      </trkpt>
      <trkpt lat="48.36635" lon="2.80725">
        <ele>142</ele>
        <time>2022-08-31T11:45:28.321Z</time>
      </trkpt>
      <trkpt lat="48.36625" lon="2.8074">
        <ele>141</ele>
        <time>2022-08-31T11:45:32.319Z</time>
      </trkpt>
      <trkpt lat="48.36614" lon="2.80749">
        <ele>141</ele>
        <time>2022-08-31T11:45:36.323Z</time>
      </trkpt>
      <trkpt lat="48.36607" lon="2.8075">
        <ele>140</ele>
        <time>2022-08-31T11:45:42.324Z</time>
      </trkpt>
      <trkpt lat="48.36604" lon="2.80747">
        <ele>138</ele>
        <time>2022-08-31T11:45:53.335Z</time>
      </trkpt>
      <trkpt lat="48.36592" lon="2.80741">
        <ele>138</ele>
        <time>2022-08-31T11:45:57.330Z</time>
      </trkpt>
      <trkpt lat="48.36583" lon="2.80735">
        <ele>137</ele>
        <time>2022-08-31T11:46:01.317Z</time>
      </trkpt>
      <trkpt lat="48.36586" lon="2.80749">
        <ele>136</ele>
        <time>2022-08-31T11:46:07.324Z</time>
      </trkpt>
      <trkpt lat="48.36595" lon="2.80755">
        <ele>135</ele>
        <time>2022-08-31T11:46:10.331Z</time>
      </trkpt>
      <trkpt lat="48.36606" lon="2.80762">
        <ele>134</ele>
        <time>2022-08-31T11:46:13.320Z</time>
      </trkpt>
      <trkpt lat="48.36618" lon="2.80771">
        <ele>133</ele>
        <time>2022-08-31T11:46:18.316Z</time>
      </trkpt>
      <trkpt lat="48.36607" lon="2.80772">
        <ele>132</ele>
        <time>2022-08-31T11:46:24.317Z</time>
      </trkpt>
      <trkpt lat="48.36594" lon="2.80765">
        <ele>132</ele>
        <time>2022-08-31T11:46:27.325Z</time>
      </trkpt>
      <trkpt lat="48.36582" lon="2.80757">
        <ele>131</ele>
        <time>2022-08-31T11:46:30.313Z</time>
      </trkpt>
      <trkpt lat="48.36565" lon="2.80747">
        <ele>131</ele>
        <time>2022-08-31T11:46:34.334Z</time>
      </trkpt>
      <trkpt lat="48.36547" lon="2.80735">
        <ele>130</ele>
        <time>2022-08-31T11:46:38.322Z</time>
      </trkpt>
      <trkpt lat="48.3653" lon="2.80721">
        <ele>130</ele>
        <time>2022-08-31T11:46:42.331Z</time>
      </trkpt>
      <trkpt lat="48.36511" lon="2.80708">
        <ele>129</ele>
        <time>2022-08-31T11:46:46.333Z</time>
      </trkpt>
      <trkpt lat="48.3649" lon="2.80698">
        <ele>129</ele>
        <time>2022-08-31T11:46:51.325Z</time>
      </trkpt>
      <trkpt lat="48.36473" lon="2.80691">
        <ele>128</ele>
        <time>2022-08-31T11:46:58.323Z</time>
      </trkpt>
      <trkpt lat="48.36463" lon="2.80688">
        <ele>128</ele>
        <time>2022-08-31T11:47:03.328Z</time>
      </trkpt>
      <trkpt lat="48.36455" lon="2.80674">
        <ele>127</ele>
        <time>2022-08-31T11:47:06.327Z</time>
      </trkpt>
      <trkpt lat="48.36447" lon="2.80659">
        <ele>127</ele>
        <time>2022-08-31T11:47:09.313Z</time>
      </trkpt>
      <trkpt lat="48.3644" lon="2.80641">
        <ele>127</ele>
        <time>2022-08-31T11:47:12.335Z</time>
      </trkpt>
      <trkpt lat="48.3643" lon="2.80618">
        <ele>126</ele>
        <time>2022-08-31T11:47:17.318Z</time>
      </trkpt>
      <trkpt lat="48.3642" lon="2.80602">
        <ele>125</ele>
        <time>2022-08-31T11:47:23.322Z</time>
      </trkpt>
      <trkpt lat="48.36412" lon="2.8059">
        <ele>124</ele>
        <time>2022-08-31T11:47:28.322Z</time>
      </trkpt>
      <trkpt lat="48.36406" lon="2.8058">
        <ele>124</ele>
        <time>2022-08-31T11:47:31.310Z</time>
      </trkpt>
      <trkpt lat="48.36399" lon="2.80566">
        <ele>123</ele>
        <time>2022-08-31T11:47:34.321Z</time>
      </trkpt>
      <trkpt lat="48.36392" lon="2.80554">
        <ele>123</ele>
        <time>2022-08-31T11:47:37.319Z</time>
      </trkpt>
      <trkpt lat="48.36384" lon="2.80539">
        <ele>123</ele>
        <time>2022-08-31T11:47:42.327Z</time>
      </trkpt>
      <trkpt lat="48.36377" lon="2.80525">
        <ele>122</ele>
        <time>2022-08-31T11:47:46.337Z</time>
      </trkpt>
      <trkpt lat="48.3637" lon="2.80512">
        <ele>122</ele>
        <time>2022-08-31T11:47:49.320Z</time>
      </trkpt>
      <trkpt lat="48.36362" lon="2.80499">
        <ele>122</ele>
        <time>2022-08-31T11:47:52.319Z</time>
      </trkpt>
      <trkpt lat="48.36351" lon="2.80482">
        <ele>122</ele>
        <time>2022-08-31T11:47:56.323Z</time>
      </trkpt>
      <trkpt lat="48.36338" lon="2.80462">
        <ele>122</ele>
        <time>2022-08-31T11:48:00.320Z</time>
      </trkpt>
      <trkpt lat="48.36325" lon="2.80443">
        <ele>121</ele>
        <time>2022-08-31T11:48:04.332Z</time>
      </trkpt>
      <trkpt lat="48.36309" lon="2.8042">
        <ele>121</ele>
        <time>2022-08-31T11:48:09.319Z</time>
      </trkpt>
      <trkpt lat="48.36296" lon="2.80395">
        <ele>121</ele>
        <time>2022-08-31T11:48:14.326Z</time>
      </trkpt>
      <trkpt lat="48.36286" lon="2.80377">
        <ele>121</ele>
        <time>2022-08-31T11:48:18.332Z</time>
      </trkpt>
      <trkpt lat="48.36274" lon="2.80352">
        <ele>120</ele>
        <time>2022-08-31T11:48:23.332Z</time>
      </trkpt>
      <trkpt lat="48.36263" lon="2.80332">
        <ele>119</ele>
        <time>2022-08-31T11:48:28.321Z</time>
      </trkpt>
      <trkpt lat="48.36253" lon="2.80309">
        <ele>118</ele>
        <time>2022-08-31T11:48:32.326Z</time>
      </trkpt>
      <trkpt lat="48.36243" lon="2.80289">
        <ele>118</ele>
        <time>2022-08-31T11:48:35.323Z</time>
      </trkpt>
      <trkpt lat="48.36231" lon="2.80262">
        <ele>116</ele>
        <time>2022-08-31T11:48:40.312Z</time>
      </trkpt>
      <trkpt lat="48.36224" lon="2.80234">
        <ele>115</ele>
        <time>2022-08-31T11:48:46.328Z</time>
      </trkpt>
      <trkpt lat="48.36219" lon="2.80213">
        <ele>115</ele>
        <time>2022-08-31T11:48:51.324Z</time>
      </trkpt>
      <trkpt lat="48.36214" lon="2.80197">
        <ele>114</ele>
        <time>2022-08-31T11:48:55.320Z</time>
      </trkpt>
      <trkpt lat="48.36208" lon="2.80183">
        <ele>114</ele>
        <time>2022-08-31T11:49:00.322Z</time>
      </trkpt>
      <trkpt lat="48.36206" lon="2.8018">
        <ele>114</ele>
        <time>2022-08-31T11:49:04.308Z</time>
      </trkpt>
      <trkpt lat="48.36202" lon="2.80174">
        <ele>121</ele>
        <time>2022-08-31T11:49:32.326Z</time>
      </trkpt>
      <trkpt lat="48.36197" lon="2.80158">
        <ele>122</ele>
        <time>2022-08-31T11:49:37.320Z</time>
      </trkpt>
      <trkpt lat="48.36193" lon="2.80145">
        <ele>123</ele>
        <time>2022-08-31T11:49:41.322Z</time>
      </trkpt>
      <trkpt lat="48.36188" lon="2.80129">
        <ele>124</ele>
        <time>2022-08-31T11:49:45.319Z</time>
      </trkpt>
      <trkpt lat="48.36186" lon="2.80116">
        <ele>124</ele>
        <time>2022-08-31T11:49:48.310Z</time>
      </trkpt>
      <trkpt lat="48.36183" lon="2.80101">
        <ele>125</ele>
        <time>2022-08-31T11:49:51.328Z</time>
      </trkpt>
      <trkpt lat="48.36178" lon="2.80083">
        <ele>125</ele>
        <time>2022-08-31T11:49:55.312Z</time>
      </trkpt>
      <trkpt lat="48.36173" lon="2.80067">
        <ele>125</ele>
        <time>2022-08-31T11:49:59.330Z</time>
      </trkpt>
      <trkpt lat="48.36166" lon="2.80048">
        <ele>125</ele>
        <time>2022-08-31T11:50:03.325Z</time>
      </trkpt>
      <trkpt lat="48.3616" lon="2.8003">
        <ele>124</ele>
        <time>2022-08-31T11:50:07.326Z</time>
      </trkpt>
      <trkpt lat="48.36155" lon="2.80011">
        <ele>124</ele>
        <time>2022-08-31T11:50:11.329Z</time>
      </trkpt>
      <trkpt lat="48.36147" lon="2.7999">
        <ele>123</ele>
        <time>2022-08-31T11:50:15.328Z</time>
      </trkpt>
      <trkpt lat="48.36141" lon="2.79969">
        <ele>123</ele>
        <time>2022-08-31T11:50:19.322Z</time>
      </trkpt>
      <trkpt lat="48.36135" lon="2.79945">
        <ele>122</ele>
        <time>2022-08-31T11:50:24.319Z</time>
      </trkpt>
      <trkpt lat="48.36127" lon="2.79923">
        <ele>122</ele>
        <time>2022-08-31T11:50:28.316Z</time>
      </trkpt>
      <trkpt lat="48.36118" lon="2.79901">
        <ele>121</ele>
        <time>2022-08-31T11:50:32.326Z</time>
      </trkpt>
      <trkpt lat="48.36112" lon="2.79879">
        <ele>121</ele>
        <time>2022-08-31T11:50:36.326Z</time>
      </trkpt>
      <trkpt lat="48.36105" lon="2.79851">
        <ele>120</ele>
        <time>2022-08-31T11:50:41.322Z</time>
      </trkpt>
      <trkpt lat="48.36099" lon="2.79827">
        <ele>120</ele>
        <time>2022-08-31T11:50:45.326Z</time>
      </trkpt>
      <trkpt lat="48.36092" lon="2.79803">
        <ele>120</ele>
        <time>2022-08-31T11:50:49.325Z</time>
      </trkpt>
      <trkpt lat="48.36082" lon="2.79777">
        <ele>121</ele>
        <time>2022-08-31T11:50:53.324Z</time>
      </trkpt>
      <trkpt lat="48.36072" lon="2.7975">
        <ele>121</ele>
        <time>2022-08-31T11:50:57.334Z</time>
      </trkpt>
      <trkpt lat="48.36062" lon="2.79717">
        <ele>121</ele>
        <time>2022-08-31T11:51:02.320Z</time>
      </trkpt>
      <trkpt lat="48.36052" lon="2.79686">
        <ele>122</ele>
        <time>2022-08-31T11:51:07.320Z</time>
      </trkpt>
      <trkpt lat="48.36044" lon="2.79655">
        <ele>122</ele>
        <time>2022-08-31T11:51:12.313Z</time>
      </trkpt>
      <trkpt lat="48.36036" lon="2.79625">
        <ele>123</ele>
        <time>2022-08-31T11:51:17.319Z</time>
      </trkpt>
      <trkpt lat="48.36028" lon="2.79598">
        <ele>123</ele>
        <time>2022-08-31T11:51:21.319Z</time>
      </trkpt>
      <trkpt lat="48.3602" lon="2.79572">
        <ele>123</ele>
        <time>2022-08-31T11:51:25.330Z</time>
      </trkpt>
      <trkpt lat="48.36009" lon="2.79549">
        <ele>124</ele>
        <time>2022-08-31T11:51:31.316Z</time>
      </trkpt>
      <trkpt lat="48.35996" lon="2.79552">
        <ele>123</ele>
        <time>2022-08-31T11:51:36.324Z</time>
      </trkpt>
      <trkpt lat="48.35983" lon="2.79559">
        <ele>123</ele>
        <time>2022-08-31T11:51:39.322Z</time>
      </trkpt>
      <trkpt lat="48.3597" lon="2.79565">
        <ele>123</ele>
        <time>2022-08-31T11:51:42.330Z</time>
      </trkpt>
      <trkpt lat="48.3595" lon="2.79576">
        <ele>123</ele>
        <time>2022-08-31T11:51:46.317Z</time>
      </trkpt>
      <trkpt lat="48.35926" lon="2.79584">
        <ele>122</ele>
        <time>2022-08-31T11:51:50.322Z</time>
      </trkpt>
      <trkpt lat="48.359" lon="2.79595">
        <ele>121</ele>
        <time>2022-08-31T11:51:54.322Z</time>
      </trkpt>
      <trkpt lat="48.35874" lon="2.79607">
        <ele>120</ele>
        <time>2022-08-31T11:51:58.321Z</time>
      </trkpt>
      <trkpt lat="48.35842" lon="2.79624">
        <ele>118</ele>
        <time>2022-08-31T11:52:03.320Z</time>
      </trkpt>
      <trkpt lat="48.35814" lon="2.79638">
        <ele>116</ele>
        <time>2022-08-31T11:52:08.324Z</time>
      </trkpt>
      <trkpt lat="48.35789" lon="2.7965">
        <ele>114</ele>
        <time>2022-08-31T11:52:13.328Z</time>
      </trkpt>
      <trkpt lat="48.35766" lon="2.79659">
        <ele>112</ele>
        <time>2022-08-31T11:52:18.320Z</time>
      </trkpt>
      <trkpt lat="48.35744" lon="2.79667">
        <ele>109</ele>
        <time>2022-08-31T11:52:23.336Z</time>
      </trkpt>
      <trkpt lat="48.35726" lon="2.79675">
        <ele>107</ele>
        <time>2022-08-31T11:52:28.317Z</time>
      </trkpt>
      <trkpt lat="48.35709" lon="2.79682">
        <ele>106</ele>
        <time>2022-08-31T11:52:33.326Z</time>
      </trkpt>
      <trkpt lat="48.35697" lon="2.7969">
        <ele>105</ele>
        <time>2022-08-31T11:52:38.321Z</time>
      </trkpt>
      <trkpt lat="48.35693" lon="2.79704">
        <ele>105</ele>
        <time>2022-08-31T11:52:43.325Z</time>
      </trkpt>
      <trkpt lat="48.35684" lon="2.79711">
        <ele>106</ele>
        <time>2022-08-31T11:52:50.322Z</time>
      </trkpt>
      <trkpt lat="48.35677" lon="2.79699">
        <ele>106</ele>
        <time>2022-08-31T11:52:56.309Z</time>
      </trkpt>
      <trkpt lat="48.3567" lon="2.79686">
        <ele>106</ele>
        <time>2022-08-31T11:53:00.316Z</time>
      </trkpt>
      <trkpt lat="48.35662" lon="2.79675">
        <ele>107</ele>
        <time>2022-08-31T11:53:03.332Z</time>
      </trkpt>
      <trkpt lat="48.35655" lon="2.79663">
        <ele>107</ele>
        <time>2022-08-31T11:53:06.315Z</time>
      </trkpt>
      <trkpt lat="48.35647" lon="2.7965">
        <ele>108</ele>
        <time>2022-08-31T11:53:09.337Z</time>
      </trkpt>
      <trkpt lat="48.35636" lon="2.79634">
        <ele>108</ele>
        <time>2022-08-31T11:53:12.316Z</time>
      </trkpt>
      <trkpt lat="48.35625" lon="2.79616">
        <ele>108</ele>
        <time>2022-08-31T11:53:16.317Z</time>
      </trkpt>
      <trkpt lat="48.35613" lon="2.79599">
        <ele>108</ele>
        <time>2022-08-31T11:53:20.329Z</time>
      </trkpt>
      <trkpt lat="48.356" lon="2.79581">
        <ele>108</ele>
        <time>2022-08-31T11:53:24.324Z</time>
      </trkpt>
      <trkpt lat="48.35585" lon="2.79563">
        <ele>108</ele>
        <time>2022-08-31T11:53:28.323Z</time>
      </trkpt>
      <trkpt lat="48.35569" lon="2.79544">
        <ele>108</ele>
        <time>2022-08-31T11:53:33.320Z</time>
      </trkpt>
      <trkpt lat="48.35552" lon="2.79523">
        <ele>108</ele>
        <time>2022-08-31T11:53:38.319Z</time>
      </trkpt>
      <trkpt lat="48.35537" lon="2.79505">
        <ele>108</ele>
        <time>2022-08-31T11:53:42.326Z</time>
      </trkpt>
      <trkpt lat="48.3552" lon="2.79486">
        <ele>108</ele>
        <time>2022-08-31T11:53:47.321Z</time>
      </trkpt>
      <trkpt lat="48.35504" lon="2.79466">
        <ele>108</ele>
        <time>2022-08-31T11:53:52.321Z</time>
      </trkpt>
      <trkpt lat="48.35493" lon="2.79446">
        <ele>108</ele>
        <time>2022-08-31T11:53:56.317Z</time>
      </trkpt>
      <trkpt lat="48.35479" lon="2.79423">
        <ele>108</ele>
        <time>2022-08-31T11:54:00.322Z</time>
      </trkpt>
      <trkpt lat="48.35465" lon="2.79396">
        <ele>107</ele>
        <time>2022-08-31T11:54:05.315Z</time>
      </trkpt>
      <trkpt lat="48.35452" lon="2.79369">
        <ele>107</ele>
        <time>2022-08-31T11:54:10.319Z</time>
      </trkpt>
      <trkpt lat="48.3544" lon="2.79341">
        <ele>107</ele>
        <time>2022-08-31T11:54:15.309Z</time>
      </trkpt>
      <trkpt lat="48.35428" lon="2.79318">
        <ele>106</ele>
        <time>2022-08-31T11:54:19.321Z</time>
      </trkpt>
      <trkpt lat="48.35417" lon="2.79295">
        <ele>105</ele>
        <time>2022-08-31T11:54:23.319Z</time>
      </trkpt>
      <trkpt lat="48.35404" lon="2.79269">
        <ele>104</ele>
        <time>2022-08-31T11:54:28.325Z</time>
      </trkpt>
      <trkpt lat="48.35391" lon="2.79245">
        <ele>104</ele>
        <time>2022-08-31T11:54:33.326Z</time>
      </trkpt>
      <trkpt lat="48.35378" lon="2.79227">
        <ele>103</ele>
        <time>2022-08-31T11:54:37.318Z</time>
      </trkpt>
      <trkpt lat="48.35365" lon="2.79204">
        <ele>103</ele>
        <time>2022-08-31T11:54:42.317Z</time>
      </trkpt>
      <trkpt lat="48.35351" lon="2.79186">
        <ele>103</ele>
        <time>2022-08-31T11:54:46.325Z</time>
      </trkpt>
      <trkpt lat="48.35338" lon="2.79165">
        <ele>103</ele>
        <time>2022-08-31T11:54:51.324Z</time>
      </trkpt>
      <trkpt lat="48.35327" lon="2.7915">
        <ele>103</ele>
        <time>2022-08-31T11:54:55.324Z</time>
      </trkpt>
      <trkpt lat="48.35315" lon="2.7913">
        <ele>104</ele>
        <time>2022-08-31T11:54:59.321Z</time>
      </trkpt>
      <trkpt lat="48.35304" lon="2.79109">
        <ele>104</ele>
        <time>2022-08-31T11:55:04.328Z</time>
      </trkpt>
      <trkpt lat="48.35293" lon="2.7909">
        <ele>106</ele>
        <time>2022-08-31T11:55:09.324Z</time>
      </trkpt>
      <trkpt lat="48.35283" lon="2.79076">
        <ele>107</ele>
        <time>2022-08-31T11:55:13.314Z</time>
      </trkpt>
      <trkpt lat="48.35273" lon="2.79062">
        <ele>108</ele>
        <time>2022-08-31T11:55:17.320Z</time>
      </trkpt>
      <trkpt lat="48.35262" lon="2.79045">
        <ele>109</ele>
        <time>2022-08-31T11:55:21.318Z</time>
      </trkpt>
      <trkpt lat="48.35251" lon="2.79029">
        <ele>110</ele>
        <time>2022-08-31T11:55:25.315Z</time>
      </trkpt>
      <trkpt lat="48.35239" lon="2.7901">
        <ele>111</ele>
        <time>2022-08-31T11:55:30.316Z</time>
      </trkpt>
      <trkpt lat="48.35232" lon="2.7899">
        <ele>112</ele>
        <time>2022-08-31T11:55:34.321Z</time>
      </trkpt>
      <trkpt lat="48.35223" lon="2.7897">
        <ele>112</ele>
        <time>2022-08-31T11:55:38.319Z</time>
      </trkpt>
      <trkpt lat="48.35214" lon="2.78949">
        <ele>113</ele>
        <time>2022-08-31T11:55:42.318Z</time>
      </trkpt>
      <trkpt lat="48.35207" lon="2.78927">
        <ele>113</ele>
        <time>2022-08-31T11:55:46.326Z</time>
      </trkpt>
      <trkpt lat="48.35196" lon="2.78902">
        <ele>113</ele>
        <time>2022-08-31T11:55:50.330Z</time>
      </trkpt>
      <trkpt lat="48.35186" lon="2.78875">
        <ele>113</ele>
        <time>2022-08-31T11:55:54.324Z</time>
      </trkpt>
      <trkpt lat="48.35174" lon="2.78847">
        <ele>113</ele>
        <time>2022-08-31T11:55:59.323Z</time>
      </trkpt>
      <trkpt lat="48.3516" lon="2.78825">
        <ele>113</ele>
        <time>2022-08-31T11:56:03.318Z</time>
      </trkpt>
      <trkpt lat="48.35143" lon="2.78802">
        <ele>113</ele>
        <time>2022-08-31T11:56:08.323Z</time>
      </trkpt>
      <trkpt lat="48.35131" lon="2.78781">
        <ele>113</ele>
        <time>2022-08-31T11:56:12.318Z</time>
      </trkpt>
      <trkpt lat="48.35116" lon="2.78756">
        <ele>112</ele>
        <time>2022-08-31T11:56:17.329Z</time>
      </trkpt>
      <trkpt lat="48.35102" lon="2.78735">
        <ele>112</ele>
        <time>2022-08-31T11:56:21.332Z</time>
      </trkpt>
      <trkpt lat="48.35089" lon="2.78714">
        <ele>111</ele>
        <time>2022-08-31T11:56:25.324Z</time>
      </trkpt>
      <trkpt lat="48.35076" lon="2.78689">
        <ele>111</ele>
        <time>2022-08-31T11:56:30.314Z</time>
      </trkpt>
      <trkpt lat="48.35064" lon="2.78662">
        <ele>110</ele>
        <time>2022-08-31T11:56:35.320Z</time>
      </trkpt>
      <trkpt lat="48.35057" lon="2.78639">
        <ele>110</ele>
        <time>2022-08-31T11:56:39.329Z</time>
      </trkpt>
      <trkpt lat="48.35048" lon="2.78612">
        <ele>109</ele>
        <time>2022-08-31T11:56:43.315Z</time>
      </trkpt>
      <trkpt lat="48.35038" lon="2.78587">
        <ele>109</ele>
        <time>2022-08-31T11:56:47.322Z</time>
      </trkpt>
      <trkpt lat="48.35026" lon="2.78557">
        <ele>109</ele>
        <time>2022-08-31T11:56:52.320Z</time>
      </trkpt>
      <trkpt lat="48.35015" lon="2.78529">
        <ele>109</ele>
        <time>2022-08-31T11:56:57.313Z</time>
      </trkpt>
      <trkpt lat="48.35006" lon="2.785">
        <ele>109</ele>
        <time>2022-08-31T11:57:02.313Z</time>
      </trkpt>
      <trkpt lat="48.34997" lon="2.78475">
        <ele>110</ele>
        <time>2022-08-31T11:57:08.326Z</time>
      </trkpt>
      <trkpt lat="48.34987" lon="2.78456">
        <ele>110</ele>
        <time>2022-08-31T11:57:12.319Z</time>
      </trkpt>
      <trkpt lat="48.34974" lon="2.78439">
        <ele>110</ele>
        <time>2022-08-31T11:57:16.315Z</time>
      </trkpt>
      <trkpt lat="48.3496" lon="2.78422">
        <ele>111</ele>
        <time>2022-08-31T11:57:20.320Z</time>
      </trkpt>
      <trkpt lat="48.34943" lon="2.78404">
        <ele>111</ele>
        <time>2022-08-31T11:57:25.320Z</time>
      </trkpt>
      <trkpt lat="48.34928" lon="2.78386">
        <ele>111</ele>
        <time>2022-08-31T11:57:30.319Z</time>
      </trkpt>
      <trkpt lat="48.34917" lon="2.78369">
        <ele>111</ele>
        <time>2022-08-31T11:57:34.332Z</time>
      </trkpt>
      <trkpt lat="48.34905" lon="2.78353">
        <ele>111</ele>
        <time>2022-08-31T11:57:38.316Z</time>
      </trkpt>
      <trkpt lat="48.34893" lon="2.78338">
        <ele>110</ele>
        <time>2022-08-31T11:57:42.322Z</time>
      </trkpt>
      <trkpt lat="48.3488" lon="2.78317">
        <ele>110</ele>
        <time>2022-08-31T11:57:47.324Z</time>
      </trkpt>
      <trkpt lat="48.34868" lon="2.78299">
        <ele>110</ele>
        <time>2022-08-31T11:57:51.317Z</time>
      </trkpt>
      <trkpt lat="48.34858" lon="2.78277">
        <ele>109</ele>
        <time>2022-08-31T11:57:55.323Z</time>
      </trkpt>
      <trkpt lat="48.34849" lon="2.78256">
        <ele>109</ele>
        <time>2022-08-31T11:57:59.314Z</time>
      </trkpt>
      <trkpt lat="48.34839" lon="2.78229">
        <ele>109</ele>
        <time>2022-08-31T11:58:04.320Z</time>
      </trkpt>
      <trkpt lat="48.34829" lon="2.7821">
        <ele>108</ele>
        <time>2022-08-31T11:58:09.326Z</time>
      </trkpt>
      <trkpt lat="48.34831" lon="2.7821">
        <ele>108</ele>
        <time>2022-08-31T11:58:20.322Z</time>
      </trkpt>
      <trkpt lat="48.34834" lon="2.78206">
        <ele>109</ele>
        <time>2022-08-31T11:58:34.324Z</time>
      </trkpt>
      <trkpt lat="48.3484" lon="2.78194">
        <ele>110</ele>
        <time>2022-08-31T11:58:38.326Z</time>
      </trkpt>
      <trkpt lat="48.34846" lon="2.78183">
        <ele>110</ele>
        <time>2022-08-31T11:58:41.327Z</time>
      </trkpt>
      <trkpt lat="48.34852" lon="2.78173">
        <ele>110</ele>
        <time>2022-08-31T11:58:44.318Z</time>
      </trkpt>
      <trkpt lat="48.3486" lon="2.78159">
        <ele>110</ele>
        <time>2022-08-31T11:58:48.317Z</time>
      </trkpt>
      <trkpt lat="48.34869" lon="2.78144">
        <ele>111</ele>
        <time>2022-08-31T11:58:53.318Z</time>
      </trkpt>
      <trkpt lat="48.34876" lon="2.78132">
        <ele>111</ele>
        <time>2022-08-31T11:58:57.317Z</time>
      </trkpt>
      <trkpt lat="48.34884" lon="2.78121">
        <ele>112</ele>
        <time>2022-08-31T11:59:01.317Z</time>
      </trkpt>
      <trkpt lat="48.3489" lon="2.78111">
        <ele>112</ele>
        <time>2022-08-31T11:59:05.319Z</time>
      </trkpt>
      <trkpt lat="48.34898" lon="2.78099">
        <ele>113</ele>
        <time>2022-08-31T11:59:09.315Z</time>
      </trkpt>
      <trkpt lat="48.34905" lon="2.78088">
        <ele>114</ele>
        <time>2022-08-31T11:59:13.322Z</time>
      </trkpt>
      <trkpt lat="48.34911" lon="2.78077">
        <ele>115</ele>
        <time>2022-08-31T11:59:18.330Z</time>
      </trkpt>
      <trkpt lat="48.34916" lon="2.78066">
        <ele>115</ele>
        <time>2022-08-31T11:59:22.311Z</time>
      </trkpt>
      <trkpt lat="48.34923" lon="2.78054">
        <ele>117</ele>
        <time>2022-08-31T11:59:28.321Z</time>
      </trkpt>
      <trkpt lat="48.34929" lon="2.78044">
        <ele>118</ele>
        <time>2022-08-31T11:59:33.319Z</time>
      </trkpt>
      <trkpt lat="48.34936" lon="2.78036">
        <ele>119</ele>
        <time>2022-08-31T11:59:39.320Z</time>
      </trkpt>
      <trkpt lat="48.34943" lon="2.78022">
        <ele>121</ele>
        <time>2022-08-31T11:59:46.316Z</time>
      </trkpt>
      <trkpt lat="48.34949" lon="2.78013">
        <ele>122</ele>
        <time>2022-08-31T11:59:51.313Z</time>
      </trkpt>
      <trkpt lat="48.34958" lon="2.78003">
        <ele>123</ele>
        <time>2022-08-31T11:59:58.323Z</time>
      </trkpt>
      <trkpt lat="48.34964" lon="2.77992">
        <ele>124</ele>
        <time>2022-08-31T12:00:02.317Z</time>
      </trkpt>
      <trkpt lat="48.3497" lon="2.77983">
        <ele>124</ele>
        <time>2022-08-31T12:00:06.325Z</time>
      </trkpt>
      <trkpt lat="48.34979" lon="2.77974">
        <ele>125</ele>
        <time>2022-08-31T12:00:10.318Z</time>
      </trkpt>
      <trkpt lat="48.34987" lon="2.77962">
        <ele>125</ele>
        <time>2022-08-31T12:00:14.322Z</time>
      </trkpt>
      <trkpt lat="48.34995" lon="2.77953">
        <ele>126</ele>
        <time>2022-08-31T12:00:18.316Z</time>
      </trkpt>
      <trkpt lat="48.35001" lon="2.77944">
        <ele>127</ele>
        <time>2022-08-31T12:00:22.314Z</time>
      </trkpt>
      <trkpt lat="48.35009" lon="2.77932">
        <ele>127</ele>
        <time>2022-08-31T12:00:26.312Z</time>
      </trkpt>
      <trkpt lat="48.35016" lon="2.77923">
        <ele>128</ele>
        <time>2022-08-31T12:00:29.313Z</time>
      </trkpt>
      <trkpt lat="48.35022" lon="2.77912">
        <ele>128</ele>
        <time>2022-08-31T12:00:32.320Z</time>
      </trkpt>
      <trkpt lat="48.3503" lon="2.77899">
        <ele>129</ele>
        <time>2022-08-31T12:00:36.316Z</time>
      </trkpt>
      <trkpt lat="48.35039" lon="2.77888">
        <ele>130</ele>
        <time>2022-08-31T12:00:41.330Z</time>
      </trkpt>
      <trkpt lat="48.35047" lon="2.77881">
        <ele>130</ele>
        <time>2022-08-31T12:00:46.320Z</time>
      </trkpt>
      <trkpt lat="48.35056" lon="2.77872">
        <ele>131</ele>
        <time>2022-08-31T12:00:51.319Z</time>
      </trkpt>
      <trkpt lat="48.35064" lon="2.77866">
        <ele>132</ele>
        <time>2022-08-31T12:00:55.314Z</time>
      </trkpt>
      <trkpt lat="48.35074" lon="2.7786">
        <ele>132</ele>
        <time>2022-08-31T12:00:59.325Z</time>
      </trkpt>
      <trkpt lat="48.35084" lon="2.77854">
        <ele>132</ele>
        <time>2022-08-31T12:01:03.310Z</time>
      </trkpt>
      <trkpt lat="48.35094" lon="2.77847">
        <ele>133</ele>
        <time>2022-08-31T12:01:07.323Z</time>
      </trkpt>
      <trkpt lat="48.35102" lon="2.77841">
        <ele>133</ele>
        <time>2022-08-31T12:01:10.325Z</time>
      </trkpt>
      <trkpt lat="48.35113" lon="2.77833">
        <ele>133</ele>
        <time>2022-08-31T12:01:14.326Z</time>
      </trkpt>
      <trkpt lat="48.35123" lon="2.77825">
        <ele>134</ele>
        <time>2022-08-31T12:01:18.316Z</time>
      </trkpt>
      <trkpt lat="48.35133" lon="2.77818">
        <ele>135</ele>
        <time>2022-08-31T12:01:22.335Z</time>
      </trkpt>
      <trkpt lat="48.35142" lon="2.77813">
        <ele>135</ele>
        <time>2022-08-31T12:01:25.328Z</time>
      </trkpt>
      <trkpt lat="48.35154" lon="2.77805">
        <ele>135</ele>
        <time>2022-08-31T12:01:29.316Z</time>
      </trkpt>
      <trkpt lat="48.35168" lon="2.77797">
        <ele>136</ele>
        <time>2022-08-31T12:01:33.318Z</time>
      </trkpt>
      <trkpt lat="48.35184" lon="2.77787">
        <ele>136</ele>
        <time>2022-08-31T12:01:38.316Z</time>
      </trkpt>
      <trkpt lat="48.35197" lon="2.77779">
        <ele>136</ele>
        <time>2022-08-31T12:01:43.323Z</time>
      </trkpt>
      <trkpt lat="48.35208" lon="2.77776">
        <ele>137</ele>
        <time>2022-08-31T12:01:48.326Z</time>
      </trkpt>
      <trkpt lat="48.35218" lon="2.77772">
        <ele>137</ele>
        <time>2022-08-31T12:01:53.331Z</time>
      </trkpt>
      <trkpt lat="48.35228" lon="2.7777">
        <ele>137</ele>
        <time>2022-08-31T12:01:58.321Z</time>
      </trkpt>
      <trkpt lat="48.35237" lon="2.77765">
        <ele>137</ele>
        <time>2022-08-31T12:02:02.319Z</time>
      </trkpt>
      <trkpt lat="48.35246" lon="2.77761">
        <ele>137</ele>
        <time>2022-08-31T12:02:06.314Z</time>
      </trkpt>
      <trkpt lat="48.35256" lon="2.77756">
        <ele>137</ele>
        <time>2022-08-31T12:02:11.328Z</time>
      </trkpt>
      <trkpt lat="48.35266" lon="2.77751">
        <ele>137</ele>
        <time>2022-08-31T12:02:18.316Z</time>
      </trkpt>
      <trkpt lat="48.35274" lon="2.77743">
        <ele>138</ele>
        <time>2022-08-31T12:02:27.322Z</time>
      </trkpt>
      <trkpt lat="48.35283" lon="2.77738">
        <ele>138</ele>
        <time>2022-08-31T12:02:34.328Z</time>
      </trkpt>
      <trkpt lat="48.35292" lon="2.77733">
        <ele>139</ele>
        <time>2022-08-31T12:02:38.314Z</time>
      </trkpt>
      <trkpt lat="48.35303" lon="2.77729">
        <ele>140</ele>
        <time>2022-08-31T12:02:42.319Z</time>
      </trkpt>
      <trkpt lat="48.35314" lon="2.77722">
        <ele>140</ele>
        <time>2022-08-31T12:02:45.318Z</time>
      </trkpt>
      <trkpt lat="48.35327" lon="2.77715">
        <ele>140</ele>
        <time>2022-08-31T12:02:48.315Z</time>
      </trkpt>
      <trkpt lat="48.35343" lon="2.77709">
        <ele>141</ele>
        <time>2022-08-31T12:02:53.323Z</time>
      </trkpt>
      <trkpt lat="48.35358" lon="2.77703">
        <ele>141</ele>
        <time>2022-08-31T12:02:58.324Z</time>
      </trkpt>
      <trkpt lat="48.35372" lon="2.77696">
        <ele>142</ele>
        <time>2022-08-31T12:03:02.314Z</time>
      </trkpt>
      <trkpt lat="48.35386" lon="2.77691">
        <ele>142</ele>
        <time>2022-08-31T12:03:06.313Z</time>
      </trkpt>
      <trkpt lat="48.35398" lon="2.77687">
        <ele>142</ele>
        <time>2022-08-31T12:03:11.320Z</time>
      </trkpt>
      <trkpt lat="48.35403" lon="2.77686">
        <ele>142</ele>
        <time>2022-08-31T12:03:15.320Z</time>
      </trkpt>
      <trkpt lat="48.35407" lon="2.77681">
        <ele>141</ele>
        <time>2022-08-31T12:03:23.324Z</time>
      </trkpt>
      <trkpt lat="48.35411" lon="2.77665">
        <ele>140</ele>
        <time>2022-08-31T12:03:27.312Z</time>
      </trkpt>
      <trkpt lat="48.35415" lon="2.77651">
        <ele>140</ele>
        <time>2022-08-31T12:03:30.315Z</time>
      </trkpt>
      <trkpt lat="48.35418" lon="2.77636">
        <ele>140</ele>
        <time>2022-08-31T12:03:33.321Z</time>
      </trkpt>
      <trkpt lat="48.35421" lon="2.77615">
        <ele>139</ele>
        <time>2022-08-31T12:03:37.309Z</time>
      </trkpt>
      <trkpt lat="48.35425" lon="2.77593">
        <ele>139</ele>
        <time>2022-08-31T12:03:41.314Z</time>
      </trkpt>
      <trkpt lat="48.35429" lon="2.77572">
        <ele>138</ele>
        <time>2022-08-31T12:03:45.318Z</time>
      </trkpt>
      <trkpt lat="48.35432" lon="2.77551">
        <ele>137</ele>
        <time>2022-08-31T12:03:49.321Z</time>
      </trkpt>
      <trkpt lat="48.35434" lon="2.77528">
        <ele>137</ele>
        <time>2022-08-31T12:03:53.319Z</time>
      </trkpt>
      <trkpt lat="48.35435" lon="2.77507">
        <ele>136</ele>
        <time>2022-08-31T12:03:57.319Z</time>
      </trkpt>
      <trkpt lat="48.35438" lon="2.77484">
        <ele>136</ele>
        <time>2022-08-31T12:04:02.325Z</time>
      </trkpt>
      <trkpt lat="48.35441" lon="2.77463">
        <ele>135</ele>
        <time>2022-08-31T12:04:07.313Z</time>
      </trkpt>
      <trkpt lat="48.35444" lon="2.77443">
        <ele>134</ele>
        <time>2022-08-31T12:04:11.318Z</time>
      </trkpt>
      <trkpt lat="48.35447" lon="2.77425">
        <ele>134</ele>
        <time>2022-08-31T12:04:15.314Z</time>
      </trkpt>
      <trkpt lat="48.3545" lon="2.77404">
        <ele>133</ele>
        <time>2022-08-31T12:04:19.323Z</time>
      </trkpt>
      <trkpt lat="48.35449" lon="2.77381">
        <ele>132</ele>
        <time>2022-08-31T12:04:23.323Z</time>
      </trkpt>
      <trkpt lat="48.35451" lon="2.77361">
        <ele>132</ele>
        <time>2022-08-31T12:04:27.320Z</time>
      </trkpt>
      <trkpt lat="48.35455" lon="2.77338">
        <ele>131</ele>
        <time>2022-08-31T12:04:31.323Z</time>
      </trkpt>
      <trkpt lat="48.35458" lon="2.77316">
        <ele>131</ele>
        <time>2022-08-31T12:04:35.317Z</time>
      </trkpt>
      <trkpt lat="48.35462" lon="2.7729">
        <ele>130</ele>
        <time>2022-08-31T12:04:40.312Z</time>
      </trkpt>
      <trkpt lat="48.35468" lon="2.77268">
        <ele>130</ele>
        <time>2022-08-31T12:04:44.319Z</time>
      </trkpt>
      <trkpt lat="48.35473" lon="2.77247">
        <ele>130</ele>
        <time>2022-08-31T12:04:48.316Z</time>
      </trkpt>
      <trkpt lat="48.35476" lon="2.77221">
        <ele>130</ele>
        <time>2022-08-31T12:04:53.328Z</time>
      </trkpt>
      <trkpt lat="48.35477" lon="2.772">
        <ele>129</ele>
        <time>2022-08-31T12:04:57.318Z</time>
      </trkpt>
      <trkpt lat="48.35479" lon="2.77178">
        <ele>129</ele>
        <time>2022-08-31T12:05:01.315Z</time>
      </trkpt>
      <trkpt lat="48.35481" lon="2.77157">
        <ele>129</ele>
        <time>2022-08-31T12:05:05.322Z</time>
      </trkpt>
      <trkpt lat="48.35481" lon="2.77136">
        <ele>129</ele>
        <time>2022-08-31T12:05:09.316Z</time>
      </trkpt>
      <trkpt lat="48.35482" lon="2.77114">
        <ele>128</ele>
        <time>2022-08-31T12:05:14.319Z</time>
      </trkpt>
      <trkpt lat="48.35485" lon="2.77095">
        <ele>128</ele>
        <time>2022-08-31T12:05:19.315Z</time>
      </trkpt>
      <trkpt lat="48.35486" lon="2.77089">
        <ele>127</ele>
        <time>2022-08-31T12:05:22.323Z</time>
      </trkpt>
      <trkpt lat="48.35484" lon="2.77083">
        <ele>127</ele>
        <time>2022-08-31T12:05:26.316Z</time>
      </trkpt>
      <trkpt lat="48.35474" lon="2.77086">
        <ele>126</ele>
        <time>2022-08-31T12:05:32.321Z</time>
      </trkpt>
      <trkpt lat="48.35464" lon="2.77089">
        <ele>126</ele>
        <time>2022-08-31T12:05:36.315Z</time>
      </trkpt>
      <trkpt lat="48.35455" lon="2.77093">
        <ele>126</ele>
        <time>2022-08-31T12:05:40.315Z</time>
      </trkpt>
      <trkpt lat="48.35444" lon="2.77097">
        <ele>126</ele>
        <time>2022-08-31T12:05:45.314Z</time>
      </trkpt>
      <trkpt lat="48.35434" lon="2.77103">
        <ele>126</ele>
        <time>2022-08-31T12:05:49.320Z</time>
      </trkpt>
      <trkpt lat="48.35425" lon="2.77109">
        <ele>126</ele>
        <time>2022-08-31T12:05:53.314Z</time>
      </trkpt>
      <trkpt lat="48.35416" lon="2.77111">
        <ele>126</ele>
        <time>2022-08-31T12:05:57.322Z</time>
      </trkpt>
      <trkpt lat="48.35407" lon="2.77105">
        <ele>126</ele>
        <time>2022-08-31T12:06:05.322Z</time>
      </trkpt>
      <trkpt lat="48.35398" lon="2.771">
        <ele>129</ele>
        <time>2022-08-31T12:06:20.319Z</time>
      </trkpt>
      <trkpt lat="48.35388" lon="2.77099">
        <ele>130</ele>
        <time>2022-08-31T12:06:27.314Z</time>
      </trkpt>
      <trkpt lat="48.35379" lon="2.77098">
        <ele>131</ele>
        <time>2022-08-31T12:06:34.319Z</time>
      </trkpt>
      <trkpt lat="48.35371" lon="2.77098">
        <ele>134</ele>
        <time>2022-08-31T12:06:44.314Z</time>
      </trkpt>
      <trkpt lat="48.35367" lon="2.77098">
        <ele>136</ele>
        <time>2022-08-31T12:06:52.321Z</time>
      </trkpt>
      <trkpt lat="48.35358" lon="2.77095">
        <ele>140</ele>
        <time>2022-08-31T12:07:05.317Z</time>
      </trkpt>
      <trkpt lat="48.35349" lon="2.77089">
        <ele>143</ele>
        <time>2022-08-31T12:07:16.314Z</time>
      </trkpt>
      <trkpt lat="48.3534" lon="2.77087">
        <ele>146</ele>
        <time>2022-08-31T12:07:26.316Z</time>
      </trkpt>
      <trkpt lat="48.35332" lon="2.77087">
        <ele>147</ele>
        <time>2022-08-31T12:07:36.316Z</time>
      </trkpt>
      <trkpt lat="48.35329" lon="2.77083">
        <ele>146</ele>
        <time>2022-08-31T12:08:05.312Z</time>
      </trkpt>
      <trkpt lat="48.35334" lon="2.7707">
        <ele>146</ele>
        <time>2022-08-31T12:08:17.313Z</time>
      </trkpt>
      <trkpt lat="48.35336" lon="2.77057">
        <ele>146</ele>
        <time>2022-08-31T12:08:27.313Z</time>
      </trkpt>
      <trkpt lat="48.35336" lon="2.77051">
        <ele>147</ele>
        <time>2022-08-31T12:08:37.318Z</time>
      </trkpt>
      <trkpt lat="48.35335" lon="2.77045">
        <ele>147</ele>
        <time>2022-08-31T12:08:45.319Z</time>
      </trkpt>
      <trkpt lat="48.35331" lon="2.77032">
        <ele>149</ele>
        <time>2022-08-31T12:09:00.314Z</time>
      </trkpt>
      <trkpt lat="48.35329" lon="2.77024">
        <ele>149</ele>
        <time>2022-08-31T12:09:07.314Z</time>
      </trkpt>
      <trkpt lat="48.35329" lon="2.77018">
        <ele>150</ele>
        <time>2022-08-31T12:09:27.315Z</time>
      </trkpt>
      <trkpt lat="48.35325" lon="2.77006">
        <ele>149</ele>
        <time>2022-08-31T12:09:41.322Z</time>
      </trkpt>
      <trkpt lat="48.35327" lon="2.7699">
        <ele>149</ele>
        <time>2022-08-31T12:09:56.312Z</time>
      </trkpt>
      <trkpt lat="48.35328" lon="2.76975">
        <ele>149</ele>
        <time>2022-08-31T12:10:01.314Z</time>
      </trkpt>
      <trkpt lat="48.35331" lon="2.76962">
        <ele>148</ele>
        <time>2022-08-31T12:10:07.312Z</time>
      </trkpt>
      <trkpt lat="48.35329" lon="2.76948">
        <ele>148</ele>
        <time>2022-08-31T12:10:13.316Z</time>
      </trkpt>
      <trkpt lat="48.35326" lon="2.76935">
        <ele>147</ele>
        <time>2022-08-31T12:10:18.318Z</time>
      </trkpt>
      <trkpt lat="48.35323" lon="2.76922">
        <ele>147</ele>
        <time>2022-08-31T12:10:26.319Z</time>
      </trkpt>
      <trkpt lat="48.35322" lon="2.76909">
        <ele>147</ele>
        <time>2022-08-31T12:10:40.334Z</time>
      </trkpt>
      <trkpt lat="48.35315" lon="2.76898">
        <ele>148</ele>
        <time>2022-08-31T12:10:58.329Z</time>
      </trkpt>
      <trkpt lat="48.35311" lon="2.76886">
        <ele>149</ele>
        <time>2022-08-31T12:11:07.320Z</time>
      </trkpt>
      <trkpt lat="48.35308" lon="2.76881">
        <ele>149</ele>
        <time>2022-08-31T12:11:12.319Z</time>
      </trkpt>
      <trkpt lat="48.35306" lon="2.76876">
        <ele>150</ele>
        <time>2022-08-31T12:11:18.330Z</time>
      </trkpt>
      <trkpt lat="48.3531" lon="2.76863">
        <ele>151</ele>
        <time>2022-08-31T12:11:26.326Z</time>
      </trkpt>
      <trkpt lat="48.35312" lon="2.76849">
        <ele>152</ele>
        <time>2022-08-31T12:11:39.319Z</time>
      </trkpt>
      <trkpt lat="48.35318" lon="2.76838">
        <ele>152</ele>
        <time>2022-08-31T12:11:44.306Z</time>
      </trkpt>
      <trkpt lat="48.3532" lon="2.76823">
        <ele>152</ele>
        <time>2022-08-31T12:11:52.324Z</time>
      </trkpt>
      <trkpt lat="48.35319" lon="2.76821">
        <ele>152</ele>
        <time>2022-08-31T12:11:54.317Z</time>
      </trkpt>
      <trkpt lat="48.35316" lon="2.76819">
        <ele>151</ele>
        <time>2022-08-31T12:12:02.319Z</time>
      </trkpt>
      <trkpt lat="48.35309" lon="2.76808">
        <ele>151</ele>
        <time>2022-08-31T12:12:11.293Z</time>
      </trkpt>
      <trkpt lat="48.35308" lon="2.76794">
        <ele>151</ele>
        <time>2022-08-31T12:12:18.325Z</time>
      </trkpt>
      <trkpt lat="48.35314" lon="2.76783">
        <ele>150</ele>
        <time>2022-08-31T12:12:25.322Z</time>
      </trkpt>
      <trkpt lat="48.35316" lon="2.76768">
        <ele>151</ele>
        <time>2022-08-31T12:12:39.314Z</time>
      </trkpt>
      <trkpt lat="48.35317" lon="2.76754">
        <ele>151</ele>
        <time>2022-08-31T12:12:54.315Z</time>
      </trkpt>
      <trkpt lat="48.35317" lon="2.76751">
        <ele>151</ele>
        <time>2022-08-31T12:12:56.305Z</time>
      </trkpt>
      <trkpt lat="48.35317" lon="2.76745">
        <ele>150</ele>
        <time>2022-08-31T12:13:03.313Z</time>
      </trkpt>
      <trkpt lat="48.35312" lon="2.76732">
        <ele>150</ele>
        <time>2022-08-31T12:13:11.318Z</time>
      </trkpt>
      <trkpt lat="48.35309" lon="2.7672">
        <ele>148</ele>
        <time>2022-08-31T12:13:26.319Z</time>
      </trkpt>
      <trkpt lat="48.35307" lon="2.76718">
        <ele>148</ele>
        <time>2022-08-31T12:13:33.310Z</time>
      </trkpt>
      <trkpt lat="48.35306" lon="2.76711">
        <ele>147</ele>
        <time>2022-08-31T12:13:39.316Z</time>
      </trkpt>
      <trkpt lat="48.35302" lon="2.76699">
        <ele>146</ele>
        <time>2022-08-31T12:13:49.322Z</time>
      </trkpt>
      <trkpt lat="48.35294" lon="2.7669">
        <ele>145</ele>
        <time>2022-08-31T12:13:57.326Z</time>
      </trkpt>
      <trkpt lat="48.35291" lon="2.76688">
        <ele>145</ele>
        <time>2022-08-31T12:14:01.325Z</time>
      </trkpt>
      <trkpt lat="48.35284" lon="2.7668">
        <ele>144</ele>
        <time>2022-08-31T12:14:06.319Z</time>
      </trkpt>
      <trkpt lat="48.35273" lon="2.76674">
        <ele>143</ele>
        <time>2022-08-31T12:14:12.311Z</time>
      </trkpt>
      <trkpt lat="48.35263" lon="2.76668">
        <ele>143</ele>
        <time>2022-08-31T12:14:16.318Z</time>
      </trkpt>
      <trkpt lat="48.35253" lon="2.76659">
        <ele>142</ele>
        <time>2022-08-31T12:14:20.319Z</time>
      </trkpt>
      <trkpt lat="48.35247" lon="2.76649">
        <ele>142</ele>
        <time>2022-08-31T12:14:23.320Z</time>
      </trkpt>
      <trkpt lat="48.35237" lon="2.76642">
        <ele>141</ele>
        <time>2022-08-31T12:14:25.320Z</time>
      </trkpt>
      <trkpt lat="48.35227" lon="2.76635">
        <ele>141</ele>
        <time>2022-08-31T12:14:27.312Z</time>
      </trkpt>
      <trkpt lat="48.35211" lon="2.76625">
        <ele>140</ele>
        <time>2022-08-31T12:14:31.300Z</time>
      </trkpt>
      <trkpt lat="48.35201" lon="2.76621">
        <ele>139</ele>
        <time>2022-08-31T12:14:38.321Z</time>
      </trkpt>
      <trkpt lat="48.35199" lon="2.76616">
        <ele>137</ele>
        <time>2022-08-31T12:15:17.322Z</time>
      </trkpt>
      <trkpt lat="48.35201" lon="2.76601">
        <ele>137</ele>
        <time>2022-08-31T12:15:22.317Z</time>
      </trkpt>
      <trkpt lat="48.35206" lon="2.76586">
        <ele>137</ele>
        <time>2022-08-31T12:15:27.311Z</time>
      </trkpt>
      <trkpt lat="48.35209" lon="2.76572">
        <ele>136</ele>
        <time>2022-08-31T12:15:31.315Z</time>
      </trkpt>
      <trkpt lat="48.35212" lon="2.76559">
        <ele>136</ele>
        <time>2022-08-31T12:15:35.314Z</time>
      </trkpt>
      <trkpt lat="48.35214" lon="2.76545">
        <ele>136</ele>
        <time>2022-08-31T12:15:39.313Z</time>
      </trkpt>
      <trkpt lat="48.35217" lon="2.76531">
        <ele>135</ele>
        <time>2022-08-31T12:15:43.320Z</time>
      </trkpt>
      <trkpt lat="48.35221" lon="2.76514">
        <ele>134</ele>
        <time>2022-08-31T12:15:48.299Z</time>
      </trkpt>
      <trkpt lat="48.35224" lon="2.76499">
        <ele>134</ele>
        <time>2022-08-31T12:15:52.313Z</time>
      </trkpt>
      <trkpt lat="48.35226" lon="2.76486">
        <ele>133</ele>
        <time>2022-08-31T12:15:56.312Z</time>
      </trkpt>
      <trkpt lat="48.35228" lon="2.76471">
        <ele>132</ele>
        <time>2022-08-31T12:16:02.305Z</time>
      </trkpt>
      <trkpt lat="48.3523" lon="2.76455">
        <ele>131</ele>
        <time>2022-08-31T12:16:08.310Z</time>
      </trkpt>
      <trkpt lat="48.35231" lon="2.7644">
        <ele>130</ele>
        <time>2022-08-31T12:16:14.321Z</time>
      </trkpt>
      <trkpt lat="48.35235" lon="2.76427">
        <ele>129</ele>
        <time>2022-08-31T12:16:19.323Z</time>
      </trkpt>
      <trkpt lat="48.3524" lon="2.76413">
        <ele>129</ele>
        <time>2022-08-31T12:16:24.318Z</time>
      </trkpt>
      <trkpt lat="48.35242" lon="2.76398">
        <ele>129</ele>
        <time>2022-08-31T12:16:29.322Z</time>
      </trkpt>
      <trkpt lat="48.35243" lon="2.76383">
        <ele>129</ele>
        <time>2022-08-31T12:16:35.323Z</time>
      </trkpt>
      <trkpt lat="48.35245" lon="2.76368">
        <ele>130</ele>
        <time>2022-08-31T12:16:42.311Z</time>
      </trkpt>
      <trkpt lat="48.35243" lon="2.76354">
        <ele>131</ele>
        <time>2022-08-31T12:16:52.330Z</time>
      </trkpt>
      <trkpt lat="48.35241" lon="2.76353">
        <ele>133</ele>
        <time>2022-08-31T12:17:06.316Z</time>
      </trkpt>
      <trkpt lat="48.35229" lon="2.76373">
        <ele>135</ele>
        <time>2022-08-31T12:17:17.313Z</time>
      </trkpt>
      <trkpt lat="48.3522" lon="2.76375">
        <ele>137</ele>
        <time>2022-08-31T12:17:22.326Z</time>
      </trkpt>
      <trkpt lat="48.35215" lon="2.76363">
        <ele>138</ele>
        <time>2022-08-31T12:17:32.323Z</time>
      </trkpt>
      <trkpt lat="48.35218" lon="2.76349">
        <ele>139</ele>
        <time>2022-08-31T12:17:42.324Z</time>
      </trkpt>
      <trkpt lat="48.35221" lon="2.76336">
        <ele>139</ele>
        <time>2022-08-31T12:17:53.323Z</time>
      </trkpt>
      <trkpt lat="48.35223" lon="2.76322">
        <ele>139</ele>
        <time>2022-08-31T12:18:02.319Z</time>
      </trkpt>
      <trkpt lat="48.35224" lon="2.76308">
        <ele>139</ele>
        <time>2022-08-31T12:18:10.316Z</time>
      </trkpt>
      <trkpt lat="48.35224" lon="2.76294">
        <ele>139</ele>
        <time>2022-08-31T12:18:19.313Z</time>
      </trkpt>
      <trkpt lat="48.35225" lon="2.7628">
        <ele>140</ele>
        <time>2022-08-31T12:18:27.314Z</time>
      </trkpt>
      <trkpt lat="48.35226" lon="2.76265">
        <ele>142</ele>
        <time>2022-08-31T12:18:37.323Z</time>
      </trkpt>
      <trkpt lat="48.35225" lon="2.76252">
        <ele>144</ele>
        <time>2022-08-31T12:18:46.316Z</time>
      </trkpt>
      <trkpt lat="48.35226" lon="2.76238">
        <ele>146</ele>
        <time>2022-08-31T12:18:53.315Z</time>
      </trkpt>
      <trkpt lat="48.35227" lon="2.76223">
        <ele>148</ele>
        <time>2022-08-31T12:19:00.318Z</time>
      </trkpt>
      <trkpt lat="48.35228" lon="2.76208">
        <ele>150</ele>
        <time>2022-08-31T12:19:08.323Z</time>
      </trkpt>
      <trkpt lat="48.35231" lon="2.76195">
        <ele>152</ele>
        <time>2022-08-31T12:19:17.310Z</time>
      </trkpt>
      <trkpt lat="48.35227" lon="2.76182">
        <ele>155</ele>
        <time>2022-08-31T12:19:31.324Z</time>
      </trkpt>
      <trkpt lat="48.3523" lon="2.76169">
        <ele>156</ele>
        <time>2022-08-31T12:19:41.321Z</time>
      </trkpt>
      <trkpt lat="48.35233" lon="2.76161">
        <ele>158</ele>
        <time>2022-08-31T12:20:00.306Z</time>
      </trkpt>
      <trkpt lat="48.35235" lon="2.76147">
        <ele>159</ele>
        <time>2022-08-31T12:20:07.318Z</time>
      </trkpt>
      <trkpt lat="48.35237" lon="2.76132">
        <ele>161</ele>
        <time>2022-08-31T12:20:19.317Z</time>
      </trkpt>
      <trkpt lat="48.35237" lon="2.76116">
        <ele>161</ele>
        <time>2022-08-31T12:20:25.309Z</time>
      </trkpt>
      <trkpt lat="48.35239" lon="2.76102">
        <ele>162</ele>
        <time>2022-08-31T12:20:30.318Z</time>
      </trkpt>
      <trkpt lat="48.3524" lon="2.76086">
        <ele>162</ele>
        <time>2022-08-31T12:20:35.315Z</time>
      </trkpt>
      <trkpt lat="48.35241" lon="2.76073">
        <ele>162</ele>
        <time>2022-08-31T12:20:39.305Z</time>
      </trkpt>
      <trkpt lat="48.35242" lon="2.76057">
        <ele>162</ele>
        <time>2022-08-31T12:20:43.300Z</time>
      </trkpt>
      <trkpt lat="48.35242" lon="2.76041">
        <ele>162</ele>
        <time>2022-08-31T12:20:47.313Z</time>
      </trkpt>
      <trkpt lat="48.35241" lon="2.76025">
        <ele>162</ele>
        <time>2022-08-31T12:20:52.322Z</time>
      </trkpt>
      <trkpt lat="48.3524" lon="2.7601">
        <ele>162</ele>
        <time>2022-08-31T12:20:57.318Z</time>
      </trkpt>
      <trkpt lat="48.35242" lon="2.75994">
        <ele>163</ele>
        <time>2022-08-31T12:21:02.320Z</time>
      </trkpt>
      <trkpt lat="48.35242" lon="2.75979">
        <ele>163</ele>
        <time>2022-08-31T12:21:06.324Z</time>
      </trkpt>
      <trkpt lat="48.35241" lon="2.75965">
        <ele>163</ele>
        <time>2022-08-31T12:21:12.320Z</time>
      </trkpt>
      <trkpt lat="48.35241" lon="2.75964">
        <ele>163</ele>
        <time>2022-08-31T12:21:13.324Z</time>
      </trkpt>
      <trkpt lat="48.35239" lon="2.75959">
        <ele>163</ele>
        <time>2022-08-31T12:21:27.319Z</time>
      </trkpt>
      <trkpt lat="48.35239" lon="2.75956">
        <ele>163</ele>
        <time>2022-08-31T12:21:32.322Z</time>
      </trkpt>
      <trkpt lat="48.35239" lon="2.75949">
        <ele>162</ele>
        <time>2022-08-31T12:21:38.313Z</time>
      </trkpt>
      <trkpt lat="48.35239" lon="2.75932">
        <ele>162</ele>
        <time>2022-08-31T12:21:42.315Z</time>
      </trkpt>
      <trkpt lat="48.35238" lon="2.75915">
        <ele>161</ele>
        <time>2022-08-31T12:21:46.323Z</time>
      </trkpt>
      <trkpt lat="48.35238" lon="2.75895">
        <ele>160</ele>
        <time>2022-08-31T12:21:49.310Z</time>
      </trkpt>
      <trkpt lat="48.35239" lon="2.75871">
        <ele>159</ele>
        <time>2022-08-31T12:21:52.322Z</time>
      </trkpt>
      <trkpt lat="48.35241" lon="2.75848">
        <ele>158</ele>
        <time>2022-08-31T12:21:55.319Z</time>
      </trkpt>
      <trkpt lat="48.35244" lon="2.75817">
        <ele>157</ele>
        <time>2022-08-31T12:22:00.315Z</time>
      </trkpt>
      <trkpt lat="48.35246" lon="2.75786">
        <ele>156</ele>
        <time>2022-08-31T12:22:05.324Z</time>
      </trkpt>
      <trkpt lat="48.35246" lon="2.75761">
        <ele>154</ele>
        <time>2022-08-31T12:22:11.320Z</time>
      </trkpt>
      <trkpt lat="48.35246" lon="2.7574">
        <ele>153</ele>
        <time>2022-08-31T12:22:16.312Z</time>
      </trkpt>
      <trkpt lat="48.35246" lon="2.75724">
        <ele>152</ele>
        <time>2022-08-31T12:22:20.311Z</time>
      </trkpt>
      <trkpt lat="48.35249" lon="2.75706">
        <ele>152</ele>
        <time>2022-08-31T12:22:24.322Z</time>
      </trkpt>
      <trkpt lat="48.35253" lon="2.75689">
        <ele>152</ele>
        <time>2022-08-31T12:22:28.318Z</time>
      </trkpt>
      <trkpt lat="48.35254" lon="2.75673">
        <ele>152</ele>
        <time>2022-08-31T12:22:31.322Z</time>
      </trkpt>
      <trkpt lat="48.35257" lon="2.75655">
        <ele>152</ele>
        <time>2022-08-31T12:22:35.318Z</time>
      </trkpt>
      <trkpt lat="48.35259" lon="2.75635">
        <ele>152</ele>
        <time>2022-08-31T12:22:39.315Z</time>
      </trkpt>
      <trkpt lat="48.35262" lon="2.75616">
        <ele>152</ele>
        <time>2022-08-31T12:22:42.313Z</time>
      </trkpt>
      <trkpt lat="48.35265" lon="2.75596">
        <ele>152</ele>
        <time>2022-08-31T12:22:45.315Z</time>
      </trkpt>
      <trkpt lat="48.35268" lon="2.75574">
        <ele>153</ele>
        <time>2022-08-31T12:22:49.318Z</time>
      </trkpt>
      <trkpt lat="48.35271" lon="2.75547">
        <ele>153</ele>
        <time>2022-08-31T12:22:54.321Z</time>
      </trkpt>
      <trkpt lat="48.35273" lon="2.75526">
        <ele>153</ele>
        <time>2022-08-31T12:22:58.320Z</time>
      </trkpt>
      <trkpt lat="48.35276" lon="2.75505">
        <ele>153</ele>
        <time>2022-08-31T12:23:01.321Z</time>
      </trkpt>
      <trkpt lat="48.35282" lon="2.75477">
        <ele>153</ele>
        <time>2022-08-31T12:23:05.314Z</time>
      </trkpt>
      <trkpt lat="48.35289" lon="2.75448">
        <ele>153</ele>
        <time>2022-08-31T12:23:10.316Z</time>
      </trkpt>
      <trkpt lat="48.35294" lon="2.75419">
        <ele>153</ele>
        <time>2022-08-31T12:23:16.307Z</time>
      </trkpt>
      <trkpt lat="48.35297" lon="2.75395">
        <ele>153</ele>
        <time>2022-08-31T12:23:21.320Z</time>
      </trkpt>
      <trkpt lat="48.353" lon="2.75373">
        <ele>153</ele>
        <time>2022-08-31T12:23:25.311Z</time>
      </trkpt>
      <trkpt lat="48.35307" lon="2.75351">
        <ele>153</ele>
        <time>2022-08-31T12:23:29.320Z</time>
      </trkpt>
      <trkpt lat="48.35316" lon="2.75326">
        <ele>153</ele>
        <time>2022-08-31T12:23:33.313Z</time>
      </trkpt>
      <trkpt lat="48.35323" lon="2.75302">
        <ele>153</ele>
        <time>2022-08-31T12:23:37.322Z</time>
      </trkpt>
      <trkpt lat="48.3533" lon="2.75272">
        <ele>153</ele>
        <time>2022-08-31T12:23:42.311Z</time>
      </trkpt>
      <trkpt lat="48.35337" lon="2.75246">
        <ele>153</ele>
        <time>2022-08-31T12:23:48.319Z</time>
      </trkpt>
      <trkpt lat="48.35345" lon="2.75226">
        <ele>153</ele>
        <time>2022-08-31T12:23:53.294Z</time>
      </trkpt>
      <trkpt lat="48.3535" lon="2.75206">
        <ele>152</ele>
        <time>2022-08-31T12:23:57.319Z</time>
      </trkpt>
      <trkpt lat="48.35356" lon="2.75185">
        <ele>152</ele>
        <time>2022-08-31T12:24:01.317Z</time>
      </trkpt>
      <trkpt lat="48.35362" lon="2.75165">
        <ele>152</ele>
        <time>2022-08-31T12:24:06.316Z</time>
      </trkpt>
      <trkpt lat="48.35368" lon="2.75149">
        <ele>151</ele>
        <time>2022-08-31T12:24:11.317Z</time>
      </trkpt>
      <trkpt lat="48.35373" lon="2.75133">
        <ele>150</ele>
        <time>2022-08-31T12:24:15.310Z</time>
      </trkpt>
      <trkpt lat="48.35378" lon="2.7512">
        <ele>150</ele>
        <time>2022-08-31T12:24:17.323Z</time>
      </trkpt>
      <trkpt lat="48.35382" lon="2.75101">
        <ele>149</ele>
        <time>2022-08-31T12:24:21.315Z</time>
      </trkpt>
      <trkpt lat="48.35388" lon="2.75086">
        <ele>148</ele>
        <time>2022-08-31T12:24:25.325Z</time>
      </trkpt>
      <trkpt lat="48.35395" lon="2.75072">
        <ele>147</ele>
        <time>2022-08-31T12:24:31.321Z</time>
      </trkpt>
      <trkpt lat="48.35398" lon="2.75057">
        <ele>146</ele>
        <time>2022-08-31T12:24:40.318Z</time>
      </trkpt>
      <trkpt lat="48.35403" lon="2.75046">
        <ele>145</ele>
        <time>2022-08-31T12:24:49.321Z</time>
      </trkpt>
      <trkpt lat="48.35407" lon="2.75042">
        <ele>147</ele>
        <time>2022-08-31T12:25:01.314Z</time>
      </trkpt>
      <trkpt lat="48.3541" lon="2.75039">
        <ele>148</ele>
        <time>2022-08-31T12:25:07.314Z</time>
      </trkpt>
      <trkpt lat="48.35406" lon="2.75042">
        <ele>155</ele>
        <time>2022-08-31T12:25:22.322Z</time>
      </trkpt>
      <trkpt lat="48.35396" lon="2.75046">
        <ele>158</ele>
        <time>2022-08-31T12:25:30.316Z</time>
      </trkpt>
      <trkpt lat="48.35387" lon="2.75048">
        <ele>160</ele>
        <time>2022-08-31T12:25:40.311Z</time>
      </trkpt>
      <trkpt lat="48.35381" lon="2.75034">
        <ele>161</ele>
        <time>2022-08-31T12:25:49.316Z</time>
      </trkpt>
      <trkpt lat="48.35378" lon="2.7502">
        <ele>161</ele>
        <time>2022-08-31T12:25:52.321Z</time>
      </trkpt>
      <trkpt lat="48.35374" lon="2.75004">
        <ele>161</ele>
        <time>2022-08-31T12:25:56.315Z</time>
      </trkpt>
      <trkpt lat="48.3537" lon="2.74991">
        <ele>161</ele>
        <time>2022-08-31T12:26:00.317Z</time>
      </trkpt>
      <trkpt lat="48.35366" lon="2.74977">
        <ele>160</ele>
        <time>2022-08-31T12:26:04.320Z</time>
      </trkpt>
      <trkpt lat="48.35364" lon="2.74962">
        <ele>158</ele>
        <time>2022-08-31T12:26:13.312Z</time>
      </trkpt>
      <trkpt lat="48.35364" lon="2.74947">
        <ele>157</ele>
        <time>2022-08-31T12:26:20.319Z</time>
      </trkpt>
      <trkpt lat="48.35364" lon="2.74933">
        <ele>155</ele>
        <time>2022-08-31T12:26:27.324Z</time>
      </trkpt>
      <trkpt lat="48.35363" lon="2.74918">
        <ele>154</ele>
        <time>2022-08-31T12:26:36.301Z</time>
      </trkpt>
      <trkpt lat="48.35362" lon="2.74904">
        <ele>154</ele>
        <time>2022-08-31T12:26:46.325Z</time>
      </trkpt>
      <trkpt lat="48.35361" lon="2.7489">
        <ele>153</ele>
        <time>2022-08-31T12:27:01.317Z</time>
      </trkpt>
      <trkpt lat="48.35362" lon="2.74876">
        <ele>154</ele>
        <time>2022-08-31T12:27:14.326Z</time>
      </trkpt>
      <trkpt lat="48.35368" lon="2.74864">
        <ele>155</ele>
        <time>2022-08-31T12:27:21.318Z</time>
      </trkpt>
      <trkpt lat="48.3537" lon="2.7485">
        <ele>156</ele>
        <time>2022-08-31T12:27:32.314Z</time>
      </trkpt>
      <trkpt lat="48.3537" lon="2.7484">
        <ele>158</ele>
        <time>2022-08-31T12:27:43.330Z</time>
      </trkpt>
      <trkpt lat="48.35372" lon="2.74836">
        <ele>163</ele>
        <time>2022-08-31T12:28:00.313Z</time>
      </trkpt>
      <trkpt lat="48.35375" lon="2.74823">
        <ele>164</ele>
        <time>2022-08-31T12:28:05.317Z</time>
      </trkpt>
      <trkpt lat="48.35378" lon="2.74808">
        <ele>165</ele>
        <time>2022-08-31T12:28:10.321Z</time>
      </trkpt>
      <trkpt lat="48.35378" lon="2.74794">
        <ele>166</ele>
        <time>2022-08-31T12:28:14.317Z</time>
      </trkpt>
      <trkpt lat="48.35375" lon="2.74779">
        <ele>166</ele>
        <time>2022-08-31T12:28:19.315Z</time>
      </trkpt>
      <trkpt lat="48.35373" lon="2.74764">
        <ele>167</ele>
        <time>2022-08-31T12:28:23.324Z</time>
      </trkpt>
      <trkpt lat="48.3537" lon="2.74748">
        <ele>167</ele>
        <time>2022-08-31T12:28:27.319Z</time>
      </trkpt>
      <trkpt lat="48.3537" lon="2.74731">
        <ele>167</ele>
        <time>2022-08-31T12:28:31.320Z</time>
      </trkpt>
      <trkpt lat="48.35369" lon="2.74715">
        <ele>166</ele>
        <time>2022-08-31T12:28:35.318Z</time>
      </trkpt>
      <trkpt lat="48.35367" lon="2.74701">
        <ele>166</ele>
        <time>2022-08-31T12:28:39.310Z</time>
      </trkpt>
      <trkpt lat="48.35367" lon="2.74685">
        <ele>165</ele>
        <time>2022-08-31T12:28:43.312Z</time>
      </trkpt>
      <trkpt lat="48.35365" lon="2.7467">
        <ele>164</ele>
        <time>2022-08-31T12:28:47.311Z</time>
      </trkpt>
      <trkpt lat="48.35363" lon="2.74654">
        <ele>164</ele>
        <time>2022-08-31T12:28:52.319Z</time>
      </trkpt>
      <trkpt lat="48.35364" lon="2.7464">
        <ele>163</ele>
        <time>2022-08-31T12:28:55.323Z</time>
      </trkpt>
      <trkpt lat="48.35367" lon="2.74624">
        <ele>163</ele>
        <time>2022-08-31T12:28:59.321Z</time>
      </trkpt>
      <trkpt lat="48.35369" lon="2.74608">
        <ele>163</ele>
        <time>2022-08-31T12:29:03.322Z</time>
      </trkpt>
      <trkpt lat="48.35372" lon="2.74594">
        <ele>162</ele>
        <time>2022-08-31T12:29:08.314Z</time>
      </trkpt>
      <trkpt lat="48.35373" lon="2.7458">
        <ele>162</ele>
        <time>2022-08-31T12:29:12.315Z</time>
      </trkpt>
      <trkpt lat="48.35375" lon="2.74563">
        <ele>162</ele>
        <time>2022-08-31T12:29:16.324Z</time>
      </trkpt>
      <trkpt lat="48.35376" lon="2.74545">
        <ele>162</ele>
        <time>2022-08-31T12:29:20.320Z</time>
      </trkpt>
      <trkpt lat="48.35377" lon="2.74527">
        <ele>161</ele>
        <time>2022-08-31T12:29:24.322Z</time>
      </trkpt>
      <trkpt lat="48.35376" lon="2.74509">
        <ele>161</ele>
        <time>2022-08-31T12:29:28.319Z</time>
      </trkpt>
      <trkpt lat="48.35376" lon="2.74491">
        <ele>161</ele>
        <time>2022-08-31T12:29:32.316Z</time>
      </trkpt>
      <trkpt lat="48.35373" lon="2.74472">
        <ele>161</ele>
        <time>2022-08-31T12:29:36.318Z</time>
      </trkpt>
      <trkpt lat="48.35372" lon="2.74451">
        <ele>161</ele>
        <time>2022-08-31T12:29:40.319Z</time>
      </trkpt>
      <trkpt lat="48.35373" lon="2.74431">
        <ele>161</ele>
        <time>2022-08-31T12:29:44.309Z</time>
      </trkpt>
      <trkpt lat="48.35372" lon="2.74413">
        <ele>161</ele>
        <time>2022-08-31T12:29:48.309Z</time>
      </trkpt>
      <trkpt lat="48.35373" lon="2.74394">
        <ele>161</ele>
        <time>2022-08-31T12:29:53.324Z</time>
      </trkpt>
      <trkpt lat="48.35376" lon="2.7438">
        <ele>161</ele>
        <time>2022-08-31T12:29:58.324Z</time>
      </trkpt>
      <trkpt lat="48.35377" lon="2.74374">
        <ele>161</ele>
        <time>2022-08-31T12:30:03.319Z</time>
      </trkpt>
      <trkpt lat="48.35374" lon="2.7437">
        <ele>162</ele>
        <time>2022-08-31T12:30:10.311Z</time>
      </trkpt>
      <trkpt lat="48.35373" lon="2.74355">
        <ele>162</ele>
        <time>2022-08-31T12:30:18.314Z</time>
      </trkpt>
      <trkpt lat="48.35375" lon="2.74342">
        <ele>163</ele>
        <time>2022-08-31T12:30:28.317Z</time>
      </trkpt>
      <trkpt lat="48.35379" lon="2.74328">
        <ele>164</ele>
        <time>2022-08-31T12:30:37.313Z</time>
      </trkpt>
      <trkpt lat="48.35381" lon="2.74321">
        <ele>165</ele>
        <time>2022-08-31T12:30:41.317Z</time>
      </trkpt>
      <trkpt lat="48.35383" lon="2.74312">
        <ele>166</ele>
        <time>2022-08-31T12:30:48.315Z</time>
      </trkpt>
      <trkpt lat="48.35387" lon="2.74295">
        <ele>166</ele>
        <time>2022-08-31T12:30:52.309Z</time>
      </trkpt>
      <trkpt lat="48.35389" lon="2.74278">
        <ele>167</ele>
        <time>2022-08-31T12:30:56.304Z</time>
      </trkpt>
      <trkpt lat="48.35391" lon="2.74262">
        <ele>167</ele>
        <time>2022-08-31T12:31:00.308Z</time>
      </trkpt>
      <trkpt lat="48.35392" lon="2.74249">
        <ele>168</ele>
        <time>2022-08-31T12:31:05.311Z</time>
      </trkpt>
      <trkpt lat="48.35392" lon="2.74248">
        <ele>168</ele>
        <time>2022-08-31T12:31:06.320Z</time>
      </trkpt>
      <trkpt lat="48.35395" lon="2.74249">
        <ele>169</ele>
        <time>2022-08-31T12:31:13.320Z</time>
      </trkpt>
      <trkpt lat="48.35397" lon="2.74251">
        <ele>170</ele>
        <time>2022-08-31T12:31:23.319Z</time>
      </trkpt>
      <trkpt lat="48.35404" lon="2.74246">
        <ele>178</ele>
        <time>2022-08-31T12:32:27.305Z</time>
      </trkpt>
      <trkpt lat="48.35402" lon="2.74232">
        <ele>179</ele>
        <time>2022-08-31T12:32:35.293Z</time>
      </trkpt>
      <trkpt lat="48.35399" lon="2.74218">
        <ele>179</ele>
        <time>2022-08-31T12:32:43.312Z</time>
      </trkpt>
      <trkpt lat="48.35404" lon="2.74206">
        <ele>180</ele>
        <time>2022-08-31T12:32:55.298Z</time>
      </trkpt>
      <trkpt lat="48.35412" lon="2.742">
        <ele>180</ele>
        <time>2022-08-31T12:33:02.312Z</time>
      </trkpt>
      <trkpt lat="48.3542" lon="2.7419">
        <ele>179</ele>
        <time>2022-08-31T12:33:10.320Z</time>
      </trkpt>
      <trkpt lat="48.35428" lon="2.74184">
        <ele>179</ele>
        <time>2022-08-31T12:33:20.312Z</time>
      </trkpt>
      <trkpt lat="48.35438" lon="2.74188">
        <ele>179</ele>
        <time>2022-08-31T12:33:28.316Z</time>
      </trkpt>
      <trkpt lat="48.35447" lon="2.7419">
        <ele>180</ele>
        <time>2022-08-31T12:33:35.320Z</time>
      </trkpt>
      <trkpt lat="48.35457" lon="2.74193">
        <ele>180</ele>
        <time>2022-08-31T12:33:43.315Z</time>
      </trkpt>
      <trkpt lat="48.35467" lon="2.74199">
        <ele>181</ele>
        <time>2022-08-31T12:33:52.305Z</time>
      </trkpt>
      <trkpt lat="48.35476" lon="2.742">
        <ele>182</ele>
        <time>2022-08-31T12:34:01.311Z</time>
      </trkpt>
      <trkpt lat="48.35483" lon="2.74208">
        <ele>182</ele>
        <time>2022-08-31T12:34:09.321Z</time>
      </trkpt>
      <trkpt lat="48.35489" lon="2.7422">
        <ele>182</ele>
        <time>2022-08-31T12:34:15.320Z</time>
      </trkpt>
      <trkpt lat="48.35497" lon="2.74231">
        <ele>181</ele>
        <time>2022-08-31T12:34:19.325Z</time>
      </trkpt>
      <trkpt lat="48.35503" lon="2.74242">
        <ele>181</ele>
        <time>2022-08-31T12:34:23.310Z</time>
      </trkpt>
      <trkpt lat="48.35509" lon="2.74258">
        <ele>181</ele>
        <time>2022-08-31T12:34:27.304Z</time>
      </trkpt>
      <trkpt lat="48.35516" lon="2.74272">
        <ele>181</ele>
        <time>2022-08-31T12:34:30.307Z</time>
      </trkpt>
      <trkpt lat="48.35522" lon="2.74287">
        <ele>180</ele>
        <time>2022-08-31T12:34:33.313Z</time>
      </trkpt>
      <trkpt lat="48.3553" lon="2.743">
        <ele>180</ele>
        <time>2022-08-31T12:34:37.310Z</time>
      </trkpt>
      <trkpt lat="48.3554" lon="2.74308">
        <ele>179</ele>
        <time>2022-08-31T12:34:44.308Z</time>
      </trkpt>
      <trkpt lat="48.35548" lon="2.74317">
        <ele>178</ele>
        <time>2022-08-31T12:34:53.309Z</time>
      </trkpt>
      <trkpt lat="48.35558" lon="2.74323">
        <ele>178</ele>
        <time>2022-08-31T12:35:00.318Z</time>
      </trkpt>
      <trkpt lat="48.35566" lon="2.74328">
        <ele>177</ele>
        <time>2022-08-31T12:35:05.322Z</time>
      </trkpt>
      <trkpt lat="48.35575" lon="2.74336">
        <ele>176</ele>
        <time>2022-08-31T12:35:11.321Z</time>
      </trkpt>
      <trkpt lat="48.35583" lon="2.74343">
        <ele>176</ele>
        <time>2022-08-31T12:35:16.320Z</time>
      </trkpt>
      <trkpt lat="48.35591" lon="2.74349">
        <ele>174</ele>
        <time>2022-08-31T12:35:25.311Z</time>
      </trkpt>
      <trkpt lat="48.35599" lon="2.74358">
        <ele>172</ele>
        <time>2022-08-31T12:35:33.306Z</time>
      </trkpt>
      <trkpt lat="48.35604" lon="2.7437">
        <ele>166</ele>
        <time>2022-08-31T12:35:48.316Z</time>
      </trkpt>
      <trkpt lat="48.35611" lon="2.74381">
        <ele>163</ele>
        <time>2022-08-31T12:35:59.319Z</time>
      </trkpt>
      <trkpt lat="48.35619" lon="2.74389">
        <ele>159</ele>
        <time>2022-08-31T12:36:12.321Z</time>
      </trkpt>
      <trkpt lat="48.35624" lon="2.74387">
        <ele>158</ele>
        <time>2022-08-31T12:36:22.311Z</time>
      </trkpt>
      <trkpt lat="48.35626" lon="2.74396">
        <ele>150</ele>
        <time>2022-08-31T12:40:39.301Z</time>
      </trkpt>
      <trkpt lat="48.35634" lon="2.74403">
        <ele>151</ele>
        <time>2022-08-31T12:40:44.316Z</time>
      </trkpt>
      <trkpt lat="48.35644" lon="2.74407">
        <ele>151</ele>
        <time>2022-08-31T12:40:48.309Z</time>
      </trkpt>
      <trkpt lat="48.35655" lon="2.74411">
        <ele>151</ele>
        <time>2022-08-31T12:40:52.299Z</time>
      </trkpt>
      <trkpt lat="48.35666" lon="2.74413">
        <ele>151</ele>
        <time>2022-08-31T12:40:55.299Z</time>
      </trkpt>
      <trkpt lat="48.35678" lon="2.74414">
        <ele>152</ele>
        <time>2022-08-31T12:40:58.297Z</time>
      </trkpt>
      <trkpt lat="48.35697" lon="2.74415">
        <ele>152</ele>
        <time>2022-08-31T12:41:02.306Z</time>
      </trkpt>
      <trkpt lat="48.35713" lon="2.74417">
        <ele>152</ele>
        <time>2022-08-31T12:41:05.313Z</time>
      </trkpt>
      <trkpt lat="48.35733" lon="2.74424">
        <ele>153</ele>
        <time>2022-08-31T12:41:10.305Z</time>
      </trkpt>
      <trkpt lat="48.35749" lon="2.74433">
        <ele>153</ele>
        <time>2022-08-31T12:41:15.311Z</time>
      </trkpt>
      <trkpt lat="48.35764" lon="2.74438">
        <ele>153</ele>
        <time>2022-08-31T12:41:20.311Z</time>
      </trkpt>
      <trkpt lat="48.35777" lon="2.74443">
        <ele>154</ele>
        <time>2022-08-31T12:41:24.317Z</time>
      </trkpt>
      <trkpt lat="48.3579" lon="2.74448">
        <ele>153</ele>
        <time>2022-08-31T12:41:28.311Z</time>
      </trkpt>
      <trkpt lat="48.35799" lon="2.74452">
        <ele>152</ele>
        <time>2022-08-31T12:41:40.305Z</time>
      </trkpt>
      <trkpt lat="48.35799" lon="2.74451">
        <ele>152</ele>
        <time>2022-08-31T12:41:41.302Z</time>
      </trkpt>
      <trkpt lat="48.35803" lon="2.74453">
        <ele>149</ele>
        <time>2022-08-31T12:41:58.314Z</time>
      </trkpt>
      <trkpt lat="48.35812" lon="2.74458">
        <ele>149</ele>
        <time>2022-08-31T12:42:05.303Z</time>
      </trkpt>
      <trkpt lat="48.35822" lon="2.74462">
        <ele>148</ele>
        <time>2022-08-31T12:42:11.315Z</time>
      </trkpt>
      <trkpt lat="48.35831" lon="2.74466">
        <ele>147</ele>
        <time>2022-08-31T12:42:16.308Z</time>
      </trkpt>
      <trkpt lat="48.3584" lon="2.74469">
        <ele>146</ele>
        <time>2022-08-31T12:42:25.310Z</time>
      </trkpt>
      <trkpt lat="48.3585" lon="2.74472">
        <ele>144</ele>
        <time>2022-08-31T12:42:36.305Z</time>
      </trkpt>
      <trkpt lat="48.3586" lon="2.74473">
        <ele>142</ele>
        <time>2022-08-31T12:42:43.310Z</time>
      </trkpt>
      <trkpt lat="48.35869" lon="2.74475">
        <ele>140</ele>
        <time>2022-08-31T12:42:52.304Z</time>
      </trkpt>
      <trkpt lat="48.35878" lon="2.74481">
        <ele>140</ele>
        <time>2022-08-31T12:43:03.311Z</time>
      </trkpt>
      <trkpt lat="48.35887" lon="2.74485">
        <ele>142</ele>
        <time>2022-08-31T12:43:17.319Z</time>
      </trkpt>
      <trkpt lat="48.35897" lon="2.74485">
        <ele>144</ele>
        <time>2022-08-31T12:43:27.300Z</time>
      </trkpt>
      <trkpt lat="48.35907" lon="2.74488">
        <ele>146</ele>
        <time>2022-08-31T12:43:36.291Z</time>
      </trkpt>
      <trkpt lat="48.35916" lon="2.74491">
        <ele>148</ele>
        <time>2022-08-31T12:43:44.307Z</time>
      </trkpt>
      <trkpt lat="48.35925" lon="2.74491">
        <ele>151</ele>
        <time>2022-08-31T12:44:01.319Z</time>
      </trkpt>
      <trkpt lat="48.3593" lon="2.74495">
        <ele>153</ele>
        <time>2022-08-31T12:44:10.320Z</time>
      </trkpt>
      <trkpt lat="48.35934" lon="2.74499">
        <ele>156</ele>
        <time>2022-08-31T12:44:31.320Z</time>
      </trkpt>
      <trkpt lat="48.35942" lon="2.74503">
        <ele>157</ele>
        <time>2022-08-31T12:44:42.304Z</time>
      </trkpt>
      <trkpt lat="48.35952" lon="2.74508">
        <ele>159</ele>
        <time>2022-08-31T12:44:55.316Z</time>
      </trkpt>
      <trkpt lat="48.35961" lon="2.74511">
        <ele>159</ele>
        <time>2022-08-31T12:45:06.312Z</time>
      </trkpt>
      <trkpt lat="48.3597" lon="2.74513">
        <ele>160</ele>
        <time>2022-08-31T12:45:18.303Z</time>
      </trkpt>
      <trkpt lat="48.35978" lon="2.74519">
        <ele>159</ele>
        <time>2022-08-31T12:45:33.302Z</time>
      </trkpt>
      <trkpt lat="48.35977" lon="2.74519">
        <ele>159</ele>
        <time>2022-08-31T12:45:37.309Z</time>
      </trkpt>
      <trkpt lat="48.35979" lon="2.74515">
        <ele>162</ele>
        <time>2022-08-31T12:46:09.322Z</time>
      </trkpt>
      <trkpt lat="48.35989" lon="2.74516">
        <ele>163</ele>
        <time>2022-08-31T12:46:18.322Z</time>
      </trkpt>
      <trkpt lat="48.35998" lon="2.74521">
        <ele>165</ele>
        <time>2022-08-31T12:46:29.315Z</time>
      </trkpt>
      <trkpt lat="48.36" lon="2.74522">
        <ele>165</ele>
        <time>2022-08-31T12:46:34.309Z</time>
      </trkpt>
      <trkpt lat="48.36007" lon="2.74525">
        <ele>170</ele>
        <time>2022-08-31T12:47:35.314Z</time>
      </trkpt>
      <trkpt lat="48.36011" lon="2.74512">
        <ele>170</ele>
        <time>2022-08-31T12:47:39.302Z</time>
      </trkpt>
      <trkpt lat="48.36015" lon="2.745">
        <ele>170</ele>
        <time>2022-08-31T12:47:42.313Z</time>
      </trkpt>
      <trkpt lat="48.36016" lon="2.74484">
        <ele>170</ele>
        <time>2022-08-31T12:47:46.305Z</time>
      </trkpt>
      <trkpt lat="48.36018" lon="2.74469">
        <ele>170</ele>
        <time>2022-08-31T12:47:50.315Z</time>
      </trkpt>
      <trkpt lat="48.36021" lon="2.74451">
        <ele>171</ele>
        <time>2022-08-31T12:47:54.312Z</time>
      </trkpt>
      <trkpt lat="48.36025" lon="2.74436">
        <ele>172</ele>
        <time>2022-08-31T12:47:57.310Z</time>
      </trkpt>
      <trkpt lat="48.36029" lon="2.74419">
        <ele>173</ele>
        <time>2022-08-31T12:48:01.312Z</time>
      </trkpt>
      <trkpt lat="48.36033" lon="2.74402">
        <ele>174</ele>
        <time>2022-08-31T12:48:05.302Z</time>
      </trkpt>
      <trkpt lat="48.36036" lon="2.74384">
        <ele>175</ele>
        <time>2022-08-31T12:48:09.301Z</time>
      </trkpt>
      <trkpt lat="48.36036" lon="2.74364">
        <ele>176</ele>
        <time>2022-08-31T12:48:13.304Z</time>
      </trkpt>
      <trkpt lat="48.36034" lon="2.74345">
        <ele>177</ele>
        <time>2022-08-31T12:48:17.313Z</time>
      </trkpt>
      <trkpt lat="48.36034" lon="2.74327">
        <ele>178</ele>
        <time>2022-08-31T12:48:21.305Z</time>
      </trkpt>
      <trkpt lat="48.36032" lon="2.74307">
        <ele>179</ele>
        <time>2022-08-31T12:48:26.306Z</time>
      </trkpt>
      <trkpt lat="48.3603" lon="2.74292">
        <ele>180</ele>
        <time>2022-08-31T12:48:29.303Z</time>
      </trkpt>
      <trkpt lat="48.36029" lon="2.74277">
        <ele>181</ele>
        <time>2022-08-31T12:48:33.322Z</time>
      </trkpt>
      <trkpt lat="48.36025" lon="2.74262">
        <ele>181</ele>
        <time>2022-08-31T12:48:38.310Z</time>
      </trkpt>
      <trkpt lat="48.36021" lon="2.74246">
        <ele>182</ele>
        <time>2022-08-31T12:48:43.300Z</time>
      </trkpt>
      <trkpt lat="48.36017" lon="2.74232">
        <ele>182</ele>
        <time>2022-08-31T12:48:47.315Z</time>
      </trkpt>
      <trkpt lat="48.3601" lon="2.74219">
        <ele>182</ele>
        <time>2022-08-31T12:48:51.316Z</time>
      </trkpt>
      <trkpt lat="48.36002" lon="2.74211">
        <ele>182</ele>
        <time>2022-08-31T12:48:55.315Z</time>
      </trkpt>
      <trkpt lat="48.35994" lon="2.74203">
        <ele>182</ele>
        <time>2022-08-31T12:49:00.300Z</time>
      </trkpt>
      <trkpt lat="48.35992" lon="2.74191">
        <ele>181</ele>
        <time>2022-08-31T12:49:09.304Z</time>
      </trkpt>
      <trkpt lat="48.35988" lon="2.74198">
        <ele>178</ele>
        <time>2022-08-31T12:49:40.311Z</time>
      </trkpt>
      <trkpt lat="48.3598" lon="2.74208">
        <ele>177</ele>
        <time>2022-08-31T12:49:44.310Z</time>
      </trkpt>
      <trkpt lat="48.35974" lon="2.7422">
        <ele>177</ele>
        <time>2022-08-31T12:49:48.303Z</time>
      </trkpt>
      <trkpt lat="48.35968" lon="2.74233">
        <ele>176</ele>
        <time>2022-08-31T12:49:52.302Z</time>
      </trkpt>
      <trkpt lat="48.35959" lon="2.74229">
        <ele>175</ele>
        <time>2022-08-31T12:49:55.308Z</time>
      </trkpt>
      <trkpt lat="48.35957" lon="2.74212">
        <ele>175</ele>
        <time>2022-08-31T12:49:59.306Z</time>
      </trkpt>
      <trkpt lat="48.35961" lon="2.74193">
        <ele>174</ele>
        <time>2022-08-31T12:50:03.302Z</time>
      </trkpt>
      <trkpt lat="48.35966" lon="2.74176">
        <ele>173</ele>
        <time>2022-08-31T12:50:07.302Z</time>
      </trkpt>
      <trkpt lat="48.35971" lon="2.74164">
        <ele>170</ele>
        <time>2022-08-31T12:50:15.302Z</time>
      </trkpt>
      <trkpt lat="48.35979" lon="2.74157">
        <ele>169</ele>
        <time>2022-08-31T12:50:20.301Z</time>
      </trkpt>
      <trkpt lat="48.35988" lon="2.74147">
        <ele>168</ele>
        <time>2022-08-31T12:50:24.304Z</time>
      </trkpt>
      <trkpt lat="48.35998" lon="2.7414">
        <ele>167</ele>
        <time>2022-08-31T12:50:28.298Z</time>
      </trkpt>
      <trkpt lat="48.36008" lon="2.74135">
        <ele>166</ele>
        <time>2022-08-31T12:50:33.300Z</time>
      </trkpt>
      <trkpt lat="48.36018" lon="2.74133">
        <ele>165</ele>
        <time>2022-08-31T12:50:38.298Z</time>
      </trkpt>
      <trkpt lat="48.36028" lon="2.74136">
        <ele>165</ele>
        <time>2022-08-31T12:50:42.305Z</time>
      </trkpt>
      <trkpt lat="48.36036" lon="2.74143">
        <ele>165</ele>
        <time>2022-08-31T12:50:45.301Z</time>
      </trkpt>
      <trkpt lat="48.36045" lon="2.74152">
        <ele>164</ele>
        <time>2022-08-31T12:50:49.296Z</time>
      </trkpt>
      <trkpt lat="48.36052" lon="2.7416">
        <ele>164</ele>
        <time>2022-08-31T12:50:53.303Z</time>
      </trkpt>
      <trkpt lat="48.36062" lon="2.74165">
        <ele>164</ele>
        <time>2022-08-31T12:51:02.291Z</time>
      </trkpt>
      <trkpt lat="48.36069" lon="2.74156">
        <ele>163</ele>
        <time>2022-08-31T12:51:07.310Z</time>
      </trkpt>
      <trkpt lat="48.36075" lon="2.74143">
        <ele>162</ele>
        <time>2022-08-31T12:51:13.318Z</time>
      </trkpt>
      <trkpt lat="48.36074" lon="2.74127">
        <ele>161</ele>
        <time>2022-08-31T12:51:18.299Z</time>
      </trkpt>
      <trkpt lat="48.36073" lon="2.74113">
        <ele>160</ele>
        <time>2022-08-31T12:51:24.299Z</time>
      </trkpt>
      <trkpt lat="48.36071" lon="2.74099">
        <ele>159</ele>
        <time>2022-08-31T12:51:29.301Z</time>
      </trkpt>
      <trkpt lat="48.36069" lon="2.74086">
        <ele>158</ele>
        <time>2022-08-31T12:51:33.296Z</time>
      </trkpt>
      <trkpt lat="48.36066" lon="2.74073">
        <ele>157</ele>
        <time>2022-08-31T12:51:37.305Z</time>
      </trkpt>
      <trkpt lat="48.36059" lon="2.7406">
        <ele>157</ele>
        <time>2022-08-31T12:51:42.292Z</time>
      </trkpt>
      <trkpt lat="48.36053" lon="2.7405">
        <ele>156</ele>
        <time>2022-08-31T12:51:47.294Z</time>
      </trkpt>
      <trkpt lat="48.36045" lon="2.74041">
        <ele>155</ele>
        <time>2022-08-31T12:51:51.300Z</time>
      </trkpt>
      <trkpt lat="48.36037" lon="2.74033">
        <ele>155</ele>
        <time>2022-08-31T12:51:56.313Z</time>
      </trkpt>
      <trkpt lat="48.36028" lon="2.74025">
        <ele>154</ele>
        <time>2022-08-31T12:52:03.298Z</time>
      </trkpt>
      <trkpt lat="48.36019" lon="2.74019">
        <ele>154</ele>
        <time>2022-08-31T12:52:08.299Z</time>
      </trkpt>
      <trkpt lat="48.36009" lon="2.74014">
        <ele>153</ele>
        <time>2022-08-31T12:52:13.299Z</time>
      </trkpt>
      <trkpt lat="48.35999" lon="2.74008">
        <ele>153</ele>
        <time>2022-08-31T12:52:17.294Z</time>
      </trkpt>
      <trkpt lat="48.35991" lon="2.74">
        <ele>152</ele>
        <time>2022-08-31T12:52:21.299Z</time>
      </trkpt>
      <trkpt lat="48.35982" lon="2.73991">
        <ele>151</ele>
        <time>2022-08-31T12:52:27.304Z</time>
      </trkpt>
      <trkpt lat="48.35974" lon="2.73984">
        <ele>148</ele>
        <time>2022-08-31T12:52:37.290Z</time>
      </trkpt>
      <trkpt lat="48.35964" lon="2.7398">
        <ele>147</ele>
        <time>2022-08-31T12:52:43.290Z</time>
      </trkpt>
      <trkpt lat="48.35954" lon="2.73977">
        <ele>146</ele>
        <time>2022-08-31T12:52:48.295Z</time>
      </trkpt>
      <trkpt lat="48.35944" lon="2.73973">
        <ele>145</ele>
        <time>2022-08-31T12:52:52.304Z</time>
      </trkpt>
      <trkpt lat="48.35935" lon="2.73971">
        <ele>144</ele>
        <time>2022-08-31T12:52:56.298Z</time>
      </trkpt>
      <trkpt lat="48.35925" lon="2.73968">
        <ele>143</ele>
        <time>2022-08-31T12:53:00.302Z</time>
      </trkpt>
      <trkpt lat="48.35915" lon="2.73965">
        <ele>143</ele>
        <time>2022-08-31T12:53:04.300Z</time>
      </trkpt>
      <trkpt lat="48.35906" lon="2.73962">
        <ele>143</ele>
        <time>2022-08-31T12:53:07.295Z</time>
      </trkpt>
      <trkpt lat="48.35897" lon="2.73959">
        <ele>142</ele>
        <time>2022-08-31T12:53:10.299Z</time>
      </trkpt>
      <trkpt lat="48.35886" lon="2.73955">
        <ele>142</ele>
        <time>2022-08-31T12:53:14.308Z</time>
      </trkpt>
      <trkpt lat="48.35875" lon="2.7395">
        <ele>141</ele>
        <time>2022-08-31T12:53:18.311Z</time>
      </trkpt>
      <trkpt lat="48.35866" lon="2.73945">
        <ele>141</ele>
        <time>2022-08-31T12:53:22.306Z</time>
      </trkpt>
      <trkpt lat="48.35857" lon="2.73942">
        <ele>140</ele>
        <time>2022-08-31T12:53:27.301Z</time>
      </trkpt>
      <trkpt lat="48.35847" lon="2.7394">
        <ele>139</ele>
        <time>2022-08-31T12:53:31.315Z</time>
      </trkpt>
      <trkpt lat="48.35836" lon="2.73938">
        <ele>138</ele>
        <time>2022-08-31T12:53:35.311Z</time>
      </trkpt>
      <trkpt lat="48.35827" lon="2.73936">
        <ele>138</ele>
        <time>2022-08-31T12:53:38.305Z</time>
      </trkpt>
      <trkpt lat="48.35816" lon="2.73933">
        <ele>137</ele>
        <time>2022-08-31T12:53:42.302Z</time>
      </trkpt>
      <trkpt lat="48.35806" lon="2.73928">
        <ele>136</ele>
        <time>2022-08-31T12:53:46.314Z</time>
      </trkpt>
      <trkpt lat="48.35797" lon="2.73924">
        <ele>135</ele>
        <time>2022-08-31T12:53:56.292Z</time>
      </trkpt>
      <trkpt lat="48.35787" lon="2.73925">
        <ele>134</ele>
        <time>2022-08-31T12:54:04.318Z</time>
      </trkpt>
      <trkpt lat="48.35778" lon="2.73922">
        <ele>135</ele>
        <time>2022-08-31T12:54:11.303Z</time>
      </trkpt>
      <trkpt lat="48.35767" lon="2.73922">
        <ele>135</ele>
        <time>2022-08-31T12:54:19.322Z</time>
      </trkpt>
      <trkpt lat="48.35757" lon="2.73924">
        <ele>136</ele>
        <time>2022-08-31T12:54:26.312Z</time>
      </trkpt>
      <trkpt lat="48.35747" lon="2.73923">
        <ele>137</ele>
        <time>2022-08-31T12:54:33.297Z</time>
      </trkpt>
      <trkpt lat="48.35738" lon="2.73918">
        <ele>137</ele>
        <time>2022-08-31T12:54:42.298Z</time>
      </trkpt>
      <trkpt lat="48.3573" lon="2.73913">
        <ele>138</ele>
        <time>2022-08-31T12:54:50.310Z</time>
      </trkpt>
      <trkpt lat="48.35721" lon="2.73908">
        <ele>141</ele>
        <time>2022-08-31T12:55:05.304Z</time>
      </trkpt>
      <trkpt lat="48.35716" lon="2.73913">
        <ele>144</ele>
        <time>2022-08-31T12:55:26.310Z</time>
      </trkpt>
      <trkpt lat="48.35711" lon="2.73914">
        <ele>146</ele>
        <time>2022-08-31T12:55:54.303Z</time>
      </trkpt>
      <trkpt lat="48.35704" lon="2.73912">
        <ele>147</ele>
        <time>2022-08-31T12:56:02.294Z</time>
      </trkpt>
      <trkpt lat="48.35698" lon="2.7391">
        <ele>157</ele>
        <time>2022-08-31T12:57:23.299Z</time>
      </trkpt>
      <trkpt lat="48.35689" lon="2.73916">
        <ele>157</ele>
        <time>2022-08-31T12:57:30.298Z</time>
      </trkpt>
      <trkpt lat="48.35683" lon="2.73914">
        <ele>155</ele>
        <time>2022-08-31T12:57:46.302Z</time>
      </trkpt>
      <trkpt lat="48.35679" lon="2.73919">
        <ele>157</ele>
        <time>2022-08-31T12:58:20.308Z</time>
      </trkpt>
      <trkpt lat="48.35671" lon="2.73914">
        <ele>158</ele>
        <time>2022-08-31T12:58:46.310Z</time>
      </trkpt>
      <trkpt lat="48.35669" lon="2.73908">
        <ele>157</ele>
        <time>2022-08-31T12:59:12.307Z</time>
      </trkpt>
      <trkpt lat="48.35669" lon="2.739">
        <ele>158</ele>
        <time>2022-08-31T12:59:30.320Z</time>
      </trkpt>
      <trkpt lat="48.35665" lon="2.73897">
        <ele>160</ele>
        <time>2022-08-31T12:59:49.299Z</time>
      </trkpt>
      <trkpt lat="48.35658" lon="2.73888">
        <ele>162</ele>
        <time>2022-08-31T13:00:03.305Z</time>
      </trkpt>
      <trkpt lat="48.35659" lon="2.73874">
        <ele>162</ele>
        <time>2022-08-31T13:00:13.297Z</time>
      </trkpt>
      <trkpt lat="48.35654" lon="2.73864">
        <ele>165</ele>
        <time>2022-08-31T13:00:32.294Z</time>
      </trkpt>
      <trkpt lat="48.3565" lon="2.73863">
        <ele>167</ele>
        <time>2022-08-31T13:00:43.301Z</time>
      </trkpt>
      <trkpt lat="48.35646" lon="2.73864">
        <ele>169</ele>
        <time>2022-08-31T13:00:52.303Z</time>
      </trkpt>
      <trkpt lat="48.35637" lon="2.73865">
        <ele>170</ele>
        <time>2022-08-31T13:00:59.306Z</time>
      </trkpt>
      <trkpt lat="48.35628" lon="2.73869">
        <ele>172</ele>
        <time>2022-08-31T13:01:06.304Z</time>
      </trkpt>
      <trkpt lat="48.3562" lon="2.73875">
        <ele>172</ele>
        <time>2022-08-31T13:01:10.303Z</time>
      </trkpt>
      <trkpt lat="48.35611" lon="2.73881">
        <ele>172</ele>
        <time>2022-08-31T13:01:17.303Z</time>
      </trkpt>
      <trkpt lat="48.35603" lon="2.73888">
        <ele>172</ele>
        <time>2022-08-31T13:01:22.296Z</time>
      </trkpt>
      <trkpt lat="48.35599" lon="2.73874">
        <ele>172</ele>
        <time>2022-08-31T13:01:28.304Z</time>
      </trkpt>
      <trkpt lat="48.35599" lon="2.73859">
        <ele>172</ele>
        <time>2022-08-31T13:01:33.305Z</time>
      </trkpt>
      <trkpt lat="48.35601" lon="2.73845">
        <ele>172</ele>
        <time>2022-08-31T13:01:37.301Z</time>
      </trkpt>
      <trkpt lat="48.35605" lon="2.73832">
        <ele>172</ele>
        <time>2022-08-31T13:01:41.309Z</time>
      </trkpt>
      <trkpt lat="48.3561" lon="2.7382">
        <ele>172</ele>
        <time>2022-08-31T13:01:45.292Z</time>
      </trkpt>
      <trkpt lat="48.35613" lon="2.73808">
        <ele>172</ele>
        <time>2022-08-31T13:01:53.305Z</time>
      </trkpt>
      <trkpt lat="48.35615" lon="2.73803">
        <ele>174</ele>
        <time>2022-08-31T13:02:07.309Z</time>
      </trkpt>
      <trkpt lat="48.35619" lon="2.73791">
        <ele>174</ele>
        <time>2022-08-31T13:02:11.299Z</time>
      </trkpt>
      <trkpt lat="48.35626" lon="2.73778">
        <ele>175</ele>
        <time>2022-08-31T13:02:15.304Z</time>
      </trkpt>
      <trkpt lat="48.35633" lon="2.73765">
        <ele>176</ele>
        <time>2022-08-31T13:02:19.303Z</time>
      </trkpt>
      <trkpt lat="48.35641" lon="2.73753">
        <ele>176</ele>
        <time>2022-08-31T13:02:22.313Z</time>
      </trkpt>
      <trkpt lat="48.35651" lon="2.73738">
        <ele>177</ele>
        <time>2022-08-31T13:02:26.298Z</time>
      </trkpt>
      <trkpt lat="48.35661" lon="2.73726">
        <ele>177</ele>
        <time>2022-08-31T13:02:30.296Z</time>
      </trkpt>
      <trkpt lat="48.35673" lon="2.73714">
        <ele>177</ele>
        <time>2022-08-31T13:02:34.303Z</time>
      </trkpt>
      <trkpt lat="48.35683" lon="2.73696">
        <ele>177</ele>
        <time>2022-08-31T13:02:38.311Z</time>
      </trkpt>
      <trkpt lat="48.35692" lon="2.73678">
        <ele>177</ele>
        <time>2022-08-31T13:02:42.315Z</time>
      </trkpt>
      <trkpt lat="48.35701" lon="2.7366">
        <ele>177</ele>
        <time>2022-08-31T13:02:46.297Z</time>
      </trkpt>
      <trkpt lat="48.35709" lon="2.73638">
        <ele>176</ele>
        <time>2022-08-31T13:02:51.309Z</time>
      </trkpt>
      <trkpt lat="48.35714" lon="2.73613">
        <ele>176</ele>
        <time>2022-08-31T13:02:55.291Z</time>
      </trkpt>
      <trkpt lat="48.3572" lon="2.73594">
        <ele>176</ele>
        <time>2022-08-31T13:03:00.309Z</time>
      </trkpt>
      <trkpt lat="48.35723" lon="2.73574">
        <ele>175</ele>
        <time>2022-08-31T13:03:04.299Z</time>
      </trkpt>
      <trkpt lat="48.35726" lon="2.73552">
        <ele>175</ele>
        <time>2022-08-31T13:03:08.305Z</time>
      </trkpt>
      <trkpt lat="48.35727" lon="2.73531">
        <ele>175</ele>
        <time>2022-08-31T13:03:12.312Z</time>
      </trkpt>
      <trkpt lat="48.35726" lon="2.73506">
        <ele>175</ele>
        <time>2022-08-31T13:03:17.301Z</time>
      </trkpt>
      <trkpt lat="48.35723" lon="2.73485">
        <ele>174</ele>
        <time>2022-08-31T13:03:21.291Z</time>
      </trkpt>
      <trkpt lat="48.35722" lon="2.73464">
        <ele>174</ele>
        <time>2022-08-31T13:03:25.295Z</time>
      </trkpt>
      <trkpt lat="48.35724" lon="2.73441">
        <ele>174</ele>
        <time>2022-08-31T13:03:29.295Z</time>
      </trkpt>
      <trkpt lat="48.35724" lon="2.7342">
        <ele>174</ele>
        <time>2022-08-31T13:03:33.300Z</time>
      </trkpt>
      <trkpt lat="48.35719" lon="2.73399">
        <ele>175</ele>
        <time>2022-08-31T13:03:37.297Z</time>
      </trkpt>
      <trkpt lat="48.35713" lon="2.73374">
        <ele>175</ele>
        <time>2022-08-31T13:03:42.293Z</time>
      </trkpt>
      <trkpt lat="48.35708" lon="2.73353">
        <ele>175</ele>
        <time>2022-08-31T13:03:46.304Z</time>
      </trkpt>
      <trkpt lat="48.35702" lon="2.73331">
        <ele>176</ele>
        <time>2022-08-31T13:03:50.296Z</time>
      </trkpt>
      <trkpt lat="48.35696" lon="2.7331">
        <ele>176</ele>
        <time>2022-08-31T13:03:53.302Z</time>
      </trkpt>
      <trkpt lat="48.35691" lon="2.73286">
        <ele>176</ele>
        <time>2022-08-31T13:03:57.301Z</time>
      </trkpt>
      <trkpt lat="48.35686" lon="2.73255">
        <ele>176</ele>
        <time>2022-08-31T13:04:02.296Z</time>
      </trkpt>
      <trkpt lat="48.35684" lon="2.73225">
        <ele>177</ele>
        <time>2022-08-31T13:04:07.299Z</time>
      </trkpt>
      <trkpt lat="48.35682" lon="2.73196">
        <ele>177</ele>
        <time>2022-08-31T13:04:12.295Z</time>
      </trkpt>
      <trkpt lat="48.35681" lon="2.73171">
        <ele>177</ele>
        <time>2022-08-31T13:04:16.305Z</time>
      </trkpt>
      <trkpt lat="48.35682" lon="2.73143">
        <ele>177</ele>
        <time>2022-08-31T13:04:21.298Z</time>
      </trkpt>
      <trkpt lat="48.35683" lon="2.73127">
        <ele>176</ele>
        <time>2022-08-31T13:04:27.311Z</time>
      </trkpt>
      <trkpt lat="48.35685" lon="2.73132">
        <ele>176</ele>
        <time>2022-08-31T13:04:34.297Z</time>
      </trkpt>
      <trkpt lat="48.35695" lon="2.73132">
        <ele>176</ele>
        <time>2022-08-31T13:04:43.298Z</time>
      </trkpt>
      <trkpt lat="48.35704" lon="2.73133">
        <ele>176</ele>
        <time>2022-08-31T13:04:53.307Z</time>
      </trkpt>
      <trkpt lat="48.35706" lon="2.73134">
        <ele>176</ele>
        <time>2022-08-31T13:05:05.299Z</time>
      </trkpt>
      <trkpt lat="48.35703" lon="2.73136">
        <ele>179</ele>
        <time>2022-08-31T13:06:25.296Z</time>
      </trkpt>
      <trkpt lat="48.35702" lon="2.73139">
        <ele>178</ele>
        <time>2022-08-31T13:06:31.290Z</time>
      </trkpt>
      <trkpt lat="48.35694" lon="2.7312">
        <ele>176</ele>
        <time>2022-08-31T13:20:02.296Z</time>
      </trkpt>
      <trkpt lat="48.35689" lon="2.73108">
        <ele>177</ele>
        <time>2022-08-31T13:20:15.290Z</time>
      </trkpt>
      <trkpt lat="48.35689" lon="2.73108">
        <ele>177</ele>
        <time>2022-08-31T13:20:17.307Z</time>
      </trkpt>
      <trkpt lat="48.35686" lon="2.73103">
        <ele>178</ele>
        <time>2022-08-31T13:20:23.291Z</time>
      </trkpt>
      <trkpt lat="48.35684" lon="2.7309">
        <ele>178</ele>
        <time>2022-08-31T13:20:31.296Z</time>
      </trkpt>
      <trkpt lat="48.35683" lon="2.73081">
        <ele>179</ele>
        <time>2022-08-31T13:20:40.300Z</time>
      </trkpt>
      <trkpt lat="48.35688" lon="2.73079">
        <ele>179</ele>
        <time>2022-08-31T13:20:50.295Z</time>
      </trkpt>
      <trkpt lat="48.35697" lon="2.7308">
        <ele>179</ele>
        <time>2022-08-31T13:20:54.300Z</time>
      </trkpt>
      <trkpt lat="48.35704" lon="2.73072">
        <ele>179</ele>
        <time>2022-08-31T13:21:01.298Z</time>
      </trkpt>
      <trkpt lat="48.35709" lon="2.73063">
        <ele>179</ele>
        <time>2022-08-31T13:21:11.295Z</time>
      </trkpt>
      <trkpt lat="48.35707" lon="2.73057">
        <ele>179</ele>
        <time>2022-08-31T13:21:17.299Z</time>
      </trkpt>
      <trkpt lat="48.35708" lon="2.73042">
        <ele>178</ele>
        <time>2022-08-31T13:21:22.301Z</time>
      </trkpt>
      <trkpt lat="48.35704" lon="2.73028">
        <ele>178</ele>
        <time>2022-08-31T13:21:26.290Z</time>
      </trkpt>
      <trkpt lat="48.35698" lon="2.73018">
        <ele>177</ele>
        <time>2022-08-31T13:21:37.300Z</time>
      </trkpt>
      <trkpt lat="48.3569" lon="2.73008">
        <ele>177</ele>
        <time>2022-08-31T13:21:43.294Z</time>
      </trkpt>
      <trkpt lat="48.35686" lon="2.72996">
        <ele>177</ele>
        <time>2022-08-31T13:21:49.299Z</time>
      </trkpt>
      <trkpt lat="48.35681" lon="2.72983">
        <ele>176</ele>
        <time>2022-08-31T13:21:54.290Z</time>
      </trkpt>
      <trkpt lat="48.35677" lon="2.7297">
        <ele>176</ele>
        <time>2022-08-31T13:21:59.300Z</time>
      </trkpt>
      <trkpt lat="48.35675" lon="2.72956">
        <ele>176</ele>
        <time>2022-08-31T13:22:04.299Z</time>
      </trkpt>
      <trkpt lat="48.35672" lon="2.72943">
        <ele>176</ele>
        <time>2022-08-31T13:22:17.297Z</time>
      </trkpt>
      <trkpt lat="48.35668" lon="2.7293">
        <ele>176</ele>
        <time>2022-08-31T13:22:29.296Z</time>
      </trkpt>
      <trkpt lat="48.35663" lon="2.72917">
        <ele>177</ele>
        <time>2022-08-31T13:22:42.297Z</time>
      </trkpt>
      <trkpt lat="48.3566" lon="2.72902">
        <ele>178</ele>
        <time>2022-08-31T13:22:48.311Z</time>
      </trkpt>
      <trkpt lat="48.35658" lon="2.72888">
        <ele>178</ele>
        <time>2022-08-31T13:22:52.297Z</time>
      </trkpt>
      <trkpt lat="48.35656" lon="2.72871">
        <ele>178</ele>
        <time>2022-08-31T13:22:56.290Z</time>
      </trkpt>
      <trkpt lat="48.35649" lon="2.7286">
        <ele>179</ele>
        <time>2022-08-31T13:23:01.295Z</time>
      </trkpt>
      <trkpt lat="48.35645" lon="2.72855">
        <ele>179</ele>
        <time>2022-08-31T13:23:07.300Z</time>
      </trkpt>
      <trkpt lat="48.35641" lon="2.7285">
        <ele>180</ele>
        <time>2022-08-31T13:23:12.300Z</time>
      </trkpt>
      <trkpt lat="48.35634" lon="2.72842">
        <ele>180</ele>
        <time>2022-08-31T13:23:23.297Z</time>
      </trkpt>
      <trkpt lat="48.35628" lon="2.72831">
        <ele>181</ele>
        <time>2022-08-31T13:23:36.297Z</time>
      </trkpt>
      <trkpt lat="48.35629" lon="2.72816">
        <ele>180</ele>
        <time>2022-08-31T13:23:44.300Z</time>
      </trkpt>
      <trkpt lat="48.35628" lon="2.72802">
        <ele>180</ele>
        <time>2022-08-31T13:23:48.302Z</time>
      </trkpt>
      <trkpt lat="48.35627" lon="2.72788">
        <ele>179</ele>
        <time>2022-08-31T13:23:55.299Z</time>
      </trkpt>
      <trkpt lat="48.3563" lon="2.72774">
        <ele>178</ele>
        <time>2022-08-31T13:24:04.292Z</time>
      </trkpt>
      <trkpt lat="48.35631" lon="2.72767">
        <ele>178</ele>
        <time>2022-08-31T13:24:12.295Z</time>
      </trkpt>
      <trkpt lat="48.35633" lon="2.72761">
        <ele>177</ele>
        <time>2022-08-31T13:24:20.301Z</time>
      </trkpt>
      <trkpt lat="48.35642" lon="2.72755">
        <ele>177</ele>
        <time>2022-08-31T13:24:28.296Z</time>
      </trkpt>
      <trkpt lat="48.35651" lon="2.72753">
        <ele>177</ele>
        <time>2022-08-31T13:24:36.295Z</time>
      </trkpt>
      <trkpt lat="48.35653" lon="2.72753">
        <ele>177</ele>
        <time>2022-08-31T13:24:38.288Z</time>
      </trkpt>
      <trkpt lat="48.35654" lon="2.72759">
        <ele>177</ele>
        <time>2022-08-31T13:24:45.286Z</time>
      </trkpt>
      <trkpt lat="48.35656" lon="2.72772">
        <ele>177</ele>
        <time>2022-08-31T13:24:54.289Z</time>
      </trkpt>
      <trkpt lat="48.35664" lon="2.72776">
        <ele>177</ele>
        <time>2022-08-31T13:25:04.292Z</time>
      </trkpt>
      <trkpt lat="48.35674" lon="2.72773">
        <ele>177</ele>
        <time>2022-08-31T13:25:15.290Z</time>
      </trkpt>
      <trkpt lat="48.35678" lon="2.7276">
        <ele>176</ele>
        <time>2022-08-31T13:25:23.298Z</time>
      </trkpt>
      <trkpt lat="48.35674" lon="2.72754">
        <ele>174</ele>
        <time>2022-08-31T13:25:37.285Z</time>
      </trkpt>
      <trkpt lat="48.35671" lon="2.72748">
        <ele>172</ele>
        <time>2022-08-31T13:25:55.292Z</time>
      </trkpt>
      <trkpt lat="48.35665" lon="2.72735">
        <ele>172</ele>
        <time>2022-08-31T13:25:59.294Z</time>
      </trkpt>
      <trkpt lat="48.35659" lon="2.72723">
        <ele>172</ele>
        <time>2022-08-31T13:26:04.299Z</time>
      </trkpt>
      <trkpt lat="48.3565" lon="2.72725">
        <ele>172</ele>
        <time>2022-08-31T13:26:14.294Z</time>
      </trkpt>
      <trkpt lat="48.35641" lon="2.7272">
        <ele>171</ele>
        <time>2022-08-31T13:26:26.297Z</time>
      </trkpt>
      <trkpt lat="48.35632" lon="2.72714">
        <ele>170</ele>
        <time>2022-08-31T13:26:33.301Z</time>
      </trkpt>
      <trkpt lat="48.35624" lon="2.72707">
        <ele>169</ele>
        <time>2022-08-31T13:26:39.289Z</time>
      </trkpt>
      <trkpt lat="48.35621" lon="2.72694">
        <ele>168</ele>
        <time>2022-08-31T13:26:48.293Z</time>
      </trkpt>
      <trkpt lat="48.3562" lon="2.72679">
        <ele>166</ele>
        <time>2022-08-31T13:26:57.295Z</time>
      </trkpt>
      <trkpt lat="48.35615" lon="2.72668">
        <ele>163</ele>
        <time>2022-08-31T13:27:07.300Z</time>
      </trkpt>
      <trkpt lat="48.35609" lon="2.72654">
        <ele>161</ele>
        <time>2022-08-31T13:27:14.282Z</time>
      </trkpt>
      <trkpt lat="48.35605" lon="2.72641">
        <ele>159</ele>
        <time>2022-08-31T13:27:20.301Z</time>
      </trkpt>
      <trkpt lat="48.35606" lon="2.72625">
        <ele>157</ele>
        <time>2022-08-31T13:27:27.299Z</time>
      </trkpt>
      <trkpt lat="48.35615" lon="2.72616">
        <ele>156</ele>
        <time>2022-08-31T13:27:33.295Z</time>
      </trkpt>
      <trkpt lat="48.35624" lon="2.7261">
        <ele>153</ele>
        <time>2022-08-31T13:27:44.299Z</time>
      </trkpt>
      <trkpt lat="48.35633" lon="2.72614">
        <ele>152</ele>
        <time>2022-08-31T13:27:50.296Z</time>
      </trkpt>
      <trkpt lat="48.35644" lon="2.72614">
        <ele>150</ele>
        <time>2022-08-31T13:27:58.299Z</time>
      </trkpt>
      <trkpt lat="48.35653" lon="2.72609">
        <ele>150</ele>
        <time>2022-08-31T13:28:03.289Z</time>
      </trkpt>
      <trkpt lat="48.35662" lon="2.72601">
        <ele>149</ele>
        <time>2022-08-31T13:28:07.306Z</time>
      </trkpt>
      <trkpt lat="48.35671" lon="2.72597">
        <ele>148</ele>
        <time>2022-08-31T13:28:12.301Z</time>
      </trkpt>
      <trkpt lat="48.35681" lon="2.72595">
        <ele>147</ele>
        <time>2022-08-31T13:28:25.306Z</time>
      </trkpt>
      <trkpt lat="48.35682" lon="2.72592">
        <ele>146</ele>
        <time>2022-08-31T13:28:31.304Z</time>
      </trkpt>
      <trkpt lat="48.35687" lon="2.72591">
        <ele>147</ele>
        <time>2022-08-31T13:30:06.303Z</time>
      </trkpt>
      <trkpt lat="48.35697" lon="2.72594">
        <ele>147</ele>
        <time>2022-08-31T13:30:11.296Z</time>
      </trkpt>
      <trkpt lat="48.35706" lon="2.72599">
        <ele>147</ele>
        <time>2022-08-31T13:30:15.304Z</time>
      </trkpt>
      <trkpt lat="48.35715" lon="2.72603">
        <ele>147</ele>
        <time>2022-08-31T13:30:19.285Z</time>
      </trkpt>
      <trkpt lat="48.35726" lon="2.72608">
        <ele>147</ele>
        <time>2022-08-31T13:30:23.298Z</time>
      </trkpt>
      <trkpt lat="48.35735" lon="2.72611">
        <ele>146</ele>
        <time>2022-08-31T13:30:27.299Z</time>
      </trkpt>
      <trkpt lat="48.35746" lon="2.72614">
        <ele>145</ele>
        <time>2022-08-31T13:30:32.294Z</time>
      </trkpt>
      <trkpt lat="48.35757" lon="2.72618">
        <ele>145</ele>
        <time>2022-08-31T13:30:36.286Z</time>
      </trkpt>
      <trkpt lat="48.35767" lon="2.72621">
        <ele>144</ele>
        <time>2022-08-31T13:30:39.300Z</time>
      </trkpt>
      <trkpt lat="48.35776" lon="2.72624">
        <ele>143</ele>
        <time>2022-08-31T13:30:42.295Z</time>
      </trkpt>
      <trkpt lat="48.35788" lon="2.72627">
        <ele>142</ele>
        <time>2022-08-31T13:30:46.309Z</time>
      </trkpt>
      <trkpt lat="48.35802" lon="2.7263">
        <ele>141</ele>
        <time>2022-08-31T13:30:50.300Z</time>
      </trkpt>
      <trkpt lat="48.35815" lon="2.72628">
        <ele>139</ele>
        <time>2022-08-31T13:30:55.288Z</time>
      </trkpt>
      <trkpt lat="48.35824" lon="2.7262">
        <ele>138</ele>
        <time>2022-08-31T13:31:00.295Z</time>
      </trkpt>
      <trkpt lat="48.35829" lon="2.72608">
        <ele>137</ele>
        <time>2022-08-31T13:31:03.289Z</time>
      </trkpt>
      <trkpt lat="48.35832" lon="2.72594">
        <ele>136</ele>
        <time>2022-08-31T13:31:06.299Z</time>
      </trkpt>
      <trkpt lat="48.35836" lon="2.72581">
        <ele>135</ele>
        <time>2022-08-31T13:31:09.296Z</time>
      </trkpt>
      <trkpt lat="48.35842" lon="2.72562">
        <ele>134</ele>
        <time>2022-08-31T13:31:13.301Z</time>
      </trkpt>
      <trkpt lat="48.35847" lon="2.72545">
        <ele>134</ele>
        <time>2022-08-31T13:31:16.304Z</time>
      </trkpt>
      <trkpt lat="48.35852" lon="2.72522">
        <ele>134</ele>
        <time>2022-08-31T13:31:19.302Z</time>
      </trkpt>
      <trkpt lat="48.35857" lon="2.72495">
        <ele>133</ele>
        <time>2022-08-31T13:31:23.300Z</time>
      </trkpt>
      <trkpt lat="48.35866" lon="2.7247">
        <ele>133</ele>
        <time>2022-08-31T13:31:30.300Z</time>
      </trkpt>
      <trkpt lat="48.35871" lon="2.72453">
        <ele>132</ele>
        <time>2022-08-31T13:31:34.293Z</time>
      </trkpt>
      <trkpt lat="48.35877" lon="2.72438">
        <ele>132</ele>
        <time>2022-08-31T13:31:38.302Z</time>
      </trkpt>
      <trkpt lat="48.35883" lon="2.72425">
        <ele>132</ele>
        <time>2022-08-31T13:31:42.292Z</time>
      </trkpt>
      <trkpt lat="48.35888" lon="2.72413">
        <ele>132</ele>
        <time>2022-08-31T13:31:46.300Z</time>
      </trkpt>
      <trkpt lat="48.35891" lon="2.724">
        <ele>132</ele>
        <time>2022-08-31T13:31:49.286Z</time>
      </trkpt>
      <trkpt lat="48.35894" lon="2.72387">
        <ele>132</ele>
        <time>2022-08-31T13:31:52.297Z</time>
      </trkpt>
      <trkpt lat="48.35895" lon="2.72371">
        <ele>132</ele>
        <time>2022-08-31T13:31:55.301Z</time>
      </trkpt>
      <trkpt lat="48.35898" lon="2.72354">
        <ele>132</ele>
        <time>2022-08-31T13:31:59.292Z</time>
      </trkpt>
      <trkpt lat="48.35906" lon="2.72337">
        <ele>131</ele>
        <time>2022-08-31T13:32:04.299Z</time>
      </trkpt>
      <trkpt lat="48.35912" lon="2.72325">
        <ele>131</ele>
        <time>2022-08-31T13:32:08.282Z</time>
      </trkpt>
      <trkpt lat="48.35916" lon="2.72307">
        <ele>131</ele>
        <time>2022-08-31T13:32:12.287Z</time>
      </trkpt>
      <trkpt lat="48.35918" lon="2.7229">
        <ele>131</ele>
        <time>2022-08-31T13:32:15.290Z</time>
      </trkpt>
      <trkpt lat="48.35922" lon="2.72271">
        <ele>131</ele>
        <time>2022-08-31T13:32:19.296Z</time>
      </trkpt>
      <trkpt lat="48.35932" lon="2.72256">
        <ele>131</ele>
        <time>2022-08-31T13:32:24.284Z</time>
      </trkpt>
      <trkpt lat="48.35939" lon="2.72242">
        <ele>131</ele>
        <time>2022-08-31T13:32:28.284Z</time>
      </trkpt>
      <trkpt lat="48.35945" lon="2.72229">
        <ele>131</ele>
        <time>2022-08-31T13:32:33.296Z</time>
      </trkpt>
      <trkpt lat="48.35947" lon="2.72214">
        <ele>131</ele>
        <time>2022-08-31T13:32:38.295Z</time>
      </trkpt>
      <trkpt lat="48.35948" lon="2.72197">
        <ele>131</ele>
        <time>2022-08-31T13:32:42.289Z</time>
      </trkpt>
      <trkpt lat="48.35948" lon="2.7218">
        <ele>131</ele>
        <time>2022-08-31T13:32:46.297Z</time>
      </trkpt>
      <trkpt lat="48.3595" lon="2.72164">
        <ele>132</ele>
        <time>2022-08-31T13:32:52.301Z</time>
      </trkpt>
      <trkpt lat="48.35954" lon="2.72152">
        <ele>132</ele>
        <time>2022-08-31T13:32:57.290Z</time>
      </trkpt>
      <trkpt lat="48.35957" lon="2.72137">
        <ele>132</ele>
        <time>2022-08-31T13:33:02.296Z</time>
      </trkpt>
      <trkpt lat="48.35959" lon="2.72123">
        <ele>132</ele>
        <time>2022-08-31T13:33:06.303Z</time>
      </trkpt>
      <trkpt lat="48.35961" lon="2.72109">
        <ele>132</ele>
        <time>2022-08-31T13:33:10.299Z</time>
      </trkpt>
      <trkpt lat="48.35964" lon="2.72094">
        <ele>132</ele>
        <time>2022-08-31T13:33:14.292Z</time>
      </trkpt>
      <trkpt lat="48.35969" lon="2.72082">
        <ele>131</ele>
        <time>2022-08-31T13:33:20.293Z</time>
      </trkpt>
      <trkpt lat="48.35974" lon="2.72071">
        <ele>131</ele>
        <time>2022-08-31T13:33:25.296Z</time>
      </trkpt>
      <trkpt lat="48.3598" lon="2.72058">
        <ele>131</ele>
        <time>2022-08-31T13:33:30.318Z</time>
      </trkpt>
      <trkpt lat="48.35982" lon="2.72043">
        <ele>131</ele>
        <time>2022-08-31T13:33:35.283Z</time>
      </trkpt>
      <trkpt lat="48.3598" lon="2.72029">
        <ele>131</ele>
        <time>2022-08-31T13:33:42.282Z</time>
      </trkpt>
      <trkpt lat="48.3597" lon="2.72021">
        <ele>131</ele>
        <time>2022-08-31T13:33:46.293Z</time>
      </trkpt>
      <trkpt lat="48.3596" lon="2.72018">
        <ele>130</ele>
        <time>2022-08-31T13:33:49.323Z</time>
      </trkpt>
      <trkpt lat="48.35951" lon="2.72013">
        <ele>130</ele>
        <time>2022-08-31T13:33:52.291Z</time>
      </trkpt>
      <trkpt lat="48.35937" lon="2.72008">
        <ele>130</ele>
        <time>2022-08-31T13:33:56.295Z</time>
      </trkpt>
      <trkpt lat="48.35925" lon="2.72005">
        <ele>130</ele>
        <time>2022-08-31T13:34:00.281Z</time>
      </trkpt>
      <trkpt lat="48.35911" lon="2.72005">
        <ele>130</ele>
        <time>2022-08-31T13:34:04.294Z</time>
      </trkpt>
      <trkpt lat="48.35899" lon="2.72002">
        <ele>130</ele>
        <time>2022-08-31T13:34:08.301Z</time>
      </trkpt>
      <trkpt lat="48.35888" lon="2.71997">
        <ele>130</ele>
        <time>2022-08-31T13:34:12.286Z</time>
      </trkpt>
      <trkpt lat="48.35876" lon="2.71996">
        <ele>129</ele>
        <time>2022-08-31T13:34:16.294Z</time>
      </trkpt>
      <trkpt lat="48.35863" lon="2.71993">
        <ele>129</ele>
        <time>2022-08-31T13:34:20.293Z</time>
      </trkpt>
      <trkpt lat="48.35851" lon="2.71991">
        <ele>129</ele>
        <time>2022-08-31T13:34:24.310Z</time>
      </trkpt>
      <trkpt lat="48.35839" lon="2.71988">
        <ele>128</ele>
        <time>2022-08-31T13:34:28.287Z</time>
      </trkpt>
      <trkpt lat="48.35826" lon="2.71985">
        <ele>128</ele>
        <time>2022-08-31T13:34:32.296Z</time>
      </trkpt>
      <trkpt lat="48.35814" lon="2.71983">
        <ele>128</ele>
        <time>2022-08-31T13:34:36.296Z</time>
      </trkpt>
      <trkpt lat="48.358" lon="2.71983">
        <ele>128</ele>
        <time>2022-08-31T13:34:40.289Z</time>
      </trkpt>
      <trkpt lat="48.35787" lon="2.71983">
        <ele>129</ele>
        <time>2022-08-31T13:34:44.301Z</time>
      </trkpt>
      <trkpt lat="48.35773" lon="2.7198">
        <ele>129</ele>
        <time>2022-08-31T13:34:48.290Z</time>
      </trkpt>
      <trkpt lat="48.35759" lon="2.71971">
        <ele>130</ele>
        <time>2022-08-31T13:34:52.298Z</time>
      </trkpt>
      <trkpt lat="48.35746" lon="2.7196">
        <ele>131</ele>
        <time>2022-08-31T13:34:56.304Z</time>
      </trkpt>
      <trkpt lat="48.35736" lon="2.71944">
        <ele>132</ele>
        <time>2022-08-31T13:35:00.293Z</time>
      </trkpt>
      <trkpt lat="48.35724" lon="2.71926">
        <ele>133</ele>
        <time>2022-08-31T13:35:04.294Z</time>
      </trkpt>
      <trkpt lat="48.35715" lon="2.71906">
        <ele>134</ele>
        <time>2022-08-31T13:35:08.311Z</time>
      </trkpt>
      <trkpt lat="48.35703" lon="2.71888">
        <ele>135</ele>
        <time>2022-08-31T13:35:12.288Z</time>
      </trkpt>
      <trkpt lat="48.3569" lon="2.71871">
        <ele>137</ele>
        <time>2022-08-31T13:35:17.303Z</time>
      </trkpt>
      <trkpt lat="48.35686" lon="2.71862">
        <ele>140</ele>
        <time>2022-08-31T13:35:28.296Z</time>
      </trkpt>
      <trkpt lat="48.35687" lon="2.71856">
        <ele>142</ele>
        <time>2022-08-31T13:35:36.305Z</time>
      </trkpt>
      <trkpt lat="48.35692" lon="2.71846">
        <ele>143</ele>
        <time>2022-08-31T13:35:43.293Z</time>
      </trkpt>
      <trkpt lat="48.35701" lon="2.7184">
        <ele>144</ele>
        <time>2022-08-31T13:35:50.293Z</time>
      </trkpt>
      <trkpt lat="48.35709" lon="2.71834">
        <ele>145</ele>
        <time>2022-08-31T13:36:01.295Z</time>
      </trkpt>
      <trkpt lat="48.3571" lon="2.71835">
        <ele>145</ele>
        <time>2022-08-31T13:36:02.290Z</time>
      </trkpt>
      <trkpt lat="48.35714" lon="2.71834">
        <ele>145</ele>
        <time>2022-08-31T13:36:07.302Z</time>
      </trkpt>
      <trkpt lat="48.35722" lon="2.71827">
        <ele>146</ele>
        <time>2022-08-31T13:36:16.294Z</time>
      </trkpt>
      <trkpt lat="48.35732" lon="2.71831">
        <ele>146</ele>
        <time>2022-08-31T13:36:30.284Z</time>
      </trkpt>
      <trkpt lat="48.35739" lon="2.71841">
        <ele>146</ele>
        <time>2022-08-31T13:36:38.298Z</time>
      </trkpt>
      <trkpt lat="48.35748" lon="2.71847">
        <ele>146</ele>
        <time>2022-08-31T13:36:48.306Z</time>
      </trkpt>
      <trkpt lat="48.35757" lon="2.71844">
        <ele>147</ele>
        <time>2022-08-31T13:36:57.290Z</time>
      </trkpt>
      <trkpt lat="48.35757" lon="2.7184">
        <ele>148</ele>
        <time>2022-08-31T13:37:09.287Z</time>
      </trkpt>
      <trkpt lat="48.35759" lon="2.71833">
        <ele>149</ele>
        <time>2022-08-31T13:37:18.292Z</time>
      </trkpt>
      <trkpt lat="48.3576" lon="2.71816">
        <ele>149</ele>
        <time>2022-08-31T13:37:22.299Z</time>
      </trkpt>
      <trkpt lat="48.35761" lon="2.71802">
        <ele>150</ele>
        <time>2022-08-31T13:37:25.289Z</time>
      </trkpt>
      <trkpt lat="48.35764" lon="2.71786">
        <ele>150</ele>
        <time>2022-08-31T13:37:29.292Z</time>
      </trkpt>
      <trkpt lat="48.35769" lon="2.71773">
        <ele>150</ele>
        <time>2022-08-31T13:37:33.296Z</time>
      </trkpt>
      <trkpt lat="48.35778" lon="2.71765">
        <ele>150</ele>
        <time>2022-08-31T13:37:38.296Z</time>
      </trkpt>
      <trkpt lat="48.35786" lon="2.71759">
        <ele>150</ele>
        <time>2022-08-31T13:37:43.292Z</time>
      </trkpt>
      <trkpt lat="48.35792" lon="2.71747">
        <ele>149</ele>
        <time>2022-08-31T13:37:48.291Z</time>
      </trkpt>
      <trkpt lat="48.35799" lon="2.71738">
        <ele>149</ele>
        <time>2022-08-31T13:37:59.294Z</time>
      </trkpt>
      <trkpt lat="48.35802" lon="2.71725">
        <ele>149</ele>
        <time>2022-08-31T13:38:06.301Z</time>
      </trkpt>
      <trkpt lat="48.35806" lon="2.71713">
        <ele>149</ele>
        <time>2022-08-31T13:38:14.300Z</time>
      </trkpt>
      <trkpt lat="48.35815" lon="2.71706">
        <ele>151</ele>
        <time>2022-08-31T13:38:32.290Z</time>
      </trkpt>
      <trkpt lat="48.35824" lon="2.71704">
        <ele>152</ele>
        <time>2022-08-31T13:38:41.293Z</time>
      </trkpt>
      <trkpt lat="48.35828" lon="2.71701">
        <ele>153</ele>
        <time>2022-08-31T13:39:00.303Z</time>
      </trkpt>
      <trkpt lat="48.35828" lon="2.71694">
        <ele>152</ele>
        <time>2022-08-31T13:39:10.299Z</time>
      </trkpt>
      <trkpt lat="48.35826" lon="2.7168">
        <ele>152</ele>
        <time>2022-08-31T13:39:18.285Z</time>
      </trkpt>
      <trkpt lat="48.35818" lon="2.7167">
        <ele>152</ele>
        <time>2022-08-31T13:39:26.298Z</time>
      </trkpt>
      <trkpt lat="48.3581" lon="2.71662">
        <ele>152</ele>
        <time>2022-08-31T13:39:33.301Z</time>
      </trkpt>
      <trkpt lat="48.35802" lon="2.71655">
        <ele>152</ele>
        <time>2022-08-31T13:39:41.294Z</time>
      </trkpt>
      <trkpt lat="48.35795" lon="2.71647">
        <ele>152</ele>
        <time>2022-08-31T13:39:54.301Z</time>
      </trkpt>
      <trkpt lat="48.35797" lon="2.71632">
        <ele>153</ele>
        <time>2022-08-31T13:40:14.304Z</time>
      </trkpt>
      <trkpt lat="48.35806" lon="2.71626">
        <ele>153</ele>
        <time>2022-08-31T13:40:33.296Z</time>
      </trkpt>
      <trkpt lat="48.35815" lon="2.71623">
        <ele>154</ele>
        <time>2022-08-31T13:40:43.281Z</time>
      </trkpt>
      <trkpt lat="48.35823" lon="2.71615">
        <ele>156</ele>
        <time>2022-08-31T13:41:06.304Z</time>
      </trkpt>
      <trkpt lat="48.35827" lon="2.71602">
        <ele>156</ele>
        <time>2022-08-31T13:41:20.283Z</time>
      </trkpt>
      <trkpt lat="48.35837" lon="2.71599">
        <ele>159</ele>
        <time>2022-08-31T13:41:44.300Z</time>
      </trkpt>
      <trkpt lat="48.35846" lon="2.71601">
        <ele>160</ele>
        <time>2022-08-31T13:41:52.281Z</time>
      </trkpt>
      <trkpt lat="48.35851" lon="2.71594">
        <ele>161</ele>
        <time>2022-08-31T13:42:01.299Z</time>
      </trkpt>
      <trkpt lat="48.35854" lon="2.7159">
        <ele>162</ele>
        <time>2022-08-31T13:42:08.298Z</time>
      </trkpt>
      <trkpt lat="48.35864" lon="2.71585">
        <ele>163</ele>
        <time>2022-08-31T13:42:18.285Z</time>
      </trkpt>
      <trkpt lat="48.35867" lon="2.71572">
        <ele>164</ele>
        <time>2022-08-31T13:42:25.285Z</time>
      </trkpt>
      <trkpt lat="48.35872" lon="2.7156">
        <ele>164</ele>
        <time>2022-08-31T13:42:34.309Z</time>
      </trkpt>
      <trkpt lat="48.35878" lon="2.71547">
        <ele>165</ele>
        <time>2022-08-31T13:42:44.295Z</time>
      </trkpt>
      <trkpt lat="48.35888" lon="2.71549">
        <ele>165</ele>
        <time>2022-08-31T13:42:53.296Z</time>
      </trkpt>
      <trkpt lat="48.35897" lon="2.71551">
        <ele>166</ele>
        <time>2022-08-31T13:43:02.303Z</time>
      </trkpt>
      <trkpt lat="48.35905" lon="2.71546">
        <ele>166</ele>
        <time>2022-08-31T13:43:18.281Z</time>
      </trkpt>
      <trkpt lat="48.35905" lon="2.71531">
        <ele>166</ele>
        <time>2022-08-31T13:43:34.292Z</time>
      </trkpt>
      <trkpt lat="48.35902" lon="2.71517">
        <ele>165</ele>
        <time>2022-08-31T13:43:46.289Z</time>
      </trkpt>
      <trkpt lat="48.35899" lon="2.71504">
        <ele>164</ele>
        <time>2022-08-31T13:44:05.295Z</time>
      </trkpt>
      <trkpt lat="48.35906" lon="2.71494">
        <ele>164</ele>
        <time>2022-08-31T13:44:14.289Z</time>
      </trkpt>
      <trkpt lat="48.35912" lon="2.71483">
        <ele>162</ele>
        <time>2022-08-31T13:44:34.293Z</time>
      </trkpt>
      <trkpt lat="48.35909" lon="2.71469">
        <ele>160</ele>
        <time>2022-08-31T13:44:50.301Z</time>
      </trkpt>
      <trkpt lat="48.35915" lon="2.71459">
        <ele>159</ele>
        <time>2022-08-31T13:45:02.300Z</time>
      </trkpt>
      <trkpt lat="48.35913" lon="2.71445">
        <ele>158</ele>
        <time>2022-08-31T13:45:14.295Z</time>
      </trkpt>
      <trkpt lat="48.35908" lon="2.71432">
        <ele>157</ele>
        <time>2022-08-31T13:45:27.292Z</time>
      </trkpt>
      <trkpt lat="48.3591" lon="2.71418">
        <ele>156</ele>
        <time>2022-08-31T13:45:39.285Z</time>
      </trkpt>
      <trkpt lat="48.3591" lon="2.71404">
        <ele>157</ele>
        <time>2022-08-31T13:45:52.302Z</time>
      </trkpt>
      <trkpt lat="48.35908" lon="2.7139">
        <ele>157</ele>
        <time>2022-08-31T13:46:00.291Z</time>
      </trkpt>
      <trkpt lat="48.35906" lon="2.71377">
        <ele>157</ele>
        <time>2022-08-31T13:46:08.290Z</time>
      </trkpt>
      <trkpt lat="48.35905" lon="2.71363">
        <ele>158</ele>
        <time>2022-08-31T13:46:21.303Z</time>
      </trkpt>
      <trkpt lat="48.35905" lon="2.71349">
        <ele>159</ele>
        <time>2022-08-31T13:46:32.285Z</time>
      </trkpt>
      <trkpt lat="48.35903" lon="2.71334">
        <ele>159</ele>
        <time>2022-08-31T13:46:42.291Z</time>
      </trkpt>
      <trkpt lat="48.35909" lon="2.71322">
        <ele>161</ele>
        <time>2022-08-31T13:46:57.304Z</time>
      </trkpt>
      <trkpt lat="48.35915" lon="2.71312">
        <ele>161</ele>
        <time>2022-08-31T13:47:06.288Z</time>
      </trkpt>
      <trkpt lat="48.35922" lon="2.71302">
        <ele>162</ele>
        <time>2022-08-31T13:47:22.292Z</time>
      </trkpt>
      <trkpt lat="48.35928" lon="2.7129">
        <ele>162</ele>
        <time>2022-08-31T13:47:30.297Z</time>
      </trkpt>
      <trkpt lat="48.35933" lon="2.71278">
        <ele>162</ele>
        <time>2022-08-31T13:47:39.284Z</time>
      </trkpt>
      <trkpt lat="48.35942" lon="2.71272">
        <ele>161</ele>
        <time>2022-08-31T13:47:59.291Z</time>
      </trkpt>
      <trkpt lat="48.35951" lon="2.7127">
        <ele>161</ele>
        <time>2022-08-31T13:48:11.293Z</time>
      </trkpt>
      <trkpt lat="48.3595" lon="2.71267">
        <ele>160</ele>
        <time>2022-08-31T13:48:16.277Z</time>
      </trkpt>
      <trkpt lat="48.35954" lon="2.71268">
        <ele>159</ele>
        <time>2022-08-31T13:48:25.287Z</time>
      </trkpt>
      <trkpt lat="48.35959" lon="2.7127">
        <ele>158</ele>
        <time>2022-08-31T13:48:43.296Z</time>
      </trkpt>
      <trkpt lat="48.35959" lon="2.71263">
        <ele>157</ele>
        <time>2022-08-31T13:48:55.294Z</time>
      </trkpt>
      <trkpt lat="48.35964" lon="2.7125">
        <ele>158</ele>
        <time>2022-08-31T13:49:12.283Z</time>
      </trkpt>
      <trkpt lat="48.35969" lon="2.71239">
        <ele>159</ele>
        <time>2022-08-31T13:49:21.294Z</time>
      </trkpt>
      <trkpt lat="48.35965" lon="2.71225">
        <ele>160</ele>
        <time>2022-08-31T13:49:35.292Z</time>
      </trkpt>
      <trkpt lat="48.35957" lon="2.71218">
        <ele>160</ele>
        <time>2022-08-31T13:49:43.293Z</time>
      </trkpt>
      <trkpt lat="48.3595" lon="2.7121">
        <ele>161</ele>
        <time>2022-08-31T13:50:08.299Z</time>
      </trkpt>
      <trkpt lat="48.35949" lon="2.71196">
        <ele>160</ele>
        <time>2022-08-31T13:50:26.292Z</time>
      </trkpt>
      <trkpt lat="48.35946" lon="2.71187">
        <ele>160</ele>
        <time>2022-08-31T13:50:37.297Z</time>
      </trkpt>
      <trkpt lat="48.35946" lon="2.71181">
        <ele>160</ele>
        <time>2022-08-31T13:50:50.276Z</time>
      </trkpt>
      <trkpt lat="48.35947" lon="2.71168">
        <ele>161</ele>
        <time>2022-08-31T13:51:06.289Z</time>
      </trkpt>
      <trkpt lat="48.35954" lon="2.71159">
        <ele>161</ele>
        <time>2022-08-31T13:51:14.291Z</time>
      </trkpt>
      <trkpt lat="48.35955" lon="2.71145">
        <ele>162</ele>
        <time>2022-08-31T13:51:33.286Z</time>
      </trkpt>
      <trkpt lat="48.35947" lon="2.71138">
        <ele>163</ele>
        <time>2022-08-31T13:51:42.292Z</time>
      </trkpt>
      <trkpt lat="48.35938" lon="2.7114">
        <ele>163</ele>
        <time>2022-08-31T13:51:52.297Z</time>
      </trkpt>
      <trkpt lat="48.35929" lon="2.71136">
        <ele>163</ele>
        <time>2022-08-31T13:52:03.288Z</time>
      </trkpt>
      <trkpt lat="48.35919" lon="2.71129">
        <ele>162</ele>
        <time>2022-08-31T13:52:09.287Z</time>
      </trkpt>
      <trkpt lat="48.35908" lon="2.71125">
        <ele>162</ele>
        <time>2022-08-31T13:52:14.289Z</time>
      </trkpt>
      <trkpt lat="48.359" lon="2.71117">
        <ele>162</ele>
        <time>2022-08-31T13:52:19.286Z</time>
      </trkpt>
      <trkpt lat="48.35889" lon="2.71113">
        <ele>162</ele>
        <time>2022-08-31T13:52:24.275Z</time>
      </trkpt>
      <trkpt lat="48.3588" lon="2.71105">
        <ele>162</ele>
        <time>2022-08-31T13:52:28.291Z</time>
      </trkpt>
      <trkpt lat="48.3587" lon="2.711">
        <ele>162</ele>
        <time>2022-08-31T13:52:32.291Z</time>
      </trkpt>
      <trkpt lat="48.35861" lon="2.71096">
        <ele>162</ele>
        <time>2022-08-31T13:52:38.290Z</time>
      </trkpt>
      <trkpt lat="48.35855" lon="2.71085">
        <ele>163</ele>
        <time>2022-08-31T13:52:47.294Z</time>
      </trkpt>
      <trkpt lat="48.35845" lon="2.7109">
        <ele>164</ele>
        <time>2022-08-31T13:52:54.291Z</time>
      </trkpt>
      <trkpt lat="48.35837" lon="2.71094">
        <ele>164</ele>
        <time>2022-08-31T13:52:59.286Z</time>
      </trkpt>
      <trkpt lat="48.35835" lon="2.71097">
        <ele>165</ele>
        <time>2022-08-31T13:53:03.276Z</time>
      </trkpt>
      <trkpt lat="48.3583" lon="2.71097">
        <ele>169</ele>
        <time>2022-08-31T13:53:42.284Z</time>
      </trkpt>
      <trkpt lat="48.35818" lon="2.71095">
        <ele>169</ele>
        <time>2022-08-31T13:53:46.304Z</time>
      </trkpt>
      <trkpt lat="48.35808" lon="2.71089">
        <ele>169</ele>
        <time>2022-08-31T13:53:50.300Z</time>
      </trkpt>
      <trkpt lat="48.35801" lon="2.71077">
        <ele>168</ele>
        <time>2022-08-31T13:53:54.290Z</time>
      </trkpt>
      <trkpt lat="48.35799" lon="2.71063">
        <ele>168</ele>
        <time>2022-08-31T13:53:58.279Z</time>
      </trkpt>
      <trkpt lat="48.35798" lon="2.71047">
        <ele>168</ele>
        <time>2022-08-31T13:54:02.290Z</time>
      </trkpt>
      <trkpt lat="48.35797" lon="2.71031">
        <ele>168</ele>
        <time>2022-08-31T13:54:05.295Z</time>
      </trkpt>
      <trkpt lat="48.35796" lon="2.71013">
        <ele>168</ele>
        <time>2022-08-31T13:54:08.290Z</time>
      </trkpt>
      <trkpt lat="48.35795" lon="2.70992">
        <ele>168</ele>
        <time>2022-08-31T13:54:12.294Z</time>
      </trkpt>
      <trkpt lat="48.35794" lon="2.70972">
        <ele>167</ele>
        <time>2022-08-31T13:54:17.304Z</time>
      </trkpt>
      <trkpt lat="48.35797" lon="2.70953">
        <ele>167</ele>
        <time>2022-08-31T13:54:22.281Z</time>
      </trkpt>
      <trkpt lat="48.35808" lon="2.70945">
        <ele>168</ele>
        <time>2022-08-31T13:54:26.281Z</time>
      </trkpt>
      <trkpt lat="48.35821" lon="2.70944">
        <ele>168</ele>
        <time>2022-08-31T13:54:29.286Z</time>
      </trkpt>
      <trkpt lat="48.35835" lon="2.70945">
        <ele>168</ele>
        <time>2022-08-31T13:54:33.283Z</time>
      </trkpt>
      <trkpt lat="48.35852" lon="2.70945">
        <ele>168</ele>
        <time>2022-08-31T13:54:38.289Z</time>
      </trkpt>
      <trkpt lat="48.35865" lon="2.70934">
        <ele>168</ele>
        <time>2022-08-31T13:54:42.289Z</time>
      </trkpt>
      <trkpt lat="48.35873" lon="2.70918">
        <ele>169</ele>
        <time>2022-08-31T13:54:46.288Z</time>
      </trkpt>
      <trkpt lat="48.35879" lon="2.709">
        <ele>169</ele>
        <time>2022-08-31T13:54:50.288Z</time>
      </trkpt>
      <trkpt lat="48.35886" lon="2.7088">
        <ele>169</ele>
        <time>2022-08-31T13:54:54.282Z</time>
      </trkpt>
      <trkpt lat="48.35893" lon="2.70858">
        <ele>170</ele>
        <time>2022-08-31T13:54:58.289Z</time>
      </trkpt>
      <trkpt lat="48.35901" lon="2.70837">
        <ele>170</ele>
        <time>2022-08-31T13:55:02.299Z</time>
      </trkpt>
      <trkpt lat="48.35911" lon="2.70816">
        <ele>170</ele>
        <time>2022-08-31T13:55:05.283Z</time>
      </trkpt>
      <trkpt lat="48.35925" lon="2.708">
        <ele>169</ele>
        <time>2022-08-31T13:55:09.284Z</time>
      </trkpt>
      <trkpt lat="48.35941" lon="2.70781">
        <ele>169</ele>
        <time>2022-08-31T13:55:14.291Z</time>
      </trkpt>
      <trkpt lat="48.35956" lon="2.70764">
        <ele>169</ele>
        <time>2022-08-31T13:55:19.297Z</time>
      </trkpt>
      <trkpt lat="48.35973" lon="2.70747">
        <ele>169</ele>
        <time>2022-08-31T13:55:24.292Z</time>
      </trkpt>
      <trkpt lat="48.35988" lon="2.70733">
        <ele>169</ele>
        <time>2022-08-31T13:55:28.277Z</time>
      </trkpt>
      <trkpt lat="48.36" lon="2.70712">
        <ele>169</ele>
        <time>2022-08-31T13:55:32.290Z</time>
      </trkpt>
      <trkpt lat="48.36006" lon="2.70685">
        <ele>169</ele>
        <time>2022-08-31T13:55:37.287Z</time>
      </trkpt>
      <trkpt lat="48.36" lon="2.70659">
        <ele>169</ele>
        <time>2022-08-31T13:55:41.283Z</time>
      </trkpt>
      <trkpt lat="48.3599" lon="2.70632">
        <ele>169</ele>
        <time>2022-08-31T13:55:46.273Z</time>
      </trkpt>
      <trkpt lat="48.35981" lon="2.70608">
        <ele>169</ele>
        <time>2022-08-31T13:55:50.295Z</time>
      </trkpt>
      <trkpt lat="48.35975" lon="2.70582">
        <ele>170</ele>
        <time>2022-08-31T13:55:54.287Z</time>
      </trkpt>
      <trkpt lat="48.35969" lon="2.7055">
        <ele>170</ele>
        <time>2022-08-31T13:55:58.290Z</time>
      </trkpt>
      <trkpt lat="48.3597" lon="2.70518">
        <ele>170</ele>
        <time>2022-08-31T13:56:03.298Z</time>
      </trkpt>
      <trkpt lat="48.35978" lon="2.70495">
        <ele>170</ele>
        <time>2022-08-31T13:56:09.279Z</time>
      </trkpt>
      <trkpt lat="48.35981" lon="2.70472">
        <ele>170</ele>
        <time>2022-08-31T13:56:13.294Z</time>
      </trkpt>
      <trkpt lat="48.35984" lon="2.70446">
        <ele>170</ele>
        <time>2022-08-31T13:56:17.297Z</time>
      </trkpt>
      <trkpt lat="48.35993" lon="2.70423">
        <ele>170</ele>
        <time>2022-08-31T13:56:21.296Z</time>
      </trkpt>
      <trkpt lat="48.36006" lon="2.70404">
        <ele>170</ele>
        <time>2022-08-31T13:56:25.290Z</time>
      </trkpt>
      <trkpt lat="48.36019" lon="2.70385">
        <ele>170</ele>
        <time>2022-08-31T13:56:29.297Z</time>
      </trkpt>
      <trkpt lat="48.3603" lon="2.7036">
        <ele>171</ele>
        <time>2022-08-31T13:56:33.283Z</time>
      </trkpt>
      <trkpt lat="48.36041" lon="2.70332">
        <ele>171</ele>
        <time>2022-08-31T13:56:38.278Z</time>
      </trkpt>
      <trkpt lat="48.36049" lon="2.70305">
        <ele>172</ele>
        <time>2022-08-31T13:56:43.290Z</time>
      </trkpt>
      <trkpt lat="48.3606" lon="2.7028">
        <ele>172</ele>
        <time>2022-08-31T13:56:48.296Z</time>
      </trkpt>
      <trkpt lat="48.36073" lon="2.7026">
        <ele>172</ele>
        <time>2022-08-31T13:56:52.283Z</time>
      </trkpt>
      <trkpt lat="48.36084" lon="2.70238">
        <ele>172</ele>
        <time>2022-08-31T13:56:56.301Z</time>
      </trkpt>
      <trkpt lat="48.36095" lon="2.70217">
        <ele>172</ele>
        <time>2022-08-31T13:57:00.286Z</time>
      </trkpt>
      <trkpt lat="48.36114" lon="2.70201">
        <ele>172</ele>
        <time>2022-08-31T13:57:05.292Z</time>
      </trkpt>
      <trkpt lat="48.36131" lon="2.70196">
        <ele>172</ele>
        <time>2022-08-31T13:57:09.288Z</time>
      </trkpt>
      <trkpt lat="48.36154" lon="2.70194">
        <ele>172</ele>
        <time>2022-08-31T13:57:13.278Z</time>
      </trkpt>
      <trkpt lat="48.36177" lon="2.7019">
        <ele>172</ele>
        <time>2022-08-31T13:57:18.299Z</time>
      </trkpt>
      <trkpt lat="48.36199" lon="2.70187">
        <ele>172</ele>
        <time>2022-08-31T13:57:23.285Z</time>
      </trkpt>
      <trkpt lat="48.36218" lon="2.70185">
        <ele>172</ele>
        <time>2022-08-31T13:57:27.279Z</time>
      </trkpt>
      <trkpt lat="48.36237" lon="2.70181">
        <ele>171</ele>
        <time>2022-08-31T13:57:31.285Z</time>
      </trkpt>
      <trkpt lat="48.3626" lon="2.70179">
        <ele>170</ele>
        <time>2022-08-31T13:57:36.282Z</time>
      </trkpt>
      <trkpt lat="48.36279" lon="2.70178">
        <ele>169</ele>
        <time>2022-08-31T13:57:41.272Z</time>
      </trkpt>
      <trkpt lat="48.36299" lon="2.70179">
        <ele>169</ele>
        <time>2022-08-31T13:57:45.288Z</time>
      </trkpt>
      <trkpt lat="48.3632" lon="2.70176">
        <ele>169</ele>
        <time>2022-08-31T13:57:49.294Z</time>
      </trkpt>
      <trkpt lat="48.36345" lon="2.70173">
        <ele>168</ele>
        <time>2022-08-31T13:57:54.295Z</time>
      </trkpt>
      <trkpt lat="48.36367" lon="2.70172">
        <ele>168</ele>
        <time>2022-08-31T13:57:59.281Z</time>
      </trkpt>
      <trkpt lat="48.36386" lon="2.70172">
        <ele>168</ele>
        <time>2022-08-31T13:58:05.291Z</time>
      </trkpt>
      <trkpt lat="48.36398" lon="2.70171">
        <ele>168</ele>
        <time>2022-08-31T13:58:10.289Z</time>
      </trkpt>
      <trkpt lat="48.36409" lon="2.70171">
        <ele>168</ele>
        <time>2022-08-31T13:58:15.301Z</time>
      </trkpt>
      <trkpt lat="48.36421" lon="2.7017">
        <ele>168</ele>
        <time>2022-08-31T13:58:19.280Z</time>
      </trkpt>
      <trkpt lat="48.36432" lon="2.7017">
        <ele>169</ele>
        <time>2022-08-31T13:58:22.295Z</time>
      </trkpt>
      <trkpt lat="48.36442" lon="2.7017">
        <ele>169</ele>
        <time>2022-08-31T13:58:24.279Z</time>
      </trkpt>
      <trkpt lat="48.36458" lon="2.70168">
        <ele>169</ele>
        <time>2022-08-31T13:58:27.281Z</time>
      </trkpt>
      <trkpt lat="48.36476" lon="2.70165">
        <ele>169</ele>
        <time>2022-08-31T13:58:31.280Z</time>
      </trkpt>
      <trkpt lat="48.36498" lon="2.70165">
        <ele>169</ele>
        <time>2022-08-31T13:58:36.282Z</time>
      </trkpt>
      <trkpt lat="48.3652" lon="2.70163">
        <ele>168</ele>
        <time>2022-08-31T13:58:40.278Z</time>
      </trkpt>
      <trkpt lat="48.36541" lon="2.70161">
        <ele>168</ele>
        <time>2022-08-31T13:58:44.290Z</time>
      </trkpt>
      <trkpt lat="48.36566" lon="2.70158">
        <ele>168</ele>
        <time>2022-08-31T13:58:49.282Z</time>
      </trkpt>
      <trkpt lat="48.3659" lon="2.70157">
        <ele>167</ele>
        <time>2022-08-31T13:58:53.286Z</time>
      </trkpt>
      <trkpt lat="48.36612" lon="2.70155">
        <ele>167</ele>
        <time>2022-08-31T13:58:57.287Z</time>
      </trkpt>
      <trkpt lat="48.36636" lon="2.70153">
        <ele>167</ele>
        <time>2022-08-31T13:59:02.286Z</time>
      </trkpt>
      <trkpt lat="48.3666" lon="2.70153">
        <ele>167</ele>
        <time>2022-08-31T13:59:07.292Z</time>
      </trkpt>
      <trkpt lat="48.3668" lon="2.70151">
        <ele>166</ele>
        <time>2022-08-31T13:59:11.280Z</time>
      </trkpt>
      <trkpt lat="48.36701" lon="2.7015">
        <ele>166</ele>
        <time>2022-08-31T13:59:15.272Z</time>
      </trkpt>
      <trkpt lat="48.36724" lon="2.70149">
        <ele>166</ele>
        <time>2022-08-31T13:59:19.283Z</time>
      </trkpt>
      <trkpt lat="48.36747" lon="2.70148">
        <ele>166</ele>
        <time>2022-08-31T13:59:23.292Z</time>
      </trkpt>
      <trkpt lat="48.36773" lon="2.70146">
        <ele>165</ele>
        <time>2022-08-31T13:59:28.276Z</time>
      </trkpt>
      <trkpt lat="48.36798" lon="2.70145">
        <ele>165</ele>
        <time>2022-08-31T13:59:33.275Z</time>
      </trkpt>
      <trkpt lat="48.36807" lon="2.70175">
        <ele>165</ele>
        <time>2022-08-31T13:59:40.275Z</time>
      </trkpt>
      <trkpt lat="48.36807" lon="2.70201">
        <ele>164</ele>
        <time>2022-08-31T13:59:45.295Z</time>
      </trkpt>
      <trkpt lat="48.36806" lon="2.70221">
        <ele>164</ele>
        <time>2022-08-31T13:59:49.289Z</time>
      </trkpt>
      <trkpt lat="48.36805" lon="2.70241">
        <ele>164</ele>
        <time>2022-08-31T13:59:53.282Z</time>
      </trkpt>
      <trkpt lat="48.36803" lon="2.70263">
        <ele>164</ele>
        <time>2022-08-31T13:59:57.284Z</time>
      </trkpt>
      <trkpt lat="48.368" lon="2.70286">
        <ele>164</ele>
        <time>2022-08-31T14:00:01.289Z</time>
      </trkpt>
      <trkpt lat="48.36799" lon="2.7031">
        <ele>164</ele>
        <time>2022-08-31T14:00:05.285Z</time>
      </trkpt>
      <trkpt lat="48.36796" lon="2.70336">
        <ele>164</ele>
        <time>2022-08-31T14:00:10.284Z</time>
      </trkpt>
      <trkpt lat="48.36794" lon="2.7036">
        <ele>164</ele>
        <time>2022-08-31T14:00:14.292Z</time>
      </trkpt>
      <trkpt lat="48.36792" lon="2.70383">
        <ele>165</ele>
        <time>2022-08-31T14:00:19.298Z</time>
      </trkpt>
      <trkpt lat="48.36792" lon="2.70406">
        <ele>165</ele>
        <time>2022-08-31T14:00:23.290Z</time>
      </trkpt>
      <trkpt lat="48.36792" lon="2.70429">
        <ele>165</ele>
        <time>2022-08-31T14:00:27.284Z</time>
      </trkpt>
      <trkpt lat="48.3679" lon="2.70452">
        <ele>165</ele>
        <time>2022-08-31T14:00:31.278Z</time>
      </trkpt>
      <trkpt lat="48.36788" lon="2.70479">
        <ele>165</ele>
        <time>2022-08-31T14:00:35.298Z</time>
      </trkpt>
      <trkpt lat="48.36786" lon="2.70505">
        <ele>165</ele>
        <time>2022-08-31T14:00:40.288Z</time>
      </trkpt>
      <trkpt lat="48.36782" lon="2.70529">
        <ele>165</ele>
        <time>2022-08-31T14:00:44.280Z</time>
      </trkpt>
      <trkpt lat="48.36781" lon="2.70557">
        <ele>165</ele>
        <time>2022-08-31T14:00:48.281Z</time>
      </trkpt>
      <trkpt lat="48.36778" lon="2.70587">
        <ele>165</ele>
        <time>2022-08-31T14:00:52.291Z</time>
      </trkpt>
      <trkpt lat="48.36776" lon="2.7062">
        <ele>165</ele>
        <time>2022-08-31T14:00:57.285Z</time>
      </trkpt>
      <trkpt lat="48.36773" lon="2.7065">
        <ele>165</ele>
        <time>2022-08-31T14:01:02.285Z</time>
      </trkpt>
      <trkpt lat="48.36771" lon="2.70678">
        <ele>164</ele>
        <time>2022-08-31T14:01:07.283Z</time>
      </trkpt>
      <trkpt lat="48.36772" lon="2.70703">
        <ele>164</ele>
        <time>2022-08-31T14:01:12.280Z</time>
      </trkpt>
      <trkpt lat="48.3677" lon="2.70721">
        <ele>164</ele>
        <time>2022-08-31T14:01:17.280Z</time>
      </trkpt>
      <trkpt lat="48.36767" lon="2.70737">
        <ele>163</ele>
        <time>2022-08-31T14:01:21.279Z</time>
      </trkpt>
      <trkpt lat="48.36764" lon="2.70753">
        <ele>162</ele>
        <time>2022-08-31T14:01:24.273Z</time>
      </trkpt>
      <trkpt lat="48.36766" lon="2.70774">
        <ele>162</ele>
        <time>2022-08-31T14:01:27.293Z</time>
      </trkpt>
      <trkpt lat="48.36761" lon="2.708">
        <ele>161</ele>
        <time>2022-08-31T14:01:30.286Z</time>
      </trkpt>
      <trkpt lat="48.36759" lon="2.70833">
        <ele>160</ele>
        <time>2022-08-31T14:01:34.287Z</time>
      </trkpt>
      <trkpt lat="48.36757" lon="2.70868">
        <ele>158</ele>
        <time>2022-08-31T14:01:40.284Z</time>
      </trkpt>
      <trkpt lat="48.36755" lon="2.70893">
        <ele>157</ele>
        <time>2022-08-31T14:01:45.291Z</time>
      </trkpt>
      <trkpt lat="48.36754" lon="2.70916">
        <ele>155</ele>
        <time>2022-08-31T14:01:50.283Z</time>
      </trkpt>
      <trkpt lat="48.36755" lon="2.70939">
        <ele>153</ele>
        <time>2022-08-31T14:01:54.289Z</time>
      </trkpt>
      <trkpt lat="48.36752" lon="2.70958">
        <ele>151</ele>
        <time>2022-08-31T14:02:00.286Z</time>
      </trkpt>
      <trkpt lat="48.36751" lon="2.70969">
        <ele>149</ele>
        <time>2022-08-31T14:02:12.277Z</time>
      </trkpt>
      <trkpt lat="48.36752" lon="2.70975">
        <ele>150</ele>
        <time>2022-08-31T14:02:35.293Z</time>
      </trkpt>
      <trkpt lat="48.36759" lon="2.70987">
        <ele>151</ele>
        <time>2022-08-31T14:02:40.279Z</time>
      </trkpt>
      <trkpt lat="48.36766" lon="2.70998">
        <ele>151</ele>
        <time>2022-08-31T14:02:43.285Z</time>
      </trkpt>
      <trkpt lat="48.36773" lon="2.71011">
        <ele>151</ele>
        <time>2022-08-31T14:02:46.274Z</time>
      </trkpt>
      <trkpt lat="48.3678" lon="2.71026">
        <ele>151</ele>
        <time>2022-08-31T14:02:49.277Z</time>
      </trkpt>
      <trkpt lat="48.36789" lon="2.71047">
        <ele>150</ele>
        <time>2022-08-31T14:02:53.273Z</time>
      </trkpt>
      <trkpt lat="48.36797" lon="2.71069">
        <ele>150</ele>
        <time>2022-08-31T14:02:57.283Z</time>
      </trkpt>
      <trkpt lat="48.36808" lon="2.71092">
        <ele>149</ele>
        <time>2022-08-31T14:03:01.279Z</time>
      </trkpt>
      <trkpt lat="48.36821" lon="2.71118">
        <ele>148</ele>
        <time>2022-08-31T14:03:05.280Z</time>
      </trkpt>
      <trkpt lat="48.36832" lon="2.71147">
        <ele>147</ele>
        <time>2022-08-31T14:03:09.281Z</time>
      </trkpt>
      <trkpt lat="48.36845" lon="2.71177">
        <ele>145</ele>
        <time>2022-08-31T14:03:14.279Z</time>
      </trkpt>
      <trkpt lat="48.36861" lon="2.71206">
        <ele>144</ele>
        <time>2022-08-31T14:03:19.270Z</time>
      </trkpt>
      <trkpt lat="48.36872" lon="2.71236">
        <ele>143</ele>
        <time>2022-08-31T14:03:24.289Z</time>
      </trkpt>
      <trkpt lat="48.36881" lon="2.71261">
        <ele>141</ele>
        <time>2022-08-31T14:03:29.276Z</time>
      </trkpt>
      <trkpt lat="48.36889" lon="2.71283">
        <ele>141</ele>
        <time>2022-08-31T14:03:33.277Z</time>
      </trkpt>
      <trkpt lat="48.36897" lon="2.71305">
        <ele>140</ele>
        <time>2022-08-31T14:03:37.281Z</time>
      </trkpt>
      <trkpt lat="48.36906" lon="2.71327">
        <ele>140</ele>
        <time>2022-08-31T14:03:41.283Z</time>
      </trkpt>
      <trkpt lat="48.36916" lon="2.71349">
        <ele>139</ele>
        <time>2022-08-31T14:03:45.283Z</time>
      </trkpt>
      <trkpt lat="48.36926" lon="2.71371">
        <ele>139</ele>
        <time>2022-08-31T14:03:49.283Z</time>
      </trkpt>
      <trkpt lat="48.36938" lon="2.71395">
        <ele>138</ele>
        <time>2022-08-31T14:03:54.280Z</time>
      </trkpt>
      <trkpt lat="48.36947" lon="2.71418">
        <ele>138</ele>
        <time>2022-08-31T14:03:59.282Z</time>
      </trkpt>
      <trkpt lat="48.36956" lon="2.71442">
        <ele>137</ele>
        <time>2022-08-31T14:04:04.276Z</time>
      </trkpt>
      <trkpt lat="48.36966" lon="2.71452">
        <ele>137</ele>
        <time>2022-08-31T14:04:10.285Z</time>
      </trkpt>
      <trkpt lat="48.36974" lon="2.71448">
        <ele>136</ele>
        <time>2022-08-31T14:04:15.281Z</time>
      </trkpt>
      <trkpt lat="48.36984" lon="2.71441">
        <ele>136</ele>
        <time>2022-08-31T14:04:20.271Z</time>
      </trkpt>
      <trkpt lat="48.36994" lon="2.71435">
        <ele>136</ele>
        <time>2022-08-31T14:04:24.285Z</time>
      </trkpt>
      <trkpt lat="48.37003" lon="2.71431">
        <ele>137</ele>
        <time>2022-08-31T14:04:28.283Z</time>
      </trkpt>
      <trkpt lat="48.37015" lon="2.71425">
        <ele>137</ele>
        <time>2022-08-31T14:04:32.276Z</time>
      </trkpt>
      <trkpt lat="48.37023" lon="2.7142">
        <ele>137</ele>
        <time>2022-08-31T14:04:35.281Z</time>
      </trkpt>
      <trkpt lat="48.37035" lon="2.71412">
        <ele>137</ele>
        <time>2022-08-31T14:04:39.275Z</time>
      </trkpt>
      <trkpt lat="48.37045" lon="2.71405">
        <ele>138</ele>
        <time>2022-08-31T14:04:43.271Z</time>
      </trkpt>
      <trkpt lat="48.37055" lon="2.714">
        <ele>139</ele>
        <time>2022-08-31T14:04:47.273Z</time>
      </trkpt>
      <trkpt lat="48.37064" lon="2.71399">
        <ele>140</ele>
        <time>2022-08-31T14:04:53.277Z</time>
      </trkpt>
      <trkpt lat="48.37064" lon="2.714">
        <ele>141</ele>
        <time>2022-08-31T14:04:56.276Z</time>
      </trkpt>
      <trkpt lat="48.37069" lon="2.71399">
        <ele>143</ele>
        <time>2022-08-31T14:05:08.271Z</time>
      </trkpt>
      <trkpt lat="48.37078" lon="2.71398">
        <ele>144</ele>
        <time>2022-08-31T14:05:14.290Z</time>
      </trkpt>
      <trkpt lat="48.37085" lon="2.71399">
        <ele>146</ele>
        <time>2022-08-31T14:05:21.281Z</time>
      </trkpt>
      <trkpt lat="48.37088" lon="2.71401">
        <ele>147</ele>
        <time>2022-08-31T14:05:25.278Z</time>
      </trkpt>
      <trkpt lat="48.37097" lon="2.71407">
        <ele>148</ele>
        <time>2022-08-31T14:05:31.281Z</time>
      </trkpt>
      <trkpt lat="48.37107" lon="2.71414">
        <ele>148</ele>
        <time>2022-08-31T14:05:36.283Z</time>
      </trkpt>
      <trkpt lat="48.37113" lon="2.71423">
        <ele>149</ele>
        <time>2022-08-31T14:05:41.279Z</time>
      </trkpt>
      <trkpt lat="48.37118" lon="2.71436">
        <ele>149</ele>
        <time>2022-08-31T14:05:46.282Z</time>
      </trkpt>
      <trkpt lat="48.37123" lon="2.71448">
        <ele>150</ele>
        <time>2022-08-31T14:05:51.291Z</time>
      </trkpt>
      <trkpt lat="48.37127" lon="2.71461">
        <ele>150</ele>
        <time>2022-08-31T14:05:56.274Z</time>
      </trkpt>
      <trkpt lat="48.37126" lon="2.71475">
        <ele>151</ele>
        <time>2022-08-31T14:06:01.280Z</time>
      </trkpt>
      <trkpt lat="48.37127" lon="2.71489">
        <ele>151</ele>
        <time>2022-08-31T14:06:06.283Z</time>
      </trkpt>
      <trkpt lat="48.37129" lon="2.71504">
        <ele>151</ele>
        <time>2022-08-31T14:06:11.291Z</time>
      </trkpt>
      <trkpt lat="48.37128" lon="2.71521">
        <ele>151</ele>
        <time>2022-08-31T14:06:16.295Z</time>
      </trkpt>
      <trkpt lat="48.37128" lon="2.71535">
        <ele>151</ele>
        <time>2022-08-31T14:06:22.295Z</time>
      </trkpt>
      <trkpt lat="48.37132" lon="2.71547">
        <ele>152</ele>
        <time>2022-08-31T14:06:28.286Z</time>
      </trkpt>
      <trkpt lat="48.37135" lon="2.7156">
        <ele>152</ele>
        <time>2022-08-31T14:06:33.288Z</time>
      </trkpt>
      <trkpt lat="48.37135" lon="2.71575">
        <ele>152</ele>
        <time>2022-08-31T14:06:38.286Z</time>
      </trkpt>
      <trkpt lat="48.37138" lon="2.71589">
        <ele>152</ele>
        <time>2022-08-31T14:06:43.283Z</time>
      </trkpt>
      <trkpt lat="48.37139" lon="2.71605">
        <ele>152</ele>
        <time>2022-08-31T14:06:49.296Z</time>
      </trkpt>
      <trkpt lat="48.3714" lon="2.71621">
        <ele>153</ele>
        <time>2022-08-31T14:06:54.291Z</time>
      </trkpt>
      <trkpt lat="48.37143" lon="2.71636">
        <ele>153</ele>
        <time>2022-08-31T14:07:01.288Z</time>
      </trkpt>
      <trkpt lat="48.37145" lon="2.71652">
        <ele>154</ele>
        <time>2022-08-31T14:07:07.308Z</time>
      </trkpt>
      <trkpt lat="48.37146" lon="2.71667">
        <ele>154</ele>
        <time>2022-08-31T14:07:11.276Z</time>
      </trkpt>
      <trkpt lat="48.3715" lon="2.7168">
        <ele>155</ele>
        <time>2022-08-31T14:07:16.280Z</time>
      </trkpt>
      <trkpt lat="48.37155" lon="2.71694">
        <ele>156</ele>
        <time>2022-08-31T14:07:22.292Z</time>
      </trkpt>
      <trkpt lat="48.37161" lon="2.71708">
        <ele>157</ele>
        <time>2022-08-31T14:07:28.300Z</time>
      </trkpt>
      <trkpt lat="48.37169" lon="2.71718">
        <ele>158</ele>
        <time>2022-08-31T14:07:34.283Z</time>
      </trkpt>
      <trkpt lat="48.37178" lon="2.71726">
        <ele>158</ele>
        <time>2022-08-31T14:07:40.293Z</time>
      </trkpt>
      <trkpt lat="48.37188" lon="2.71727">
        <ele>159</ele>
        <time>2022-08-31T14:07:45.291Z</time>
      </trkpt>
      <trkpt lat="48.37197" lon="2.71735">
        <ele>159</ele>
        <time>2022-08-31T14:07:50.285Z</time>
      </trkpt>
      <trkpt lat="48.37197" lon="2.71736">
        <ele>159</ele>
        <time>2022-08-31T14:07:54.296Z</time>
      </trkpt>
      <trkpt lat="48.372" lon="2.71731">
        <ele>162</ele>
        <time>2022-08-31T14:09:58.284Z</time>
      </trkpt>
      <trkpt lat="48.372" lon="2.7172">
        <ele>162</ele>
        <time>2022-08-31T14:10:07.276Z</time>
      </trkpt>
      <trkpt lat="48.37203" lon="2.71716">
        <ele>163</ele>
        <time>2022-08-31T14:11:15.271Z</time>
      </trkpt>
      <trkpt lat="48.37213" lon="2.71715">
        <ele>163</ele>
        <time>2022-08-31T14:11:21.283Z</time>
      </trkpt>
      <trkpt lat="48.37223" lon="2.71708">
        <ele>163</ele>
        <time>2022-08-31T14:11:26.269Z</time>
      </trkpt>
      <trkpt lat="48.37229" lon="2.71705">
        <ele>163</ele>
        <time>2022-08-31T14:11:32.269Z</time>
      </trkpt>
      <trkpt lat="48.37227" lon="2.71711">
        <ele>164</ele>
        <time>2022-08-31T14:11:51.278Z</time>
      </trkpt>
      <trkpt lat="48.37218" lon="2.71716">
        <ele>164</ele>
        <time>2022-08-31T14:11:58.279Z</time>
      </trkpt>
      <trkpt lat="48.37209" lon="2.71723">
        <ele>165</ele>
        <time>2022-08-31T14:12:04.284Z</time>
      </trkpt>
      <trkpt lat="48.37203" lon="2.71728">
        <ele>165</ele>
        <time>2022-08-31T14:12:13.292Z</time>
      </trkpt>
      <trkpt lat="48.37203" lon="2.71721">
        <ele>168</ele>
        <time>2022-08-31T14:12:46.280Z</time>
      </trkpt>
      <trkpt lat="48.37201" lon="2.71705">
        <ele>168</ele>
        <time>2022-08-31T14:12:51.289Z</time>
      </trkpt>
      <trkpt lat="48.372" lon="2.7169">
        <ele>169</ele>
        <time>2022-08-31T14:12:55.277Z</time>
      </trkpt>
      <trkpt lat="48.37202" lon="2.71676">
        <ele>169</ele>
        <time>2022-08-31T14:12:59.294Z</time>
      </trkpt>
      <trkpt lat="48.37203" lon="2.7166">
        <ele>169</ele>
        <time>2022-08-31T14:13:03.274Z</time>
      </trkpt>
      <trkpt lat="48.37203" lon="2.71646">
        <ele>169</ele>
        <time>2022-08-31T14:13:07.280Z</time>
      </trkpt>
      <trkpt lat="48.37204" lon="2.71632">
        <ele>168</ele>
        <time>2022-08-31T14:13:10.281Z</time>
      </trkpt>
      <trkpt lat="48.37205" lon="2.71618">
        <ele>168</ele>
        <time>2022-08-31T14:13:13.284Z</time>
      </trkpt>
      <trkpt lat="48.37208" lon="2.71603">
        <ele>168</ele>
        <time>2022-08-31T14:13:16.287Z</time>
      </trkpt>
      <trkpt lat="48.37209" lon="2.71586">
        <ele>168</ele>
        <time>2022-08-31T14:13:19.284Z</time>
      </trkpt>
      <trkpt lat="48.3721" lon="2.71566">
        <ele>168</ele>
        <time>2022-08-31T14:13:23.287Z</time>
      </trkpt>
      <trkpt lat="48.37211" lon="2.71547">
        <ele>167</ele>
        <time>2022-08-31T14:13:27.295Z</time>
      </trkpt>
      <trkpt lat="48.37212" lon="2.71525">
        <ele>167</ele>
        <time>2022-08-31T14:13:31.283Z</time>
      </trkpt>
      <trkpt lat="48.37213" lon="2.71506">
        <ele>166</ele>
        <time>2022-08-31T14:13:35.301Z</time>
      </trkpt>
      <trkpt lat="48.37215" lon="2.71484">
        <ele>166</ele>
        <time>2022-08-31T14:13:39.274Z</time>
      </trkpt>
      <trkpt lat="48.37217" lon="2.71464">
        <ele>166</ele>
        <time>2022-08-31T14:13:43.289Z</time>
      </trkpt>
      <trkpt lat="48.37218" lon="2.71442">
        <ele>165</ele>
        <time>2022-08-31T14:13:47.289Z</time>
      </trkpt>
      <trkpt lat="48.37219" lon="2.71423">
        <ele>165</ele>
        <time>2022-08-31T14:13:52.278Z</time>
      </trkpt>
      <trkpt lat="48.3722" lon="2.71403">
        <ele>166</ele>
        <time>2022-08-31T14:13:56.274Z</time>
      </trkpt>
      <trkpt lat="48.3722" lon="2.71386">
        <ele>166</ele>
        <time>2022-08-31T14:14:00.281Z</time>
      </trkpt>
      <trkpt lat="48.37219" lon="2.71366">
        <ele>166</ele>
        <time>2022-08-31T14:14:04.289Z</time>
      </trkpt>
      <trkpt lat="48.37219" lon="2.71345">
        <ele>166</ele>
        <time>2022-08-31T14:14:08.283Z</time>
      </trkpt>
      <trkpt lat="48.37219" lon="2.71324">
        <ele>166</ele>
        <time>2022-08-31T14:14:12.278Z</time>
      </trkpt>
      <trkpt lat="48.3722" lon="2.71313">
        <ele>167</ele>
        <time>2022-08-31T14:14:17.266Z</time>
      </trkpt>
      <trkpt lat="48.37223" lon="2.71309">
        <ele>168</ele>
        <time>2022-08-31T14:14:54.278Z</time>
      </trkpt>
      <trkpt lat="48.37224" lon="2.71293">
        <ele>168</ele>
        <time>2022-08-31T14:14:58.270Z</time>
      </trkpt>
      <trkpt lat="48.37226" lon="2.71279">
        <ele>168</ele>
        <time>2022-08-31T14:15:01.284Z</time>
      </trkpt>
      <trkpt lat="48.37226" lon="2.71263">
        <ele>168</ele>
        <time>2022-08-31T14:15:04.283Z</time>
      </trkpt>
      <trkpt lat="48.37227" lon="2.71243">
        <ele>169</ele>
        <time>2022-08-31T14:15:08.286Z</time>
      </trkpt>
      <trkpt lat="48.37228" lon="2.71222">
        <ele>169</ele>
        <time>2022-08-31T14:15:13.272Z</time>
      </trkpt>
      <trkpt lat="48.3723" lon="2.71205">
        <ele>169</ele>
        <time>2022-08-31T14:15:17.275Z</time>
      </trkpt>
      <trkpt lat="48.37229" lon="2.71188">
        <ele>169</ele>
        <time>2022-08-31T14:15:21.273Z</time>
      </trkpt>
      <trkpt lat="48.37227" lon="2.71169">
        <ele>170</ele>
        <time>2022-08-31T14:15:25.265Z</time>
      </trkpt>
      <trkpt lat="48.37228" lon="2.7115">
        <ele>170</ele>
        <time>2022-08-31T14:15:29.279Z</time>
      </trkpt>
      <trkpt lat="48.37229" lon="2.71131">
        <ele>170</ele>
        <time>2022-08-31T14:15:33.279Z</time>
      </trkpt>
      <trkpt lat="48.37231" lon="2.71112">
        <ele>171</ele>
        <time>2022-08-31T14:15:37.282Z</time>
      </trkpt>
      <trkpt lat="48.37232" lon="2.71094">
        <ele>171</ele>
        <time>2022-08-31T14:15:41.282Z</time>
      </trkpt>
      <trkpt lat="48.37233" lon="2.71076">
        <ele>171</ele>
        <time>2022-08-31T14:15:45.288Z</time>
      </trkpt>
      <trkpt lat="48.37234" lon="2.71061">
        <ele>172</ele>
        <time>2022-08-31T14:15:49.282Z</time>
      </trkpt>
      <trkpt lat="48.37235" lon="2.71044">
        <ele>172</ele>
        <time>2022-08-31T14:15:53.273Z</time>
      </trkpt>
      <trkpt lat="48.37238" lon="2.71031">
        <ele>173</ele>
        <time>2022-08-31T14:15:56.284Z</time>
      </trkpt>
      <trkpt lat="48.37239" lon="2.71013">
        <ele>173</ele>
        <time>2022-08-31T14:16:00.278Z</time>
      </trkpt>
      <trkpt lat="48.3724" lon="2.70996">
        <ele>174</ele>
        <time>2022-08-31T14:16:04.278Z</time>
      </trkpt>
      <trkpt lat="48.3724" lon="2.7098">
        <ele>174</ele>
        <time>2022-08-31T14:16:08.287Z</time>
      </trkpt>
      <trkpt lat="48.37242" lon="2.70975">
        <ele>174</ele>
        <time>2022-08-31T14:16:13.280Z</time>
      </trkpt>
      <trkpt lat="48.37246" lon="2.70973">
        <ele>174</ele>
        <time>2022-08-31T14:16:20.278Z</time>
      </trkpt>
      <trkpt lat="48.37256" lon="2.70969">
        <ele>174</ele>
        <time>2022-08-31T14:16:32.291Z</time>
      </trkpt>
      <trkpt lat="48.37268" lon="2.70971">
        <ele>174</ele>
        <time>2022-08-31T14:16:36.299Z</time>
      </trkpt>
      <trkpt lat="48.3728" lon="2.70971">
        <ele>173</ele>
        <time>2022-08-31T14:16:40.281Z</time>
      </trkpt>
      <trkpt lat="48.37291" lon="2.7097">
        <ele>173</ele>
        <time>2022-08-31T14:16:43.291Z</time>
      </trkpt>
      <trkpt lat="48.37303" lon="2.7097">
        <ele>173</ele>
        <time>2022-08-31T14:16:46.275Z</time>
      </trkpt>
      <trkpt lat="48.37318" lon="2.70971">
        <ele>173</ele>
        <time>2022-08-31T14:16:50.281Z</time>
      </trkpt>
      <trkpt lat="48.37334" lon="2.70972">
        <ele>173</ele>
        <time>2022-08-31T14:16:54.289Z</time>
      </trkpt>
      <trkpt lat="48.37349" lon="2.70972">
        <ele>173</ele>
        <time>2022-08-31T14:16:57.279Z</time>
      </trkpt>
      <trkpt lat="48.37366" lon="2.70973">
        <ele>173</ele>
        <time>2022-08-31T14:17:01.276Z</time>
      </trkpt>
      <trkpt lat="48.37385" lon="2.7097">
        <ele>173</ele>
        <time>2022-08-31T14:17:07.277Z</time>
      </trkpt>
      <trkpt lat="48.37398" lon="2.7097">
        <ele>174</ele>
        <time>2022-08-31T14:17:11.279Z</time>
      </trkpt>
      <trkpt lat="48.37409" lon="2.70972">
        <ele>175</ele>
        <time>2022-08-31T14:17:15.277Z</time>
      </trkpt>
      <trkpt lat="48.37412" lon="2.70974">
        <ele>175</ele>
        <time>2022-08-31T14:17:19.279Z</time>
      </trkpt>
      <trkpt lat="48.37416" lon="2.70968">
        <ele>176</ele>
        <time>2022-08-31T14:17:23.284Z</time>
      </trkpt>
      <trkpt lat="48.37419" lon="2.70953">
        <ele>176</ele>
        <time>2022-08-31T14:17:27.280Z</time>
      </trkpt>
      <trkpt lat="48.37422" lon="2.70936">
        <ele>177</ele>
        <time>2022-08-31T14:17:31.276Z</time>
      </trkpt>
      <trkpt lat="48.37425" lon="2.70922">
        <ele>177</ele>
        <time>2022-08-31T14:17:34.276Z</time>
      </trkpt>
      <trkpt lat="48.37427" lon="2.70906">
        <ele>177</ele>
        <time>2022-08-31T14:17:37.273Z</time>
      </trkpt>
      <trkpt lat="48.37428" lon="2.70888">
        <ele>177</ele>
        <time>2022-08-31T14:17:40.277Z</time>
      </trkpt>
      <trkpt lat="48.3743" lon="2.70864">
        <ele>177</ele>
        <time>2022-08-31T14:17:44.284Z</time>
      </trkpt>
      <trkpt lat="48.37434" lon="2.70839">
        <ele>177</ele>
        <time>2022-08-31T14:17:49.278Z</time>
      </trkpt>
      <trkpt lat="48.37437" lon="2.70818">
        <ele>177</ele>
        <time>2022-08-31T14:17:53.272Z</time>
      </trkpt>
      <trkpt lat="48.37439" lon="2.70794">
        <ele>177</ele>
        <time>2022-08-31T14:17:58.273Z</time>
      </trkpt>
      <trkpt lat="48.3744" lon="2.70777">
        <ele>176</ele>
        <time>2022-08-31T14:18:03.284Z</time>
      </trkpt>
      <trkpt lat="48.37441" lon="2.70763">
        <ele>176</ele>
        <time>2022-08-31T14:18:08.273Z</time>
      </trkpt>
      <trkpt lat="48.37442" lon="2.70749">
        <ele>176</ele>
        <time>2022-08-31T14:18:13.286Z</time>
      </trkpt>
      <trkpt lat="48.37444" lon="2.70733">
        <ele>175</ele>
        <time>2022-08-31T14:18:18.287Z</time>
      </trkpt>
      <trkpt lat="48.37445" lon="2.70718">
        <ele>175</ele>
        <time>2022-08-31T14:18:22.284Z</time>
      </trkpt>
      <trkpt lat="48.37447" lon="2.70704">
        <ele>175</ele>
        <time>2022-08-31T14:18:25.274Z</time>
      </trkpt>
      <trkpt lat="48.37449" lon="2.70691">
        <ele>174</ele>
        <time>2022-08-31T14:18:28.282Z</time>
      </trkpt>
      <trkpt lat="48.37454" lon="2.70677">
        <ele>174</ele>
        <time>2022-08-31T14:18:32.279Z</time>
      </trkpt>
      <trkpt lat="48.37464" lon="2.70675">
        <ele>174</ele>
        <time>2022-08-31T14:18:37.278Z</time>
      </trkpt>
      <trkpt lat="48.37474" lon="2.70681">
        <ele>173</ele>
        <time>2022-08-31T14:18:43.275Z</time>
      </trkpt>
      <trkpt lat="48.37484" lon="2.70682">
        <ele>173</ele>
        <time>2022-08-31T14:18:48.279Z</time>
      </trkpt>
      <trkpt lat="48.37494" lon="2.70679">
        <ele>173</ele>
        <time>2022-08-31T14:18:53.281Z</time>
      </trkpt>
      <trkpt lat="48.37497" lon="2.7068">
        <ele>173</ele>
        <time>2022-08-31T14:18:58.283Z</time>
      </trkpt>
      <trkpt lat="48.37503" lon="2.70674">
        <ele>173</ele>
        <time>2022-08-31T14:19:12.279Z</time>
      </trkpt>
      <trkpt lat="48.37511" lon="2.70667">
        <ele>173</ele>
        <time>2022-08-31T14:19:16.278Z</time>
      </trkpt>
      <trkpt lat="48.3752" lon="2.70659">
        <ele>173</ele>
        <time>2022-08-31T14:19:20.277Z</time>
      </trkpt>
      <trkpt lat="48.37529" lon="2.70651">
        <ele>173</ele>
        <time>2022-08-31T14:19:24.277Z</time>
      </trkpt>
      <trkpt lat="48.37538" lon="2.70646">
        <ele>173</ele>
        <time>2022-08-31T14:19:28.277Z</time>
      </trkpt>
      <trkpt lat="48.37547" lon="2.70645">
        <ele>173</ele>
        <time>2022-08-31T14:19:32.282Z</time>
      </trkpt>
      <trkpt lat="48.37557" lon="2.70645">
        <ele>174</ele>
        <time>2022-08-31T14:19:35.280Z</time>
      </trkpt>
      <trkpt lat="48.37567" lon="2.70643">
        <ele>174</ele>
        <time>2022-08-31T14:19:38.279Z</time>
      </trkpt>
      <trkpt lat="48.37579" lon="2.70641">
        <ele>174</ele>
        <time>2022-08-31T14:19:42.285Z</time>
      </trkpt>
      <trkpt lat="48.3759" lon="2.7064">
        <ele>174</ele>
        <time>2022-08-31T14:19:47.283Z</time>
      </trkpt>
      <trkpt lat="48.37591" lon="2.70643">
        <ele>174</ele>
        <time>2022-08-31T14:19:51.271Z</time>
      </trkpt>
      <trkpt lat="48.37595" lon="2.70644">
        <ele>173</ele>
        <time>2022-08-31T14:20:06.285Z</time>
      </trkpt>
      <trkpt lat="48.37606" lon="2.70638">
        <ele>172</ele>
        <time>2022-08-31T14:20:11.277Z</time>
      </trkpt>
      <trkpt lat="48.37614" lon="2.70635">
        <ele>172</ele>
        <time>2022-08-31T14:20:14.275Z</time>
      </trkpt>
      <trkpt lat="48.37625" lon="2.70629">
        <ele>171</ele>
        <time>2022-08-31T14:20:18.285Z</time>
      </trkpt>
      <trkpt lat="48.37636" lon="2.70624">
        <ele>171</ele>
        <time>2022-08-31T14:20:22.272Z</time>
      </trkpt>
      <trkpt lat="48.37646" lon="2.70621">
        <ele>170</ele>
        <time>2022-08-31T14:20:27.272Z</time>
      </trkpt>
      <trkpt lat="48.37645" lon="2.70612">
        <ele>169</ele>
        <time>2022-08-31T14:20:38.279Z</time>
      </trkpt>
      <trkpt lat="48.37647" lon="2.70617">
        <ele>174</ele>
        <time>2022-08-31T14:21:51.285Z</time>
      </trkpt>
      <trkpt lat="48.37658" lon="2.70617">
        <ele>174</ele>
        <time>2022-08-31T14:22:00.286Z</time>
      </trkpt>
      <trkpt lat="48.37665" lon="2.70625">
        <ele>174</ele>
        <time>2022-08-31T14:22:04.277Z</time>
      </trkpt>
      <trkpt lat="48.37673" lon="2.70635">
        <ele>174</ele>
        <time>2022-08-31T14:22:09.281Z</time>
      </trkpt>
      <trkpt lat="48.37681" lon="2.70643">
        <ele>174</ele>
        <time>2022-08-31T14:22:13.293Z</time>
      </trkpt>
      <trkpt lat="48.37689" lon="2.70651">
        <ele>174</ele>
        <time>2022-08-31T14:22:17.282Z</time>
      </trkpt>
      <trkpt lat="48.37696" lon="2.70662">
        <ele>173</ele>
        <time>2022-08-31T14:22:23.286Z</time>
      </trkpt>
      <trkpt lat="48.37703" lon="2.70672">
        <ele>173</ele>
        <time>2022-08-31T14:22:27.271Z</time>
      </trkpt>
      <trkpt lat="48.3771" lon="2.70679">
        <ele>173</ele>
        <time>2022-08-31T14:22:30.287Z</time>
      </trkpt>
      <trkpt lat="48.3772" lon="2.70688">
        <ele>173</ele>
        <time>2022-08-31T14:22:33.285Z</time>
      </trkpt>
      <trkpt lat="48.37729" lon="2.70697">
        <ele>173</ele>
        <time>2022-08-31T14:22:36.274Z</time>
      </trkpt>
      <trkpt lat="48.37741" lon="2.70708">
        <ele>173</ele>
        <time>2022-08-31T14:22:40.288Z</time>
      </trkpt>
      <trkpt lat="48.37756" lon="2.70719">
        <ele>173</ele>
        <time>2022-08-31T14:22:44.275Z</time>
      </trkpt>
      <trkpt lat="48.37769" lon="2.70731">
        <ele>173</ele>
        <time>2022-08-31T14:22:48.277Z</time>
      </trkpt>
      <trkpt lat="48.37781" lon="2.70745">
        <ele>173</ele>
        <time>2022-08-31T14:22:54.274Z</time>
      </trkpt>
      <trkpt lat="48.37789" lon="2.70754">
        <ele>173</ele>
        <time>2022-08-31T14:22:58.285Z</time>
      </trkpt>
      <trkpt lat="48.37797" lon="2.70763">
        <ele>174</ele>
        <time>2022-08-31T14:23:01.274Z</time>
      </trkpt>
      <trkpt lat="48.37807" lon="2.70774">
        <ele>174</ele>
        <time>2022-08-31T14:23:04.290Z</time>
      </trkpt>
      <trkpt lat="48.3782" lon="2.70786">
        <ele>174</ele>
        <time>2022-08-31T14:23:08.286Z</time>
      </trkpt>
      <trkpt lat="48.37834" lon="2.70796">
        <ele>174</ele>
        <time>2022-08-31T14:23:12.289Z</time>
      </trkpt>
      <trkpt lat="48.37848" lon="2.70809">
        <ele>175</ele>
        <time>2022-08-31T14:23:16.284Z</time>
      </trkpt>
      <trkpt lat="48.37863" lon="2.70825">
        <ele>175</ele>
        <time>2022-08-31T14:23:20.281Z</time>
      </trkpt>
      <trkpt lat="48.37878" lon="2.70841">
        <ele>176</ele>
        <time>2022-08-31T14:23:24.278Z</time>
      </trkpt>
      <trkpt lat="48.37894" lon="2.70857">
        <ele>176</ele>
        <time>2022-08-31T14:23:28.281Z</time>
      </trkpt>
      <trkpt lat="48.3791" lon="2.70873">
        <ele>176</ele>
        <time>2022-08-31T14:23:33.281Z</time>
      </trkpt>
      <trkpt lat="48.37927" lon="2.70891">
        <ele>176</ele>
        <time>2022-08-31T14:23:38.276Z</time>
      </trkpt>
      <trkpt lat="48.37942" lon="2.70905">
        <ele>176</ele>
        <time>2022-08-31T14:23:42.279Z</time>
      </trkpt>
      <trkpt lat="48.37959" lon="2.70921">
        <ele>176</ele>
        <time>2022-08-31T14:23:46.277Z</time>
      </trkpt>
      <trkpt lat="48.37974" lon="2.70939">
        <ele>176</ele>
        <time>2022-08-31T14:23:50.274Z</time>
      </trkpt>
      <trkpt lat="48.37993" lon="2.70961">
        <ele>176</ele>
        <time>2022-08-31T14:23:55.279Z</time>
      </trkpt>
      <trkpt lat="48.3801" lon="2.70982">
        <ele>176</ele>
        <time>2022-08-31T14:23:59.273Z</time>
      </trkpt>
      <trkpt lat="48.38028" lon="2.71003">
        <ele>176</ele>
        <time>2022-08-31T14:24:03.280Z</time>
      </trkpt>
      <trkpt lat="48.38047" lon="2.71024">
        <ele>176</ele>
        <time>2022-08-31T14:24:08.280Z</time>
      </trkpt>
      <trkpt lat="48.38067" lon="2.71046">
        <ele>176</ele>
        <time>2022-08-31T14:24:13.278Z</time>
      </trkpt>
      <trkpt lat="48.38083" lon="2.71066">
        <ele>175</ele>
        <time>2022-08-31T14:24:17.274Z</time>
      </trkpt>
      <trkpt lat="48.38101" lon="2.71083">
        <ele>175</ele>
        <time>2022-08-31T14:24:21.275Z</time>
      </trkpt>
      <trkpt lat="48.38116" lon="2.71109">
        <ele>174</ele>
        <time>2022-08-31T14:24:26.281Z</time>
      </trkpt>
      <trkpt lat="48.3813" lon="2.71129">
        <ele>174</ele>
        <time>2022-08-31T14:24:32.281Z</time>
      </trkpt>
      <trkpt lat="48.38139" lon="2.71143">
        <ele>173</ele>
        <time>2022-08-31T14:24:37.277Z</time>
      </trkpt>
      <trkpt lat="48.38146" lon="2.71157">
        <ele>172</ele>
        <time>2022-08-31T14:24:41.281Z</time>
      </trkpt>
      <trkpt lat="48.38152" lon="2.71172">
        <ele>171</ele>
        <time>2022-08-31T14:24:45.279Z</time>
      </trkpt>
      <trkpt lat="48.3816" lon="2.71185">
        <ele>170</ele>
        <time>2022-08-31T14:24:49.277Z</time>
      </trkpt>
      <trkpt lat="48.38167" lon="2.71198">
        <ele>169</ele>
        <time>2022-08-31T14:24:53.272Z</time>
      </trkpt>
      <trkpt lat="48.38175" lon="2.71214">
        <ele>168</ele>
        <time>2022-08-31T14:24:57.285Z</time>
      </trkpt>
      <trkpt lat="48.38181" lon="2.71233">
        <ele>167</ele>
        <time>2022-08-31T14:25:01.275Z</time>
      </trkpt>
      <trkpt lat="48.38188" lon="2.71251">
        <ele>166</ele>
        <time>2022-08-31T14:25:06.274Z</time>
      </trkpt>
      <trkpt lat="48.38195" lon="2.71268">
        <ele>164</ele>
        <time>2022-08-31T14:25:10.289Z</time>
      </trkpt>
      <trkpt lat="48.38201" lon="2.71284">
        <ele>163</ele>
        <time>2022-08-31T14:25:14.282Z</time>
      </trkpt>
      <trkpt lat="48.38204" lon="2.71299">
        <ele>161</ele>
        <time>2022-08-31T14:25:20.282Z</time>
      </trkpt>
      <trkpt lat="48.38208" lon="2.71313">
        <ele>158</ele>
        <time>2022-08-31T14:25:33.280Z</time>
      </trkpt>
      <trkpt lat="48.38213" lon="2.71326">
        <ele>156</ele>
        <time>2022-08-31T14:25:41.272Z</time>
      </trkpt>
      <trkpt lat="48.38221" lon="2.71336">
        <ele>155</ele>
        <time>2022-08-31T14:25:51.280Z</time>
      </trkpt>
      <trkpt lat="48.38226" lon="2.71348">
        <ele>154</ele>
        <time>2022-08-31T14:25:59.284Z</time>
      </trkpt>
      <trkpt lat="48.38234" lon="2.71359">
        <ele>154</ele>
        <time>2022-08-31T14:26:07.270Z</time>
      </trkpt>
      <trkpt lat="48.38241" lon="2.71368">
        <ele>154</ele>
        <time>2022-08-31T14:26:16.275Z</time>
      </trkpt>
      <trkpt lat="48.38244" lon="2.71374">
        <ele>154</ele>
        <time>2022-08-31T14:26:23.277Z</time>
      </trkpt>
      <trkpt lat="48.38247" lon="2.71371">
        <ele>156</ele>
        <time>2022-08-31T14:26:40.276Z</time>
      </trkpt>
      <trkpt lat="48.38255" lon="2.71363">
        <ele>157</ele>
        <time>2022-08-31T14:26:49.280Z</time>
      </trkpt>
      <trkpt lat="48.38262" lon="2.71353">
        <ele>159</ele>
        <time>2022-08-31T14:27:01.275Z</time>
      </trkpt>
      <trkpt lat="48.38259" lon="2.71339">
        <ele>162</ele>
        <time>2022-08-31T14:27:21.276Z</time>
      </trkpt>
      <trkpt lat="48.38255" lon="2.71325">
        <ele>163</ele>
        <time>2022-08-31T14:27:29.279Z</time>
      </trkpt>
      <trkpt lat="48.38256" lon="2.71311">
        <ele>163</ele>
        <time>2022-08-31T14:27:35.278Z</time>
      </trkpt>
      <trkpt lat="48.38259" lon="2.71297">
        <ele>164</ele>
        <time>2022-08-31T14:27:42.276Z</time>
      </trkpt>
      <trkpt lat="48.38266" lon="2.71288">
        <ele>164</ele>
        <time>2022-08-31T14:27:52.278Z</time>
      </trkpt>
      <trkpt lat="48.38267" lon="2.71273">
        <ele>164</ele>
        <time>2022-08-31T14:28:01.280Z</time>
      </trkpt>
      <trkpt lat="48.3827" lon="2.7126">
        <ele>165</ele>
        <time>2022-08-31T14:28:14.280Z</time>
      </trkpt>
      <trkpt lat="48.38276" lon="2.71248">
        <ele>167</ele>
        <time>2022-08-31T14:28:35.280Z</time>
      </trkpt>
      <trkpt lat="48.38276" lon="2.71244">
        <ele>169</ele>
        <time>2022-08-31T14:28:44.279Z</time>
      </trkpt>
      <trkpt lat="48.38279" lon="2.7124">
        <ele>170</ele>
        <time>2022-08-31T14:28:53.269Z</time>
      </trkpt>
      <trkpt lat="48.38287" lon="2.71248">
        <ele>173</ele>
        <time>2022-08-31T14:29:06.280Z</time>
      </trkpt>
      <trkpt lat="48.38292" lon="2.71251">
        <ele>174</ele>
        <time>2022-08-31T14:29:14.277Z</time>
      </trkpt>
      <trkpt lat="48.38291" lon="2.71244">
        <ele>172</ele>
        <time>2022-08-31T14:29:53.270Z</time>
      </trkpt>
      <trkpt lat="48.38292" lon="2.71233">
        <ele>172</ele>
        <time>2022-08-31T14:30:04.281Z</time>
      </trkpt>
      <trkpt lat="48.38289" lon="2.71228">
        <ele>172</ele>
        <time>2022-08-31T14:30:09.276Z</time>
      </trkpt>
      <trkpt lat="48.38292" lon="2.71215">
        <ele>173</ele>
        <time>2022-08-31T14:30:17.271Z</time>
      </trkpt>
      <trkpt lat="48.38301" lon="2.71214">
        <ele>173</ele>
        <time>2022-08-31T14:30:28.273Z</time>
      </trkpt>
      <trkpt lat="48.38307" lon="2.71224">
        <ele>174</ele>
        <time>2022-08-31T14:30:46.282Z</time>
      </trkpt>
      <trkpt lat="48.38316" lon="2.71221">
        <ele>174</ele>
        <time>2022-08-31T14:30:54.269Z</time>
      </trkpt>
      <trkpt lat="48.38324" lon="2.7123">
        <ele>172</ele>
        <time>2022-08-31T14:31:14.277Z</time>
      </trkpt>
      <trkpt lat="48.38329" lon="2.71241">
        <ele>170</ele>
        <time>2022-08-31T14:31:25.277Z</time>
      </trkpt>
      <trkpt lat="48.38337" lon="2.71251">
        <ele>168</ele>
        <time>2022-08-31T14:31:31.278Z</time>
      </trkpt>
      <trkpt lat="48.38344" lon="2.71261">
        <ele>166</ele>
        <time>2022-08-31T14:31:37.280Z</time>
      </trkpt>
      <trkpt lat="48.38351" lon="2.71272">
        <ele>164</ele>
        <time>2022-08-31T14:31:46.281Z</time>
      </trkpt>
      <trkpt lat="48.38357" lon="2.71283">
        <ele>158</ele>
        <time>2022-08-31T14:32:06.270Z</time>
      </trkpt>
      <trkpt lat="48.38357" lon="2.71297">
        <ele>155</ele>
        <time>2022-08-31T14:32:18.273Z</time>
      </trkpt>
      <trkpt lat="48.38351" lon="2.71309">
        <ele>151</ele>
        <time>2022-08-31T14:32:30.282Z</time>
      </trkpt>
      <trkpt lat="48.38342" lon="2.71313">
        <ele>150</ele>
        <time>2022-08-31T14:32:36.269Z</time>
      </trkpt>
      <trkpt lat="48.38334" lon="2.71319">
        <ele>148</ele>
        <time>2022-08-31T14:32:46.281Z</time>
      </trkpt>
      <trkpt lat="48.38324" lon="2.71324">
        <ele>147</ele>
        <time>2022-08-31T14:32:56.280Z</time>
      </trkpt>
      <trkpt lat="48.38317" lon="2.71333">
        <ele>147</ele>
        <time>2022-08-31T14:33:05.273Z</time>
      </trkpt>
      <trkpt lat="48.38327" lon="2.71337">
        <ele>149</ele>
        <time>2022-08-31T14:33:22.275Z</time>
      </trkpt>
      <trkpt lat="48.38334" lon="2.71344">
        <ele>149</ele>
        <time>2022-08-31T14:33:31.277Z</time>
      </trkpt>
      <trkpt lat="48.38337" lon="2.71351">
        <ele>150</ele>
        <time>2022-08-31T14:33:38.281Z</time>
      </trkpt>
      <trkpt lat="48.38343" lon="2.71361">
        <ele>150</ele>
        <time>2022-08-31T14:33:42.274Z</time>
      </trkpt>
      <trkpt lat="48.38352" lon="2.71369">
        <ele>150</ele>
        <time>2022-08-31T14:33:46.290Z</time>
      </trkpt>
      <trkpt lat="48.38361" lon="2.71375">
        <ele>150</ele>
        <time>2022-08-31T14:33:49.284Z</time>
      </trkpt>
      <trkpt lat="48.38371" lon="2.71383">
        <ele>150</ele>
        <time>2022-08-31T14:33:52.279Z</time>
      </trkpt>
      <trkpt lat="48.38381" lon="2.71393">
        <ele>149</ele>
        <time>2022-08-31T14:33:56.290Z</time>
      </trkpt>
      <trkpt lat="48.38393" lon="2.71399">
        <ele>149</ele>
        <time>2022-08-31T14:34:01.277Z</time>
      </trkpt>
      <trkpt lat="48.38405" lon="2.71401">
        <ele>148</ele>
        <time>2022-08-31T14:34:05.295Z</time>
      </trkpt>
      <trkpt lat="48.38416" lon="2.71403">
        <ele>147</ele>
        <time>2022-08-31T14:34:09.279Z</time>
      </trkpt>
      <trkpt lat="48.38425" lon="2.71404">
        <ele>146</ele>
        <time>2022-08-31T14:34:13.279Z</time>
      </trkpt>
      <trkpt lat="48.38436" lon="2.71406">
        <ele>145</ele>
        <time>2022-08-31T14:34:17.278Z</time>
      </trkpt>
      <trkpt lat="48.38445" lon="2.71407">
        <ele>144</ele>
        <time>2022-08-31T14:34:20.286Z</time>
      </trkpt>
      <trkpt lat="48.38456" lon="2.71408">
        <ele>143</ele>
        <time>2022-08-31T14:34:23.273Z</time>
      </trkpt>
      <trkpt lat="48.38468" lon="2.71405">
        <ele>142</ele>
        <time>2022-08-31T14:34:27.279Z</time>
      </trkpt>
      <trkpt lat="48.38483" lon="2.71404">
        <ele>142</ele>
        <time>2022-08-31T14:34:31.276Z</time>
      </trkpt>
      <trkpt lat="48.38496" lon="2.71402">
        <ele>141</ele>
        <time>2022-08-31T14:34:35.285Z</time>
      </trkpt>
      <trkpt lat="48.38511" lon="2.71401">
        <ele>140</ele>
        <time>2022-08-31T14:34:40.271Z</time>
      </trkpt>
      <trkpt lat="48.38524" lon="2.71402">
        <ele>139</ele>
        <time>2022-08-31T14:34:44.276Z</time>
      </trkpt>
      <trkpt lat="48.38536" lon="2.714">
        <ele>139</ele>
        <time>2022-08-31T14:34:48.279Z</time>
      </trkpt>
      <trkpt lat="48.38548" lon="2.71397">
        <ele>139</ele>
        <time>2022-08-31T14:34:52.274Z</time>
      </trkpt>
      <trkpt lat="48.3856" lon="2.71397">
        <ele>139</ele>
        <time>2022-08-31T14:34:56.275Z</time>
      </trkpt>
      <trkpt lat="48.38573" lon="2.71397">
        <ele>139</ele>
        <time>2022-08-31T14:35:00.275Z</time>
      </trkpt>
      <trkpt lat="48.38584" lon="2.71398">
        <ele>140</ele>
        <time>2022-08-31T14:35:04.285Z</time>
      </trkpt>
      <trkpt lat="48.38596" lon="2.71398">
        <ele>140</ele>
        <time>2022-08-31T14:35:07.288Z</time>
      </trkpt>
      <trkpt lat="48.38608" lon="2.71398">
        <ele>140</ele>
        <time>2022-08-31T14:35:11.278Z</time>
      </trkpt>
      <trkpt lat="48.3862" lon="2.71398">
        <ele>140</ele>
        <time>2022-08-31T14:35:16.272Z</time>
      </trkpt>
      <trkpt lat="48.38631" lon="2.71397">
        <ele>141</ele>
        <time>2022-08-31T14:35:20.281Z</time>
      </trkpt>
      <trkpt lat="48.3864" lon="2.71395">
        <ele>141</ele>
        <time>2022-08-31T14:35:24.277Z</time>
      </trkpt>
      <trkpt lat="48.3865" lon="2.71395">
        <ele>141</ele>
        <time>2022-08-31T14:35:27.277Z</time>
      </trkpt>
      <trkpt lat="48.38662" lon="2.71396">
        <ele>141</ele>
        <time>2022-08-31T14:35:31.274Z</time>
      </trkpt>
      <trkpt lat="48.38673" lon="2.71395">
        <ele>141</ele>
        <time>2022-08-31T14:35:35.279Z</time>
      </trkpt>
      <trkpt lat="48.38683" lon="2.71393">
        <ele>141</ele>
        <time>2022-08-31T14:35:39.278Z</time>
      </trkpt>
      <trkpt lat="48.38693" lon="2.71392">
        <ele>140</ele>
        <time>2022-08-31T14:35:42.286Z</time>
      </trkpt>
      <trkpt lat="48.38703" lon="2.71391">
        <ele>140</ele>
        <time>2022-08-31T14:35:46.281Z</time>
      </trkpt>
      <trkpt lat="48.38714" lon="2.7139">
        <ele>140</ele>
        <time>2022-08-31T14:35:50.282Z</time>
      </trkpt>
      <trkpt lat="48.38726" lon="2.71388">
        <ele>140</ele>
        <time>2022-08-31T14:35:54.276Z</time>
      </trkpt>
      <trkpt lat="48.38735" lon="2.71388">
        <ele>140</ele>
        <time>2022-08-31T14:35:57.278Z</time>
      </trkpt>
      <trkpt lat="48.38747" lon="2.71388">
        <ele>139</ele>
        <time>2022-08-31T14:36:01.288Z</time>
      </trkpt>
      <trkpt lat="48.38761" lon="2.71387">
        <ele>139</ele>
        <time>2022-08-31T14:36:05.281Z</time>
      </trkpt>
      <trkpt lat="48.38777" lon="2.71386">
        <ele>138</ele>
        <time>2022-08-31T14:36:09.271Z</time>
      </trkpt>
      <trkpt lat="48.38792" lon="2.71386">
        <ele>138</ele>
        <time>2022-08-31T14:36:13.301Z</time>
      </trkpt>
      <trkpt lat="48.38809" lon="2.71383">
        <ele>136</ele>
        <time>2022-08-31T14:36:19.276Z</time>
      </trkpt>
      <trkpt lat="48.38821" lon="2.71383">
        <ele>135</ele>
        <time>2022-08-31T14:36:23.284Z</time>
      </trkpt>
      <trkpt lat="48.38834" lon="2.71382">
        <ele>135</ele>
        <time>2022-08-31T14:36:27.277Z</time>
      </trkpt>
      <trkpt lat="48.38846" lon="2.7138">
        <ele>134</ele>
        <time>2022-08-31T14:36:31.282Z</time>
      </trkpt>
      <trkpt lat="48.38858" lon="2.71381">
        <ele>133</ele>
        <time>2022-08-31T14:36:36.273Z</time>
      </trkpt>
      <trkpt lat="48.38867" lon="2.71383">
        <ele>132</ele>
        <time>2022-08-31T14:36:40.284Z</time>
      </trkpt>
      <trkpt lat="48.38878" lon="2.7138">
        <ele>132</ele>
        <time>2022-08-31T14:36:45.273Z</time>
      </trkpt>
      <trkpt lat="48.38892" lon="2.7138">
        <ele>131</ele>
        <time>2022-08-31T14:36:50.280Z</time>
      </trkpt>
      <trkpt lat="48.38902" lon="2.71375">
        <ele>131</ele>
        <time>2022-08-31T14:36:54.279Z</time>
      </trkpt>
      <trkpt lat="48.38911" lon="2.71375">
        <ele>131</ele>
        <time>2022-08-31T14:36:58.274Z</time>
      </trkpt>
      <trkpt lat="48.38923" lon="2.71374">
        <ele>131</ele>
        <time>2022-08-31T14:37:02.276Z</time>
      </trkpt>
      <trkpt lat="48.38934" lon="2.71374">
        <ele>132</ele>
        <time>2022-08-31T14:37:05.278Z</time>
      </trkpt>
      <trkpt lat="48.38945" lon="2.71374">
        <ele>132</ele>
        <time>2022-08-31T14:37:08.281Z</time>
      </trkpt>
      <trkpt lat="48.38958" lon="2.71373">
        <ele>132</ele>
        <time>2022-08-31T14:37:12.279Z</time>
      </trkpt>
      <trkpt lat="48.38974" lon="2.7137">
        <ele>133</ele>
        <time>2022-08-31T14:37:17.281Z</time>
      </trkpt>
      <trkpt lat="48.38987" lon="2.71371">
        <ele>133</ele>
        <time>2022-08-31T14:37:21.280Z</time>
      </trkpt>
      <trkpt lat="48.39" lon="2.71372">
        <ele>134</ele>
        <time>2022-08-31T14:37:25.285Z</time>
      </trkpt>
      <trkpt lat="48.39012" lon="2.71371">
        <ele>134</ele>
        <time>2022-08-31T14:37:29.279Z</time>
      </trkpt>
      <trkpt lat="48.39023" lon="2.71368">
        <ele>134</ele>
        <time>2022-08-31T14:37:33.276Z</time>
      </trkpt>
      <trkpt lat="48.39033" lon="2.71366">
        <ele>134</ele>
        <time>2022-08-31T14:37:39.280Z</time>
      </trkpt>
      <trkpt lat="48.39042" lon="2.71364">
        <ele>134</ele>
        <time>2022-08-31T14:37:44.280Z</time>
      </trkpt>
      <trkpt lat="48.39054" lon="2.71364">
        <ele>134</ele>
        <time>2022-08-31T14:37:48.279Z</time>
      </trkpt>
      <trkpt lat="48.39063" lon="2.71363">
        <ele>134</ele>
        <time>2022-08-31T14:37:51.282Z</time>
      </trkpt>
      <trkpt lat="48.39077" lon="2.71362">
        <ele>134</ele>
        <time>2022-08-31T14:37:55.265Z</time>
      </trkpt>
      <trkpt lat="48.39088" lon="2.71361">
        <ele>134</ele>
        <time>2022-08-31T14:37:57.278Z</time>
      </trkpt>
      <trkpt lat="48.39105" lon="2.71361">
        <ele>134</ele>
        <time>2022-08-31T14:38:01.285Z</time>
      </trkpt>
      <trkpt lat="48.39122" lon="2.71361">
        <ele>133</ele>
        <time>2022-08-31T14:38:05.279Z</time>
      </trkpt>
      <trkpt lat="48.3914" lon="2.71357">
        <ele>132</ele>
        <time>2022-08-31T14:38:11.271Z</time>
      </trkpt>
      <trkpt lat="48.39156" lon="2.71353">
        <ele>132</ele>
        <time>2022-08-31T14:38:16.276Z</time>
      </trkpt>
      <trkpt lat="48.39162" lon="2.71351">
        <ele>132</ele>
        <time>2022-08-31T14:38:20.256Z</time>
      </trkpt>
      <trkpt lat="48.39168" lon="2.71351">
        <ele>136</ele>
        <time>2022-08-31T14:39:11.285Z</time>
      </trkpt>
      <trkpt lat="48.39178" lon="2.71355">
        <ele>136</ele>
        <time>2022-08-31T14:39:18.278Z</time>
      </trkpt>
      <trkpt lat="48.39188" lon="2.71353">
        <ele>135</ele>
        <time>2022-08-31T14:39:28.278Z</time>
      </trkpt>
      <trkpt lat="48.39199" lon="2.71349">
        <ele>135</ele>
        <time>2022-08-31T14:39:33.280Z</time>
      </trkpt>
      <trkpt lat="48.3921" lon="2.71345">
        <ele>135</ele>
        <time>2022-08-31T14:39:37.279Z</time>
      </trkpt>
      <trkpt lat="48.39218" lon="2.71339">
        <ele>136</ele>
        <time>2022-08-31T14:39:41.281Z</time>
      </trkpt>
      <trkpt lat="48.39228" lon="2.71333">
        <ele>136</ele>
        <time>2022-08-31T14:39:46.275Z</time>
      </trkpt>
      <trkpt lat="48.39238" lon="2.7133">
        <ele>137</ele>
        <time>2022-08-31T14:39:52.275Z</time>
      </trkpt>
      <trkpt lat="48.39247" lon="2.71323">
        <ele>138</ele>
        <time>2022-08-31T14:39:59.275Z</time>
      </trkpt>
      <trkpt lat="48.39257" lon="2.71324">
        <ele>141</ele>
        <time>2022-08-31T14:40:11.279Z</time>
      </trkpt>
      <trkpt lat="48.39266" lon="2.71318">
        <ele>144</ele>
        <time>2022-08-31T14:40:20.282Z</time>
      </trkpt>
      <trkpt lat="48.39276" lon="2.71318">
        <ele>146</ele>
        <time>2022-08-31T14:40:29.266Z</time>
      </trkpt>
      <trkpt lat="48.39286" lon="2.71321">
        <ele>149</ele>
        <time>2022-08-31T14:40:37.285Z</time>
      </trkpt>
      <trkpt lat="48.39294" lon="2.71325">
        <ele>150</ele>
        <time>2022-08-31T14:40:43.282Z</time>
      </trkpt>
      <trkpt lat="48.39304" lon="2.71325">
        <ele>152</ele>
        <time>2022-08-31T14:40:53.272Z</time>
      </trkpt>
      <trkpt lat="48.39313" lon="2.71332">
        <ele>154</ele>
        <time>2022-08-31T14:41:05.279Z</time>
      </trkpt>
      <trkpt lat="48.39321" lon="2.71342">
        <ele>154</ele>
        <time>2022-08-31T14:41:12.281Z</time>
      </trkpt>
      <trkpt lat="48.39326" lon="2.71351">
        <ele>152</ele>
        <time>2022-08-31T14:41:29.274Z</time>
      </trkpt>
      <trkpt lat="48.39326" lon="2.71358">
        <ele>151</ele>
        <time>2022-08-31T14:41:39.277Z</time>
      </trkpt>
      <trkpt lat="48.3933" lon="2.71375">
        <ele>151</ele>
        <time>2022-08-31T14:41:42.279Z</time>
      </trkpt>
      <trkpt lat="48.39333" lon="2.71393">
        <ele>150</ele>
        <time>2022-08-31T14:41:45.281Z</time>
      </trkpt>
      <trkpt lat="48.39336" lon="2.71407">
        <ele>150</ele>
        <time>2022-08-31T14:41:47.280Z</time>
      </trkpt>
      <trkpt lat="48.39342" lon="2.71426">
        <ele>150</ele>
        <time>2022-08-31T14:41:50.277Z</time>
      </trkpt>
      <trkpt lat="48.39342" lon="2.71451">
        <ele>149</ele>
        <time>2022-08-31T14:41:56.283Z</time>
      </trkpt>
      <trkpt lat="48.39333" lon="2.71462">
        <ele>149</ele>
        <time>2022-08-31T14:42:02.270Z</time>
      </trkpt>
      <trkpt lat="48.39328" lon="2.71477">
        <ele>148</ele>
        <time>2022-08-31T14:42:07.277Z</time>
      </trkpt>
      <trkpt lat="48.39325" lon="2.71492">
        <ele>147</ele>
        <time>2022-08-31T14:42:13.285Z</time>
      </trkpt>
      <trkpt lat="48.39324" lon="2.71508">
        <ele>146</ele>
        <time>2022-08-31T14:42:18.264Z</time>
      </trkpt>
      <trkpt lat="48.39323" lon="2.71522">
        <ele>146</ele>
        <time>2022-08-31T14:42:23.280Z</time>
      </trkpt>
      <trkpt lat="48.39322" lon="2.71532">
        <ele>145</ele>
        <time>2022-08-31T14:42:29.281Z</time>
      </trkpt>
      <trkpt lat="48.3932" lon="2.71539">
        <ele>146</ele>
        <time>2022-08-31T14:43:01.285Z</time>
      </trkpt>
      <trkpt lat="48.39321" lon="2.71539">
        <ele>147</ele>
        <time>2022-08-31T14:43:07.273Z</time>
      </trkpt>
      <trkpt lat="48.39324" lon="2.71543">
        <ele>148</ele>
        <time>2022-08-31T14:43:17.269Z</time>
      </trkpt>
      <trkpt lat="48.39329" lon="2.71555">
        <ele>148</ele>
        <time>2022-08-31T14:43:24.281Z</time>
      </trkpt>
      <trkpt lat="48.39332" lon="2.71565">
        <ele>150</ele>
        <time>2022-08-31T14:43:42.278Z</time>
      </trkpt>
      <trkpt lat="48.39335" lon="2.7157">
        <ele>150</ele>
        <time>2022-08-31T14:43:51.272Z</time>
      </trkpt>
      <trkpt lat="48.39342" lon="2.7158">
        <ele>150</ele>
        <time>2022-08-31T14:44:00.273Z</time>
      </trkpt>
      <trkpt lat="48.39348" lon="2.71591">
        <ele>151</ele>
        <time>2022-08-31T14:44:12.274Z</time>
      </trkpt>
      <trkpt lat="48.39345" lon="2.71604">
        <ele>150</ele>
        <time>2022-08-31T14:44:21.260Z</time>
      </trkpt>
      <trkpt lat="48.39346" lon="2.7162">
        <ele>150</ele>
        <time>2022-08-31T14:44:31.271Z</time>
      </trkpt>
      <trkpt lat="48.39349" lon="2.71634">
        <ele>150</ele>
        <time>2022-08-31T14:44:39.281Z</time>
      </trkpt>
      <trkpt lat="48.39351" lon="2.71648">
        <ele>149</ele>
        <time>2022-08-31T14:44:47.266Z</time>
      </trkpt>
      <trkpt lat="48.39347" lon="2.71663">
        <ele>148</ele>
        <time>2022-08-31T14:45:01.283Z</time>
      </trkpt>
      <trkpt lat="48.39343" lon="2.71675">
        <ele>148</ele>
        <time>2022-08-31T14:45:06.276Z</time>
      </trkpt>
      <trkpt lat="48.39336" lon="2.71686">
        <ele>148</ele>
        <time>2022-08-31T14:45:13.277Z</time>
      </trkpt>
      <trkpt lat="48.39331" lon="2.71695">
        <ele>148</ele>
        <time>2022-08-31T14:45:22.278Z</time>
      </trkpt>
      <trkpt lat="48.39331" lon="2.71702">
        <ele>146</ele>
        <time>2022-08-31T14:46:00.264Z</time>
      </trkpt>
      <trkpt lat="48.3933" lon="2.71716">
        <ele>146</ele>
        <time>2022-08-31T14:46:06.271Z</time>
      </trkpt>
      <trkpt lat="48.39339" lon="2.7172">
        <ele>146</ele>
        <time>2022-08-31T14:46:12.262Z</time>
      </trkpt>
      <trkpt lat="48.39349" lon="2.71716">
        <ele>147</ele>
        <time>2022-08-31T14:46:17.262Z</time>
      </trkpt>
      <trkpt lat="48.39358" lon="2.71715">
        <ele>147</ele>
        <time>2022-08-31T14:46:27.277Z</time>
      </trkpt>
      <trkpt lat="48.3936" lon="2.7172">
        <ele>148</ele>
        <time>2022-08-31T14:46:34.263Z</time>
      </trkpt>
      <trkpt lat="48.39365" lon="2.71721">
        <ele>148</ele>
        <time>2022-08-31T14:46:41.264Z</time>
      </trkpt>
      <trkpt lat="48.39362" lon="2.71717">
        <ele>149</ele>
        <time>2022-08-31T14:46:51.273Z</time>
      </trkpt>
      <trkpt lat="48.39359" lon="2.71703">
        <ele>148</ele>
        <time>2022-08-31T14:47:09.273Z</time>
      </trkpt>
      <trkpt lat="48.39367" lon="2.71709">
        <ele>147</ele>
        <time>2022-08-31T14:47:23.269Z</time>
      </trkpt>
      <trkpt lat="48.39375" lon="2.71717">
        <ele>146</ele>
        <time>2022-08-31T14:47:34.275Z</time>
      </trkpt>
      <trkpt lat="48.39371" lon="2.7173">
        <ele>144</ele>
        <time>2022-08-31T14:47:55.274Z</time>
      </trkpt>
      <trkpt lat="48.39372" lon="2.71734">
        <ele>143</ele>
        <time>2022-08-31T14:48:00.248Z</time>
      </trkpt>
      <trkpt lat="48.39369" lon="2.71741">
        <ele>139</ele>
        <time>2022-08-31T14:48:28.279Z</time>
      </trkpt>
      <trkpt lat="48.39365" lon="2.71753">
        <ele>139</ele>
        <time>2022-08-31T14:48:36.272Z</time>
      </trkpt>
      <trkpt lat="48.39357" lon="2.71763">
        <ele>139</ele>
        <time>2022-08-31T14:48:44.275Z</time>
      </trkpt>
      <trkpt lat="48.39348" lon="2.7177">
        <ele>140</ele>
        <time>2022-08-31T14:48:52.291Z</time>
      </trkpt>
      <trkpt lat="48.39339" lon="2.71771">
        <ele>142</ele>
        <time>2022-08-31T14:49:01.277Z</time>
      </trkpt>
      <trkpt lat="48.39329" lon="2.71773">
        <ele>143</ele>
        <time>2022-08-31T14:49:10.291Z</time>
      </trkpt>
      <trkpt lat="48.39321" lon="2.7178">
        <ele>144</ele>
        <time>2022-08-31T14:49:17.279Z</time>
      </trkpt>
      <trkpt lat="48.39319" lon="2.71795">
        <ele>146</ele>
        <time>2022-08-31T14:49:26.275Z</time>
      </trkpt>
      <trkpt lat="48.39317" lon="2.71809">
        <ele>147</ele>
        <time>2022-08-31T14:49:35.265Z</time>
      </trkpt>
      <trkpt lat="48.39312" lon="2.71822">
        <ele>147</ele>
        <time>2022-08-31T14:49:44.272Z</time>
      </trkpt>
      <trkpt lat="48.39309" lon="2.71836">
        <ele>148</ele>
        <time>2022-08-31T14:49:52.271Z</time>
      </trkpt>
      <trkpt lat="48.39306" lon="2.71849">
        <ele>148</ele>
        <time>2022-08-31T14:50:01.285Z</time>
      </trkpt>
      <trkpt lat="48.393" lon="2.71861">
        <ele>149</ele>
        <time>2022-08-31T14:50:08.277Z</time>
      </trkpt>
      <trkpt lat="48.39294" lon="2.71872">
        <ele>149</ele>
        <time>2022-08-31T14:50:14.291Z</time>
      </trkpt>
      <trkpt lat="48.39292" lon="2.71886">
        <ele>150</ele>
        <time>2022-08-31T14:50:26.284Z</time>
      </trkpt>
      <trkpt lat="48.39296" lon="2.71898">
        <ele>151</ele>
        <time>2022-08-31T14:50:34.284Z</time>
      </trkpt>
      <trkpt lat="48.39302" lon="2.7191">
        <ele>151</ele>
        <time>2022-08-31T14:50:41.284Z</time>
      </trkpt>
      <trkpt lat="48.39305" lon="2.71924">
        <ele>151</ele>
        <time>2022-08-31T14:50:50.269Z</time>
      </trkpt>
      <trkpt lat="48.39311" lon="2.71936">
        <ele>152</ele>
        <time>2022-08-31T14:50:59.272Z</time>
      </trkpt>
      <trkpt lat="48.39315" lon="2.7195">
        <ele>152</ele>
        <time>2022-08-31T14:51:08.264Z</time>
      </trkpt>
      <trkpt lat="48.3932" lon="2.71962">
        <ele>153</ele>
        <time>2022-08-31T14:51:16.265Z</time>
      </trkpt>
      <trkpt lat="48.39318" lon="2.71976">
        <ele>154</ele>
        <time>2022-08-31T14:51:26.267Z</time>
      </trkpt>
      <trkpt lat="48.39318" lon="2.71985">
        <ele>156</ele>
        <time>2022-08-31T14:51:36.275Z</time>
      </trkpt>
      <trkpt lat="48.39313" lon="2.72">
        <ele>156</ele>
        <time>2022-08-31T14:51:40.273Z</time>
      </trkpt>
      <trkpt lat="48.39305" lon="2.72013">
        <ele>157</ele>
        <time>2022-08-31T14:51:43.273Z</time>
      </trkpt>
      <trkpt lat="48.39298" lon="2.72027">
        <ele>157</ele>
        <time>2022-08-31T14:51:46.268Z</time>
      </trkpt>
      <trkpt lat="48.39295" lon="2.72045">
        <ele>158</ele>
        <time>2022-08-31T14:51:51.265Z</time>
      </trkpt>
      <trkpt lat="48.39297" lon="2.72059">
        <ele>160</ele>
        <time>2022-08-31T14:51:58.283Z</time>
      </trkpt>
      <trkpt lat="48.39301" lon="2.72071">
        <ele>161</ele>
        <time>2022-08-31T14:52:06.264Z</time>
      </trkpt>
      <trkpt lat="48.39306" lon="2.72083">
        <ele>162</ele>
        <time>2022-08-31T14:52:17.273Z</time>
      </trkpt>
      <trkpt lat="48.39311" lon="2.72095">
        <ele>162</ele>
        <time>2022-08-31T14:52:25.269Z</time>
      </trkpt>
      <trkpt lat="48.39311" lon="2.72109">
        <ele>162</ele>
        <time>2022-08-31T14:52:34.272Z</time>
      </trkpt>
      <trkpt lat="48.39308" lon="2.72123">
        <ele>162</ele>
        <time>2022-08-31T14:52:37.273Z</time>
      </trkpt>
      <trkpt lat="48.39304" lon="2.72138">
        <ele>162</ele>
        <time>2022-08-31T14:52:40.272Z</time>
      </trkpt>
      <trkpt lat="48.39299" lon="2.72156">
        <ele>161</ele>
        <time>2022-08-31T14:52:43.267Z</time>
      </trkpt>
      <trkpt lat="48.39296" lon="2.72176">
        <ele>161</ele>
        <time>2022-08-31T14:52:46.272Z</time>
      </trkpt>
      <trkpt lat="48.3929" lon="2.72197">
        <ele>160</ele>
        <time>2022-08-31T14:52:50.272Z</time>
      </trkpt>
      <trkpt lat="48.39286" lon="2.72222">
        <ele>159</ele>
        <time>2022-08-31T14:52:55.256Z</time>
      </trkpt>
      <trkpt lat="48.39285" lon="2.72229">
        <ele>158</ele>
        <time>2022-08-31T14:53:00.269Z</time>
      </trkpt>
      <trkpt lat="48.39283" lon="2.72234">
        <ele>152</ele>
        <time>2022-08-31T14:53:56.271Z</time>
      </trkpt>
      <trkpt lat="48.39275" lon="2.72247">
        <ele>152</ele>
        <time>2022-08-31T14:54:00.261Z</time>
      </trkpt>
      <trkpt lat="48.39267" lon="2.72255">
        <ele>152</ele>
        <time>2022-08-31T14:54:03.259Z</time>
      </trkpt>
      <trkpt lat="48.39258" lon="2.72266">
        <ele>151</ele>
        <time>2022-08-31T14:54:06.272Z</time>
      </trkpt>
      <trkpt lat="48.39244" lon="2.72274">
        <ele>151</ele>
        <time>2022-08-31T14:54:10.274Z</time>
      </trkpt>
      <trkpt lat="48.39228" lon="2.72281">
        <ele>151</ele>
        <time>2022-08-31T14:54:14.274Z</time>
      </trkpt>
      <trkpt lat="48.3921" lon="2.72282">
        <ele>150</ele>
        <time>2022-08-31T14:54:19.270Z</time>
      </trkpt>
      <trkpt lat="48.39194" lon="2.72277">
        <ele>150</ele>
        <time>2022-08-31T14:54:23.281Z</time>
      </trkpt>
      <trkpt lat="48.39178" lon="2.72273">
        <ele>149</ele>
        <time>2022-08-31T14:54:27.274Z</time>
      </trkpt>
      <trkpt lat="48.39162" lon="2.72268">
        <ele>148</ele>
        <time>2022-08-31T14:54:31.269Z</time>
      </trkpt>
      <trkpt lat="48.39145" lon="2.72267">
        <ele>147</ele>
        <time>2022-08-31T14:54:35.273Z</time>
      </trkpt>
      <trkpt lat="48.39126" lon="2.72276">
        <ele>146</ele>
        <time>2022-08-31T14:54:40.272Z</time>
      </trkpt>
      <trkpt lat="48.39111" lon="2.72287">
        <ele>145</ele>
        <time>2022-08-31T14:54:44.273Z</time>
      </trkpt>
      <trkpt lat="48.39102" lon="2.72295">
        <ele>143</ele>
        <time>2022-08-31T14:54:51.259Z</time>
      </trkpt>
      <trkpt lat="48.39099" lon="2.72301">
        <ele>136</ele>
        <time>2022-08-31T14:55:10.265Z</time>
      </trkpt>
      <trkpt lat="48.39095" lon="2.72315">
        <ele>134</ele>
        <time>2022-08-31T14:55:15.273Z</time>
      </trkpt>
      <trkpt lat="48.39094" lon="2.72331">
        <ele>133</ele>
        <time>2022-08-31T14:55:19.278Z</time>
      </trkpt>
      <trkpt lat="48.39093" lon="2.72346">
        <ele>132</ele>
        <time>2022-08-31T14:55:22.274Z</time>
      </trkpt>
      <trkpt lat="48.39093" lon="2.7236">
        <ele>131</ele>
        <time>2022-08-31T14:55:25.283Z</time>
      </trkpt>
      <trkpt lat="48.39092" lon="2.72378">
        <ele>130</ele>
        <time>2022-08-31T14:55:28.262Z</time>
      </trkpt>
      <trkpt lat="48.39091" lon="2.72399">
        <ele>129</ele>
        <time>2022-08-31T14:55:32.280Z</time>
      </trkpt>
      <trkpt lat="48.3909" lon="2.72415">
        <ele>128</ele>
        <time>2022-08-31T14:55:39.282Z</time>
      </trkpt>
      <trkpt lat="48.39089" lon="2.72429">
        <ele>127</ele>
        <time>2022-08-31T14:55:49.272Z</time>
      </trkpt>
      <trkpt lat="48.39088" lon="2.72445">
        <ele>126</ele>
        <time>2022-08-31T14:56:02.268Z</time>
      </trkpt>
      <trkpt lat="48.39087" lon="2.72459">
        <ele>126</ele>
        <time>2022-08-31T14:56:06.281Z</time>
      </trkpt>
      <trkpt lat="48.39085" lon="2.72474">
        <ele>126</ele>
        <time>2022-08-31T14:56:10.281Z</time>
      </trkpt>
      <trkpt lat="48.39084" lon="2.72491">
        <ele>126</ele>
        <time>2022-08-31T14:56:14.280Z</time>
      </trkpt>
      <trkpt lat="48.39083" lon="2.72507">
        <ele>125</ele>
        <time>2022-08-31T14:56:18.261Z</time>
      </trkpt>
      <trkpt lat="48.39082" lon="2.72523">
        <ele>125</ele>
        <time>2022-08-31T14:56:23.262Z</time>
      </trkpt>
      <trkpt lat="48.39082" lon="2.7254">
        <ele>125</ele>
        <time>2022-08-31T14:56:28.282Z</time>
      </trkpt>
      <trkpt lat="48.39083" lon="2.72554">
        <ele>125</ele>
        <time>2022-08-31T14:56:32.275Z</time>
      </trkpt>
      <trkpt lat="48.39086" lon="2.72568">
        <ele>125</ele>
        <time>2022-08-31T14:56:37.284Z</time>
      </trkpt>
      <trkpt lat="48.39089" lon="2.72582">
        <ele>125</ele>
        <time>2022-08-31T14:56:41.278Z</time>
      </trkpt>
      <trkpt lat="48.39093" lon="2.72597">
        <ele>124</ele>
        <time>2022-08-31T14:56:45.280Z</time>
      </trkpt>
      <trkpt lat="48.39098" lon="2.72611">
        <ele>124</ele>
        <time>2022-08-31T14:56:49.272Z</time>
      </trkpt>
      <trkpt lat="48.39101" lon="2.72624">
        <ele>124</ele>
        <time>2022-08-31T14:56:54.261Z</time>
      </trkpt>
      <trkpt lat="48.391" lon="2.72638">
        <ele>125</ele>
        <time>2022-08-31T14:57:06.274Z</time>
      </trkpt>
      <trkpt lat="48.39101" lon="2.72653">
        <ele>126</ele>
        <time>2022-08-31T14:57:14.270Z</time>
      </trkpt>
      <trkpt lat="48.39105" lon="2.72667">
        <ele>127</ele>
        <time>2022-08-31T14:57:24.274Z</time>
      </trkpt>
      <trkpt lat="48.3911" lon="2.72681">
        <ele>127</ele>
        <time>2022-08-31T14:57:28.268Z</time>
      </trkpt>
      <trkpt lat="48.39114" lon="2.72698">
        <ele>127</ele>
        <time>2022-08-31T14:57:32.280Z</time>
      </trkpt>
      <trkpt lat="48.39117" lon="2.7271">
        <ele>128</ele>
        <time>2022-08-31T14:57:36.282Z</time>
      </trkpt>
      <trkpt lat="48.3912" lon="2.72723">
        <ele>128</ele>
        <time>2022-08-31T14:57:41.279Z</time>
      </trkpt>
      <trkpt lat="48.39123" lon="2.72738">
        <ele>128</ele>
        <time>2022-08-31T14:57:45.277Z</time>
      </trkpt>
      <trkpt lat="48.39125" lon="2.72752">
        <ele>127</ele>
        <time>2022-08-31T14:57:49.265Z</time>
      </trkpt>
      <trkpt lat="48.39128" lon="2.72765">
        <ele>127</ele>
        <time>2022-08-31T14:57:53.281Z</time>
      </trkpt>
      <trkpt lat="48.3913" lon="2.72779">
        <ele>126</ele>
        <time>2022-08-31T14:57:57.279Z</time>
      </trkpt>
      <trkpt lat="48.39132" lon="2.72793">
        <ele>126</ele>
        <time>2022-08-31T14:58:01.256Z</time>
      </trkpt>
      <trkpt lat="48.39135" lon="2.72808">
        <ele>125</ele>
        <time>2022-08-31T14:58:06.279Z</time>
      </trkpt>
      <trkpt lat="48.39139" lon="2.72824">
        <ele>125</ele>
        <time>2022-08-31T14:58:11.269Z</time>
      </trkpt>
      <trkpt lat="48.39144" lon="2.72835">
        <ele>124</ele>
        <time>2022-08-31T14:58:15.264Z</time>
      </trkpt>
      <trkpt lat="48.39148" lon="2.7285">
        <ele>124</ele>
        <time>2022-08-31T14:58:20.278Z</time>
      </trkpt>
      <trkpt lat="48.39148" lon="2.72856">
        <ele>124</ele>
        <time>2022-08-31T14:58:26.272Z</time>
      </trkpt>
      <trkpt lat="48.39151" lon="2.72861">
        <ele>125</ele>
        <time>2022-08-31T14:58:54.282Z</time>
      </trkpt>
      <trkpt lat="48.39159" lon="2.72869">
        <ele>126</ele>
        <time>2022-08-31T14:59:01.276Z</time>
      </trkpt>
      <trkpt lat="48.39165" lon="2.72879">
        <ele>126</ele>
        <time>2022-08-31T14:59:08.285Z</time>
      </trkpt>
      <trkpt lat="48.39172" lon="2.72888">
        <ele>126</ele>
        <time>2022-08-31T14:59:15.265Z</time>
      </trkpt>
      <trkpt lat="48.39179" lon="2.72896">
        <ele>127</ele>
        <time>2022-08-31T14:59:22.271Z</time>
      </trkpt>
      <trkpt lat="48.39188" lon="2.72902">
        <ele>128</ele>
        <time>2022-08-31T14:59:29.275Z</time>
      </trkpt>
      <trkpt lat="48.39196" lon="2.7291">
        <ele>129</ele>
        <time>2022-08-31T14:59:37.266Z</time>
      </trkpt>
      <trkpt lat="48.39204" lon="2.72917">
        <ele>130</ele>
        <time>2022-08-31T14:59:43.262Z</time>
      </trkpt>
      <trkpt lat="48.39213" lon="2.72926">
        <ele>131</ele>
        <time>2022-08-31T14:59:51.268Z</time>
      </trkpt>
      <trkpt lat="48.39221" lon="2.72935">
        <ele>131</ele>
        <time>2022-08-31T14:59:59.277Z</time>
      </trkpt>
      <trkpt lat="48.39229" lon="2.72932">
        <ele>132</ele>
        <time>2022-08-31T15:00:11.271Z</time>
      </trkpt>
      <trkpt lat="48.39237" lon="2.72924">
        <ele>133</ele>
        <time>2022-08-31T15:00:25.264Z</time>
      </trkpt>
      <trkpt lat="48.39245" lon="2.72915">
        <ele>135</ele>
        <time>2022-08-31T15:00:41.270Z</time>
      </trkpt>
      <trkpt lat="48.39254" lon="2.72912">
        <ele>136</ele>
        <time>2022-08-31T15:00:52.270Z</time>
      </trkpt>
      <trkpt lat="48.39261" lon="2.72903">
        <ele>139</ele>
        <time>2022-08-31T15:01:02.280Z</time>
      </trkpt>
      <trkpt lat="48.39269" lon="2.72895">
        <ele>141</ele>
        <time>2022-08-31T15:01:17.271Z</time>
      </trkpt>
      <trkpt lat="48.39264" lon="2.72908">
        <ele>142</ele>
        <time>2022-08-31T15:01:28.265Z</time>
      </trkpt>
      <trkpt lat="48.39261" lon="2.72922">
        <ele>142</ele>
        <time>2022-08-31T15:01:34.277Z</time>
      </trkpt>
      <trkpt lat="48.39263" lon="2.72936">
        <ele>142</ele>
        <time>2022-08-31T15:01:41.260Z</time>
      </trkpt>
      <trkpt lat="48.39266" lon="2.7295">
        <ele>142</ele>
        <time>2022-08-31T15:01:51.282Z</time>
      </trkpt>
      <trkpt lat="48.3927" lon="2.72966">
        <ele>142</ele>
        <time>2022-08-31T15:01:57.276Z</time>
      </trkpt>
      <trkpt lat="48.39266" lon="2.7298">
        <ele>142</ele>
        <time>2022-08-31T15:02:02.273Z</time>
      </trkpt>
      <trkpt lat="48.39265" lon="2.72995">
        <ele>142</ele>
        <time>2022-08-31T15:02:07.271Z</time>
      </trkpt>
      <trkpt lat="48.39263" lon="2.73005">
        <ele>142</ele>
        <time>2022-08-31T15:02:13.283Z</time>
      </trkpt>
      <trkpt lat="48.39262" lon="2.73015">
        <ele>141</ele>
        <time>2022-08-31T15:02:19.270Z</time>
      </trkpt>
      <trkpt lat="48.39259" lon="2.7303">
        <ele>141</ele>
        <time>2022-08-31T15:02:24.281Z</time>
      </trkpt>
      <trkpt lat="48.39256" lon="2.73045">
        <ele>141</ele>
        <time>2022-08-31T15:02:32.282Z</time>
      </trkpt>
      <trkpt lat="48.39251" lon="2.73056">
        <ele>141</ele>
        <time>2022-08-31T15:02:39.273Z</time>
      </trkpt>
      <trkpt lat="48.39244" lon="2.73067">
        <ele>142</ele>
        <time>2022-08-31T15:02:49.271Z</time>
      </trkpt>
      <trkpt lat="48.39244" lon="2.73081">
        <ele>143</ele>
        <time>2022-08-31T15:02:58.277Z</time>
      </trkpt>
      <trkpt lat="48.39241" lon="2.73094">
        <ele>143</ele>
        <time>2022-08-31T15:03:06.271Z</time>
      </trkpt>
      <trkpt lat="48.39241" lon="2.73108">
        <ele>144</ele>
        <time>2022-08-31T15:03:12.276Z</time>
      </trkpt>
      <trkpt lat="48.39234" lon="2.73117">
        <ele>144</ele>
        <time>2022-08-31T15:03:20.271Z</time>
      </trkpt>
      <trkpt lat="48.39226" lon="2.73124">
        <ele>143</ele>
        <time>2022-08-31T15:03:29.276Z</time>
      </trkpt>
      <trkpt lat="48.39218" lon="2.73134">
        <ele>142</ele>
        <time>2022-08-31T15:03:38.275Z</time>
      </trkpt>
      <trkpt lat="48.39212" lon="2.73145">
        <ele>141</ele>
        <time>2022-08-31T15:03:42.264Z</time>
      </trkpt>
      <trkpt lat="48.39206" lon="2.73159">
        <ele>141</ele>
        <time>2022-08-31T15:03:47.268Z</time>
      </trkpt>
      <trkpt lat="48.39204" lon="2.73173">
        <ele>141</ele>
        <time>2022-08-31T15:03:52.271Z</time>
      </trkpt>
      <trkpt lat="48.3921" lon="2.73188">
        <ele>141</ele>
        <time>2022-08-31T15:03:57.269Z</time>
      </trkpt>
      <trkpt lat="48.39215" lon="2.732">
        <ele>141</ele>
        <time>2022-08-31T15:04:02.275Z</time>
      </trkpt>
      <trkpt lat="48.39211" lon="2.73213">
        <ele>140</ele>
        <time>2022-08-31T15:04:07.274Z</time>
      </trkpt>
      <trkpt lat="48.39212" lon="2.73228">
        <ele>140</ele>
        <time>2022-08-31T15:04:12.269Z</time>
      </trkpt>
      <trkpt lat="48.39211" lon="2.73242">
        <ele>141</ele>
        <time>2022-08-31T15:04:17.286Z</time>
      </trkpt>
      <trkpt lat="48.39214" lon="2.73256">
        <ele>141</ele>
        <time>2022-08-31T15:04:24.280Z</time>
      </trkpt>
      <trkpt lat="48.39224" lon="2.73261">
        <ele>141</ele>
        <time>2022-08-31T15:04:30.264Z</time>
      </trkpt>
      <trkpt lat="48.39219" lon="2.73276">
        <ele>142</ele>
        <time>2022-08-31T15:04:36.276Z</time>
      </trkpt>
      <trkpt lat="48.39209" lon="2.73281">
        <ele>142</ele>
        <time>2022-08-31T15:04:39.281Z</time>
      </trkpt>
      <trkpt lat="48.39201" lon="2.73288">
        <ele>142</ele>
        <time>2022-08-31T15:04:42.276Z</time>
      </trkpt>
      <trkpt lat="48.39201" lon="2.73305">
        <ele>142</ele>
        <time>2022-08-31T15:04:47.259Z</time>
      </trkpt>
      <trkpt lat="48.39202" lon="2.7332">
        <ele>141</ele>
        <time>2022-08-31T15:04:51.279Z</time>
      </trkpt>
      <trkpt lat="48.392" lon="2.73334">
        <ele>141</ele>
        <time>2022-08-31T15:04:56.274Z</time>
      </trkpt>
      <trkpt lat="48.39195" lon="2.73347">
        <ele>140</ele>
        <time>2022-08-31T15:05:01.264Z</time>
      </trkpt>
      <trkpt lat="48.39195" lon="2.73349">
        <ele>140</ele>
        <time>2022-08-31T15:05:02.268Z</time>
      </trkpt>
      <trkpt lat="48.39194" lon="2.73354">
        <ele>138</ele>
        <time>2022-08-31T15:05:20.275Z</time>
      </trkpt>
      <trkpt lat="48.39193" lon="2.73355">
        <ele>137</ele>
        <time>2022-08-31T15:05:26.251Z</time>
      </trkpt>
      <trkpt lat="48.39189" lon="2.73353">
        <ele>135</ele>
        <time>2022-08-31T15:05:47.275Z</time>
      </trkpt>
      <trkpt lat="48.39183" lon="2.73342">
        <ele>134</ele>
        <time>2022-08-31T15:06:00.274Z</time>
      </trkpt>
      <trkpt lat="48.39178" lon="2.73331">
        <ele>134</ele>
        <time>2022-08-31T15:06:09.275Z</time>
      </trkpt>
      <trkpt lat="48.39178" lon="2.73339">
        <ele>133</ele>
        <time>2022-08-31T15:06:21.272Z</time>
      </trkpt>
      <trkpt lat="48.39183" lon="2.73351">
        <ele>133</ele>
        <time>2022-08-31T15:06:26.276Z</time>
      </trkpt>
      <trkpt lat="48.39193" lon="2.73361">
        <ele>133</ele>
        <time>2022-08-31T15:06:30.276Z</time>
      </trkpt>
      <trkpt lat="48.39203" lon="2.73367">
        <ele>132</ele>
        <time>2022-08-31T15:06:34.271Z</time>
      </trkpt>
      <trkpt lat="48.39214" lon="2.73377">
        <ele>132</ele>
        <time>2022-08-31T15:06:37.260Z</time>
      </trkpt>
      <trkpt lat="48.39225" lon="2.73392">
        <ele>132</ele>
        <time>2022-08-31T15:06:40.272Z</time>
      </trkpt>
      <trkpt lat="48.39234" lon="2.7341">
        <ele>131</ele>
        <time>2022-08-31T15:06:47.257Z</time>
      </trkpt>
      <trkpt lat="48.39235" lon="2.73418">
        <ele>125</ele>
        <time>2022-08-31T15:07:07.274Z</time>
      </trkpt>
      <trkpt lat="48.39241" lon="2.73429">
        <ele>124</ele>
        <time>2022-08-31T15:07:11.271Z</time>
      </trkpt>
      <trkpt lat="48.39247" lon="2.73443">
        <ele>123</ele>
        <time>2022-08-31T15:07:15.272Z</time>
      </trkpt>
      <trkpt lat="48.39252" lon="2.73459">
        <ele>123</ele>
        <time>2022-08-31T15:07:19.266Z</time>
      </trkpt>
      <trkpt lat="48.39257" lon="2.73472">
        <ele>122</ele>
        <time>2022-08-31T15:07:22.270Z</time>
      </trkpt>
      <trkpt lat="48.39263" lon="2.73485">
        <ele>121</ele>
        <time>2022-08-31T15:07:25.272Z</time>
      </trkpt>
      <trkpt lat="48.39271" lon="2.73503">
        <ele>121</ele>
        <time>2022-08-31T15:07:29.284Z</time>
      </trkpt>
      <trkpt lat="48.3928" lon="2.73519">
        <ele>120</ele>
        <time>2022-08-31T15:07:33.273Z</time>
      </trkpt>
      <trkpt lat="48.39289" lon="2.73537">
        <ele>120</ele>
        <time>2022-08-31T15:07:37.269Z</time>
      </trkpt>
      <trkpt lat="48.39298" lon="2.73553">
        <ele>120</ele>
        <time>2022-08-31T15:07:41.264Z</time>
      </trkpt>
      <trkpt lat="48.39308" lon="2.7357">
        <ele>120</ele>
        <time>2022-08-31T15:07:45.267Z</time>
      </trkpt>
      <trkpt lat="48.3932" lon="2.73586">
        <ele>120</ele>
        <time>2022-08-31T15:07:50.273Z</time>
      </trkpt>
      <trkpt lat="48.39329" lon="2.73598">
        <ele>121</ele>
        <time>2022-08-31T15:07:55.259Z</time>
      </trkpt>
      <trkpt lat="48.39338" lon="2.73611">
        <ele>121</ele>
        <time>2022-08-31T15:07:59.281Z</time>
      </trkpt>
      <trkpt lat="48.39344" lon="2.73624">
        <ele>122</ele>
        <time>2022-08-31T15:08:03.261Z</time>
      </trkpt>
      <trkpt lat="48.3935" lon="2.73637">
        <ele>122</ele>
        <time>2022-08-31T15:08:07.272Z</time>
      </trkpt>
      <trkpt lat="48.39358" lon="2.7365">
        <ele>123</ele>
        <time>2022-08-31T15:08:11.270Z</time>
      </trkpt>
      <trkpt lat="48.39366" lon="2.73661">
        <ele>123</ele>
        <time>2022-08-31T15:08:14.278Z</time>
      </trkpt>
      <trkpt lat="48.39374" lon="2.73676">
        <ele>123</ele>
        <time>2022-08-31T15:08:18.312Z</time>
      </trkpt>
      <trkpt lat="48.39383" lon="2.73691">
        <ele>124</ele>
        <time>2022-08-31T15:08:22.280Z</time>
      </trkpt>
      <trkpt lat="48.39395" lon="2.73708">
        <ele>124</ele>
        <time>2022-08-31T15:08:26.259Z</time>
      </trkpt>
      <trkpt lat="48.39407" lon="2.73727">
        <ele>124</ele>
        <time>2022-08-31T15:08:29.274Z</time>
      </trkpt>
      <trkpt lat="48.39418" lon="2.73751">
        <ele>124</ele>
        <time>2022-08-31T15:08:33.275Z</time>
      </trkpt>
      <trkpt lat="48.39433" lon="2.73779">
        <ele>124</ele>
        <time>2022-08-31T15:08:38.265Z</time>
      </trkpt>
      <trkpt lat="48.39446" lon="2.73801">
        <ele>124</ele>
        <time>2022-08-31T15:08:43.273Z</time>
      </trkpt>
      <trkpt lat="48.39457" lon="2.73821">
        <ele>123</ele>
        <time>2022-08-31T15:08:48.278Z</time>
      </trkpt>
      <trkpt lat="48.39466" lon="2.73843">
        <ele>123</ele>
        <time>2022-08-31T15:08:53.274Z</time>
      </trkpt>
      <trkpt lat="48.39475" lon="2.7386">
        <ele>122</ele>
        <time>2022-08-31T15:08:57.274Z</time>
      </trkpt>
      <trkpt lat="48.39485" lon="2.73874">
        <ele>122</ele>
        <time>2022-08-31T15:09:00.267Z</time>
      </trkpt>
      <trkpt lat="48.39495" lon="2.73889">
        <ele>121</ele>
        <time>2022-08-31T15:09:03.274Z</time>
      </trkpt>
      <trkpt lat="48.39507" lon="2.73907">
        <ele>121</ele>
        <time>2022-08-31T15:09:07.270Z</time>
      </trkpt>
      <trkpt lat="48.39522" lon="2.73932">
        <ele>120</ele>
        <time>2022-08-31T15:09:12.273Z</time>
      </trkpt>
      <trkpt lat="48.39535" lon="2.73952">
        <ele>119</ele>
        <time>2022-08-31T15:09:17.260Z</time>
      </trkpt>
      <trkpt lat="48.39545" lon="2.7397">
        <ele>118</ele>
        <time>2022-08-31T15:09:23.255Z</time>
      </trkpt>
      <trkpt lat="48.39549" lon="2.73975">
        <ele>117</ele>
        <time>2022-08-31T15:09:28.277Z</time>
      </trkpt>
      <trkpt lat="48.39556" lon="2.73987">
        <ele>115</ele>
        <time>2022-08-31T15:09:55.275Z</time>
      </trkpt>
      <trkpt lat="48.39563" lon="2.73997">
        <ele>115</ele>
        <time>2022-08-31T15:10:01.260Z</time>
      </trkpt>
      <trkpt lat="48.39564" lon="2.74">
        <ele>116</ele>
        <time>2022-08-31T15:10:07.282Z</time>
      </trkpt>
      <trkpt lat="48.39567" lon="2.74012">
        <ele>117</ele>
        <time>2022-08-31T15:10:19.271Z</time>
      </trkpt>
      <trkpt lat="48.39576" lon="2.74017">
        <ele>117</ele>
        <time>2022-08-31T15:10:26.267Z</time>
      </trkpt>
      <trkpt lat="48.39585" lon="2.74022">
        <ele>117</ele>
        <time>2022-08-31T15:10:39.259Z</time>
      </trkpt>
      <trkpt lat="48.39591" lon="2.74035">
        <ele>117</ele>
        <time>2022-08-31T15:10:43.281Z</time>
      </trkpt>
      <trkpt lat="48.39597" lon="2.74048">
        <ele>117</ele>
        <time>2022-08-31T15:10:46.262Z</time>
      </trkpt>
      <trkpt lat="48.39605" lon="2.74063">
        <ele>117</ele>
        <time>2022-08-31T15:10:49.267Z</time>
      </trkpt>
      <trkpt lat="48.39613" lon="2.74078">
        <ele>117</ele>
        <time>2022-08-31T15:10:52.257Z</time>
      </trkpt>
      <trkpt lat="48.39623" lon="2.74094">
        <ele>117</ele>
        <time>2022-08-31T15:10:56.264Z</time>
      </trkpt>
      <trkpt lat="48.39638" lon="2.74112">
        <ele>117</ele>
        <time>2022-08-31T15:11:01.267Z</time>
      </trkpt>
      <trkpt lat="48.39649" lon="2.741">
        <ele>118</ele>
        <time>2022-08-31T15:11:05.262Z</time>
      </trkpt>
      <trkpt lat="48.39656" lon="2.7408">
        <ele>118</ele>
        <time>2022-08-31T15:11:09.264Z</time>
      </trkpt>
      <trkpt lat="48.39661" lon="2.74059">
        <ele>118</ele>
        <time>2022-08-31T15:11:13.260Z</time>
      </trkpt>
      <trkpt lat="48.39667" lon="2.74038">
        <ele>117</ele>
        <time>2022-08-31T15:11:17.268Z</time>
      </trkpt>
      <trkpt lat="48.39674" lon="2.74015">
        <ele>117</ele>
        <time>2022-08-31T15:11:22.263Z</time>
      </trkpt>
      <trkpt lat="48.3968" lon="2.73996">
        <ele>116</ele>
        <time>2022-08-31T15:11:27.266Z</time>
      </trkpt>
      <trkpt lat="48.39686" lon="2.73976">
        <ele>116</ele>
        <time>2022-08-31T15:11:31.268Z</time>
      </trkpt>
      <trkpt lat="48.39691" lon="2.73959">
        <ele>116</ele>
        <time>2022-08-31T15:11:34.283Z</time>
      </trkpt>
      <trkpt lat="48.39697" lon="2.73938">
        <ele>115</ele>
        <time>2022-08-31T15:11:39.274Z</time>
      </trkpt>
      <trkpt lat="48.39704" lon="2.73919">
        <ele>115</ele>
        <time>2022-08-31T15:11:44.266Z</time>
      </trkpt>
      <trkpt lat="48.39709" lon="2.73903">
        <ele>114</ele>
        <time>2022-08-31T15:11:48.267Z</time>
      </trkpt>
      <trkpt lat="48.39714" lon="2.73886">
        <ele>113</ele>
        <time>2022-08-31T15:11:51.265Z</time>
      </trkpt>
      <trkpt lat="48.39718" lon="2.73866">
        <ele>113</ele>
        <time>2022-08-31T15:11:55.280Z</time>
      </trkpt>
      <trkpt lat="48.39724" lon="2.73846">
        <ele>112</ele>
        <time>2022-08-31T15:11:59.279Z</time>
      </trkpt>
      <trkpt lat="48.39731" lon="2.73824">
        <ele>112</ele>
        <time>2022-08-31T15:12:03.271Z</time>
      </trkpt>
      <trkpt lat="48.39739" lon="2.73805">
        <ele>112</ele>
        <time>2022-08-31T15:12:07.269Z</time>
      </trkpt>
      <trkpt lat="48.39746" lon="2.73785">
        <ele>112</ele>
        <time>2022-08-31T15:12:11.270Z</time>
      </trkpt>
      <trkpt lat="48.39756" lon="2.73763">
        <ele>112</ele>
        <time>2022-08-31T15:12:16.277Z</time>
      </trkpt>
      <trkpt lat="48.39763" lon="2.73746">
        <ele>112</ele>
        <time>2022-08-31T15:12:20.261Z</time>
      </trkpt>
      <trkpt lat="48.3977" lon="2.73728">
        <ele>112</ele>
        <time>2022-08-31T15:12:24.272Z</time>
      </trkpt>
      <trkpt lat="48.39776" lon="2.7371">
        <ele>113</ele>
        <time>2022-08-31T15:12:28.268Z</time>
      </trkpt>
      <trkpt lat="48.39784" lon="2.73693">
        <ele>113</ele>
        <time>2022-08-31T15:12:33.272Z</time>
      </trkpt>
      <trkpt lat="48.39791" lon="2.73677">
        <ele>114</ele>
        <time>2022-08-31T15:12:37.270Z</time>
      </trkpt>
      <trkpt lat="48.39796" lon="2.73662">
        <ele>114</ele>
        <time>2022-08-31T15:12:41.273Z</time>
      </trkpt>
      <trkpt lat="48.39803" lon="2.73647">
        <ele>115</ele>
        <time>2022-08-31T15:12:46.273Z</time>
      </trkpt>
      <trkpt lat="48.39809" lon="2.73632">
        <ele>116</ele>
        <time>2022-08-31T15:12:49.264Z</time>
      </trkpt>
      <trkpt lat="48.39814" lon="2.7362">
        <ele>116</ele>
        <time>2022-08-31T15:12:52.270Z</time>
      </trkpt>
      <trkpt lat="48.39821" lon="2.73607">
        <ele>117</ele>
        <time>2022-08-31T15:12:56.282Z</time>
      </trkpt>
      <trkpt lat="48.39827" lon="2.73594">
        <ele>118</ele>
        <time>2022-08-31T15:13:00.261Z</time>
      </trkpt>
      <trkpt lat="48.39833" lon="2.73579">
        <ele>119</ele>
        <time>2022-08-31T15:13:04.277Z</time>
      </trkpt>
      <trkpt lat="48.39839" lon="2.73566">
        <ele>120</ele>
        <time>2022-08-31T15:13:08.261Z</time>
      </trkpt>
      <trkpt lat="48.39846" lon="2.73553">
        <ele>120</ele>
        <time>2022-08-31T15:13:12.277Z</time>
      </trkpt>
      <trkpt lat="48.39854" lon="2.73544">
        <ele>121</ele>
        <time>2022-08-31T15:13:16.268Z</time>
      </trkpt>
      <trkpt lat="48.39863" lon="2.73554">
        <ele>121</ele>
        <time>2022-08-31T15:13:21.269Z</time>
      </trkpt>
      <trkpt lat="48.3987" lon="2.73564">
        <ele>121</ele>
        <time>2022-08-31T15:13:25.274Z</time>
      </trkpt>
      <trkpt lat="48.39878" lon="2.73574">
        <ele>121</ele>
        <time>2022-08-31T15:13:29.264Z</time>
      </trkpt>
      <trkpt lat="48.39883" lon="2.73587">
        <ele>121</ele>
        <time>2022-08-31T15:13:34.259Z</time>
      </trkpt>
      <trkpt lat="48.39887" lon="2.73591">
        <ele>121</ele>
        <time>2022-08-31T15:13:40.254Z</time>
      </trkpt>
      <trkpt lat="48.39889" lon="2.73596">
        <ele>119</ele>
        <time>2022-08-31T15:13:51.265Z</time>
      </trkpt>
      <trkpt lat="48.39896" lon="2.73611">
        <ele>119</ele>
        <time>2022-08-31T15:13:56.276Z</time>
      </trkpt>
      <trkpt lat="48.39904" lon="2.73624">
        <ele>118</ele>
        <time>2022-08-31T15:14:00.272Z</time>
      </trkpt>
      <trkpt lat="48.39911" lon="2.73634">
        <ele>118</ele>
        <time>2022-08-31T15:14:04.267Z</time>
      </trkpt>
      <trkpt lat="48.39918" lon="2.73646">
        <ele>118</ele>
        <time>2022-08-31T15:14:08.263Z</time>
      </trkpt>
      <trkpt lat="48.39925" lon="2.73657">
        <ele>119</ele>
        <time>2022-08-31T15:14:11.271Z</time>
      </trkpt>
      <trkpt lat="48.39934" lon="2.7367">
        <ele>119</ele>
        <time>2022-08-31T15:14:15.269Z</time>
      </trkpt>
      <trkpt lat="48.39941" lon="2.73682">
        <ele>119</ele>
        <time>2022-08-31T15:14:19.277Z</time>
      </trkpt>
      <trkpt lat="48.39951" lon="2.73688">
        <ele>120</ele>
        <time>2022-08-31T15:14:24.263Z</time>
      </trkpt>
      <trkpt lat="48.39961" lon="2.73686">
        <ele>120</ele>
        <time>2022-08-31T15:14:27.259Z</time>
      </trkpt>
      <trkpt lat="48.39971" lon="2.73685">
        <ele>121</ele>
        <time>2022-08-31T15:14:30.275Z</time>
      </trkpt>
      <trkpt lat="48.39982" lon="2.73684">
        <ele>122</ele>
        <time>2022-08-31T15:14:35.274Z</time>
      </trkpt>
      <trkpt lat="48.39993" lon="2.73683">
        <ele>123</ele>
        <time>2022-08-31T15:14:39.287Z</time>
      </trkpt>
      <trkpt lat="48.40004" lon="2.73682">
        <ele>125</ele>
        <time>2022-08-31T15:14:44.270Z</time>
      </trkpt>
      <trkpt lat="48.40013" lon="2.73681">
        <ele>126</ele>
        <time>2022-08-31T15:14:51.265Z</time>
      </trkpt>
      <trkpt lat="48.40023" lon="2.73678">
        <ele>128</ele>
        <time>2022-08-31T15:14:59.274Z</time>
      </trkpt>
      <trkpt lat="48.40032" lon="2.73672">
        <ele>130</ele>
        <time>2022-08-31T15:15:07.275Z</time>
      </trkpt>
      <trkpt lat="48.40041" lon="2.73667">
        <ele>131</ele>
        <time>2022-08-31T15:15:13.271Z</time>
      </trkpt>
      <trkpt lat="48.40051" lon="2.73665">
        <ele>133</ele>
        <time>2022-08-31T15:15:21.270Z</time>
      </trkpt>
      <trkpt lat="48.40061" lon="2.73663">
        <ele>134</ele>
        <time>2022-08-31T15:15:30.266Z</time>
      </trkpt>
      <trkpt lat="48.4007" lon="2.73663">
        <ele>135</ele>
        <time>2022-08-31T15:15:40.264Z</time>
      </trkpt>
      <trkpt lat="48.40076" lon="2.73652">
        <ele>135</ele>
        <time>2022-08-31T15:15:45.281Z</time>
      </trkpt>
      <trkpt lat="48.40079" lon="2.73637">
        <ele>136</ele>
        <time>2022-08-31T15:15:49.276Z</time>
      </trkpt>
      <trkpt lat="48.40081" lon="2.73623">
        <ele>136</ele>
        <time>2022-08-31T15:15:52.264Z</time>
      </trkpt>
      <trkpt lat="48.40083" lon="2.73609">
        <ele>136</ele>
        <time>2022-08-31T15:15:55.266Z</time>
      </trkpt>
      <trkpt lat="48.40084" lon="2.73594">
        <ele>136</ele>
        <time>2022-08-31T15:15:57.256Z</time>
      </trkpt>
      <trkpt lat="48.40087" lon="2.73573">
        <ele>135</ele>
        <time>2022-08-31T15:16:01.277Z</time>
      </trkpt>
      <trkpt lat="48.4009" lon="2.73557">
        <ele>135</ele>
        <time>2022-08-31T15:16:08.266Z</time>
      </trkpt>
      <trkpt lat="48.40099" lon="2.73555">
        <ele>134</ele>
        <time>2022-08-31T15:16:17.270Z</time>
      </trkpt>
      <trkpt lat="48.40105" lon="2.73544">
        <ele>133</ele>
        <time>2022-08-31T15:16:26.297Z</time>
      </trkpt>
      <trkpt lat="48.40113" lon="2.73535">
        <ele>132</ele>
        <time>2022-08-31T15:16:34.263Z</time>
      </trkpt>
      <trkpt lat="48.40117" lon="2.73522">
        <ele>132</ele>
        <time>2022-08-31T15:16:45.275Z</time>
      </trkpt>
      <trkpt lat="48.40123" lon="2.7351">
        <ele>132</ele>
        <time>2022-08-31T15:16:49.262Z</time>
      </trkpt>
      <trkpt lat="48.4013" lon="2.73496">
        <ele>132</ele>
        <time>2022-08-31T15:16:53.269Z</time>
      </trkpt>
      <trkpt lat="48.40133" lon="2.73478">
        <ele>132</ele>
        <time>2022-08-31T15:16:56.268Z</time>
      </trkpt>
      <trkpt lat="48.40138" lon="2.73461">
        <ele>132</ele>
        <time>2022-08-31T15:17:00.263Z</time>
      </trkpt>
      <trkpt lat="48.40145" lon="2.73445">
        <ele>132</ele>
        <time>2022-08-31T15:17:04.267Z</time>
      </trkpt>
      <trkpt lat="48.40153" lon="2.7343">
        <ele>133</ele>
        <time>2022-08-31T15:17:08.267Z</time>
      </trkpt>
      <trkpt lat="48.40162" lon="2.7342">
        <ele>133</ele>
        <time>2022-08-31T15:17:14.243Z</time>
      </trkpt>
      <trkpt lat="48.40163" lon="2.73419">
        <ele>133</ele>
        <time>2022-08-31T15:17:17.272Z</time>
      </trkpt>
      <trkpt lat="48.40166" lon="2.73416">
        <ele>133</ele>
        <time>2022-08-31T15:17:20.260Z</time>
      </trkpt>
      <trkpt lat="48.40178" lon="2.73413">
        <ele>133</ele>
        <time>2022-08-31T15:17:24.269Z</time>
      </trkpt>
      <trkpt lat="48.40188" lon="2.73414">
        <ele>132</ele>
        <time>2022-08-31T15:17:27.271Z</time>
      </trkpt>
      <trkpt lat="48.40199" lon="2.73416">
        <ele>132</ele>
        <time>2022-08-31T15:17:31.255Z</time>
      </trkpt>
      <trkpt lat="48.40211" lon="2.73413">
        <ele>131</ele>
        <time>2022-08-31T15:17:35.268Z</time>
      </trkpt>
      <trkpt lat="48.40223" lon="2.73411">
        <ele>130</ele>
        <time>2022-08-31T15:17:39.262Z</time>
      </trkpt>
      <trkpt lat="48.40235" lon="2.73411">
        <ele>130</ele>
        <time>2022-08-31T15:17:42.268Z</time>
      </trkpt>
      <trkpt lat="48.40247" lon="2.73409">
        <ele>129</ele>
        <time>2022-08-31T15:17:45.257Z</time>
      </trkpt>
      <trkpt lat="48.40258" lon="2.73397">
        <ele>129</ele>
        <time>2022-08-31T15:17:49.253Z</time>
      </trkpt>
      <trkpt lat="48.40268" lon="2.73374">
        <ele>128</ele>
        <time>2022-08-31T15:17:52.273Z</time>
      </trkpt>
      <trkpt lat="48.40278" lon="2.73352">
        <ele>128</ele>
        <time>2022-08-31T15:17:55.270Z</time>
      </trkpt>
      <trkpt lat="48.40294" lon="2.73316">
        <ele>127</ele>
        <time>2022-08-31T15:17:59.266Z</time>
      </trkpt>
      <trkpt lat="48.40309" lon="2.7328">
        <ele>126</ele>
        <time>2022-08-31T15:18:03.269Z</time>
      </trkpt>
      <trkpt lat="48.40329" lon="2.73235">
        <ele>125</ele>
        <time>2022-08-31T15:18:08.261Z</time>
      </trkpt>
      <trkpt lat="48.40349" lon="2.73188">
        <ele>125</ele>
        <time>2022-08-31T15:18:13.281Z</time>
      </trkpt>
      <trkpt lat="48.40366" lon="2.73148">
        <ele>124</ele>
        <time>2022-08-31T15:18:18.266Z</time>
      </trkpt>
      <trkpt lat="48.40382" lon="2.73112">
        <ele>123</ele>
        <time>2022-08-31T15:18:23.269Z</time>
      </trkpt>
      <trkpt lat="48.40401" lon="2.73108">
        <ele>122</ele>
        <time>2022-08-31T15:18:30.261Z</time>
      </trkpt>
      <trkpt lat="48.40418" lon="2.73112">
        <ele>122</ele>
        <time>2022-08-31T15:18:34.274Z</time>
      </trkpt>
      <trkpt lat="48.40432" lon="2.73114">
        <ele>121</ele>
        <time>2022-08-31T15:18:37.276Z</time>
      </trkpt>
      <trkpt lat="48.40447" lon="2.73116">
        <ele>121</ele>
        <time>2022-08-31T15:18:40.272Z</time>
      </trkpt>
      <trkpt lat="48.40463" lon="2.73124">
        <ele>121</ele>
        <time>2022-08-31T15:18:46.273Z</time>
      </trkpt>
      <trkpt lat="48.40478" lon="2.73125">
        <ele>120</ele>
        <time>2022-08-31T15:18:50.265Z</time>
      </trkpt>
      <trkpt lat="48.40491" lon="2.73131">
        <ele>119</ele>
        <time>2022-08-31T15:18:54.277Z</time>
      </trkpt>
      <trkpt lat="48.40508" lon="2.73137">
        <ele>119</ele>
        <time>2022-08-31T15:18:57.263Z</time>
      </trkpt>
      <trkpt lat="48.40528" lon="2.73143">
        <ele>118</ele>
        <time>2022-08-31T15:19:01.259Z</time>
      </trkpt>
      <trkpt lat="48.40552" lon="2.73148">
        <ele>118</ele>
        <time>2022-08-31T15:19:05.260Z</time>
      </trkpt>
      <trkpt lat="48.40578" lon="2.73155">
        <ele>117</ele>
        <time>2022-08-31T15:19:10.269Z</time>
      </trkpt>
      <trkpt lat="48.40601" lon="2.73162">
        <ele>117</ele>
        <time>2022-08-31T15:19:14.264Z</time>
      </trkpt>
      <trkpt lat="48.40625" lon="2.7317">
        <ele>116</ele>
        <time>2022-08-31T15:19:18.274Z</time>
      </trkpt>
      <trkpt lat="48.40653" lon="2.73175">
        <ele>115</ele>
        <time>2022-08-31T15:19:23.262Z</time>
      </trkpt>
      <trkpt lat="48.40679" lon="2.73184">
        <ele>114</ele>
        <time>2022-08-31T15:19:28.269Z</time>
      </trkpt>
      <trkpt lat="48.40704" lon="2.73195">
        <ele>113</ele>
        <time>2022-08-31T15:19:33.274Z</time>
      </trkpt>
      <trkpt lat="48.40725" lon="2.732">
        <ele>112</ele>
        <time>2022-08-31T15:19:39.278Z</time>
      </trkpt>
      <trkpt lat="48.40741" lon="2.73204">
        <ele>112</ele>
        <time>2022-08-31T15:19:43.273Z</time>
      </trkpt>
      <trkpt lat="48.40757" lon="2.73209">
        <ele>111</ele>
        <time>2022-08-31T15:19:47.267Z</time>
      </trkpt>
      <trkpt lat="48.40773" lon="2.73215">
        <ele>111</ele>
        <time>2022-08-31T15:19:52.268Z</time>
      </trkpt>
      <trkpt lat="48.4079" lon="2.73217">
        <ele>111</ele>
        <time>2022-08-31T15:19:56.259Z</time>
      </trkpt>
      <trkpt lat="48.40806" lon="2.73215">
        <ele>112</ele>
        <time>2022-08-31T15:20:01.264Z</time>
      </trkpt>
      <trkpt lat="48.40822" lon="2.73215">
        <ele>112</ele>
        <time>2022-08-31T15:20:05.255Z</time>
      </trkpt>
      <trkpt lat="48.40841" lon="2.73217">
        <ele>113</ele>
        <time>2022-08-31T15:20:09.273Z</time>
      </trkpt>
      <trkpt lat="48.40859" lon="2.73217">
        <ele>113</ele>
        <time>2022-08-31T15:20:13.276Z</time>
      </trkpt>
      <trkpt lat="48.40882" lon="2.73219">
        <ele>114</ele>
        <time>2022-08-31T15:20:18.264Z</time>
      </trkpt>
      <trkpt lat="48.409" lon="2.73223">
        <ele>115</ele>
        <time>2022-08-31T15:20:22.265Z</time>
      </trkpt>
      <trkpt lat="48.4092" lon="2.73225">
        <ele>115</ele>
        <time>2022-08-31T15:20:26.265Z</time>
      </trkpt>
      <trkpt lat="48.4094" lon="2.73231">
        <ele>116</ele>
        <time>2022-08-31T15:20:31.263Z</time>
      </trkpt>
      <trkpt lat="48.40957" lon="2.73249">
        <ele>116</ele>
        <time>2022-08-31T15:20:36.263Z</time>
      </trkpt>
      <trkpt lat="48.40972" lon="2.73253">
        <ele>115</ele>
        <time>2022-08-31T15:20:41.261Z</time>
      </trkpt>
      <trkpt lat="48.40976" lon="2.73238">
        <ele>115</ele>
        <time>2022-08-31T15:20:47.265Z</time>
      </trkpt>
      <trkpt lat="48.40976" lon="2.73238">
        <ele>114</ele>
        <time>2022-08-31T15:20:49.268Z</time>
      </trkpt>
      <trkpt lat="48.40979" lon="2.73234">
        <ele>114</ele>
        <time>2022-08-31T15:20:52.266Z</time>
      </trkpt>
      <trkpt lat="48.40986" lon="2.73219">
        <ele>113</ele>
        <time>2022-08-31T15:20:55.257Z</time>
      </trkpt>
      <trkpt lat="48.40992" lon="2.73207">
        <ele>113</ele>
        <time>2022-08-31T15:20:57.257Z</time>
      </trkpt>
      <trkpt lat="48.41" lon="2.73192">
        <ele>113</ele>
        <time>2022-08-31T15:20:59.269Z</time>
      </trkpt>
      <trkpt lat="48.41009" lon="2.73177">
        <ele>112</ele>
        <time>2022-08-31T15:21:01.275Z</time>
      </trkpt>
      <trkpt lat="48.41024" lon="2.73156">
        <ele>111</ele>
        <time>2022-08-31T15:21:04.248Z</time>
      </trkpt>
      <trkpt lat="48.41044" lon="2.73119">
        <ele>110</ele>
        <time>2022-08-31T15:21:09.264Z</time>
      </trkpt>
      <trkpt lat="48.41065" lon="2.73087">
        <ele>108</ele>
        <time>2022-08-31T15:21:14.267Z</time>
      </trkpt>
      <trkpt lat="48.41091" lon="2.73079">
        <ele>107</ele>
        <time>2022-08-31T15:21:19.269Z</time>
      </trkpt>
      <trkpt lat="48.41113" lon="2.7307">
        <ele>104</ele>
        <time>2022-08-31T15:21:26.270Z</time>
      </trkpt>
      <trkpt lat="48.41127" lon="2.73053">
        <ele>103</ele>
        <time>2022-08-31T15:21:30.269Z</time>
      </trkpt>
      <trkpt lat="48.41141" lon="2.73032">
        <ele>101</ele>
        <time>2022-08-31T15:21:33.252Z</time>
      </trkpt>
      <trkpt lat="48.41155" lon="2.73012">
        <ele>100</ele>
        <time>2022-08-31T15:21:36.265Z</time>
      </trkpt>
      <trkpt lat="48.41174" lon="2.72983">
        <ele>97</ele>
        <time>2022-08-31T15:21:41.259Z</time>
      </trkpt>
      <trkpt lat="48.41177" lon="2.7298">
        <ele>95</ele>
        <time>2022-08-31T15:21:47.260Z</time>
      </trkpt>
      <trkpt lat="48.41181" lon="2.72977">
        <ele>92</ele>
        <time>2022-08-31T15:21:53.274Z</time>
      </trkpt>
      <trkpt lat="48.41187" lon="2.72962">
        <ele>91</ele>
        <time>2022-08-31T15:21:57.265Z</time>
      </trkpt>
      <trkpt lat="48.41196" lon="2.72947">
        <ele>90</ele>
        <time>2022-08-31T15:22:00.248Z</time>
      </trkpt>
      <trkpt lat="48.41203" lon="2.72936">
        <ele>89</ele>
        <time>2022-08-31T15:22:02.272Z</time>
      </trkpt>
      <trkpt lat="48.41213" lon="2.7292">
        <ele>89</ele>
        <time>2022-08-31T15:22:05.274Z</time>
      </trkpt>
      <trkpt lat="48.41227" lon="2.72898">
        <ele>88</ele>
        <time>2022-08-31T15:22:09.271Z</time>
      </trkpt>
      <trkpt lat="48.41241" lon="2.72876">
        <ele>88</ele>
        <time>2022-08-31T15:22:13.266Z</time>
      </trkpt>
      <trkpt lat="48.41255" lon="2.72851">
        <ele>87</ele>
        <time>2022-08-31T15:22:18.260Z</time>
      </trkpt>
      <trkpt lat="48.4127" lon="2.72824">
        <ele>87</ele>
        <time>2022-08-31T15:22:23.270Z</time>
      </trkpt>
      <trkpt lat="48.41284" lon="2.72803">
        <ele>87</ele>
        <time>2022-08-31T15:22:27.264Z</time>
      </trkpt>
      <trkpt lat="48.41298" lon="2.7278">
        <ele>87</ele>
        <time>2022-08-31T15:22:31.273Z</time>
      </trkpt>
      <trkpt lat="48.41315" lon="2.72754">
        <ele>87</ele>
        <time>2022-08-31T15:22:36.270Z</time>
      </trkpt>
      <trkpt lat="48.41329" lon="2.72731">
        <ele>87</ele>
        <time>2022-08-31T15:22:42.268Z</time>
      </trkpt>
      <trkpt lat="48.41329" lon="2.7273">
        <ele>87</ele>
        <time>2022-08-31T15:22:46.275Z</time>
      </trkpt>
      <trkpt lat="48.41328" lon="2.72721">
        <ele>87</ele>
        <time>2022-08-31T15:22:55.265Z</time>
      </trkpt>
      <trkpt lat="48.41322" lon="2.72707">
        <ele>87</ele>
        <time>2022-08-31T15:22:59.266Z</time>
      </trkpt>
      <trkpt lat="48.41317" lon="2.72695">
        <ele>87</ele>
        <time>2022-08-31T15:23:02.267Z</time>
      </trkpt>
      <trkpt lat="48.41311" lon="2.72679">
        <ele>87</ele>
        <time>2022-08-31T15:23:05.271Z</time>
      </trkpt>
      <trkpt lat="48.41303" lon="2.7266">
        <ele>88</ele>
        <time>2022-08-31T15:23:09.264Z</time>
      </trkpt>
      <trkpt lat="48.41298" lon="2.72651">
        <ele>89</ele>
        <time>2022-08-31T15:23:18.259Z</time>
      </trkpt>
      <trkpt lat="48.41301" lon="2.72647">
        <ele>90</ele>
        <time>2022-08-31T15:23:27.269Z</time>
      </trkpt>
      <trkpt lat="48.4131" lon="2.72641">
        <ele>92</ele>
        <time>2022-08-31T15:23:34.269Z</time>
      </trkpt>
      <trkpt lat="48.4131" lon="2.72639">
        <ele>94</ele>
        <time>2022-08-31T15:23:44.278Z</time>
      </trkpt>
      <trkpt lat="48.41314" lon="2.72633">
        <ele>95</ele>
        <time>2022-08-31T15:23:48.269Z</time>
      </trkpt>
      <trkpt lat="48.41322" lon="2.72625">
        <ele>95</ele>
        <time>2022-08-31T15:23:52.276Z</time>
      </trkpt>
      <trkpt lat="48.41332" lon="2.72624">
        <ele>96</ele>
        <time>2022-08-31T15:23:57.266Z</time>
      </trkpt>
      <trkpt lat="48.41344" lon="2.72625">
        <ele>96</ele>
        <time>2022-08-31T15:24:02.265Z</time>
      </trkpt>
      <trkpt lat="48.41354" lon="2.72628">
        <ele>97</ele>
        <time>2022-08-31T15:24:06.260Z</time>
      </trkpt>
      <trkpt lat="48.41363" lon="2.72631">
        <ele>97</ele>
        <time>2022-08-31T15:24:10.263Z</time>
      </trkpt>
      <trkpt lat="48.41372" lon="2.72631">
        <ele>97</ele>
        <time>2022-08-31T15:24:14.261Z</time>
      </trkpt>
      <trkpt lat="48.41384" lon="2.72632">
        <ele>97</ele>
        <time>2022-08-31T15:24:18.266Z</time>
      </trkpt>
      <trkpt lat="48.41392" lon="2.72639">
        <ele>97</ele>
        <time>2022-08-31T15:24:22.273Z</time>
      </trkpt>
      <trkpt lat="48.41398" lon="2.72652">
        <ele>98</ele>
        <time>2022-08-31T15:24:26.270Z</time>
      </trkpt>
      <trkpt lat="48.41405" lon="2.72662">
        <ele>99</ele>
        <time>2022-08-31T15:24:29.265Z</time>
      </trkpt>
      <trkpt lat="48.41415" lon="2.72671">
        <ele>99</ele>
        <time>2022-08-31T15:24:32.274Z</time>
      </trkpt>
      <trkpt lat="48.41428" lon="2.7268">
        <ele>100</ele>
        <time>2022-08-31T15:24:36.266Z</time>
      </trkpt>
      <trkpt lat="48.41439" lon="2.7269">
        <ele>101</ele>
        <time>2022-08-31T15:24:40.261Z</time>
      </trkpt>
      <trkpt lat="48.41451" lon="2.72697">
        <ele>103</ele>
        <time>2022-08-31T15:24:45.261Z</time>
      </trkpt>
      <trkpt lat="48.41463" lon="2.72701">
        <ele>103</ele>
        <time>2022-08-31T15:24:49.271Z</time>
      </trkpt>
      <trkpt lat="48.41474" lon="2.72707">
        <ele>104</ele>
        <time>2022-08-31T15:24:53.263Z</time>
      </trkpt>
      <trkpt lat="48.41485" lon="2.72712">
        <ele>104</ele>
        <time>2022-08-31T15:24:57.268Z</time>
      </trkpt>
      <trkpt lat="48.41494" lon="2.72715">
        <ele>104</ele>
        <time>2022-08-31T15:25:01.255Z</time>
      </trkpt>
      <trkpt lat="48.41503" lon="2.72718">
        <ele>104</ele>
        <time>2022-08-31T15:25:04.265Z</time>
      </trkpt>
      <trkpt lat="48.41515" lon="2.7272">
        <ele>104</ele>
        <time>2022-08-31T15:25:08.265Z</time>
      </trkpt>
      <trkpt lat="48.41525" lon="2.72722">
        <ele>104</ele>
        <time>2022-08-31T15:25:13.270Z</time>
      </trkpt>
      <trkpt lat="48.41532" lon="2.72722">
        <ele>103</ele>
        <time>2022-08-31T15:25:19.279Z</time>
      </trkpt>
      <trkpt lat="48.41535" lon="2.72719">
        <ele>102</ele>
        <time>2022-08-31T15:25:48.260Z</time>
      </trkpt>
      <trkpt lat="48.41542" lon="2.72709">
        <ele>106</ele>
        <time>2022-08-31T15:26:12.253Z</time>
      </trkpt>
      <trkpt lat="48.41549" lon="2.72699">
        <ele>108</ele>
        <time>2022-08-31T15:26:19.259Z</time>
      </trkpt>
      <trkpt lat="48.41557" lon="2.72693">
        <ele>110</ele>
        <time>2022-08-31T15:26:28.260Z</time>
      </trkpt>
      <trkpt lat="48.41566" lon="2.72692">
        <ele>111</ele>
        <time>2022-08-31T15:26:35.264Z</time>
      </trkpt>
      <trkpt lat="48.41575" lon="2.72686">
        <ele>112</ele>
        <time>2022-08-31T15:26:44.259Z</time>
      </trkpt>
      <trkpt lat="48.41579" lon="2.72673">
        <ele>113</ele>
        <time>2022-08-31T15:26:55.267Z</time>
      </trkpt>
      <trkpt lat="48.41585" lon="2.72681">
        <ele>113</ele>
        <time>2022-08-31T15:27:41.271Z</time>
      </trkpt>
      <trkpt lat="48.41593" lon="2.72647">
        <ele>112</ele>
        <time>2022-08-31T15:28:07.260Z</time>
      </trkpt>
      <trkpt lat="48.4159" lon="2.72636">
        <ele>111</ele>
        <time>2022-08-31T15:28:13.255Z</time>
      </trkpt>
      <trkpt lat="48.41594" lon="2.72634">
        <ele>106</ele>
        <time>2022-08-31T15:30:35.261Z</time>
      </trkpt>
      <trkpt lat="48.41593" lon="2.72626">
        <ele>108</ele>
        <time>2022-08-31T15:30:59.265Z</time>
      </trkpt>
      <trkpt lat="48.41598" lon="2.72637">
        <ele>112</ele>
        <time>2022-08-31T15:31:46.246Z</time>
      </trkpt>
      <trkpt lat="48.41597" lon="2.7264">
        <ele>112</ele>
        <time>2022-08-31T15:31:51.256Z</time>
      </trkpt>
      <trkpt lat="48.41597" lon="2.7264">
        <ele>77</ele>
        <time>2022-08-31T15:32:09.450Z</time>
      </trkpt>
    </trkseg>
  </trk>
</gpx>